<?xml version="1.0" encoding="UTF-8" standalone="no" ?>
<gpx xmlns="http://www.topografix.com/GPX/1/1" xmlns:xsi="http://www.w3.org/2001/XMLSchema-instance" xsi:schemaLocation="http://www.topografix.com/GPX/1/1 http://www.topografix.com/GPX/1/1/gpx.xsd" version="1.1" creator="VisuGPX - https://www.visugpx.com">
  <metadata>
    <name>2017-02-18 Monastère de Chalais</name>
    <desc><![CDATA[aller retour depuis Grenoble au petit monastère de Chalais pour acheter des biscuits de Chalais]]></desc>
  </metadata>
  <trk>
    <name><![CDATA[2017-02-18 15:57]]></name>
    <desc><![CDATA[<p>Heure de départ: 02/18/2017 15:57</p><p>Heure d'arrivée: 02/18/2017 17:20</p><p>Distance: 48,6 km (01:23)</p><p>Temps déplacement: 00:56</p><p>Vitesse moyenne: 35,11 km/h</p><p>Vitesse moyenne mouv.: 51,34 km/h</p><p>Vitesse Max.: 107,06km/h</p><p>Altitude minimale: 132 m</p><p>Altitude maximale: 906 m</p><p>Vitesse de montée: 1287,8 m/h</p><p>Vitesse de descente: -2515,4 m/h</p><p>Gain d'altitude: 888 m</p><p>Perte d'altitude: -909 m</p><p>Temps de montée: 00:41</p><p>Temps de descente: 00:21</p><hr align="center" width="480" style="height: 2px; width: 517px"/>]]></desc>
    <trkseg>
      <trkpt lat="45.20109" lon="5.71792">
        <ele>175.2</ele>
        <time>2017-02-18T14:57:10Z</time>
      </trkpt>
      <trkpt lat="45.20108" lon="5.71792">
        <ele>175.24</ele>
        <time>2017-02-18T14:57:11Z</time>
      </trkpt>
      <trkpt lat="45.20108" lon="5.71792">
        <ele>175.09</ele>
        <time>2017-02-18T14:57:12Z</time>
      </trkpt>
      <trkpt lat="45.20108" lon="5.71792">
        <ele>174.9</ele>
        <time>2017-02-18T14:57:13Z</time>
      </trkpt>
      <trkpt lat="45.20108" lon="5.71791">
        <ele>174.78</ele>
        <time>2017-02-18T14:57:14Z</time>
      </trkpt>
      <trkpt lat="45.20108" lon="5.71791">
        <ele>174.91</ele>
        <time>2017-02-18T14:57:15Z</time>
      </trkpt>
      <trkpt lat="45.20108" lon="5.71791">
        <ele>175.1</ele>
        <time>2017-02-18T14:57:16Z</time>
      </trkpt>
      <trkpt lat="45.20108" lon="5.71791">
        <ele>175.14</ele>
        <time>2017-02-18T14:57:17Z</time>
      </trkpt>
      <trkpt lat="45.20108" lon="5.7179">
        <ele>175.47</ele>
        <time>2017-02-18T14:57:18Z</time>
      </trkpt>
      <trkpt lat="45.20108" lon="5.71791">
        <ele>175.53</ele>
        <time>2017-02-18T14:57:19Z</time>
      </trkpt>
      <trkpt lat="45.20108" lon="5.71791">
        <ele>175.55</ele>
        <time>2017-02-18T14:57:20Z</time>
      </trkpt>
      <trkpt lat="45.20108" lon="5.7179">
        <ele>175.55</ele>
        <time>2017-02-18T14:57:21Z</time>
      </trkpt>
      <trkpt lat="45.20107" lon="5.7179">
        <ele>175.79</ele>
        <time>2017-02-18T14:57:22Z</time>
      </trkpt>
      <trkpt lat="45.20106" lon="5.71792">
        <ele>176.4</ele>
        <time>2017-02-18T14:57:23Z</time>
      </trkpt>
      <trkpt lat="45.20104" lon="5.71794">
        <ele>176.44</ele>
        <time>2017-02-18T14:57:24Z</time>
      </trkpt>
      <trkpt lat="45.20102" lon="5.71796">
        <ele>176.37</ele>
        <time>2017-02-18T14:57:25Z</time>
      </trkpt>
      <trkpt lat="45.20099" lon="5.71799">
        <ele>176.27</ele>
        <time>2017-02-18T14:57:26Z</time>
      </trkpt>
      <trkpt lat="45.20096" lon="5.71801">
        <ele>176.33</ele>
        <time>2017-02-18T14:57:27Z</time>
      </trkpt>
      <trkpt lat="45.20092" lon="5.71802">
        <ele>176.27</ele>
        <time>2017-02-18T14:57:28Z</time>
      </trkpt>
      <trkpt lat="45.20088" lon="5.71804">
        <ele>176.25</ele>
        <time>2017-02-18T14:57:29Z</time>
      </trkpt>
      <trkpt lat="45.20084" lon="5.71804">
        <ele>176.01</ele>
        <time>2017-02-18T14:57:30Z</time>
      </trkpt>
      <trkpt lat="45.2008" lon="5.71804">
        <ele>175.88</ele>
        <time>2017-02-18T14:57:31Z</time>
      </trkpt>
      <trkpt lat="45.20077" lon="5.71802">
        <ele>175.86</ele>
        <time>2017-02-18T14:57:32Z</time>
      </trkpt>
      <trkpt lat="45.20074" lon="5.71798">
        <ele>175.77</ele>
        <time>2017-02-18T14:57:33Z</time>
      </trkpt>
      <trkpt lat="45.20072" lon="5.71795">
        <ele>177.03</ele>
        <time>2017-02-18T14:57:34Z</time>
      </trkpt>
      <trkpt lat="45.20071" lon="5.7179">
        <ele>177.37</ele>
        <time>2017-02-18T14:57:35Z</time>
      </trkpt>
      <trkpt lat="45.20073" lon="5.71785">
        <ele>177.35</ele>
        <time>2017-02-18T14:57:36Z</time>
      </trkpt>
      <trkpt lat="45.20075" lon="5.7178">
        <ele>177.03</ele>
        <time>2017-02-18T14:57:37Z</time>
      </trkpt>
      <trkpt lat="45.20079" lon="5.71776">
        <ele>176.81</ele>
        <time>2017-02-18T14:57:38Z</time>
      </trkpt>
      <trkpt lat="45.20082" lon="5.71772">
        <ele>175.96</ele>
        <time>2017-02-18T14:57:39Z</time>
      </trkpt>
      <trkpt lat="45.20086" lon="5.71767">
        <ele>175.07</ele>
        <time>2017-02-18T14:57:40Z</time>
      </trkpt>
      <trkpt lat="45.2009" lon="5.71762">
        <ele>174.33</ele>
        <time>2017-02-18T14:57:41Z</time>
      </trkpt>
      <trkpt lat="45.20094" lon="5.71756">
        <ele>173.55</ele>
        <time>2017-02-18T14:57:42Z</time>
      </trkpt>
      <trkpt lat="45.20098" lon="5.71751">
        <ele>172.91</ele>
        <time>2017-02-18T14:57:43Z</time>
      </trkpt>
      <trkpt lat="45.20101" lon="5.71746">
        <ele>172.38</ele>
        <time>2017-02-18T14:57:44Z</time>
      </trkpt>
      <trkpt lat="45.20104" lon="5.71741">
        <ele>171.88</ele>
        <time>2017-02-18T14:57:45Z</time>
      </trkpt>
      <trkpt lat="45.20106" lon="5.71737">
        <ele>171.85</ele>
        <time>2017-02-18T14:57:46Z</time>
      </trkpt>
      <trkpt lat="45.20106" lon="5.71733">
        <ele>171.93</ele>
        <time>2017-02-18T14:57:47Z</time>
      </trkpt>
      <trkpt lat="45.20106" lon="5.7173">
        <ele>171.79</ele>
        <time>2017-02-18T14:57:48Z</time>
      </trkpt>
      <trkpt lat="45.20106" lon="5.7173">
        <ele>171.36</ele>
        <time>2017-02-18T14:57:49Z</time>
      </trkpt>
      <trkpt lat="45.20106" lon="5.71729">
        <ele>171.51</ele>
        <time>2017-02-18T14:57:50Z</time>
      </trkpt>
      <trkpt lat="45.20105" lon="5.71729">
        <ele>171.62</ele>
        <time>2017-02-18T14:57:51Z</time>
      </trkpt>
      <trkpt lat="45.20103" lon="5.71727">
        <ele>171.32</ele>
        <time>2017-02-18T14:57:52Z</time>
      </trkpt>
      <trkpt lat="45.20101" lon="5.71728">
        <ele>171.1</ele>
        <time>2017-02-18T14:57:53Z</time>
      </trkpt>
      <trkpt lat="45.20097" lon="5.71733">
        <ele>170.82</ele>
        <time>2017-02-18T14:57:54Z</time>
      </trkpt>
      <trkpt lat="45.20092" lon="5.71739">
        <ele>170.6</ele>
        <time>2017-02-18T14:57:55Z</time>
      </trkpt>
      <trkpt lat="45.20089" lon="5.71742">
        <ele>170.4</ele>
        <time>2017-02-18T14:57:55Z</time>
      </trkpt>
      <trkpt lat="45.20086" lon="5.71746">
        <ele>170.44</ele>
        <time>2017-02-18T14:57:56Z</time>
      </trkpt>
      <trkpt lat="45.20084" lon="5.7175">
        <ele>170.77</ele>
        <time>2017-02-18T14:57:56Z</time>
      </trkpt>
      <trkpt lat="45.20074" lon="5.7176">
        <ele>170.91</ele>
        <time>2017-02-18T14:57:58Z</time>
      </trkpt>
      <trkpt lat="45.20065" lon="5.71765">
        <ele>170.7</ele>
        <time>2017-02-18T14:57:59Z</time>
      </trkpt>
      <trkpt lat="45.20057" lon="5.7177">
        <ele>170.82</ele>
        <time>2017-02-18T14:58:00Z</time>
      </trkpt>
      <trkpt lat="45.20049" lon="5.71774">
        <ele>170.68</ele>
        <time>2017-02-18T14:58:01Z</time>
      </trkpt>
      <trkpt lat="45.2004" lon="5.71776">
        <ele>170.58</ele>
        <time>2017-02-18T14:58:02Z</time>
      </trkpt>
      <trkpt lat="45.2003" lon="5.71778">
        <ele>170.39</ele>
        <time>2017-02-18T14:58:03Z</time>
      </trkpt>
      <trkpt lat="45.20021" lon="5.7178">
        <ele>170.28</ele>
        <time>2017-02-18T14:58:04Z</time>
      </trkpt>
      <trkpt lat="45.20011" lon="5.71781">
        <ele>170.09</ele>
        <time>2017-02-18T14:58:05Z</time>
      </trkpt>
      <trkpt lat="45.20002" lon="5.71784">
        <ele>169.82</ele>
        <time>2017-02-18T14:58:06Z</time>
      </trkpt>
      <trkpt lat="45.19992" lon="5.71786">
        <ele>169.44</ele>
        <time>2017-02-18T14:58:07Z</time>
      </trkpt>
      <trkpt lat="45.19983" lon="5.7179">
        <ele>169.13</ele>
        <time>2017-02-18T14:58:08Z</time>
      </trkpt>
      <trkpt lat="45.19974" lon="5.71793">
        <ele>168.74</ele>
        <time>2017-02-18T14:58:09Z</time>
      </trkpt>
      <trkpt lat="45.19966" lon="5.71796">
        <ele>168.35</ele>
        <time>2017-02-18T14:58:10Z</time>
      </trkpt>
      <trkpt lat="45.19957" lon="5.71798">
        <ele>168.11</ele>
        <time>2017-02-18T14:58:11Z</time>
      </trkpt>
      <trkpt lat="45.19949" lon="5.71801">
        <ele>167.9</ele>
        <time>2017-02-18T14:58:12Z</time>
      </trkpt>
      <trkpt lat="45.19941" lon="5.71803">
        <ele>167.7</ele>
        <time>2017-02-18T14:58:13Z</time>
      </trkpt>
      <trkpt lat="45.19934" lon="5.71805">
        <ele>167.66</ele>
        <time>2017-02-18T14:58:14Z</time>
      </trkpt>
      <trkpt lat="45.19927" lon="5.71807">
        <ele>167.65</ele>
        <time>2017-02-18T14:58:15Z</time>
      </trkpt>
      <trkpt lat="45.19921" lon="5.71808">
        <ele>167.81</ele>
        <time>2017-02-18T14:58:16Z</time>
      </trkpt>
      <trkpt lat="45.19915" lon="5.7181">
        <ele>167.68</ele>
        <time>2017-02-18T14:58:17Z</time>
      </trkpt>
      <trkpt lat="45.1991" lon="5.71811">
        <ele>167.18</ele>
        <time>2017-02-18T14:58:18Z</time>
      </trkpt>
      <trkpt lat="45.19906" lon="5.71813">
        <ele>167.23</ele>
        <time>2017-02-18T14:58:19Z</time>
      </trkpt>
      <trkpt lat="45.19902" lon="5.71813">
        <ele>167.33</ele>
        <time>2017-02-18T14:58:20Z</time>
      </trkpt>
      <trkpt lat="45.19899" lon="5.71812">
        <ele>167.02</ele>
        <time>2017-02-18T14:58:21Z</time>
      </trkpt>
      <trkpt lat="45.19897" lon="5.7181">
        <ele>167.04</ele>
        <time>2017-02-18T14:58:22Z</time>
      </trkpt>
      <trkpt lat="45.19895" lon="5.71808">
        <ele>167.05</ele>
        <time>2017-02-18T14:58:23Z</time>
      </trkpt>
      <trkpt lat="45.19894" lon="5.71806">
        <ele>167.21</ele>
        <time>2017-02-18T14:58:24Z</time>
      </trkpt>
      <trkpt lat="45.19893" lon="5.71805">
        <ele>167.32</ele>
        <time>2017-02-18T14:58:25Z</time>
      </trkpt>
      <trkpt lat="45.19893" lon="5.71805">
        <ele>167.34</ele>
        <time>2017-02-18T14:58:26Z</time>
      </trkpt>
      <trkpt lat="45.19893" lon="5.71805">
        <ele>167.51</ele>
        <time>2017-02-18T14:58:27Z</time>
      </trkpt>
      <trkpt lat="45.19893" lon="5.71805">
        <ele>167.54</ele>
        <time>2017-02-18T14:58:28Z</time>
      </trkpt>
      <trkpt lat="45.19893" lon="5.71805">
        <ele>167.55</ele>
        <time>2017-02-18T14:58:29Z</time>
      </trkpt>
      <trkpt lat="45.19893" lon="5.71805">
        <ele>167.55</ele>
        <time>2017-02-18T14:58:30Z</time>
      </trkpt>
      <trkpt lat="45.19893" lon="5.71805">
        <ele>167.55</ele>
        <time>2017-02-18T14:58:31Z</time>
      </trkpt>
      <trkpt lat="45.19893" lon="5.71805">
        <ele>167.55</ele>
        <time>2017-02-18T14:58:32Z</time>
      </trkpt>
      <trkpt lat="45.19893" lon="5.71805">
        <ele>167.55</ele>
        <time>2017-02-18T14:58:33Z</time>
      </trkpt>
      <trkpt lat="45.19893" lon="5.71805">
        <ele>167.55</ele>
        <time>2017-02-18T14:58:34Z</time>
      </trkpt>
      <trkpt lat="45.19893" lon="5.71805">
        <ele>167.55</ele>
        <time>2017-02-18T14:58:35Z</time>
      </trkpt>
      <trkpt lat="45.19893" lon="5.71805">
        <ele>167.55</ele>
        <time>2017-02-18T14:58:36Z</time>
      </trkpt>
      <trkpt lat="45.19893" lon="5.71805">
        <ele>167.55</ele>
        <time>2017-02-18T14:58:37Z</time>
      </trkpt>
      <trkpt lat="45.19893" lon="5.71805">
        <ele>167.55</ele>
        <time>2017-02-18T14:58:38Z</time>
      </trkpt>
      <trkpt lat="45.19893" lon="5.71805">
        <ele>167.55</ele>
        <time>2017-02-18T14:58:39Z</time>
      </trkpt>
      <trkpt lat="45.19893" lon="5.71805">
        <ele>167.55</ele>
        <time>2017-02-18T14:58:40Z</time>
      </trkpt>
      <trkpt lat="45.19893" lon="5.71805">
        <ele>167.55</ele>
        <time>2017-02-18T14:58:41Z</time>
      </trkpt>
      <trkpt lat="45.19892" lon="5.71801">
        <ele>167.95</ele>
        <time>2017-02-18T14:58:42Z</time>
      </trkpt>
      <trkpt lat="45.19894" lon="5.71795">
        <ele>168.11</ele>
        <time>2017-02-18T14:58:43Z</time>
      </trkpt>
      <trkpt lat="45.19896" lon="5.71787">
        <ele>168.3</ele>
        <time>2017-02-18T14:58:44Z</time>
      </trkpt>
      <trkpt lat="45.19898" lon="5.7178">
        <ele>168.5</ele>
        <time>2017-02-18T14:58:45Z</time>
      </trkpt>
      <trkpt lat="45.19901" lon="5.71773">
        <ele>168.78</ele>
        <time>2017-02-18T14:58:46Z</time>
      </trkpt>
      <trkpt lat="45.19906" lon="5.71764">
        <ele>168.6</ele>
        <time>2017-02-18T14:58:47Z</time>
      </trkpt>
      <trkpt lat="45.19912" lon="5.71756">
        <ele>168.56</ele>
        <time>2017-02-18T14:58:48Z</time>
      </trkpt>
      <trkpt lat="45.19921" lon="5.71748">
        <ele>168.63</ele>
        <time>2017-02-18T14:58:49Z</time>
      </trkpt>
      <trkpt lat="45.19931" lon="5.71739">
        <ele>168.33</ele>
        <time>2017-02-18T14:58:50Z</time>
      </trkpt>
      <trkpt lat="45.19942" lon="5.7173">
        <ele>168.26</ele>
        <time>2017-02-18T14:58:51Z</time>
      </trkpt>
      <trkpt lat="45.19954" lon="5.71722">
        <ele>168.09</ele>
        <time>2017-02-18T14:58:52Z</time>
      </trkpt>
      <trkpt lat="45.19966" lon="5.71714">
        <ele>167.98</ele>
        <time>2017-02-18T14:58:53Z</time>
      </trkpt>
      <trkpt lat="45.19978" lon="5.71705">
        <ele>167.87</ele>
        <time>2017-02-18T14:58:54Z</time>
      </trkpt>
      <trkpt lat="45.19992" lon="5.7169">
        <ele>155.37</ele>
        <time>2017-02-18T14:58:55Z</time>
      </trkpt>
      <trkpt lat="45.20004" lon="5.71681">
        <ele>152.63</ele>
        <time>2017-02-18T14:58:56Z</time>
      </trkpt>
      <trkpt lat="45.20015" lon="5.71672">
        <ele>152.09</ele>
        <time>2017-02-18T14:58:57Z</time>
      </trkpt>
      <trkpt lat="45.20027" lon="5.71664">
        <ele>151.82</ele>
        <time>2017-02-18T14:58:58Z</time>
      </trkpt>
      <trkpt lat="45.2004" lon="5.71656">
        <ele>151.52</ele>
        <time>2017-02-18T14:58:59Z</time>
      </trkpt>
      <trkpt lat="45.20053" lon="5.71647">
        <ele>151.38</ele>
        <time>2017-02-18T14:59:00Z</time>
      </trkpt>
      <trkpt lat="45.20065" lon="5.71639">
        <ele>151.2</ele>
        <time>2017-02-18T14:59:01Z</time>
      </trkpt>
      <trkpt lat="45.20078" lon="5.71631">
        <ele>151</ele>
        <time>2017-02-18T14:59:02Z</time>
      </trkpt>
      <trkpt lat="45.20091" lon="5.71622">
        <ele>150.56</ele>
        <time>2017-02-18T14:59:03Z</time>
      </trkpt>
      <trkpt lat="45.20104" lon="5.71613">
        <ele>150.07</ele>
        <time>2017-02-18T14:59:04Z</time>
      </trkpt>
      <trkpt lat="45.20117" lon="5.71604">
        <ele>149.89</ele>
        <time>2017-02-18T14:59:05Z</time>
      </trkpt>
      <trkpt lat="45.2013" lon="5.71594">
        <ele>150.02</ele>
        <time>2017-02-18T14:59:06Z</time>
      </trkpt>
      <trkpt lat="45.20143" lon="5.71583">
        <ele>150.2</ele>
        <time>2017-02-18T14:59:07Z</time>
      </trkpt>
      <trkpt lat="45.20156" lon="5.71572">
        <ele>150.32</ele>
        <time>2017-02-18T14:59:08Z</time>
      </trkpt>
      <trkpt lat="45.20168" lon="5.7156">
        <ele>150.34</ele>
        <time>2017-02-18T14:59:09Z</time>
      </trkpt>
      <trkpt lat="45.20181" lon="5.71548">
        <ele>150.19</ele>
        <time>2017-02-18T14:59:10Z</time>
      </trkpt>
      <trkpt lat="45.20193" lon="5.71535">
        <ele>149.92</ele>
        <time>2017-02-18T14:59:11Z</time>
      </trkpt>
      <trkpt lat="45.20205" lon="5.71522">
        <ele>149.94</ele>
        <time>2017-02-18T14:59:12Z</time>
      </trkpt>
      <trkpt lat="45.20217" lon="5.71508">
        <ele>150.27</ele>
        <time>2017-02-18T14:59:13Z</time>
      </trkpt>
      <trkpt lat="45.20229" lon="5.71494">
        <ele>150.73</ele>
        <time>2017-02-18T14:59:14Z</time>
      </trkpt>
      <trkpt lat="45.2024" lon="5.71479">
        <ele>150.99</ele>
        <time>2017-02-18T14:59:15Z</time>
      </trkpt>
      <trkpt lat="45.20252" lon="5.71464">
        <ele>151.2</ele>
        <time>2017-02-18T14:59:16Z</time>
      </trkpt>
      <trkpt lat="45.20264" lon="5.71449">
        <ele>151.32</ele>
        <time>2017-02-18T14:59:17Z</time>
      </trkpt>
      <trkpt lat="45.20276" lon="5.71434">
        <ele>151.34</ele>
        <time>2017-02-18T14:59:18Z</time>
      </trkpt>
      <trkpt lat="45.20287" lon="5.71418">
        <ele>151.43</ele>
        <time>2017-02-18T14:59:19Z</time>
      </trkpt>
      <trkpt lat="45.20299" lon="5.71403">
        <ele>151.44</ele>
        <time>2017-02-18T14:59:20Z</time>
      </trkpt>
      <trkpt lat="45.20311" lon="5.71387">
        <ele>151.53</ele>
        <time>2017-02-18T14:59:21Z</time>
      </trkpt>
      <trkpt lat="45.20323" lon="5.71372">
        <ele>151.46</ele>
        <time>2017-02-18T14:59:22Z</time>
      </trkpt>
      <trkpt lat="45.20335" lon="5.71357">
        <ele>151.37</ele>
        <time>2017-02-18T14:59:23Z</time>
      </trkpt>
      <trkpt lat="45.20347" lon="5.71341">
        <ele>151.43</ele>
        <time>2017-02-18T14:59:24Z</time>
      </trkpt>
      <trkpt lat="45.20359" lon="5.71326">
        <ele>151.77</ele>
        <time>2017-02-18T14:59:25Z</time>
      </trkpt>
      <trkpt lat="45.20371" lon="5.7131">
        <ele>151.99</ele>
        <time>2017-02-18T14:59:26Z</time>
      </trkpt>
      <trkpt lat="45.20383" lon="5.71294">
        <ele>152.12</ele>
        <time>2017-02-18T14:59:27Z</time>
      </trkpt>
      <trkpt lat="45.20395" lon="5.71278">
        <ele>152.3</ele>
        <time>2017-02-18T14:59:28Z</time>
      </trkpt>
      <trkpt lat="45.20406" lon="5.71262">
        <ele>152.5</ele>
        <time>2017-02-18T14:59:29Z</time>
      </trkpt>
      <trkpt lat="45.20418" lon="5.71246">
        <ele>152.78</ele>
        <time>2017-02-18T14:59:30Z</time>
      </trkpt>
      <trkpt lat="45.2043" lon="5.7123">
        <ele>153</ele>
        <time>2017-02-18T14:59:31Z</time>
      </trkpt>
      <trkpt lat="45.20442" lon="5.71214">
        <ele>153.2</ele>
        <time>2017-02-18T14:59:32Z</time>
      </trkpt>
      <trkpt lat="45.20454" lon="5.71197">
        <ele>153.48</ele>
        <time>2017-02-18T14:59:33Z</time>
      </trkpt>
      <trkpt lat="45.20466" lon="5.7118">
        <ele>153.61</ele>
        <time>2017-02-18T14:59:34Z</time>
      </trkpt>
      <trkpt lat="45.20477" lon="5.71163">
        <ele>153.72</ele>
        <time>2017-02-18T14:59:35Z</time>
      </trkpt>
      <trkpt lat="45.20488" lon="5.71145">
        <ele>153.74</ele>
        <time>2017-02-18T14:59:36Z</time>
      </trkpt>
      <trkpt lat="45.20499" lon="5.71126">
        <ele>153.83</ele>
        <time>2017-02-18T14:59:37Z</time>
      </trkpt>
      <trkpt lat="45.20509" lon="5.71106">
        <ele>153.92</ele>
        <time>2017-02-18T14:59:38Z</time>
      </trkpt>
      <trkpt lat="45.20518" lon="5.71086">
        <ele>154.18</ele>
        <time>2017-02-18T14:59:39Z</time>
      </trkpt>
      <trkpt lat="45.20527" lon="5.71066">
        <ele>154.48</ele>
        <time>2017-02-18T14:59:40Z</time>
      </trkpt>
      <trkpt lat="45.20535" lon="5.71045">
        <ele>155.01</ele>
        <time>2017-02-18T14:59:41Z</time>
      </trkpt>
      <trkpt lat="45.20543" lon="5.71024">
        <ele>155.44</ele>
        <time>2017-02-18T14:59:42Z</time>
      </trkpt>
      <trkpt lat="45.20551" lon="5.71003">
        <ele>156.01</ele>
        <time>2017-02-18T14:59:43Z</time>
      </trkpt>
      <trkpt lat="45.20558" lon="5.70982">
        <ele>156.44</ele>
        <time>2017-02-18T14:59:44Z</time>
      </trkpt>
      <trkpt lat="45.20565" lon="5.70961">
        <ele>156.93</ele>
        <time>2017-02-18T14:59:45Z</time>
      </trkpt>
      <trkpt lat="45.20572" lon="5.70939">
        <ele>157.34</ele>
        <time>2017-02-18T14:59:46Z</time>
      </trkpt>
      <trkpt lat="45.2058" lon="5.70918">
        <ele>157.91</ele>
        <time>2017-02-18T14:59:47Z</time>
      </trkpt>
      <trkpt lat="45.20587" lon="5.70898">
        <ele>158.66</ele>
        <time>2017-02-18T14:59:48Z</time>
      </trkpt>
      <trkpt lat="45.20594" lon="5.70877">
        <ele>159.29</ele>
        <time>2017-02-18T14:59:49Z</time>
      </trkpt>
      <trkpt lat="45.20601" lon="5.70857">
        <ele>159.9</ele>
        <time>2017-02-18T14:59:50Z</time>
      </trkpt>
      <trkpt lat="45.20608" lon="5.70837">
        <ele>160.42</ele>
        <time>2017-02-18T14:59:51Z</time>
      </trkpt>
      <trkpt lat="45.20616" lon="5.70817">
        <ele>160.92</ele>
        <time>2017-02-18T14:59:52Z</time>
      </trkpt>
      <trkpt lat="45.20624" lon="5.70796">
        <ele>161.34</ele>
        <time>2017-02-18T14:59:53Z</time>
      </trkpt>
      <trkpt lat="45.20632" lon="5.70775">
        <ele>161.83</ele>
        <time>2017-02-18T14:59:54Z</time>
      </trkpt>
      <trkpt lat="45.20641" lon="5.70754">
        <ele>162.32</ele>
        <time>2017-02-18T14:59:55Z</time>
      </trkpt>
      <trkpt lat="45.20649" lon="5.70733">
        <ele>162.74</ele>
        <time>2017-02-18T14:59:56Z</time>
      </trkpt>
      <trkpt lat="45.20658" lon="5.70711">
        <ele>163.15</ele>
        <time>2017-02-18T14:59:57Z</time>
      </trkpt>
      <trkpt lat="45.20666" lon="5.7069">
        <ele>163.39</ele>
        <time>2017-02-18T14:59:58Z</time>
      </trkpt>
      <trkpt lat="45.20675" lon="5.70668">
        <ele>163.68</ele>
        <time>2017-02-18T14:59:59Z</time>
      </trkpt>
      <trkpt lat="45.20683" lon="5.70646">
        <ele>163.81</ele>
        <time>2017-02-18T15:00:00Z</time>
      </trkpt>
      <trkpt lat="45.20692" lon="5.70624">
        <ele>163.92</ele>
        <time>2017-02-18T15:00:01Z</time>
      </trkpt>
      <trkpt lat="45.20701" lon="5.70602">
        <ele>163.86</ele>
        <time>2017-02-18T15:00:02Z</time>
      </trkpt>
      <trkpt lat="45.20711" lon="5.7058">
        <ele>163.85</ele>
        <time>2017-02-18T15:00:03Z</time>
      </trkpt>
      <trkpt lat="45.2072" lon="5.70558">
        <ele>163.77</ele>
        <time>2017-02-18T15:00:04Z</time>
      </trkpt>
      <trkpt lat="45.20729" lon="5.70535">
        <ele>163.59</ele>
        <time>2017-02-18T15:00:05Z</time>
      </trkpt>
      <trkpt lat="45.20738" lon="5.70513">
        <ele>163.48</ele>
        <time>2017-02-18T15:00:06Z</time>
      </trkpt>
      <trkpt lat="45.20747" lon="5.7049">
        <ele>163.29</ele>
        <time>2017-02-18T15:00:07Z</time>
      </trkpt>
      <trkpt lat="45.20757" lon="5.70467">
        <ele>163.02</ele>
        <time>2017-02-18T15:00:08Z</time>
      </trkpt>
      <trkpt lat="45.20766" lon="5.70444">
        <ele>162.8</ele>
        <time>2017-02-18T15:00:09Z</time>
      </trkpt>
      <trkpt lat="45.20776" lon="5.7042">
        <ele>162.6</ele>
        <time>2017-02-18T15:00:10Z</time>
      </trkpt>
      <trkpt lat="45.20785" lon="5.70396">
        <ele>162.24</ele>
        <time>2017-02-18T15:00:11Z</time>
      </trkpt>
      <trkpt lat="45.20795" lon="5.70372">
        <ele>161.85</ele>
        <time>2017-02-18T15:00:12Z</time>
      </trkpt>
      <trkpt lat="45.20805" lon="5.70348">
        <ele>161.37</ele>
        <time>2017-02-18T15:00:13Z</time>
      </trkpt>
      <trkpt lat="45.20815" lon="5.70324">
        <ele>160.87</ele>
        <time>2017-02-18T15:00:14Z</time>
      </trkpt>
      <trkpt lat="45.20825" lon="5.70299">
        <ele>160.45</ele>
        <time>2017-02-18T15:00:15Z</time>
      </trkpt>
      <trkpt lat="45.20835" lon="5.70274">
        <ele>159.89</ele>
        <time>2017-02-18T15:00:16Z</time>
      </trkpt>
      <trkpt lat="45.20845" lon="5.70249">
        <ele>159.3</ele>
        <time>2017-02-18T15:00:17Z</time>
      </trkpt>
      <trkpt lat="45.20854" lon="5.70225">
        <ele>158.7</ele>
        <time>2017-02-18T15:00:18Z</time>
      </trkpt>
      <trkpt lat="45.20864" lon="5.702">
        <ele>158.18</ele>
        <time>2017-02-18T15:00:19Z</time>
      </trkpt>
      <trkpt lat="45.20874" lon="5.70176">
        <ele>157.59</ele>
        <time>2017-02-18T15:00:20Z</time>
      </trkpt>
      <trkpt lat="45.20884" lon="5.70151">
        <ele>157.08</ele>
        <time>2017-02-18T15:00:21Z</time>
      </trkpt>
      <trkpt lat="45.20894" lon="5.70126">
        <ele>156.57</ele>
        <time>2017-02-18T15:00:22Z</time>
      </trkpt>
      <trkpt lat="45.20904" lon="5.70101">
        <ele>155.99</ele>
        <time>2017-02-18T15:00:23Z</time>
      </trkpt>
      <trkpt lat="45.20914" lon="5.70076">
        <ele>155.48</ele>
        <time>2017-02-18T15:00:24Z</time>
      </trkpt>
      <trkpt lat="45.20923" lon="5.7005">
        <ele>154.97</ele>
        <time>2017-02-18T15:00:25Z</time>
      </trkpt>
      <trkpt lat="45.20933" lon="5.70025">
        <ele>154.55</ele>
        <time>2017-02-18T15:00:26Z</time>
      </trkpt>
      <trkpt lat="45.20943" lon="5.7">
        <ele>154.15</ele>
        <time>2017-02-18T15:00:27Z</time>
      </trkpt>
      <trkpt lat="45.20952" lon="5.69975">
        <ele>153.75</ele>
        <time>2017-02-18T15:00:28Z</time>
      </trkpt>
      <trkpt lat="45.20961" lon="5.6995">
        <ele>153.43</ele>
        <time>2017-02-18T15:00:29Z</time>
      </trkpt>
      <trkpt lat="45.2097" lon="5.69925">
        <ele>153.13</ele>
        <time>2017-02-18T15:00:30Z</time>
      </trkpt>
      <trkpt lat="45.20979" lon="5.69899">
        <ele>152.82</ele>
        <time>2017-02-18T15:00:31Z</time>
      </trkpt>
      <trkpt lat="45.20988" lon="5.69874">
        <ele>152.44</ele>
        <time>2017-02-18T15:00:32Z</time>
      </trkpt>
      <trkpt lat="45.20996" lon="5.69848">
        <ele>152.13</ele>
        <time>2017-02-18T15:00:33Z</time>
      </trkpt>
      <trkpt lat="45.21005" lon="5.69823">
        <ele>151.9</ele>
        <time>2017-02-18T15:00:34Z</time>
      </trkpt>
      <trkpt lat="45.21014" lon="5.69796">
        <ele>151.7</ele>
        <time>2017-02-18T15:00:35Z</time>
      </trkpt>
      <trkpt lat="45.21022" lon="5.69769">
        <ele>151.5</ele>
        <time>2017-02-18T15:00:36Z</time>
      </trkpt>
      <trkpt lat="45.21031" lon="5.69742">
        <ele>151.38</ele>
        <time>2017-02-18T15:00:37Z</time>
      </trkpt>
      <trkpt lat="45.2104" lon="5.69714">
        <ele>151.28</ele>
        <time>2017-02-18T15:00:38Z</time>
      </trkpt>
      <trkpt lat="45.21048" lon="5.69686">
        <ele>151.09</ele>
        <time>2017-02-18T15:00:39Z</time>
      </trkpt>
      <trkpt lat="45.21056" lon="5.69659">
        <ele>151.06</ele>
        <time>2017-02-18T15:00:40Z</time>
      </trkpt>
      <trkpt lat="45.21064" lon="5.69631">
        <ele>150.97</ele>
        <time>2017-02-18T15:00:41Z</time>
      </trkpt>
      <trkpt lat="45.21072" lon="5.69603">
        <ele>151.03</ele>
        <time>2017-02-18T15:00:42Z</time>
      </trkpt>
      <trkpt lat="45.21079" lon="5.69575">
        <ele>150.97</ele>
        <time>2017-02-18T15:00:43Z</time>
      </trkpt>
      <trkpt lat="45.21086" lon="5.69547">
        <ele>150.87</ele>
        <time>2017-02-18T15:00:44Z</time>
      </trkpt>
      <trkpt lat="45.21094" lon="5.6952">
        <ele>150.85</ele>
        <time>2017-02-18T15:00:45Z</time>
      </trkpt>
      <trkpt lat="45.211" lon="5.69492">
        <ele>150.77</ele>
        <time>2017-02-18T15:00:46Z</time>
      </trkpt>
      <trkpt lat="45.21107" lon="5.69465">
        <ele>150.67</ele>
        <time>2017-02-18T15:00:47Z</time>
      </trkpt>
      <trkpt lat="45.21114" lon="5.69438">
        <ele>150.57</ele>
        <time>2017-02-18T15:00:48Z</time>
      </trkpt>
      <trkpt lat="45.2112" lon="5.69411">
        <ele>150.47</ele>
        <time>2017-02-18T15:00:49Z</time>
      </trkpt>
      <trkpt lat="45.21126" lon="5.69384">
        <ele>150.29</ele>
        <time>2017-02-18T15:00:50Z</time>
      </trkpt>
      <trkpt lat="45.21132" lon="5.69357">
        <ele>150.18</ele>
        <time>2017-02-18T15:00:51Z</time>
      </trkpt>
      <trkpt lat="45.21139" lon="5.6933">
        <ele>150.07</ele>
        <time>2017-02-18T15:00:52Z</time>
      </trkpt>
      <trkpt lat="45.21144" lon="5.69303">
        <ele>150.29</ele>
        <time>2017-02-18T15:00:53Z</time>
      </trkpt>
      <trkpt lat="45.2115" lon="5.69275">
        <ele>150.26</ele>
        <time>2017-02-18T15:00:54Z</time>
      </trkpt>
      <trkpt lat="45.21156" lon="5.69248">
        <ele>150.17</ele>
        <time>2017-02-18T15:00:55Z</time>
      </trkpt>
      <trkpt lat="45.21161" lon="5.6922">
        <ele>150.07</ele>
        <time>2017-02-18T15:00:56Z</time>
      </trkpt>
      <trkpt lat="45.21167" lon="5.69191">
        <ele>149.97</ele>
        <time>2017-02-18T15:00:57Z</time>
      </trkpt>
      <trkpt lat="45.21172" lon="5.69163">
        <ele>149.95</ele>
        <time>2017-02-18T15:00:58Z</time>
      </trkpt>
      <trkpt lat="45.21178" lon="5.69134">
        <ele>149.95</ele>
        <time>2017-02-18T15:00:59Z</time>
      </trkpt>
      <trkpt lat="45.21184" lon="5.69105">
        <ele>149.79</ele>
        <time>2017-02-18T15:01:00Z</time>
      </trkpt>
      <trkpt lat="45.2119" lon="5.69077">
        <ele>149.6</ele>
        <time>2017-02-18T15:01:01Z</time>
      </trkpt>
      <trkpt lat="45.21196" lon="5.69048">
        <ele>149.24</ele>
        <time>2017-02-18T15:01:02Z</time>
      </trkpt>
      <trkpt lat="45.21202" lon="5.6902">
        <ele>148.85</ele>
        <time>2017-02-18T15:01:03Z</time>
      </trkpt>
      <trkpt lat="45.21208" lon="5.68992">
        <ele>148.53</ele>
        <time>2017-02-18T15:01:04Z</time>
      </trkpt>
      <trkpt lat="45.21214" lon="5.68965">
        <ele>148.3</ele>
        <time>2017-02-18T15:01:05Z</time>
      </trkpt>
      <trkpt lat="45.2122" lon="5.68938">
        <ele>147.94</ele>
        <time>2017-02-18T15:01:06Z</time>
      </trkpt>
      <trkpt lat="45.21227" lon="5.6891">
        <ele>147.47</ele>
        <time>2017-02-18T15:01:07Z</time>
      </trkpt>
      <trkpt lat="45.21234" lon="5.68883">
        <ele>146.89</ele>
        <time>2017-02-18T15:01:08Z</time>
      </trkpt>
      <trkpt lat="45.2124" lon="5.68856">
        <ele>146.46</ele>
        <time>2017-02-18T15:01:09Z</time>
      </trkpt>
      <trkpt lat="45.21248" lon="5.68829">
        <ele>146.05</ele>
        <time>2017-02-18T15:01:10Z</time>
      </trkpt>
      <trkpt lat="45.21255" lon="5.68802">
        <ele>145.97</ele>
        <time>2017-02-18T15:01:11Z</time>
      </trkpt>
      <trkpt lat="45.21263" lon="5.68776">
        <ele>145.71</ele>
        <time>2017-02-18T15:01:12Z</time>
      </trkpt>
      <trkpt lat="45.21271" lon="5.68749">
        <ele>145.5</ele>
        <time>2017-02-18T15:01:13Z</time>
      </trkpt>
      <trkpt lat="45.2128" lon="5.68724">
        <ele>145.54</ele>
        <time>2017-02-18T15:01:14Z</time>
      </trkpt>
      <trkpt lat="45.21288" lon="5.68698">
        <ele>145.71</ele>
        <time>2017-02-18T15:01:15Z</time>
      </trkpt>
      <trkpt lat="45.21297" lon="5.68672">
        <ele>146.06</ele>
        <time>2017-02-18T15:01:16Z</time>
      </trkpt>
      <trkpt lat="45.21306" lon="5.68647">
        <ele>146.29</ele>
        <time>2017-02-18T15:01:17Z</time>
      </trkpt>
      <trkpt lat="45.21315" lon="5.68622">
        <ele>146.5</ele>
        <time>2017-02-18T15:01:18Z</time>
      </trkpt>
      <trkpt lat="45.21325" lon="5.68597">
        <ele>146.86</ele>
        <time>2017-02-18T15:01:19Z</time>
      </trkpt>
      <trkpt lat="45.21335" lon="5.68573">
        <ele>147.17</ele>
        <time>2017-02-18T15:01:20Z</time>
      </trkpt>
      <trkpt lat="45.21345" lon="5.68549">
        <ele>147.31</ele>
        <time>2017-02-18T15:01:21Z</time>
      </trkpt>
      <trkpt lat="45.21355" lon="5.68525">
        <ele>147.42</ele>
        <time>2017-02-18T15:01:22Z</time>
      </trkpt>
      <trkpt lat="45.21365" lon="5.68501">
        <ele>147.6</ele>
        <time>2017-02-18T15:01:23Z</time>
      </trkpt>
      <trkpt lat="45.21375" lon="5.68478">
        <ele>147.8</ele>
        <time>2017-02-18T15:01:24Z</time>
      </trkpt>
      <trkpt lat="45.21386" lon="5.68454">
        <ele>148</ele>
        <time>2017-02-18T15:01:25Z</time>
      </trkpt>
      <trkpt lat="45.21397" lon="5.68431">
        <ele>148.28</ele>
        <time>2017-02-18T15:01:26Z</time>
      </trkpt>
      <trkpt lat="45.21407" lon="5.68408">
        <ele>148.5</ele>
        <time>2017-02-18T15:01:27Z</time>
      </trkpt>
      <trkpt lat="45.21418" lon="5.68385">
        <ele>148.54</ele>
        <time>2017-02-18T15:01:28Z</time>
      </trkpt>
      <trkpt lat="45.21429" lon="5.68361">
        <ele>148.39</ele>
        <time>2017-02-18T15:01:29Z</time>
      </trkpt>
      <trkpt lat="45.2144" lon="5.68338">
        <ele>148.2</ele>
        <time>2017-02-18T15:01:30Z</time>
      </trkpt>
      <trkpt lat="45.21451" lon="5.68315">
        <ele>147.92</ele>
        <time>2017-02-18T15:01:31Z</time>
      </trkpt>
      <trkpt lat="45.21462" lon="5.68291">
        <ele>147.62</ele>
        <time>2017-02-18T15:01:32Z</time>
      </trkpt>
      <trkpt lat="45.21473" lon="5.68268">
        <ele>147.4</ele>
        <time>2017-02-18T15:01:33Z</time>
      </trkpt>
      <trkpt lat="45.21484" lon="5.68244">
        <ele>147.28</ele>
        <time>2017-02-18T15:01:34Z</time>
      </trkpt>
      <trkpt lat="45.21496" lon="5.6822">
        <ele>147.1</ele>
        <time>2017-02-18T15:01:35Z</time>
      </trkpt>
      <trkpt lat="45.21507" lon="5.68195">
        <ele>146.74</ele>
        <time>2017-02-18T15:01:36Z</time>
      </trkpt>
      <trkpt lat="45.21518" lon="5.68171">
        <ele>146.43</ele>
        <time>2017-02-18T15:01:37Z</time>
      </trkpt>
      <trkpt lat="45.21529" lon="5.68147">
        <ele>146.12</ele>
        <time>2017-02-18T15:01:38Z</time>
      </trkpt>
      <trkpt lat="45.21541" lon="5.68123">
        <ele>145.9</ele>
        <time>2017-02-18T15:01:39Z</time>
      </trkpt>
      <trkpt lat="45.21552" lon="5.68099">
        <ele>145.78</ele>
        <time>2017-02-18T15:01:40Z</time>
      </trkpt>
      <trkpt lat="45.21563" lon="5.68074">
        <ele>145.68</ele>
        <time>2017-02-18T15:01:41Z</time>
      </trkpt>
      <trkpt lat="45.21575" lon="5.6805">
        <ele>145.81</ele>
        <time>2017-02-18T15:01:42Z</time>
      </trkpt>
      <trkpt lat="45.21586" lon="5.68026">
        <ele>145.84</ele>
        <time>2017-02-18T15:01:43Z</time>
      </trkpt>
      <trkpt lat="45.21598" lon="5.68002">
        <ele>145.77</ele>
        <time>2017-02-18T15:01:44Z</time>
      </trkpt>
      <trkpt lat="45.2161" lon="5.67979">
        <ele>145.75</ele>
        <time>2017-02-18T15:01:45Z</time>
      </trkpt>
      <trkpt lat="45.21621" lon="5.67956">
        <ele>145.75</ele>
        <time>2017-02-18T15:01:46Z</time>
      </trkpt>
      <trkpt lat="45.21633" lon="5.67932">
        <ele>145.75</ele>
        <time>2017-02-18T15:01:47Z</time>
      </trkpt>
      <trkpt lat="45.21645" lon="5.67909">
        <ele>145.59</ele>
        <time>2017-02-18T15:01:48Z</time>
      </trkpt>
      <trkpt lat="45.21656" lon="5.67885">
        <ele>145.64</ele>
        <time>2017-02-18T15:01:49Z</time>
      </trkpt>
      <trkpt lat="45.21668" lon="5.67861">
        <ele>145.57</ele>
        <time>2017-02-18T15:01:50Z</time>
      </trkpt>
      <trkpt lat="45.2168" lon="5.67838">
        <ele>145.55</ele>
        <time>2017-02-18T15:01:51Z</time>
      </trkpt>
      <trkpt lat="45.21692" lon="5.67815">
        <ele>145.55</ele>
        <time>2017-02-18T15:01:52Z</time>
      </trkpt>
      <trkpt lat="45.21704" lon="5.67792">
        <ele>145.63</ele>
        <time>2017-02-18T15:01:53Z</time>
      </trkpt>
      <trkpt lat="45.21716" lon="5.67769">
        <ele>145.57</ele>
        <time>2017-02-18T15:01:54Z</time>
      </trkpt>
      <trkpt lat="45.21729" lon="5.67746">
        <ele>145.47</ele>
        <time>2017-02-18T15:01:55Z</time>
      </trkpt>
      <trkpt lat="45.21741" lon="5.67724">
        <ele>145.29</ele>
        <time>2017-02-18T15:01:56Z</time>
      </trkpt>
      <trkpt lat="45.21754" lon="5.67702">
        <ele>145.26</ele>
        <time>2017-02-18T15:01:57Z</time>
      </trkpt>
      <trkpt lat="45.21767" lon="5.6768">
        <ele>145.17</ele>
        <time>2017-02-18T15:01:58Z</time>
      </trkpt>
      <trkpt lat="45.2178" lon="5.67659">
        <ele>145.15</ele>
        <time>2017-02-18T15:01:59Z</time>
      </trkpt>
      <trkpt lat="45.21793" lon="5.67637">
        <ele>145.07</ele>
        <time>2017-02-18T15:02:00Z</time>
      </trkpt>
      <trkpt lat="45.21806" lon="5.67617">
        <ele>145.05</ele>
        <time>2017-02-18T15:02:01Z</time>
      </trkpt>
      <trkpt lat="45.2182" lon="5.67596">
        <ele>145.13</ele>
        <time>2017-02-18T15:02:02Z</time>
      </trkpt>
      <trkpt lat="45.21834" lon="5.67576">
        <ele>145.15</ele>
        <time>2017-02-18T15:02:03Z</time>
      </trkpt>
      <trkpt lat="45.21849" lon="5.67555">
        <ele>145.15</ele>
        <time>2017-02-18T15:02:04Z</time>
      </trkpt>
      <trkpt lat="45.21863" lon="5.67534">
        <ele>145.15</ele>
        <time>2017-02-18T15:02:05Z</time>
      </trkpt>
      <trkpt lat="45.21878" lon="5.67514">
        <ele>145.15</ele>
        <time>2017-02-18T15:02:06Z</time>
      </trkpt>
      <trkpt lat="45.21894" lon="5.67494">
        <ele>145.23</ele>
        <time>2017-02-18T15:02:07Z</time>
      </trkpt>
      <trkpt lat="45.21909" lon="5.67474">
        <ele>145.24</ele>
        <time>2017-02-18T15:02:08Z</time>
      </trkpt>
      <trkpt lat="45.21925" lon="5.67454">
        <ele>145.33</ele>
        <time>2017-02-18T15:02:09Z</time>
      </trkpt>
      <trkpt lat="45.21942" lon="5.67435">
        <ele>145.34</ele>
        <time>2017-02-18T15:02:10Z</time>
      </trkpt>
      <trkpt lat="45.21958" lon="5.67417">
        <ele>145.43</ele>
        <time>2017-02-18T15:02:11Z</time>
      </trkpt>
      <trkpt lat="45.21975" lon="5.67399">
        <ele>145.44</ele>
        <time>2017-02-18T15:02:12Z</time>
      </trkpt>
      <trkpt lat="45.21992" lon="5.67382">
        <ele>145.45</ele>
        <time>2017-02-18T15:02:13Z</time>
      </trkpt>
      <trkpt lat="45.22009" lon="5.67365">
        <ele>145.45</ele>
        <time>2017-02-18T15:02:14Z</time>
      </trkpt>
      <trkpt lat="45.22025" lon="5.67348">
        <ele>145.45</ele>
        <time>2017-02-18T15:02:15Z</time>
      </trkpt>
      <trkpt lat="45.22042" lon="5.67332">
        <ele>145.45</ele>
        <time>2017-02-18T15:02:16Z</time>
      </trkpt>
      <trkpt lat="45.22059" lon="5.67316">
        <ele>145.45</ele>
        <time>2017-02-18T15:02:17Z</time>
      </trkpt>
      <trkpt lat="45.22077" lon="5.67301">
        <ele>145.45</ele>
        <time>2017-02-18T15:02:18Z</time>
      </trkpt>
      <trkpt lat="45.22094" lon="5.67286">
        <ele>145.37</ele>
        <time>2017-02-18T15:02:19Z</time>
      </trkpt>
      <trkpt lat="45.22112" lon="5.67271">
        <ele>145.35</ele>
        <time>2017-02-18T15:02:20Z</time>
      </trkpt>
      <trkpt lat="45.2213" lon="5.67256">
        <ele>145.35</ele>
        <time>2017-02-18T15:02:21Z</time>
      </trkpt>
      <trkpt lat="45.22148" lon="5.67242">
        <ele>145.35</ele>
        <time>2017-02-18T15:02:22Z</time>
      </trkpt>
      <trkpt lat="45.22166" lon="5.67228">
        <ele>145.43</ele>
        <time>2017-02-18T15:02:23Z</time>
      </trkpt>
      <trkpt lat="45.22184" lon="5.67214">
        <ele>145.53</ele>
        <time>2017-02-18T15:02:24Z</time>
      </trkpt>
      <trkpt lat="45.22202" lon="5.672">
        <ele>145.78</ele>
        <time>2017-02-18T15:02:25Z</time>
      </trkpt>
      <trkpt lat="45.2222" lon="5.67186">
        <ele>146</ele>
        <time>2017-02-18T15:02:26Z</time>
      </trkpt>
      <trkpt lat="45.22238" lon="5.67173">
        <ele>146.44</ele>
        <time>2017-02-18T15:02:27Z</time>
      </trkpt>
      <trkpt lat="45.22256" lon="5.6716">
        <ele>146.85</ele>
        <time>2017-02-18T15:02:28Z</time>
      </trkpt>
      <trkpt lat="45.22274" lon="5.67146">
        <ele>147.33</ele>
        <time>2017-02-18T15:02:29Z</time>
      </trkpt>
      <trkpt lat="45.22292" lon="5.67133">
        <ele>147.66</ele>
        <time>2017-02-18T15:02:30Z</time>
      </trkpt>
      <trkpt lat="45.2231" lon="5.6712">
        <ele>148.21</ele>
        <time>2017-02-18T15:02:31Z</time>
      </trkpt>
      <trkpt lat="45.22328" lon="5.67107">
        <ele>148.72</ele>
        <time>2017-02-18T15:02:32Z</time>
      </trkpt>
      <trkpt lat="45.22346" lon="5.67093">
        <ele>149.22</ele>
        <time>2017-02-18T15:02:33Z</time>
      </trkpt>
      <trkpt lat="45.22364" lon="5.6708">
        <ele>149.64</ele>
        <time>2017-02-18T15:02:34Z</time>
      </trkpt>
      <trkpt lat="45.22383" lon="5.67067">
        <ele>149.89</ele>
        <time>2017-02-18T15:02:35Z</time>
      </trkpt>
      <trkpt lat="45.22401" lon="5.67053">
        <ele>150.18</ele>
        <time>2017-02-18T15:02:36Z</time>
      </trkpt>
      <trkpt lat="45.2242" lon="5.67039">
        <ele>150.31</ele>
        <time>2017-02-18T15:02:37Z</time>
      </trkpt>
      <trkpt lat="45.22438" lon="5.67026">
        <ele>150.5</ele>
        <time>2017-02-18T15:02:38Z</time>
      </trkpt>
      <trkpt lat="45.22457" lon="5.67012">
        <ele>150.62</ele>
        <time>2017-02-18T15:02:39Z</time>
      </trkpt>
      <trkpt lat="45.22476" lon="5.66998">
        <ele>150.56</ele>
        <time>2017-02-18T15:02:40Z</time>
      </trkpt>
      <trkpt lat="45.22495" lon="5.66984">
        <ele>150.55</ele>
        <time>2017-02-18T15:02:41Z</time>
      </trkpt>
      <trkpt lat="45.22513" lon="5.6697">
        <ele>150.47</ele>
        <time>2017-02-18T15:02:42Z</time>
      </trkpt>
      <trkpt lat="45.22532" lon="5.66956">
        <ele>150.21</ele>
        <time>2017-02-18T15:02:43Z</time>
      </trkpt>
      <trkpt lat="45.22551" lon="5.66942">
        <ele>149.92</ele>
        <time>2017-02-18T15:02:44Z</time>
      </trkpt>
      <trkpt lat="45.2257" lon="5.66928">
        <ele>149.7</ele>
        <time>2017-02-18T15:02:45Z</time>
      </trkpt>
      <trkpt lat="45.22589" lon="5.66914">
        <ele>149.34</ele>
        <time>2017-02-18T15:02:46Z</time>
      </trkpt>
      <trkpt lat="45.22608" lon="5.66899">
        <ele>149.03</ele>
        <time>2017-02-18T15:02:47Z</time>
      </trkpt>
      <trkpt lat="45.22627" lon="5.66885">
        <ele>148.64</ele>
        <time>2017-02-18T15:02:48Z</time>
      </trkpt>
      <trkpt lat="45.22646" lon="5.66871">
        <ele>148.33</ele>
        <time>2017-02-18T15:02:49Z</time>
      </trkpt>
      <trkpt lat="45.22665" lon="5.66857">
        <ele>147.94</ele>
        <time>2017-02-18T15:02:50Z</time>
      </trkpt>
      <trkpt lat="45.22683" lon="5.66843">
        <ele>147.63</ele>
        <time>2017-02-18T15:02:51Z</time>
      </trkpt>
      <trkpt lat="45.22702" lon="5.66829">
        <ele>147.4</ele>
        <time>2017-02-18T15:02:52Z</time>
      </trkpt>
      <trkpt lat="45.22721" lon="5.66815">
        <ele>147.2</ele>
        <time>2017-02-18T15:02:53Z</time>
      </trkpt>
      <trkpt lat="45.22739" lon="5.66801">
        <ele>147</ele>
        <time>2017-02-18T15:02:54Z</time>
      </trkpt>
      <trkpt lat="45.22758" lon="5.66787">
        <ele>146.88</ele>
        <time>2017-02-18T15:02:55Z</time>
      </trkpt>
      <trkpt lat="45.22777" lon="5.66773">
        <ele>146.7</ele>
        <time>2017-02-18T15:02:56Z</time>
      </trkpt>
      <trkpt lat="45.22796" lon="5.66759">
        <ele>146.5</ele>
        <time>2017-02-18T15:02:57Z</time>
      </trkpt>
      <trkpt lat="45.22815" lon="5.66745">
        <ele>146.38</ele>
        <time>2017-02-18T15:02:58Z</time>
      </trkpt>
      <trkpt lat="45.22834" lon="5.66731">
        <ele>146.35</ele>
        <time>2017-02-18T15:02:59Z</time>
      </trkpt>
      <trkpt lat="45.22853" lon="5.66716">
        <ele>146.27</ele>
        <time>2017-02-18T15:03:00Z</time>
      </trkpt>
      <trkpt lat="45.22873" lon="5.66702">
        <ele>146.33</ele>
        <time>2017-02-18T15:03:01Z</time>
      </trkpt>
      <trkpt lat="45.22892" lon="5.66688">
        <ele>146.51</ele>
        <time>2017-02-18T15:03:02Z</time>
      </trkpt>
      <trkpt lat="45.22911" lon="5.66674">
        <ele>146.7</ele>
        <time>2017-02-18T15:03:03Z</time>
      </trkpt>
      <trkpt lat="45.22931" lon="5.6666">
        <ele>146.58</ele>
        <time>2017-02-18T15:03:04Z</time>
      </trkpt>
      <trkpt lat="45.2295" lon="5.66647">
        <ele>146.56</ele>
        <time>2017-02-18T15:03:05Z</time>
      </trkpt>
      <trkpt lat="45.22969" lon="5.66634">
        <ele>146.55</ele>
        <time>2017-02-18T15:03:06Z</time>
      </trkpt>
      <trkpt lat="45.22989" lon="5.6662">
        <ele>146.55</ele>
        <time>2017-02-18T15:03:07Z</time>
      </trkpt>
      <trkpt lat="45.23008" lon="5.66607">
        <ele>146.55</ele>
        <time>2017-02-18T15:03:08Z</time>
      </trkpt>
      <trkpt lat="45.23027" lon="5.66594">
        <ele>146.47</ele>
        <time>2017-02-18T15:03:09Z</time>
      </trkpt>
      <trkpt lat="45.23046" lon="5.66581">
        <ele>146.53</ele>
        <time>2017-02-18T15:03:10Z</time>
      </trkpt>
      <trkpt lat="45.23066" lon="5.66569">
        <ele>146.55</ele>
        <time>2017-02-18T15:03:11Z</time>
      </trkpt>
      <trkpt lat="45.23085" lon="5.66556">
        <ele>146.47</ele>
        <time>2017-02-18T15:03:12Z</time>
      </trkpt>
      <trkpt lat="45.23104" lon="5.66544">
        <ele>146.45</ele>
        <time>2017-02-18T15:03:13Z</time>
      </trkpt>
      <trkpt lat="45.23124" lon="5.66532">
        <ele>146.45</ele>
        <time>2017-02-18T15:03:14Z</time>
      </trkpt>
      <trkpt lat="45.23143" lon="5.6652">
        <ele>146.45</ele>
        <time>2017-02-18T15:03:15Z</time>
      </trkpt>
      <trkpt lat="45.23163" lon="5.66507">
        <ele>146.45</ele>
        <time>2017-02-18T15:03:16Z</time>
      </trkpt>
      <trkpt lat="45.23183" lon="5.66495">
        <ele>146.45</ele>
        <time>2017-02-18T15:03:17Z</time>
      </trkpt>
      <trkpt lat="45.23204" lon="5.66482">
        <ele>146.45</ele>
        <time>2017-02-18T15:03:18Z</time>
      </trkpt>
      <trkpt lat="45.23225" lon="5.66469">
        <ele>146.37</ele>
        <time>2017-02-18T15:03:19Z</time>
      </trkpt>
      <trkpt lat="45.23246" lon="5.66457">
        <ele>146.51</ele>
        <time>2017-02-18T15:03:20Z</time>
      </trkpt>
      <trkpt lat="45.23267" lon="5.66445">
        <ele>146.7</ele>
        <time>2017-02-18T15:03:21Z</time>
      </trkpt>
      <trkpt lat="45.23288" lon="5.66433">
        <ele>146.9</ele>
        <time>2017-02-18T15:03:22Z</time>
      </trkpt>
      <trkpt lat="45.2331" lon="5.66421">
        <ele>147.02</ele>
        <time>2017-02-18T15:03:23Z</time>
      </trkpt>
      <trkpt lat="45.23331" lon="5.66409">
        <ele>146.96</ele>
        <time>2017-02-18T15:03:24Z</time>
      </trkpt>
      <trkpt lat="45.23352" lon="5.66397">
        <ele>146.95</ele>
        <time>2017-02-18T15:03:25Z</time>
      </trkpt>
      <trkpt lat="45.23374" lon="5.66386">
        <ele>147.03</ele>
        <time>2017-02-18T15:03:26Z</time>
      </trkpt>
      <trkpt lat="45.23395" lon="5.66375">
        <ele>146.97</ele>
        <time>2017-02-18T15:03:27Z</time>
      </trkpt>
      <trkpt lat="45.23415" lon="5.66365">
        <ele>147.03</ele>
        <time>2017-02-18T15:03:28Z</time>
      </trkpt>
      <trkpt lat="45.23436" lon="5.66354">
        <ele>147.05</ele>
        <time>2017-02-18T15:03:29Z</time>
      </trkpt>
      <trkpt lat="45.23456" lon="5.66344">
        <ele>147.13</ele>
        <time>2017-02-18T15:03:30Z</time>
      </trkpt>
      <trkpt lat="45.23476" lon="5.66334">
        <ele>147.22</ele>
        <time>2017-02-18T15:03:31Z</time>
      </trkpt>
      <trkpt lat="45.23496" lon="5.66324">
        <ele>147.16</ele>
        <time>2017-02-18T15:03:32Z</time>
      </trkpt>
      <trkpt lat="45.23517" lon="5.66313">
        <ele>147.31</ele>
        <time>2017-02-18T15:03:33Z</time>
      </trkpt>
      <trkpt lat="45.23537" lon="5.66303">
        <ele>147.5</ele>
        <time>2017-02-18T15:03:34Z</time>
      </trkpt>
      <trkpt lat="45.23557" lon="5.66292">
        <ele>147.54</ele>
        <time>2017-02-18T15:03:35Z</time>
      </trkpt>
      <trkpt lat="45.23577" lon="5.66281">
        <ele>147.55</ele>
        <time>2017-02-18T15:03:36Z</time>
      </trkpt>
      <trkpt lat="45.23598" lon="5.66271">
        <ele>147.55</ele>
        <time>2017-02-18T15:03:37Z</time>
      </trkpt>
      <trkpt lat="45.23618" lon="5.6626">
        <ele>147.39</ele>
        <time>2017-02-18T15:03:38Z</time>
      </trkpt>
      <trkpt lat="45.23639" lon="5.6625">
        <ele>147.28</ele>
        <time>2017-02-18T15:03:39Z</time>
      </trkpt>
      <trkpt lat="45.23659" lon="5.6624">
        <ele>147.09</ele>
        <time>2017-02-18T15:03:40Z</time>
      </trkpt>
      <trkpt lat="45.2368" lon="5.66229">
        <ele>146.98</ele>
        <time>2017-02-18T15:03:41Z</time>
      </trkpt>
      <trkpt lat="45.237" lon="5.66218">
        <ele>146.87</ele>
        <time>2017-02-18T15:03:42Z</time>
      </trkpt>
      <trkpt lat="45.23721" lon="5.66208">
        <ele>146.85</ele>
        <time>2017-02-18T15:03:43Z</time>
      </trkpt>
      <trkpt lat="45.23742" lon="5.66197">
        <ele>146.93</ele>
        <time>2017-02-18T15:03:44Z</time>
      </trkpt>
      <trkpt lat="45.23763" lon="5.66186">
        <ele>146.79</ele>
        <time>2017-02-18T15:03:45Z</time>
      </trkpt>
      <trkpt lat="45.23784" lon="5.66175">
        <ele>146.44</ele>
        <time>2017-02-18T15:03:46Z</time>
      </trkpt>
      <trkpt lat="45.23804" lon="5.66163">
        <ele>146.45</ele>
        <time>2017-02-18T15:03:47Z</time>
      </trkpt>
      <trkpt lat="45.23825" lon="5.66151">
        <ele>146.21</ele>
        <time>2017-02-18T15:03:48Z</time>
      </trkpt>
      <trkpt lat="45.23846" lon="5.66139">
        <ele>146</ele>
        <time>2017-02-18T15:03:49Z</time>
      </trkpt>
      <trkpt lat="45.23867" lon="5.66126">
        <ele>145.8</ele>
        <time>2017-02-18T15:03:50Z</time>
      </trkpt>
      <trkpt lat="45.23887" lon="5.66114">
        <ele>145.84</ele>
        <time>2017-02-18T15:03:51Z</time>
      </trkpt>
      <trkpt lat="45.23908" lon="5.66101">
        <ele>145.69</ele>
        <time>2017-02-18T15:03:52Z</time>
      </trkpt>
      <trkpt lat="45.23929" lon="5.66088">
        <ele>145.66</ele>
        <time>2017-02-18T15:03:53Z</time>
      </trkpt>
      <trkpt lat="45.2395" lon="5.66075">
        <ele>145.81</ele>
        <time>2017-02-18T15:03:54Z</time>
      </trkpt>
      <trkpt lat="45.2397" lon="5.66062">
        <ele>146</ele>
        <time>2017-02-18T15:03:55Z</time>
      </trkpt>
      <trkpt lat="45.23991" lon="5.66049">
        <ele>145.96</ele>
        <time>2017-02-18T15:03:56Z</time>
      </trkpt>
      <trkpt lat="45.24011" lon="5.66035">
        <ele>146.11</ele>
        <time>2017-02-18T15:03:57Z</time>
      </trkpt>
      <trkpt lat="45.24031" lon="5.66021">
        <ele>146.14</ele>
        <time>2017-02-18T15:03:58Z</time>
      </trkpt>
      <trkpt lat="45.24051" lon="5.66007">
        <ele>146.15</ele>
        <time>2017-02-18T15:03:59Z</time>
      </trkpt>
      <trkpt lat="45.24072" lon="5.65993">
        <ele>146.23</ele>
        <time>2017-02-18T15:04:00Z</time>
      </trkpt>
      <trkpt lat="45.24092" lon="5.65979">
        <ele>146.64</ele>
        <time>2017-02-18T15:04:01Z</time>
      </trkpt>
      <trkpt lat="45.24112" lon="5.65965">
        <ele>146.65</ele>
        <time>2017-02-18T15:04:02Z</time>
      </trkpt>
      <trkpt lat="45.24131" lon="5.65951">
        <ele>146.57</ele>
        <time>2017-02-18T15:04:03Z</time>
      </trkpt>
      <trkpt lat="45.24151" lon="5.65937">
        <ele>146.63</ele>
        <time>2017-02-18T15:04:04Z</time>
      </trkpt>
      <trkpt lat="45.24171" lon="5.65923">
        <ele>146.65</ele>
        <time>2017-02-18T15:04:05Z</time>
      </trkpt>
      <trkpt lat="45.24191" lon="5.65909">
        <ele>146.41</ele>
        <time>2017-02-18T15:04:06Z</time>
      </trkpt>
      <trkpt lat="45.2421" lon="5.65894">
        <ele>146.2</ele>
        <time>2017-02-18T15:04:07Z</time>
      </trkpt>
      <trkpt lat="45.24229" lon="5.6588">
        <ele>146</ele>
        <time>2017-02-18T15:04:08Z</time>
      </trkpt>
      <trkpt lat="45.24249" lon="5.65866">
        <ele>146.04</ele>
        <time>2017-02-18T15:04:09Z</time>
      </trkpt>
      <trkpt lat="45.24268" lon="5.65852">
        <ele>146.13</ele>
        <time>2017-02-18T15:04:10Z</time>
      </trkpt>
      <trkpt lat="45.24288" lon="5.65837">
        <ele>145.5</ele>
        <time>2017-02-18T15:04:11Z</time>
      </trkpt>
      <trkpt lat="45.24308" lon="5.65822">
        <ele>144.9</ele>
        <time>2017-02-18T15:04:12Z</time>
      </trkpt>
      <trkpt lat="45.24329" lon="5.65806">
        <ele>144.54</ele>
        <time>2017-02-18T15:04:13Z</time>
      </trkpt>
      <trkpt lat="45.2435" lon="5.6579">
        <ele>144.15</ele>
        <time>2017-02-18T15:04:14Z</time>
      </trkpt>
      <trkpt lat="45.24372" lon="5.65773">
        <ele>143.83</ele>
        <time>2017-02-18T15:04:15Z</time>
      </trkpt>
      <trkpt lat="45.24394" lon="5.65756">
        <ele>143.76</ele>
        <time>2017-02-18T15:04:16Z</time>
      </trkpt>
      <trkpt lat="45.24417" lon="5.6574">
        <ele>143.83</ele>
        <time>2017-02-18T15:04:17Z</time>
      </trkpt>
      <trkpt lat="45.24439" lon="5.65723">
        <ele>143.85</ele>
        <time>2017-02-18T15:04:18Z</time>
      </trkpt>
      <trkpt lat="45.24461" lon="5.65707">
        <ele>143.69</ele>
        <time>2017-02-18T15:04:19Z</time>
      </trkpt>
      <trkpt lat="45.24484" lon="5.65691">
        <ele>143.66</ele>
        <time>2017-02-18T15:04:20Z</time>
      </trkpt>
      <trkpt lat="45.24506" lon="5.65674">
        <ele>143.57</ele>
        <time>2017-02-18T15:04:21Z</time>
      </trkpt>
      <trkpt lat="45.24529" lon="5.65658">
        <ele>143.55</ele>
        <time>2017-02-18T15:04:22Z</time>
      </trkpt>
      <trkpt lat="45.24551" lon="5.65641">
        <ele>143.55</ele>
        <time>2017-02-18T15:04:23Z</time>
      </trkpt>
      <trkpt lat="45.24573" lon="5.65625">
        <ele>143.55</ele>
        <time>2017-02-18T15:04:24Z</time>
      </trkpt>
      <trkpt lat="45.24595" lon="5.65609">
        <ele>143.63</ele>
        <time>2017-02-18T15:04:25Z</time>
      </trkpt>
      <trkpt lat="45.24618" lon="5.65593">
        <ele>143.81</ele>
        <time>2017-02-18T15:04:26Z</time>
      </trkpt>
      <trkpt lat="45.2464" lon="5.65577">
        <ele>143.92</ele>
        <time>2017-02-18T15:04:27Z</time>
      </trkpt>
      <trkpt lat="45.24662" lon="5.65562">
        <ele>143.94</ele>
        <time>2017-02-18T15:04:28Z</time>
      </trkpt>
      <trkpt lat="45.24683" lon="5.65546">
        <ele>143.87</ele>
        <time>2017-02-18T15:04:29Z</time>
      </trkpt>
      <trkpt lat="45.24705" lon="5.6553">
        <ele>143.69</ele>
        <time>2017-02-18T15:04:30Z</time>
      </trkpt>
      <trkpt lat="45.24727" lon="5.65513">
        <ele>143.5</ele>
        <time>2017-02-18T15:04:31Z</time>
      </trkpt>
      <trkpt lat="45.24749" lon="5.65496">
        <ele>143.54</ele>
        <time>2017-02-18T15:04:32Z</time>
      </trkpt>
      <trkpt lat="45.2477" lon="5.6548">
        <ele>143.47</ele>
        <time>2017-02-18T15:04:33Z</time>
      </trkpt>
      <trkpt lat="45.24792" lon="5.65463">
        <ele>143.77</ele>
        <time>2017-02-18T15:04:34Z</time>
      </trkpt>
      <trkpt lat="45.24813" lon="5.65446">
        <ele>143.91</ele>
        <time>2017-02-18T15:04:35Z</time>
      </trkpt>
      <trkpt lat="45.24834" lon="5.65428">
        <ele>144.1</ele>
        <time>2017-02-18T15:04:36Z</time>
      </trkpt>
      <trkpt lat="45.24854" lon="5.6541">
        <ele>143.98</ele>
        <time>2017-02-18T15:04:37Z</time>
      </trkpt>
      <trkpt lat="45.24874" lon="5.65391">
        <ele>144.12</ele>
        <time>2017-02-18T15:04:38Z</time>
      </trkpt>
      <trkpt lat="45.24894" lon="5.65371">
        <ele>144.06</ele>
        <time>2017-02-18T15:04:39Z</time>
      </trkpt>
      <trkpt lat="45.24914" lon="5.65351">
        <ele>143.65</ele>
        <time>2017-02-18T15:04:40Z</time>
      </trkpt>
      <trkpt lat="45.24934" lon="5.6533">
        <ele>143.17</ele>
        <time>2017-02-18T15:04:41Z</time>
      </trkpt>
      <trkpt lat="45.24953" lon="5.65309">
        <ele>142.91</ele>
        <time>2017-02-18T15:04:42Z</time>
      </trkpt>
      <trkpt lat="45.24973" lon="5.65287">
        <ele>142.78</ele>
        <time>2017-02-18T15:04:43Z</time>
      </trkpt>
      <trkpt lat="45.24993" lon="5.65265">
        <ele>142.6</ele>
        <time>2017-02-18T15:04:44Z</time>
      </trkpt>
      <trkpt lat="45.25012" lon="5.65242">
        <ele>142.48</ele>
        <time>2017-02-18T15:04:45Z</time>
      </trkpt>
      <trkpt lat="45.25031" lon="5.65219">
        <ele>142.53</ele>
        <time>2017-02-18T15:04:46Z</time>
      </trkpt>
      <trkpt lat="45.2505" lon="5.65195">
        <ele>142.55</ele>
        <time>2017-02-18T15:04:47Z</time>
      </trkpt>
      <trkpt lat="45.25069" lon="5.65171">
        <ele>142.31</ele>
        <time>2017-02-18T15:04:48Z</time>
      </trkpt>
      <trkpt lat="45.25087" lon="5.65147">
        <ele>142.02</ele>
        <time>2017-02-18T15:04:49Z</time>
      </trkpt>
      <trkpt lat="45.25106" lon="5.65122">
        <ele>142.04</ele>
        <time>2017-02-18T15:04:50Z</time>
      </trkpt>
      <trkpt lat="45.25124" lon="5.65097">
        <ele>142.05</ele>
        <time>2017-02-18T15:04:51Z</time>
      </trkpt>
      <trkpt lat="45.25143" lon="5.65073">
        <ele>141.97</ele>
        <time>2017-02-18T15:04:52Z</time>
      </trkpt>
      <trkpt lat="45.25161" lon="5.65048">
        <ele>141.87</ele>
        <time>2017-02-18T15:04:53Z</time>
      </trkpt>
      <trkpt lat="45.25179" lon="5.65024">
        <ele>141.61</ele>
        <time>2017-02-18T15:04:54Z</time>
      </trkpt>
      <trkpt lat="45.25198" lon="5.64999">
        <ele>141.48</ele>
        <time>2017-02-18T15:04:55Z</time>
      </trkpt>
      <trkpt lat="45.25216" lon="5.64975">
        <ele>141.46</ele>
        <time>2017-02-18T15:04:56Z</time>
      </trkpt>
      <trkpt lat="45.25234" lon="5.64951">
        <ele>141.37</ele>
        <time>2017-02-18T15:04:57Z</time>
      </trkpt>
      <trkpt lat="45.25252" lon="5.64927">
        <ele>141.43</ele>
        <time>2017-02-18T15:04:58Z</time>
      </trkpt>
      <trkpt lat="45.2527" lon="5.64903">
        <ele>141.45</ele>
        <time>2017-02-18T15:04:59Z</time>
      </trkpt>
      <trkpt lat="45.25288" lon="5.64878">
        <ele>141.45</ele>
        <time>2017-02-18T15:05:00Z</time>
      </trkpt>
      <trkpt lat="45.25306" lon="5.64854">
        <ele>141.37</ele>
        <time>2017-02-18T15:05:01Z</time>
      </trkpt>
      <trkpt lat="45.25323" lon="5.6483">
        <ele>141.59</ele>
        <time>2017-02-18T15:05:02Z</time>
      </trkpt>
      <trkpt lat="45.25341" lon="5.64806">
        <ele>141.56</ele>
        <time>2017-02-18T15:05:03Z</time>
      </trkpt>
      <trkpt lat="45.25358" lon="5.64781">
        <ele>141.71</ele>
        <time>2017-02-18T15:05:04Z</time>
      </trkpt>
      <trkpt lat="45.25376" lon="5.64757">
        <ele>141.9</ele>
        <time>2017-02-18T15:05:05Z</time>
      </trkpt>
      <trkpt lat="45.25393" lon="5.64733">
        <ele>141.78</ele>
        <time>2017-02-18T15:05:06Z</time>
      </trkpt>
      <trkpt lat="45.25411" lon="5.64708">
        <ele>141.76</ele>
        <time>2017-02-18T15:05:07Z</time>
      </trkpt>
      <trkpt lat="45.25428" lon="5.64683">
        <ele>141.67</ele>
        <time>2017-02-18T15:05:08Z</time>
      </trkpt>
      <trkpt lat="45.25446" lon="5.64657">
        <ele>141.81</ele>
        <time>2017-02-18T15:05:09Z</time>
      </trkpt>
      <trkpt lat="45.25464" lon="5.64632">
        <ele>141.92</ele>
        <time>2017-02-18T15:05:10Z</time>
      </trkpt>
      <trkpt lat="45.25481" lon="5.64606">
        <ele>142.02</ele>
        <time>2017-02-18T15:05:11Z</time>
      </trkpt>
      <trkpt lat="45.25498" lon="5.6458">
        <ele>141.96</ele>
        <time>2017-02-18T15:05:12Z</time>
      </trkpt>
      <trkpt lat="45.25515" lon="5.64553">
        <ele>141.87</ele>
        <time>2017-02-18T15:05:13Z</time>
      </trkpt>
      <trkpt lat="45.25531" lon="5.64527">
        <ele>141.69</ele>
        <time>2017-02-18T15:05:14Z</time>
      </trkpt>
      <trkpt lat="45.25547" lon="5.645">
        <ele>141.34</ele>
        <time>2017-02-18T15:05:15Z</time>
      </trkpt>
      <trkpt lat="45.25563" lon="5.64474">
        <ele>141.11</ele>
        <time>2017-02-18T15:05:16Z</time>
      </trkpt>
      <trkpt lat="45.25579" lon="5.64447">
        <ele>140.98</ele>
        <time>2017-02-18T15:05:17Z</time>
      </trkpt>
      <trkpt lat="45.25594" lon="5.6442">
        <ele>140.48</ele>
        <time>2017-02-18T15:05:18Z</time>
      </trkpt>
      <trkpt lat="45.25609" lon="5.64392">
        <ele>140.05</ele>
        <time>2017-02-18T15:05:19Z</time>
      </trkpt>
      <trkpt lat="45.25624" lon="5.64365">
        <ele>139.73</ele>
        <time>2017-02-18T15:05:20Z</time>
      </trkpt>
      <trkpt lat="45.25639" lon="5.64338">
        <ele>139.59</ele>
        <time>2017-02-18T15:05:21Z</time>
      </trkpt>
      <trkpt lat="45.25653" lon="5.6431">
        <ele>140.04</ele>
        <time>2017-02-18T15:05:22Z</time>
      </trkpt>
      <trkpt lat="45.25668" lon="5.64282">
        <ele>139.97</ele>
        <time>2017-02-18T15:05:23Z</time>
      </trkpt>
      <trkpt lat="45.25683" lon="5.64255">
        <ele>139.95</ele>
        <time>2017-02-18T15:05:24Z</time>
      </trkpt>
      <trkpt lat="45.25697" lon="5.64226">
        <ele>140.03</ele>
        <time>2017-02-18T15:05:25Z</time>
      </trkpt>
      <trkpt lat="45.25712" lon="5.64198">
        <ele>139.89</ele>
        <time>2017-02-18T15:05:26Z</time>
      </trkpt>
      <trkpt lat="45.25727" lon="5.6417">
        <ele>139.7</ele>
        <time>2017-02-18T15:05:27Z</time>
      </trkpt>
      <trkpt lat="45.25742" lon="5.64142">
        <ele>139.66</ele>
        <time>2017-02-18T15:05:28Z</time>
      </trkpt>
      <trkpt lat="45.25758" lon="5.64114">
        <ele>139.97</ele>
        <time>2017-02-18T15:05:29Z</time>
      </trkpt>
      <trkpt lat="45.25773" lon="5.64086">
        <ele>140.27</ele>
        <time>2017-02-18T15:05:30Z</time>
      </trkpt>
      <trkpt lat="45.25788" lon="5.64058">
        <ele>140.33</ele>
        <time>2017-02-18T15:05:31Z</time>
      </trkpt>
      <trkpt lat="45.25803" lon="5.64031">
        <ele>140.43</ele>
        <time>2017-02-18T15:05:32Z</time>
      </trkpt>
      <trkpt lat="45.25818" lon="5.64004">
        <ele>140.36</ele>
        <time>2017-02-18T15:05:33Z</time>
      </trkpt>
      <trkpt lat="45.25834" lon="5.63978">
        <ele>140.03</ele>
        <time>2017-02-18T15:05:34Z</time>
      </trkpt>
      <trkpt lat="45.2585" lon="5.63951">
        <ele>139.97</ele>
        <time>2017-02-18T15:05:35Z</time>
      </trkpt>
      <trkpt lat="45.25866" lon="5.63925">
        <ele>139.87</ele>
        <time>2017-02-18T15:05:36Z</time>
      </trkpt>
      <trkpt lat="45.25883" lon="5.63899">
        <ele>139.77</ele>
        <time>2017-02-18T15:05:37Z</time>
      </trkpt>
      <trkpt lat="45.25899" lon="5.63873">
        <ele>139.67</ele>
        <time>2017-02-18T15:05:38Z</time>
      </trkpt>
      <trkpt lat="45.25916" lon="5.63847">
        <ele>139.65</ele>
        <time>2017-02-18T15:05:39Z</time>
      </trkpt>
      <trkpt lat="45.25934" lon="5.63822">
        <ele>139.41</ele>
        <time>2017-02-18T15:05:40Z</time>
      </trkpt>
      <trkpt lat="45.25951" lon="5.63797">
        <ele>139.28</ele>
        <time>2017-02-18T15:05:41Z</time>
      </trkpt>
      <trkpt lat="45.25969" lon="5.63772">
        <ele>139.02</ele>
        <time>2017-02-18T15:05:42Z</time>
      </trkpt>
      <trkpt lat="45.25987" lon="5.63748">
        <ele>138.88</ele>
        <time>2017-02-18T15:05:43Z</time>
      </trkpt>
      <trkpt lat="45.26005" lon="5.63724">
        <ele>138.78</ele>
        <time>2017-02-18T15:05:44Z</time>
      </trkpt>
      <trkpt lat="45.26023" lon="5.637">
        <ele>138.59</ele>
        <time>2017-02-18T15:05:45Z</time>
      </trkpt>
      <trkpt lat="45.26042" lon="5.63677">
        <ele>138.56</ele>
        <time>2017-02-18T15:05:46Z</time>
      </trkpt>
      <trkpt lat="45.2606" lon="5.63653">
        <ele>138.15</ele>
        <time>2017-02-18T15:05:47Z</time>
      </trkpt>
      <trkpt lat="45.26079" lon="5.6363">
        <ele>137.91</ele>
        <time>2017-02-18T15:05:48Z</time>
      </trkpt>
      <trkpt lat="45.26097" lon="5.63607">
        <ele>137.7</ele>
        <time>2017-02-18T15:05:49Z</time>
      </trkpt>
      <trkpt lat="45.26116" lon="5.63584">
        <ele>137.58</ele>
        <time>2017-02-18T15:05:50Z</time>
      </trkpt>
      <trkpt lat="45.26134" lon="5.63561">
        <ele>137.32</ele>
        <time>2017-02-18T15:05:51Z</time>
      </trkpt>
      <trkpt lat="45.26153" lon="5.63538">
        <ele>137.18</ele>
        <time>2017-02-18T15:05:52Z</time>
      </trkpt>
      <trkpt lat="45.26172" lon="5.63515">
        <ele>136.92</ele>
        <time>2017-02-18T15:05:53Z</time>
      </trkpt>
      <trkpt lat="45.26191" lon="5.63492">
        <ele>136.78</ele>
        <time>2017-02-18T15:05:54Z</time>
      </trkpt>
      <trkpt lat="45.2621" lon="5.6347">
        <ele>137.08</ele>
        <time>2017-02-18T15:05:55Z</time>
      </trkpt>
      <trkpt lat="45.26228" lon="5.63447">
        <ele>137.29</ele>
        <time>2017-02-18T15:05:56Z</time>
      </trkpt>
      <trkpt lat="45.26247" lon="5.63423">
        <ele>137.34</ele>
        <time>2017-02-18T15:05:57Z</time>
      </trkpt>
      <trkpt lat="45.26266" lon="5.634">
        <ele>137.59</ele>
        <time>2017-02-18T15:05:58Z</time>
      </trkpt>
      <trkpt lat="45.26285" lon="5.63377">
        <ele>137.64</ele>
        <time>2017-02-18T15:05:59Z</time>
      </trkpt>
      <trkpt lat="45.26305" lon="5.63354">
        <ele>137.73</ele>
        <time>2017-02-18T15:06:00Z</time>
      </trkpt>
      <trkpt lat="45.26324" lon="5.6333">
        <ele>137.66</ele>
        <time>2017-02-18T15:06:01Z</time>
      </trkpt>
      <trkpt lat="45.26343" lon="5.63307">
        <ele>137.49</ele>
        <time>2017-02-18T15:06:02Z</time>
      </trkpt>
      <trkpt lat="45.26363" lon="5.63284">
        <ele>137.54</ele>
        <time>2017-02-18T15:06:03Z</time>
      </trkpt>
      <trkpt lat="45.26382" lon="5.6326">
        <ele>137.55</ele>
        <time>2017-02-18T15:06:04Z</time>
      </trkpt>
      <trkpt lat="45.26402" lon="5.63237">
        <ele>137.63</ele>
        <time>2017-02-18T15:06:05Z</time>
      </trkpt>
      <trkpt lat="45.26421" lon="5.63213">
        <ele>137.88</ele>
        <time>2017-02-18T15:06:06Z</time>
      </trkpt>
      <trkpt lat="45.26441" lon="5.6319">
        <ele>138.1</ele>
        <time>2017-02-18T15:06:07Z</time>
      </trkpt>
      <trkpt lat="45.2646" lon="5.63166">
        <ele>138.22</ele>
        <time>2017-02-18T15:06:08Z</time>
      </trkpt>
      <trkpt lat="45.26479" lon="5.63143">
        <ele>138.4</ele>
        <time>2017-02-18T15:06:09Z</time>
      </trkpt>
      <trkpt lat="45.26499" lon="5.6312">
        <ele>138.36</ele>
        <time>2017-02-18T15:06:10Z</time>
      </trkpt>
      <trkpt lat="45.26518" lon="5.63098">
        <ele>138.43</ele>
        <time>2017-02-18T15:06:11Z</time>
      </trkpt>
      <trkpt lat="45.26538" lon="5.63076">
        <ele>138.29</ele>
        <time>2017-02-18T15:06:12Z</time>
      </trkpt>
      <trkpt lat="45.26558" lon="5.63054">
        <ele>138.34</ele>
        <time>2017-02-18T15:06:13Z</time>
      </trkpt>
      <trkpt lat="45.26578" lon="5.63032">
        <ele>138.43</ele>
        <time>2017-02-18T15:06:14Z</time>
      </trkpt>
      <trkpt lat="45.26598" lon="5.63011">
        <ele>138.52</ele>
        <time>2017-02-18T15:06:15Z</time>
      </trkpt>
      <trkpt lat="45.26619" lon="5.62991">
        <ele>138.54</ele>
        <time>2017-02-18T15:06:16Z</time>
      </trkpt>
      <trkpt lat="45.2664" lon="5.62971">
        <ele>138.63</ele>
        <time>2017-02-18T15:06:17Z</time>
      </trkpt>
      <trkpt lat="45.26661" lon="5.62951">
        <ele>138.72</ele>
        <time>2017-02-18T15:06:18Z</time>
      </trkpt>
      <trkpt lat="45.26682" lon="5.62933">
        <ele>138.74</ele>
        <time>2017-02-18T15:06:19Z</time>
      </trkpt>
      <trkpt lat="45.26704" lon="5.62915">
        <ele>138.83</ele>
        <time>2017-02-18T15:06:20Z</time>
      </trkpt>
      <trkpt lat="45.26726" lon="5.62897">
        <ele>138.92</ele>
        <time>2017-02-18T15:06:21Z</time>
      </trkpt>
      <trkpt lat="45.26748" lon="5.6288">
        <ele>139.02</ele>
        <time>2017-02-18T15:06:22Z</time>
      </trkpt>
      <trkpt lat="45.26771" lon="5.62864">
        <ele>139.12</ele>
        <time>2017-02-18T15:06:23Z</time>
      </trkpt>
      <trkpt lat="45.26793" lon="5.62849">
        <ele>139.3</ele>
        <time>2017-02-18T15:06:24Z</time>
      </trkpt>
      <trkpt lat="45.26816" lon="5.62834">
        <ele>139.5</ele>
        <time>2017-02-18T15:06:25Z</time>
      </trkpt>
      <trkpt lat="45.26839" lon="5.6282">
        <ele>139.54</ele>
        <time>2017-02-18T15:06:26Z</time>
      </trkpt>
      <trkpt lat="45.26863" lon="5.62807">
        <ele>140.03</ele>
        <time>2017-02-18T15:06:27Z</time>
      </trkpt>
      <trkpt lat="45.26885" lon="5.62796">
        <ele>140.2</ele>
        <time>2017-02-18T15:06:28Z</time>
      </trkpt>
      <trkpt lat="45.26908" lon="5.62785">
        <ele>139.44</ele>
        <time>2017-02-18T15:06:29Z</time>
      </trkpt>
      <trkpt lat="45.26931" lon="5.62774">
        <ele>139.05</ele>
        <time>2017-02-18T15:06:30Z</time>
      </trkpt>
      <trkpt lat="45.26953" lon="5.62764">
        <ele>138.81</ele>
        <time>2017-02-18T15:06:31Z</time>
      </trkpt>
      <trkpt lat="45.26975" lon="5.62754">
        <ele>138.68</ele>
        <time>2017-02-18T15:06:32Z</time>
      </trkpt>
      <trkpt lat="45.26997" lon="5.62745">
        <ele>138.66</ele>
        <time>2017-02-18T15:06:33Z</time>
      </trkpt>
      <trkpt lat="45.27019" lon="5.62736">
        <ele>138.57</ele>
        <time>2017-02-18T15:06:34Z</time>
      </trkpt>
      <trkpt lat="45.2704" lon="5.62728">
        <ele>138.63</ele>
        <time>2017-02-18T15:06:35Z</time>
      </trkpt>
      <trkpt lat="45.27061" lon="5.62721">
        <ele>138.89</ele>
        <time>2017-02-18T15:06:36Z</time>
      </trkpt>
      <trkpt lat="45.27082" lon="5.62715">
        <ele>139.34</ele>
        <time>2017-02-18T15:06:37Z</time>
      </trkpt>
      <trkpt lat="45.27102" lon="5.62711">
        <ele>139.75</ele>
        <time>2017-02-18T15:06:38Z</time>
      </trkpt>
      <trkpt lat="45.27122" lon="5.6271">
        <ele>140.23</ele>
        <time>2017-02-18T15:06:39Z</time>
      </trkpt>
      <trkpt lat="45.27142" lon="5.62711">
        <ele>140.48</ele>
        <time>2017-02-18T15:06:40Z</time>
      </trkpt>
      <trkpt lat="45.27162" lon="5.62715">
        <ele>140.62</ele>
        <time>2017-02-18T15:06:41Z</time>
      </trkpt>
      <trkpt lat="45.27181" lon="5.62719">
        <ele>140.8</ele>
        <time>2017-02-18T15:06:42Z</time>
      </trkpt>
      <trkpt lat="45.272" lon="5.62723">
        <ele>140.68</ele>
        <time>2017-02-18T15:06:43Z</time>
      </trkpt>
      <trkpt lat="45.27218" lon="5.62727">
        <ele>140.18</ele>
        <time>2017-02-18T15:06:44Z</time>
      </trkpt>
      <trkpt lat="45.27237" lon="5.6273">
        <ele>139.43</ele>
        <time>2017-02-18T15:06:45Z</time>
      </trkpt>
      <trkpt lat="45.27256" lon="5.62733">
        <ele>138.65</ele>
        <time>2017-02-18T15:06:46Z</time>
      </trkpt>
      <trkpt lat="45.27275" lon="5.62735">
        <ele>138.25</ele>
        <time>2017-02-18T15:06:47Z</time>
      </trkpt>
      <trkpt lat="45.27294" lon="5.62736">
        <ele>137.85</ele>
        <time>2017-02-18T15:06:48Z</time>
      </trkpt>
      <trkpt lat="45.27314" lon="5.62735">
        <ele>137.45</ele>
        <time>2017-02-18T15:06:49Z</time>
      </trkpt>
      <trkpt lat="45.27334" lon="5.62732">
        <ele>136.97</ele>
        <time>2017-02-18T15:06:50Z</time>
      </trkpt>
      <trkpt lat="45.27354" lon="5.62725">
        <ele>136.55</ele>
        <time>2017-02-18T15:06:51Z</time>
      </trkpt>
      <trkpt lat="45.27374" lon="5.62717">
        <ele>136.47</ele>
        <time>2017-02-18T15:06:52Z</time>
      </trkpt>
      <trkpt lat="45.27393" lon="5.62706">
        <ele>136.45</ele>
        <time>2017-02-18T15:06:53Z</time>
      </trkpt>
      <trkpt lat="45.27412" lon="5.62694">
        <ele>136.53</ele>
        <time>2017-02-18T15:06:54Z</time>
      </trkpt>
      <trkpt lat="45.2743" lon="5.6268">
        <ele>136.55</ele>
        <time>2017-02-18T15:06:55Z</time>
      </trkpt>
      <trkpt lat="45.27449" lon="5.62665">
        <ele>136.79</ele>
        <time>2017-02-18T15:06:56Z</time>
      </trkpt>
      <trkpt lat="45.27468" lon="5.62651">
        <ele>137.08</ele>
        <time>2017-02-18T15:06:57Z</time>
      </trkpt>
      <trkpt lat="45.27487" lon="5.62637">
        <ele>137.37</ele>
        <time>2017-02-18T15:06:58Z</time>
      </trkpt>
      <trkpt lat="45.27506" lon="5.62625">
        <ele>137.99</ele>
        <time>2017-02-18T15:06:59Z</time>
      </trkpt>
      <trkpt lat="45.27526" lon="5.62615">
        <ele>138.36</ele>
        <time>2017-02-18T15:07:00Z</time>
      </trkpt>
      <trkpt lat="45.27546" lon="5.62607">
        <ele>138.67</ele>
        <time>2017-02-18T15:07:01Z</time>
      </trkpt>
      <trkpt lat="45.27566" lon="5.62599">
        <ele>138.57</ele>
        <time>2017-02-18T15:07:02Z</time>
      </trkpt>
      <trkpt lat="45.27587" lon="5.62592">
        <ele>138.31</ele>
        <time>2017-02-18T15:07:03Z</time>
      </trkpt>
      <trkpt lat="45.27609" lon="5.62585">
        <ele>138.26</ele>
        <time>2017-02-18T15:07:04Z</time>
      </trkpt>
      <trkpt lat="45.2763" lon="5.62577">
        <ele>137.93</ele>
        <time>2017-02-18T15:07:05Z</time>
      </trkpt>
      <trkpt lat="45.27652" lon="5.62569">
        <ele>137.55</ele>
        <time>2017-02-18T15:07:06Z</time>
      </trkpt>
      <trkpt lat="45.27674" lon="5.62561">
        <ele>136.83</ele>
        <time>2017-02-18T15:07:07Z</time>
      </trkpt>
      <trkpt lat="45.27696" lon="5.62553">
        <ele>136.68</ele>
        <time>2017-02-18T15:07:08Z</time>
      </trkpt>
      <trkpt lat="45.27718" lon="5.62546">
        <ele>136.74</ele>
        <time>2017-02-18T15:07:09Z</time>
      </trkpt>
      <trkpt lat="45.2774" lon="5.62538">
        <ele>136.91</ele>
        <time>2017-02-18T15:07:10Z</time>
      </trkpt>
      <trkpt lat="45.27762" lon="5.62531">
        <ele>137.1</ele>
        <time>2017-02-18T15:07:11Z</time>
      </trkpt>
      <trkpt lat="45.27784" lon="5.62523">
        <ele>137.3</ele>
        <time>2017-02-18T15:07:12Z</time>
      </trkpt>
      <trkpt lat="45.27806" lon="5.62515">
        <ele>137.34</ele>
        <time>2017-02-18T15:07:13Z</time>
      </trkpt>
      <trkpt lat="45.27828" lon="5.62507">
        <ele>137.35</ele>
        <time>2017-02-18T15:07:14Z</time>
      </trkpt>
      <trkpt lat="45.27848" lon="5.625">
        <ele>135.67</ele>
        <time>2017-02-18T15:07:15Z</time>
      </trkpt>
      <trkpt lat="45.27867" lon="5.62493">
        <ele>134.69</ele>
        <time>2017-02-18T15:07:16Z</time>
      </trkpt>
      <trkpt lat="45.27885" lon="5.62486">
        <ele>134.66</ele>
        <time>2017-02-18T15:07:17Z</time>
      </trkpt>
      <trkpt lat="45.27901" lon="5.6248">
        <ele>134.25</ele>
        <time>2017-02-18T15:07:18Z</time>
      </trkpt>
      <trkpt lat="45.27916" lon="5.62474">
        <ele>133.93</ele>
        <time>2017-02-18T15:07:19Z</time>
      </trkpt>
      <trkpt lat="45.2793" lon="5.62469">
        <ele>133.23</ele>
        <time>2017-02-18T15:07:20Z</time>
      </trkpt>
      <trkpt lat="45.27943" lon="5.62464">
        <ele>133</ele>
        <time>2017-02-18T15:07:21Z</time>
      </trkpt>
      <trkpt lat="45.27954" lon="5.62461">
        <ele>132.96</ele>
        <time>2017-02-18T15:07:22Z</time>
      </trkpt>
      <trkpt lat="45.27964" lon="5.6246">
        <ele>132.79</ele>
        <time>2017-02-18T15:07:23Z</time>
      </trkpt>
      <trkpt lat="45.27973" lon="5.62461">
        <ele>133.16</ele>
        <time>2017-02-18T15:07:24Z</time>
      </trkpt>
      <trkpt lat="45.27981" lon="5.62463">
        <ele>133.23</ele>
        <time>2017-02-18T15:07:25Z</time>
      </trkpt>
      <trkpt lat="45.27988" lon="5.62464">
        <ele>133.33</ele>
        <time>2017-02-18T15:07:26Z</time>
      </trkpt>
      <trkpt lat="45.27995" lon="5.62465">
        <ele>133.34</ele>
        <time>2017-02-18T15:07:27Z</time>
      </trkpt>
      <trkpt lat="45.28001" lon="5.62465">
        <ele>133.27</ele>
        <time>2017-02-18T15:07:28Z</time>
      </trkpt>
      <trkpt lat="45.28006" lon="5.62467">
        <ele>133.49</ele>
        <time>2017-02-18T15:07:29Z</time>
      </trkpt>
      <trkpt lat="45.28011" lon="5.62471">
        <ele>134.02</ele>
        <time>2017-02-18T15:07:30Z</time>
      </trkpt>
      <trkpt lat="45.28015" lon="5.62476">
        <ele>134.12</ele>
        <time>2017-02-18T15:07:31Z</time>
      </trkpt>
      <trkpt lat="45.28019" lon="5.62481">
        <ele>134.14</ele>
        <time>2017-02-18T15:07:32Z</time>
      </trkpt>
      <trkpt lat="45.28022" lon="5.62487">
        <ele>134.07</ele>
        <time>2017-02-18T15:07:33Z</time>
      </trkpt>
      <trkpt lat="45.28025" lon="5.62491">
        <ele>133.97</ele>
        <time>2017-02-18T15:07:34Z</time>
      </trkpt>
      <trkpt lat="45.28027" lon="5.62496">
        <ele>133.95</ele>
        <time>2017-02-18T15:07:35Z</time>
      </trkpt>
      <trkpt lat="45.28029" lon="5.62503">
        <ele>134.03</ele>
        <time>2017-02-18T15:07:36Z</time>
      </trkpt>
      <trkpt lat="45.2803" lon="5.62513">
        <ele>134.37</ele>
        <time>2017-02-18T15:07:37Z</time>
      </trkpt>
      <trkpt lat="45.28032" lon="5.62525">
        <ele>134.59</ele>
        <time>2017-02-18T15:07:38Z</time>
      </trkpt>
      <trkpt lat="45.28033" lon="5.62538">
        <ele>134.8</ele>
        <time>2017-02-18T15:07:39Z</time>
      </trkpt>
      <trkpt lat="45.28036" lon="5.62551">
        <ele>134.92</ele>
        <time>2017-02-18T15:07:40Z</time>
      </trkpt>
      <trkpt lat="45.28039" lon="5.62565">
        <ele>134.94</ele>
        <time>2017-02-18T15:07:41Z</time>
      </trkpt>
      <trkpt lat="45.28041" lon="5.6258">
        <ele>135.03</ele>
        <time>2017-02-18T15:07:42Z</time>
      </trkpt>
      <trkpt lat="45.28043" lon="5.62595">
        <ele>135.12</ele>
        <time>2017-02-18T15:07:43Z</time>
      </trkpt>
      <trkpt lat="45.28046" lon="5.62609">
        <ele>135.14</ele>
        <time>2017-02-18T15:07:44Z</time>
      </trkpt>
      <trkpt lat="45.28048" lon="5.62624">
        <ele>135.15</ele>
        <time>2017-02-18T15:07:45Z</time>
      </trkpt>
      <trkpt lat="45.28051" lon="5.62639">
        <ele>135.23</ele>
        <time>2017-02-18T15:07:46Z</time>
      </trkpt>
      <trkpt lat="45.28053" lon="5.62653">
        <ele>135.32</ele>
        <time>2017-02-18T15:07:47Z</time>
      </trkpt>
      <trkpt lat="45.28055" lon="5.62665">
        <ele>135.66</ele>
        <time>2017-02-18T15:07:48Z</time>
      </trkpt>
      <trkpt lat="45.28057" lon="5.62677">
        <ele>135.65</ele>
        <time>2017-02-18T15:07:49Z</time>
      </trkpt>
      <trkpt lat="45.28059" lon="5.62687">
        <ele>135.65</ele>
        <time>2017-02-18T15:07:50Z</time>
      </trkpt>
      <trkpt lat="45.28061" lon="5.62698">
        <ele>135.65</ele>
        <time>2017-02-18T15:07:51Z</time>
      </trkpt>
      <trkpt lat="45.28063" lon="5.62708">
        <ele>135.33</ele>
        <time>2017-02-18T15:07:52Z</time>
      </trkpt>
      <trkpt lat="45.28065" lon="5.62717">
        <ele>135.26</ele>
        <time>2017-02-18T15:07:53Z</time>
      </trkpt>
      <trkpt lat="45.28066" lon="5.62727">
        <ele>135.25</ele>
        <time>2017-02-18T15:07:54Z</time>
      </trkpt>
      <trkpt lat="45.28068" lon="5.62736">
        <ele>135.17</ele>
        <time>2017-02-18T15:07:55Z</time>
      </trkpt>
      <trkpt lat="45.2807" lon="5.62745">
        <ele>135.55</ele>
        <time>2017-02-18T15:07:56Z</time>
      </trkpt>
      <trkpt lat="45.28071" lon="5.62753">
        <ele>135.63</ele>
        <time>2017-02-18T15:07:57Z</time>
      </trkpt>
      <trkpt lat="45.28072" lon="5.6276">
        <ele>135.73</ele>
        <time>2017-02-18T15:07:58Z</time>
      </trkpt>
      <trkpt lat="45.28073" lon="5.62767">
        <ele>135.74</ele>
        <time>2017-02-18T15:07:59Z</time>
      </trkpt>
      <trkpt lat="45.28074" lon="5.62774">
        <ele>135.67</ele>
        <time>2017-02-18T15:08:00Z</time>
      </trkpt>
      <trkpt lat="45.28076" lon="5.62781">
        <ele>135.65</ele>
        <time>2017-02-18T15:08:01Z</time>
      </trkpt>
      <trkpt lat="45.28077" lon="5.62788">
        <ele>135.57</ele>
        <time>2017-02-18T15:08:02Z</time>
      </trkpt>
      <trkpt lat="45.28078" lon="5.62796">
        <ele>135.55</ele>
        <time>2017-02-18T15:08:03Z</time>
      </trkpt>
      <trkpt lat="45.28079" lon="5.62805">
        <ele>135.55</ele>
        <time>2017-02-18T15:08:04Z</time>
      </trkpt>
      <trkpt lat="45.2808" lon="5.62813">
        <ele>135.71</ele>
        <time>2017-02-18T15:08:05Z</time>
      </trkpt>
      <trkpt lat="45.28082" lon="5.62822">
        <ele>135.74</ele>
        <time>2017-02-18T15:08:06Z</time>
      </trkpt>
      <trkpt lat="45.28083" lon="5.62831">
        <ele>135.91</ele>
        <time>2017-02-18T15:08:07Z</time>
      </trkpt>
      <trkpt lat="45.28086" lon="5.62843">
        <ele>136.18</ele>
        <time>2017-02-18T15:08:08Z</time>
      </trkpt>
      <trkpt lat="45.28089" lon="5.62861">
        <ele>136.32</ele>
        <time>2017-02-18T15:08:09Z</time>
      </trkpt>
      <trkpt lat="45.28092" lon="5.62883">
        <ele>136.26</ele>
        <time>2017-02-18T15:08:10Z</time>
      </trkpt>
      <trkpt lat="45.28096" lon="5.62907">
        <ele>136.09</ele>
        <time>2017-02-18T15:08:11Z</time>
      </trkpt>
      <trkpt lat="45.28101" lon="5.62931">
        <ele>135.98</ele>
        <time>2017-02-18T15:08:12Z</time>
      </trkpt>
      <trkpt lat="45.28105" lon="5.62955">
        <ele>135.95</ele>
        <time>2017-02-18T15:08:13Z</time>
      </trkpt>
      <trkpt lat="45.2811" lon="5.62979">
        <ele>135.95</ele>
        <time>2017-02-18T15:08:14Z</time>
      </trkpt>
      <trkpt lat="45.28114" lon="5.63004">
        <ele>135.95</ele>
        <time>2017-02-18T15:08:15Z</time>
      </trkpt>
      <trkpt lat="45.28118" lon="5.63028">
        <ele>136.03</ele>
        <time>2017-02-18T15:08:16Z</time>
      </trkpt>
      <trkpt lat="45.28122" lon="5.63051">
        <ele>136.21</ele>
        <time>2017-02-18T15:08:17Z</time>
      </trkpt>
      <trkpt lat="45.28127" lon="5.63075">
        <ele>136.32</ele>
        <time>2017-02-18T15:08:18Z</time>
      </trkpt>
      <trkpt lat="45.28131" lon="5.63097">
        <ele>136.5</ele>
        <time>2017-02-18T15:08:19Z</time>
      </trkpt>
      <trkpt lat="45.28135" lon="5.63119">
        <ele>136.62</ele>
        <time>2017-02-18T15:08:20Z</time>
      </trkpt>
      <trkpt lat="45.28139" lon="5.6314">
        <ele>136.56</ele>
        <time>2017-02-18T15:08:21Z</time>
      </trkpt>
      <trkpt lat="45.28142" lon="5.63159">
        <ele>136.31</ele>
        <time>2017-02-18T15:08:22Z</time>
      </trkpt>
      <trkpt lat="45.28145" lon="5.63177">
        <ele>135.78</ele>
        <time>2017-02-18T15:08:23Z</time>
      </trkpt>
      <trkpt lat="45.28147" lon="5.63194">
        <ele>135.52</ele>
        <time>2017-02-18T15:08:24Z</time>
      </trkpt>
      <trkpt lat="45.28149" lon="5.6321">
        <ele>134.82</ele>
        <time>2017-02-18T15:08:25Z</time>
      </trkpt>
      <trkpt lat="45.2815" lon="5.63224">
        <ele>134.36</ele>
        <time>2017-02-18T15:08:26Z</time>
      </trkpt>
      <trkpt lat="45.28152" lon="5.63238">
        <ele>134.27</ele>
        <time>2017-02-18T15:08:27Z</time>
      </trkpt>
      <trkpt lat="45.28153" lon="5.63249">
        <ele>134.25</ele>
        <time>2017-02-18T15:08:28Z</time>
      </trkpt>
      <trkpt lat="45.28154" lon="5.6326">
        <ele>134.33</ele>
        <time>2017-02-18T15:08:29Z</time>
      </trkpt>
      <trkpt lat="45.28155" lon="5.63269">
        <ele>134.43</ele>
        <time>2017-02-18T15:08:30Z</time>
      </trkpt>
      <trkpt lat="45.28156" lon="5.63277">
        <ele>134.44</ele>
        <time>2017-02-18T15:08:31Z</time>
      </trkpt>
      <trkpt lat="45.28156" lon="5.63285">
        <ele>134.61</ele>
        <time>2017-02-18T15:08:32Z</time>
      </trkpt>
      <trkpt lat="45.28157" lon="5.63291">
        <ele>134.64</ele>
        <time>2017-02-18T15:08:33Z</time>
      </trkpt>
      <trkpt lat="45.28157" lon="5.63297">
        <ele>134.73</ele>
        <time>2017-02-18T15:08:34Z</time>
      </trkpt>
      <trkpt lat="45.28158" lon="5.63302">
        <ele>134.82</ele>
        <time>2017-02-18T15:08:35Z</time>
      </trkpt>
      <trkpt lat="45.28159" lon="5.63308">
        <ele>135</ele>
        <time>2017-02-18T15:08:36Z</time>
      </trkpt>
      <trkpt lat="45.2816" lon="5.63314">
        <ele>135.2</ele>
        <time>2017-02-18T15:08:37Z</time>
      </trkpt>
      <trkpt lat="45.28163" lon="5.63322">
        <ele>135.16</ele>
        <time>2017-02-18T15:08:38Z</time>
      </trkpt>
      <trkpt lat="45.28169" lon="5.6333">
        <ele>135.07</ele>
        <time>2017-02-18T15:08:39Z</time>
      </trkpt>
      <trkpt lat="45.28177" lon="5.63341">
        <ele>135.05</ele>
        <time>2017-02-18T15:08:40Z</time>
      </trkpt>
      <trkpt lat="45.28186" lon="5.63356">
        <ele>135.13</ele>
        <time>2017-02-18T15:08:41Z</time>
      </trkpt>
      <trkpt lat="45.28196" lon="5.63371">
        <ele>135.07</ele>
        <time>2017-02-18T15:08:42Z</time>
      </trkpt>
      <trkpt lat="45.28206" lon="5.63386">
        <ele>134.97</ele>
        <time>2017-02-18T15:08:43Z</time>
      </trkpt>
      <trkpt lat="45.28216" lon="5.63402">
        <ele>134.95</ele>
        <time>2017-02-18T15:08:44Z</time>
      </trkpt>
      <trkpt lat="45.28226" lon="5.63418">
        <ele>134.87</ele>
        <time>2017-02-18T15:08:45Z</time>
      </trkpt>
      <trkpt lat="45.28236" lon="5.63434">
        <ele>134.69</ele>
        <time>2017-02-18T15:08:46Z</time>
      </trkpt>
      <trkpt lat="45.28247" lon="5.6345">
        <ele>134.5</ele>
        <time>2017-02-18T15:08:47Z</time>
      </trkpt>
      <trkpt lat="45.28257" lon="5.63466">
        <ele>134.38</ele>
        <time>2017-02-18T15:08:48Z</time>
      </trkpt>
      <trkpt lat="45.28267" lon="5.63482">
        <ele>134.43</ele>
        <time>2017-02-18T15:08:49Z</time>
      </trkpt>
      <trkpt lat="45.28277" lon="5.63497">
        <ele>134.45</ele>
        <time>2017-02-18T15:08:50Z</time>
      </trkpt>
      <trkpt lat="45.28286" lon="5.63512">
        <ele>134.29</ele>
        <time>2017-02-18T15:08:51Z</time>
      </trkpt>
      <trkpt lat="45.28294" lon="5.63527">
        <ele>134.26</ele>
        <time>2017-02-18T15:08:52Z</time>
      </trkpt>
      <trkpt lat="45.28302" lon="5.6354">
        <ele>134.25</ele>
        <time>2017-02-18T15:08:53Z</time>
      </trkpt>
      <trkpt lat="45.28309" lon="5.63552">
        <ele>134.25</ele>
        <time>2017-02-18T15:08:54Z</time>
      </trkpt>
      <trkpt lat="45.28315" lon="5.63562">
        <ele>134.33</ele>
        <time>2017-02-18T15:08:55Z</time>
      </trkpt>
      <trkpt lat="45.28321" lon="5.63572">
        <ele>134.43</ele>
        <time>2017-02-18T15:08:56Z</time>
      </trkpt>
      <trkpt lat="45.28328" lon="5.63583">
        <ele>134.44</ele>
        <time>2017-02-18T15:08:57Z</time>
      </trkpt>
      <trkpt lat="45.28334" lon="5.63593">
        <ele>134.45</ele>
        <time>2017-02-18T15:08:58Z</time>
      </trkpt>
      <trkpt lat="45.28341" lon="5.63604">
        <ele>134.45</ele>
        <time>2017-02-18T15:08:59Z</time>
      </trkpt>
      <trkpt lat="45.28349" lon="5.63616">
        <ele>134.53</ele>
        <time>2017-02-18T15:09:00Z</time>
      </trkpt>
      <trkpt lat="45.28356" lon="5.63628">
        <ele>134.62</ele>
        <time>2017-02-18T15:09:01Z</time>
      </trkpt>
      <trkpt lat="45.28364" lon="5.63639">
        <ele>134.64</ele>
        <time>2017-02-18T15:09:02Z</time>
      </trkpt>
      <trkpt lat="45.28371" lon="5.6365">
        <ele>134.65</ele>
        <time>2017-02-18T15:09:03Z</time>
      </trkpt>
      <trkpt lat="45.28377" lon="5.6366">
        <ele>134.65</ele>
        <time>2017-02-18T15:09:04Z</time>
      </trkpt>
      <trkpt lat="45.28382" lon="5.63671">
        <ele>134.73</ele>
        <time>2017-02-18T15:09:05Z</time>
      </trkpt>
      <trkpt lat="45.28387" lon="5.63681">
        <ele>134.82</ele>
        <time>2017-02-18T15:09:06Z</time>
      </trkpt>
      <trkpt lat="45.28391" lon="5.63691">
        <ele>134.92</ele>
        <time>2017-02-18T15:09:07Z</time>
      </trkpt>
      <trkpt lat="45.28395" lon="5.637">
        <ele>134.86</ele>
        <time>2017-02-18T15:09:08Z</time>
      </trkpt>
      <trkpt lat="45.28401" lon="5.6371">
        <ele>134.85</ele>
        <time>2017-02-18T15:09:09Z</time>
      </trkpt>
      <trkpt lat="45.28407" lon="5.63721">
        <ele>134.85</ele>
        <time>2017-02-18T15:09:10Z</time>
      </trkpt>
      <trkpt lat="45.28413" lon="5.63731">
        <ele>134.69</ele>
        <time>2017-02-18T15:09:11Z</time>
      </trkpt>
      <trkpt lat="45.2842" lon="5.63741">
        <ele>134.74</ele>
        <time>2017-02-18T15:09:12Z</time>
      </trkpt>
      <trkpt lat="45.28427" lon="5.63752">
        <ele>134.75</ele>
        <time>2017-02-18T15:09:13Z</time>
      </trkpt>
      <trkpt lat="45.28434" lon="5.63763">
        <ele>134.67</ele>
        <time>2017-02-18T15:09:14Z</time>
      </trkpt>
      <trkpt lat="45.28441" lon="5.63773">
        <ele>134.73</ele>
        <time>2017-02-18T15:09:15Z</time>
      </trkpt>
      <trkpt lat="45.28448" lon="5.63784">
        <ele>134.91</ele>
        <time>2017-02-18T15:09:16Z</time>
      </trkpt>
      <trkpt lat="45.28455" lon="5.63793">
        <ele>135.02</ele>
        <time>2017-02-18T15:09:17Z</time>
      </trkpt>
      <trkpt lat="45.28461" lon="5.63801">
        <ele>135.12</ele>
        <time>2017-02-18T15:09:18Z</time>
      </trkpt>
      <trkpt lat="45.28466" lon="5.63808">
        <ele>135.38</ele>
        <time>2017-02-18T15:09:19Z</time>
      </trkpt>
      <trkpt lat="45.28471" lon="5.63815">
        <ele>135.52</ele>
        <time>2017-02-18T15:09:20Z</time>
      </trkpt>
      <trkpt lat="45.28475" lon="5.63821">
        <ele>135.78</ele>
        <time>2017-02-18T15:09:21Z</time>
      </trkpt>
      <trkpt lat="45.28478" lon="5.63825">
        <ele>135.92</ele>
        <time>2017-02-18T15:09:22Z</time>
      </trkpt>
      <trkpt lat="45.28481" lon="5.63829">
        <ele>136.1</ele>
        <time>2017-02-18T15:09:23Z</time>
      </trkpt>
      <trkpt lat="45.28484" lon="5.63831">
        <ele>136.46</ele>
        <time>2017-02-18T15:09:24Z</time>
      </trkpt>
      <trkpt lat="45.28487" lon="5.63835">
        <ele>136.85</ele>
        <time>2017-02-18T15:09:25Z</time>
      </trkpt>
      <trkpt lat="45.28492" lon="5.63841">
        <ele>136.85</ele>
        <time>2017-02-18T15:09:26Z</time>
      </trkpt>
      <trkpt lat="45.28498" lon="5.63849">
        <ele>136.69</ele>
        <time>2017-02-18T15:09:27Z</time>
      </trkpt>
      <trkpt lat="45.28505" lon="5.63857">
        <ele>136.82</ele>
        <time>2017-02-18T15:09:28Z</time>
      </trkpt>
      <trkpt lat="45.28513" lon="5.63866">
        <ele>136.84</ele>
        <time>2017-02-18T15:09:29Z</time>
      </trkpt>
      <trkpt lat="45.28522" lon="5.63874">
        <ele>136.93</ele>
        <time>2017-02-18T15:09:30Z</time>
      </trkpt>
      <trkpt lat="45.28531" lon="5.63883">
        <ele>137.18</ele>
        <time>2017-02-18T15:09:31Z</time>
      </trkpt>
      <trkpt lat="45.2854" lon="5.63893">
        <ele>137.32</ele>
        <time>2017-02-18T15:09:32Z</time>
      </trkpt>
      <trkpt lat="45.28549" lon="5.63902">
        <ele>137.5</ele>
        <time>2017-02-18T15:09:33Z</time>
      </trkpt>
      <trkpt lat="45.28559" lon="5.6391">
        <ele>137.7</ele>
        <time>2017-02-18T15:09:34Z</time>
      </trkpt>
      <trkpt lat="45.2857" lon="5.63916">
        <ele>137.9</ele>
        <time>2017-02-18T15:09:35Z</time>
      </trkpt>
      <trkpt lat="45.28581" lon="5.63921">
        <ele>138.1</ele>
        <time>2017-02-18T15:09:36Z</time>
      </trkpt>
      <trkpt lat="45.28593" lon="5.63924">
        <ele>138.22</ele>
        <time>2017-02-18T15:09:37Z</time>
      </trkpt>
      <trkpt lat="45.28606" lon="5.63926">
        <ele>138.32</ele>
        <time>2017-02-18T15:09:38Z</time>
      </trkpt>
      <trkpt lat="45.28618" lon="5.63928">
        <ele>138.26</ele>
        <time>2017-02-18T15:09:39Z</time>
      </trkpt>
      <trkpt lat="45.2863" lon="5.6393">
        <ele>138.33</ele>
        <time>2017-02-18T15:09:40Z</time>
      </trkpt>
      <trkpt lat="45.28641" lon="5.63932">
        <ele>138.27</ele>
        <time>2017-02-18T15:09:41Z</time>
      </trkpt>
      <trkpt lat="45.28652" lon="5.63934">
        <ele>138.09</ele>
        <time>2017-02-18T15:09:42Z</time>
      </trkpt>
      <trkpt lat="45.28662" lon="5.63935">
        <ele>137.82</ele>
        <time>2017-02-18T15:09:43Z</time>
      </trkpt>
      <trkpt lat="45.28673" lon="5.63937">
        <ele>137.6</ele>
        <time>2017-02-18T15:09:44Z</time>
      </trkpt>
      <trkpt lat="45.28684" lon="5.63939">
        <ele>137.48</ele>
        <time>2017-02-18T15:09:45Z</time>
      </trkpt>
      <trkpt lat="45.28697" lon="5.63943">
        <ele>137.38</ele>
        <time>2017-02-18T15:09:46Z</time>
      </trkpt>
      <trkpt lat="45.2871" lon="5.63948">
        <ele>137.11</ele>
        <time>2017-02-18T15:09:47Z</time>
      </trkpt>
      <trkpt lat="45.28723" lon="5.63954">
        <ele>136.98</ele>
        <time>2017-02-18T15:09:48Z</time>
      </trkpt>
      <trkpt lat="45.28736" lon="5.63959">
        <ele>136.88</ele>
        <time>2017-02-18T15:09:49Z</time>
      </trkpt>
      <trkpt lat="45.28749" lon="5.63964">
        <ele>136.93</ele>
        <time>2017-02-18T15:09:50Z</time>
      </trkpt>
      <trkpt lat="45.28762" lon="5.63967">
        <ele>137.27</ele>
        <time>2017-02-18T15:09:51Z</time>
      </trkpt>
      <trkpt lat="45.28773" lon="5.63971">
        <ele>137.49</ele>
        <time>2017-02-18T15:09:52Z</time>
      </trkpt>
      <trkpt lat="45.28785" lon="5.63974">
        <ele>137.94</ele>
        <time>2017-02-18T15:09:53Z</time>
      </trkpt>
      <trkpt lat="45.28796" lon="5.63979">
        <ele>138.19</ele>
        <time>2017-02-18T15:09:54Z</time>
      </trkpt>
      <trkpt lat="45.28807" lon="5.63986">
        <ele>138.48</ele>
        <time>2017-02-18T15:09:55Z</time>
      </trkpt>
      <trkpt lat="45.28818" lon="5.63994">
        <ele>138.69</ele>
        <time>2017-02-18T15:09:56Z</time>
      </trkpt>
      <trkpt lat="45.28827" lon="5.64003">
        <ele>138.66</ele>
        <time>2017-02-18T15:09:57Z</time>
      </trkpt>
      <trkpt lat="45.28835" lon="5.64011">
        <ele>139.13</ele>
        <time>2017-02-18T15:09:58Z</time>
      </trkpt>
      <trkpt lat="45.28841" lon="5.64018">
        <ele>139.39</ele>
        <time>2017-02-18T15:09:59Z</time>
      </trkpt>
      <trkpt lat="45.28845" lon="5.64022">
        <ele>139.6</ele>
        <time>2017-02-18T15:10:00Z</time>
      </trkpt>
      <trkpt lat="45.28847" lon="5.64025">
        <ele>139.8</ele>
        <time>2017-02-18T15:10:01Z</time>
      </trkpt>
      <trkpt lat="45.28848" lon="5.64026">
        <ele>139.84</ele>
        <time>2017-02-18T15:10:02Z</time>
      </trkpt>
      <trkpt lat="45.2885" lon="5.64028">
        <ele>139.93</ele>
        <time>2017-02-18T15:10:03Z</time>
      </trkpt>
      <trkpt lat="45.28853" lon="5.64029">
        <ele>140.26</ele>
        <time>2017-02-18T15:10:04Z</time>
      </trkpt>
      <trkpt lat="45.28856" lon="5.64033">
        <ele>140.97</ele>
        <time>2017-02-18T15:10:05Z</time>
      </trkpt>
      <trkpt lat="45.28862" lon="5.64038">
        <ele>141.91</ele>
        <time>2017-02-18T15:10:06Z</time>
      </trkpt>
      <trkpt lat="45.28867" lon="5.64044">
        <ele>142.66</ele>
        <time>2017-02-18T15:10:07Z</time>
      </trkpt>
      <trkpt lat="45.28874" lon="5.64051">
        <ele>143.05</ele>
        <time>2017-02-18T15:10:08Z</time>
      </trkpt>
      <trkpt lat="45.2888" lon="5.64059">
        <ele>143.29</ele>
        <time>2017-02-18T15:10:09Z</time>
      </trkpt>
      <trkpt lat="45.28887" lon="5.64068">
        <ele>143.26</ele>
        <time>2017-02-18T15:10:10Z</time>
      </trkpt>
      <trkpt lat="45.28895" lon="5.64077">
        <ele>143.33</ele>
        <time>2017-02-18T15:10:11Z</time>
      </trkpt>
      <trkpt lat="45.28902" lon="5.64085">
        <ele>143.51</ele>
        <time>2017-02-18T15:10:12Z</time>
      </trkpt>
      <trkpt lat="45.28909" lon="5.64093">
        <ele>144.02</ele>
        <time>2017-02-18T15:10:13Z</time>
      </trkpt>
      <trkpt lat="45.28916" lon="5.64102">
        <ele>144.84</ele>
        <time>2017-02-18T15:10:14Z</time>
      </trkpt>
      <trkpt lat="45.28923" lon="5.6411">
        <ele>145.49</ele>
        <time>2017-02-18T15:10:15Z</time>
      </trkpt>
      <trkpt lat="45.28929" lon="5.64118">
        <ele>146.18</ele>
        <time>2017-02-18T15:10:16Z</time>
      </trkpt>
      <trkpt lat="45.28934" lon="5.64125">
        <ele>146.71</ele>
        <time>2017-02-18T15:10:17Z</time>
      </trkpt>
      <trkpt lat="45.28938" lon="5.64129">
        <ele>146.98</ele>
        <time>2017-02-18T15:10:18Z</time>
      </trkpt>
      <trkpt lat="45.2894" lon="5.64132">
        <ele>147.28</ele>
        <time>2017-02-18T15:10:19Z</time>
      </trkpt>
      <trkpt lat="45.28941" lon="5.64133">
        <ele>147.49</ele>
        <time>2017-02-18T15:10:20Z</time>
      </trkpt>
      <trkpt lat="45.28943" lon="5.64135">
        <ele>149.54</ele>
        <time>2017-02-18T15:10:21Z</time>
      </trkpt>
      <trkpt lat="45.28947" lon="5.64136">
        <ele>150.51</ele>
        <time>2017-02-18T15:10:22Z</time>
      </trkpt>
      <trkpt lat="45.28954" lon="5.64134">
        <ele>151.02</ele>
        <time>2017-02-18T15:10:23Z</time>
      </trkpt>
      <trkpt lat="45.28961" lon="5.64129">
        <ele>151.6</ele>
        <time>2017-02-18T15:10:24Z</time>
      </trkpt>
      <trkpt lat="45.28969" lon="5.64123">
        <ele>152.44</ele>
        <time>2017-02-18T15:10:25Z</time>
      </trkpt>
      <trkpt lat="45.28978" lon="5.64117">
        <ele>152.93</ele>
        <time>2017-02-18T15:10:26Z</time>
      </trkpt>
      <trkpt lat="45.28988" lon="5.64111">
        <ele>153.5</ele>
        <time>2017-02-18T15:10:27Z</time>
      </trkpt>
      <trkpt lat="45.28998" lon="5.64105">
        <ele>154.26</ele>
        <time>2017-02-18T15:10:28Z</time>
      </trkpt>
      <trkpt lat="45.29009" lon="5.64099">
        <ele>155.13</ele>
        <time>2017-02-18T15:10:29Z</time>
      </trkpt>
      <trkpt lat="45.29021" lon="5.64093">
        <ele>155.23</ele>
        <time>2017-02-18T15:10:30Z</time>
      </trkpt>
      <trkpt lat="45.29033" lon="5.64087">
        <ele>155.4</ele>
        <time>2017-02-18T15:10:31Z</time>
      </trkpt>
      <trkpt lat="45.29045" lon="5.6408">
        <ele>156.08</ele>
        <time>2017-02-18T15:10:32Z</time>
      </trkpt>
      <trkpt lat="45.29057" lon="5.64072">
        <ele>156.62</ele>
        <time>2017-02-18T15:10:33Z</time>
      </trkpt>
      <trkpt lat="45.29068" lon="5.64065">
        <ele>157.12</ele>
        <time>2017-02-18T15:10:34Z</time>
      </trkpt>
      <trkpt lat="45.2908" lon="5.64057">
        <ele>157.62</ele>
        <time>2017-02-18T15:10:35Z</time>
      </trkpt>
      <trkpt lat="45.29093" lon="5.6405">
        <ele>158.12</ele>
        <time>2017-02-18T15:10:36Z</time>
      </trkpt>
      <trkpt lat="45.29106" lon="5.64043">
        <ele>158.62</ele>
        <time>2017-02-18T15:10:37Z</time>
      </trkpt>
      <trkpt lat="45.29119" lon="5.64036">
        <ele>158.96</ele>
        <time>2017-02-18T15:10:38Z</time>
      </trkpt>
      <trkpt lat="45.29132" lon="5.64028">
        <ele>159.11</ele>
        <time>2017-02-18T15:10:39Z</time>
      </trkpt>
      <trkpt lat="45.29145" lon="5.64021">
        <ele>159.22</ele>
        <time>2017-02-18T15:10:40Z</time>
      </trkpt>
      <trkpt lat="45.29158" lon="5.64014">
        <ele>159.4</ele>
        <time>2017-02-18T15:10:41Z</time>
      </trkpt>
      <trkpt lat="45.29171" lon="5.64006">
        <ele>159.52</ele>
        <time>2017-02-18T15:10:42Z</time>
      </trkpt>
      <trkpt lat="45.29184" lon="5.63999">
        <ele>159.78</ele>
        <time>2017-02-18T15:10:43Z</time>
      </trkpt>
      <trkpt lat="45.29196" lon="5.63991">
        <ele>160.16</ele>
        <time>2017-02-18T15:10:44Z</time>
      </trkpt>
      <trkpt lat="45.29208" lon="5.63985">
        <ele>160.31</ele>
        <time>2017-02-18T15:10:45Z</time>
      </trkpt>
      <trkpt lat="45.29219" lon="5.63979">
        <ele>160.66</ele>
        <time>2017-02-18T15:10:46Z</time>
      </trkpt>
      <trkpt lat="45.29229" lon="5.63973">
        <ele>160.65</ele>
        <time>2017-02-18T15:10:47Z</time>
      </trkpt>
      <trkpt lat="45.29238" lon="5.63968">
        <ele>160.97</ele>
        <time>2017-02-18T15:10:48Z</time>
      </trkpt>
      <trkpt lat="45.29246" lon="5.63963">
        <ele>161.35</ele>
        <time>2017-02-18T15:10:49Z</time>
      </trkpt>
      <trkpt lat="45.29255" lon="5.63958">
        <ele>162.07</ele>
        <time>2017-02-18T15:10:50Z</time>
      </trkpt>
      <trkpt lat="45.29265" lon="5.63952">
        <ele>163.25</ele>
        <time>2017-02-18T15:10:51Z</time>
      </trkpt>
      <trkpt lat="45.29274" lon="5.63946">
        <ele>164.13</ele>
        <time>2017-02-18T15:10:52Z</time>
      </trkpt>
      <trkpt lat="45.29283" lon="5.6394">
        <ele>165.03</ele>
        <time>2017-02-18T15:10:53Z</time>
      </trkpt>
      <trkpt lat="45.29291" lon="5.63935">
        <ele>165.04</ele>
        <time>2017-02-18T15:10:54Z</time>
      </trkpt>
      <trkpt lat="45.293" lon="5.63929">
        <ele>165.69</ele>
        <time>2017-02-18T15:10:55Z</time>
      </trkpt>
      <trkpt lat="45.29308" lon="5.63925">
        <ele>166.3</ele>
        <time>2017-02-18T15:10:56Z</time>
      </trkpt>
      <trkpt lat="45.29318" lon="5.6392">
        <ele>167.3</ele>
        <time>2017-02-18T15:10:57Z</time>
      </trkpt>
      <trkpt lat="45.29328" lon="5.63915">
        <ele>168.46</ele>
        <time>2017-02-18T15:10:58Z</time>
      </trkpt>
      <trkpt lat="45.29338" lon="5.63909">
        <ele>169.49</ele>
        <time>2017-02-18T15:10:59Z</time>
      </trkpt>
      <trkpt lat="45.29348" lon="5.63903">
        <ele>170.18</ele>
        <time>2017-02-18T15:11:00Z</time>
      </trkpt>
      <trkpt lat="45.29359" lon="5.63897">
        <ele>170.87</ele>
        <time>2017-02-18T15:11:01Z</time>
      </trkpt>
      <trkpt lat="45.29369" lon="5.63891">
        <ele>171.81</ele>
        <time>2017-02-18T15:11:02Z</time>
      </trkpt>
      <trkpt lat="45.2938" lon="5.63885">
        <ele>172.56</ele>
        <time>2017-02-18T15:11:03Z</time>
      </trkpt>
      <trkpt lat="45.29391" lon="5.63879">
        <ele>173.11</ele>
        <time>2017-02-18T15:11:04Z</time>
      </trkpt>
      <trkpt lat="45.29401" lon="5.63872">
        <ele>173.62</ele>
        <time>2017-02-18T15:11:05Z</time>
      </trkpt>
      <trkpt lat="45.29411" lon="5.63866">
        <ele>174.36</ele>
        <time>2017-02-18T15:11:06Z</time>
      </trkpt>
      <trkpt lat="45.29421" lon="5.6386">
        <ele>174.83</ele>
        <time>2017-02-18T15:11:07Z</time>
      </trkpt>
      <trkpt lat="45.29431" lon="5.63854">
        <ele>175.49</ele>
        <time>2017-02-18T15:11:08Z</time>
      </trkpt>
      <trkpt lat="45.29439" lon="5.63848">
        <ele>174.98</ele>
        <time>2017-02-18T15:11:09Z</time>
      </trkpt>
      <trkpt lat="45.29449" lon="5.63843">
        <ele>175.03</ele>
        <time>2017-02-18T15:11:10Z</time>
      </trkpt>
      <trkpt lat="45.29459" lon="5.63837">
        <ele>175.53</ele>
        <time>2017-02-18T15:11:11Z</time>
      </trkpt>
      <trkpt lat="45.2947" lon="5.63829">
        <ele>176.18</ele>
        <time>2017-02-18T15:11:12Z</time>
      </trkpt>
      <trkpt lat="45.29482" lon="5.63822">
        <ele>176.72</ele>
        <time>2017-02-18T15:11:13Z</time>
      </trkpt>
      <trkpt lat="45.29493" lon="5.63815">
        <ele>177.86</ele>
        <time>2017-02-18T15:11:14Z</time>
      </trkpt>
      <trkpt lat="45.29505" lon="5.63809">
        <ele>178.65</ele>
        <time>2017-02-18T15:11:15Z</time>
      </trkpt>
      <trkpt lat="45.29516" lon="5.63803">
        <ele>179.61</ele>
        <time>2017-02-18T15:11:16Z</time>
      </trkpt>
      <trkpt lat="45.29527" lon="5.63798">
        <ele>180.12</ele>
        <time>2017-02-18T15:11:17Z</time>
      </trkpt>
      <trkpt lat="45.29537" lon="5.63793">
        <ele>180.86</ele>
        <time>2017-02-18T15:11:18Z</time>
      </trkpt>
      <trkpt lat="45.29547" lon="5.63789">
        <ele>181.49</ele>
        <time>2017-02-18T15:11:19Z</time>
      </trkpt>
      <trkpt lat="45.29556" lon="5.63786">
        <ele>182.26</ele>
        <time>2017-02-18T15:11:20Z</time>
      </trkpt>
      <trkpt lat="45.29565" lon="5.63783">
        <ele>182.89</ele>
        <time>2017-02-18T15:11:21Z</time>
      </trkpt>
      <trkpt lat="45.29573" lon="5.6378">
        <ele>183.42</ele>
        <time>2017-02-18T15:11:22Z</time>
      </trkpt>
      <trkpt lat="45.29581" lon="5.63778">
        <ele>183.76</ele>
        <time>2017-02-18T15:11:23Z</time>
      </trkpt>
      <trkpt lat="45.29588" lon="5.63774">
        <ele>184.15</ele>
        <time>2017-02-18T15:11:24Z</time>
      </trkpt>
      <trkpt lat="45.29594" lon="5.63769">
        <ele>184.55</ele>
        <time>2017-02-18T15:11:25Z</time>
      </trkpt>
      <trkpt lat="45.29599" lon="5.63761">
        <ele>185.11</ele>
        <time>2017-02-18T15:11:26Z</time>
      </trkpt>
      <trkpt lat="45.29601" lon="5.63751">
        <ele>185.54</ele>
        <time>2017-02-18T15:11:27Z</time>
      </trkpt>
      <trkpt lat="45.29601" lon="5.63741">
        <ele>185.95</ele>
        <time>2017-02-18T15:11:28Z</time>
      </trkpt>
      <trkpt lat="45.296" lon="5.6373">
        <ele>186.43</ele>
        <time>2017-02-18T15:11:29Z</time>
      </trkpt>
      <trkpt lat="45.296" lon="5.63719">
        <ele>186.68</ele>
        <time>2017-02-18T15:11:30Z</time>
      </trkpt>
      <trkpt lat="45.29602" lon="5.63709">
        <ele>186.82</ele>
        <time>2017-02-18T15:11:31Z</time>
      </trkpt>
      <trkpt lat="45.29605" lon="5.63699">
        <ele>186.68</ele>
        <time>2017-02-18T15:11:32Z</time>
      </trkpt>
      <trkpt lat="45.29609" lon="5.63691">
        <ele>186.82</ele>
        <time>2017-02-18T15:11:33Z</time>
      </trkpt>
      <trkpt lat="45.29614" lon="5.63682">
        <ele>186.92</ele>
        <time>2017-02-18T15:11:34Z</time>
      </trkpt>
      <trkpt lat="45.29618" lon="5.63675">
        <ele>187.02</ele>
        <time>2017-02-18T15:11:35Z</time>
      </trkpt>
      <trkpt lat="45.29622" lon="5.63666">
        <ele>187.44</ele>
        <time>2017-02-18T15:11:36Z</time>
      </trkpt>
      <trkpt lat="45.29626" lon="5.63657">
        <ele>188.09</ele>
        <time>2017-02-18T15:11:37Z</time>
      </trkpt>
      <trkpt lat="45.29632" lon="5.63648">
        <ele>188.7</ele>
        <time>2017-02-18T15:11:38Z</time>
      </trkpt>
      <trkpt lat="45.29637" lon="5.63638">
        <ele>188.98</ele>
        <time>2017-02-18T15:11:39Z</time>
      </trkpt>
      <trkpt lat="45.29642" lon="5.63628">
        <ele>189.11</ele>
        <time>2017-02-18T15:11:40Z</time>
      </trkpt>
      <trkpt lat="45.29647" lon="5.63618">
        <ele>189.54</ele>
        <time>2017-02-18T15:11:41Z</time>
      </trkpt>
      <trkpt lat="45.29652" lon="5.63608">
        <ele>189.31</ele>
        <time>2017-02-18T15:11:42Z</time>
      </trkpt>
      <trkpt lat="45.29657" lon="5.63598">
        <ele>189.18</ele>
        <time>2017-02-18T15:11:43Z</time>
      </trkpt>
      <trkpt lat="45.29663" lon="5.63588">
        <ele>188.92</ele>
        <time>2017-02-18T15:11:44Z</time>
      </trkpt>
      <trkpt lat="45.29668" lon="5.63578">
        <ele>188.62</ele>
        <time>2017-02-18T15:11:45Z</time>
      </trkpt>
      <trkpt lat="45.29674" lon="5.63569">
        <ele>188.32</ele>
        <time>2017-02-18T15:11:46Z</time>
      </trkpt>
      <trkpt lat="45.29679" lon="5.6356">
        <ele>187.94</ele>
        <time>2017-02-18T15:11:47Z</time>
      </trkpt>
      <trkpt lat="45.29685" lon="5.63551">
        <ele>188.27</ele>
        <time>2017-02-18T15:11:48Z</time>
      </trkpt>
      <trkpt lat="45.29692" lon="5.63545">
        <ele>188.65</ele>
        <time>2017-02-18T15:11:49Z</time>
      </trkpt>
      <trkpt lat="45.297" lon="5.63543">
        <ele>188.73</ele>
        <time>2017-02-18T15:11:50Z</time>
      </trkpt>
      <trkpt lat="45.29707" lon="5.63545">
        <ele>188.91</ele>
        <time>2017-02-18T15:11:51Z</time>
      </trkpt>
      <trkpt lat="45.29714" lon="5.63551">
        <ele>189.66</ele>
        <time>2017-02-18T15:11:52Z</time>
      </trkpt>
      <trkpt lat="45.29721" lon="5.63559">
        <ele>189.97</ele>
        <time>2017-02-18T15:11:53Z</time>
      </trkpt>
      <trkpt lat="45.29728" lon="5.63568">
        <ele>190.11</ele>
        <time>2017-02-18T15:11:54Z</time>
      </trkpt>
      <trkpt lat="45.29736" lon="5.63578">
        <ele>190.3</ele>
        <time>2017-02-18T15:11:55Z</time>
      </trkpt>
      <trkpt lat="45.29743" lon="5.63588">
        <ele>190.74</ele>
        <time>2017-02-18T15:11:56Z</time>
      </trkpt>
      <trkpt lat="45.29749" lon="5.63598">
        <ele>191.07</ele>
        <time>2017-02-18T15:11:57Z</time>
      </trkpt>
      <trkpt lat="45.29755" lon="5.63609">
        <ele>191.53</ele>
        <time>2017-02-18T15:11:58Z</time>
      </trkpt>
      <trkpt lat="45.2976" lon="5.63619">
        <ele>191.87</ele>
        <time>2017-02-18T15:11:59Z</time>
      </trkpt>
      <trkpt lat="45.29766" lon="5.63628">
        <ele>192.33</ele>
        <time>2017-02-18T15:12:00Z</time>
      </trkpt>
      <trkpt lat="45.29771" lon="5.63636">
        <ele>192.91</ele>
        <time>2017-02-18T15:12:01Z</time>
      </trkpt>
      <trkpt lat="45.29776" lon="5.63643">
        <ele>193.5</ele>
        <time>2017-02-18T15:12:02Z</time>
      </trkpt>
      <trkpt lat="45.29782" lon="5.63649">
        <ele>194.1</ele>
        <time>2017-02-18T15:12:03Z</time>
      </trkpt>
      <trkpt lat="45.29787" lon="5.63654">
        <ele>194.38</ele>
        <time>2017-02-18T15:12:04Z</time>
      </trkpt>
      <trkpt lat="45.29792" lon="5.63662">
        <ele>194.92</ele>
        <time>2017-02-18T15:12:05Z</time>
      </trkpt>
      <trkpt lat="45.29796" lon="5.63671">
        <ele>195.26</ele>
        <time>2017-02-18T15:12:06Z</time>
      </trkpt>
      <trkpt lat="45.29799" lon="5.63682">
        <ele>195.09</ele>
        <time>2017-02-18T15:12:07Z</time>
      </trkpt>
      <trkpt lat="45.29802" lon="5.63693">
        <ele>195.3</ele>
        <time>2017-02-18T15:12:08Z</time>
      </trkpt>
      <trkpt lat="45.29807" lon="5.63704">
        <ele>195.82</ele>
        <time>2017-02-18T15:12:09Z</time>
      </trkpt>
      <trkpt lat="45.29811" lon="5.63714">
        <ele>196.48</ele>
        <time>2017-02-18T15:12:10Z</time>
      </trkpt>
      <trkpt lat="45.29816" lon="5.63723">
        <ele>197.02</ele>
        <time>2017-02-18T15:12:11Z</time>
      </trkpt>
      <trkpt lat="45.2982" lon="5.63732">
        <ele>197.52</ele>
        <time>2017-02-18T15:12:12Z</time>
      </trkpt>
      <trkpt lat="45.29824" lon="5.63741">
        <ele>197.94</ele>
        <time>2017-02-18T15:12:13Z</time>
      </trkpt>
      <trkpt lat="45.29828" lon="5.63749">
        <ele>198.59</ele>
        <time>2017-02-18T15:12:14Z</time>
      </trkpt>
      <trkpt lat="45.29831" lon="5.63757">
        <ele>199.44</ele>
        <time>2017-02-18T15:12:15Z</time>
      </trkpt>
      <trkpt lat="45.29835" lon="5.63765">
        <ele>200.01</ele>
        <time>2017-02-18T15:12:16Z</time>
      </trkpt>
      <trkpt lat="45.29839" lon="5.63773">
        <ele>200.36</ele>
        <time>2017-02-18T15:12:17Z</time>
      </trkpt>
      <trkpt lat="45.29843" lon="5.63781">
        <ele>200.75</ele>
        <time>2017-02-18T15:12:18Z</time>
      </trkpt>
      <trkpt lat="45.29847" lon="5.63789">
        <ele>201.39</ele>
        <time>2017-02-18T15:12:19Z</time>
      </trkpt>
      <trkpt lat="45.29852" lon="5.63797">
        <ele>202.24</ele>
        <time>2017-02-18T15:12:20Z</time>
      </trkpt>
      <trkpt lat="45.29856" lon="5.63804">
        <ele>202.81</ele>
        <time>2017-02-18T15:12:21Z</time>
      </trkpt>
      <trkpt lat="45.29862" lon="5.63811">
        <ele>203.4</ele>
        <time>2017-02-18T15:12:22Z</time>
      </trkpt>
      <trkpt lat="45.29867" lon="5.63818">
        <ele>204.24</ele>
        <time>2017-02-18T15:12:23Z</time>
      </trkpt>
      <trkpt lat="45.29874" lon="5.63824">
        <ele>204.89</ele>
        <time>2017-02-18T15:12:24Z</time>
      </trkpt>
      <trkpt lat="45.2988" lon="5.63832">
        <ele>205.58</ele>
        <time>2017-02-18T15:12:25Z</time>
      </trkpt>
      <trkpt lat="45.29887" lon="5.63839">
        <ele>206.27</ele>
        <time>2017-02-18T15:12:26Z</time>
      </trkpt>
      <trkpt lat="45.29893" lon="5.63847">
        <ele>206.73</ele>
        <time>2017-02-18T15:12:27Z</time>
      </trkpt>
      <trkpt lat="45.29898" lon="5.63856">
        <ele>207.15</ele>
        <time>2017-02-18T15:12:28Z</time>
      </trkpt>
      <trkpt lat="45.29903" lon="5.63864">
        <ele>207.47</ele>
        <time>2017-02-18T15:12:29Z</time>
      </trkpt>
      <trkpt lat="45.29908" lon="5.63872">
        <ele>207.77</ele>
        <time>2017-02-18T15:12:30Z</time>
      </trkpt>
      <trkpt lat="45.29913" lon="5.63879">
        <ele>208.31</ele>
        <time>2017-02-18T15:12:31Z</time>
      </trkpt>
      <trkpt lat="45.29918" lon="5.63884">
        <ele>208.98</ele>
        <time>2017-02-18T15:12:32Z</time>
      </trkpt>
      <trkpt lat="45.29923" lon="5.63889">
        <ele>209.44</ele>
        <time>2017-02-18T15:12:33Z</time>
      </trkpt>
      <trkpt lat="45.29928" lon="5.63893">
        <ele>209.93</ele>
        <time>2017-02-18T15:12:34Z</time>
      </trkpt>
      <trkpt lat="45.29934" lon="5.63897">
        <ele>210.58</ele>
        <time>2017-02-18T15:12:35Z</time>
      </trkpt>
      <trkpt lat="45.29941" lon="5.63902">
        <ele>211.2</ele>
        <time>2017-02-18T15:12:36Z</time>
      </trkpt>
      <trkpt lat="45.29948" lon="5.63908">
        <ele>211.56</ele>
        <time>2017-02-18T15:12:37Z</time>
      </trkpt>
      <trkpt lat="45.29954" lon="5.63913">
        <ele>212.03</ele>
        <time>2017-02-18T15:12:38Z</time>
      </trkpt>
      <trkpt lat="45.2996" lon="5.63918">
        <ele>212.61</ele>
        <time>2017-02-18T15:12:39Z</time>
      </trkpt>
      <trkpt lat="45.29966" lon="5.63924">
        <ele>213.6</ele>
        <time>2017-02-18T15:12:40Z</time>
      </trkpt>
      <trkpt lat="45.29972" lon="5.63929">
        <ele>214.36</ele>
        <time>2017-02-18T15:12:41Z</time>
      </trkpt>
      <trkpt lat="45.29978" lon="5.63932">
        <ele>215.15</ele>
        <time>2017-02-18T15:12:42Z</time>
      </trkpt>
      <trkpt lat="45.29984" lon="5.63935">
        <ele>215.87</ele>
        <time>2017-02-18T15:12:43Z</time>
      </trkpt>
      <trkpt lat="45.2999" lon="5.63937">
        <ele>216.49</ele>
        <time>2017-02-18T15:12:44Z</time>
      </trkpt>
      <trkpt lat="45.29997" lon="5.63939">
        <ele>217.18</ele>
        <time>2017-02-18T15:12:45Z</time>
      </trkpt>
      <trkpt lat="45.30005" lon="5.6394">
        <ele>217.95</ele>
        <time>2017-02-18T15:12:46Z</time>
      </trkpt>
      <trkpt lat="45.30013" lon="5.63939">
        <ele>218.75</ele>
        <time>2017-02-18T15:12:47Z</time>
      </trkpt>
      <trkpt lat="45.30025" lon="5.63933">
        <ele>219.95</ele>
        <time>2017-02-18T15:12:48Z</time>
      </trkpt>
      <trkpt lat="45.30039" lon="5.63925">
        <ele>221.39</ele>
        <time>2017-02-18T15:12:49Z</time>
      </trkpt>
      <trkpt lat="45.30051" lon="5.63916">
        <ele>222.96</ele>
        <time>2017-02-18T15:12:50Z</time>
      </trkpt>
      <trkpt lat="45.30061" lon="5.63908">
        <ele>224.47</ele>
        <time>2017-02-18T15:12:51Z</time>
      </trkpt>
      <trkpt lat="45.3007" lon="5.63905">
        <ele>225.65</ele>
        <time>2017-02-18T15:12:52Z</time>
      </trkpt>
      <trkpt lat="45.30078" lon="5.63907">
        <ele>226.85</ele>
        <time>2017-02-18T15:12:53Z</time>
      </trkpt>
      <trkpt lat="45.30085" lon="5.63913">
        <ele>227.89</ele>
        <time>2017-02-18T15:12:54Z</time>
      </trkpt>
      <trkpt lat="45.30089" lon="5.63923">
        <ele>228.5</ele>
        <time>2017-02-18T15:12:55Z</time>
      </trkpt>
      <trkpt lat="45.30089" lon="5.63933">
        <ele>228.3</ele>
        <time>2017-02-18T15:12:56Z</time>
      </trkpt>
      <trkpt lat="45.30088" lon="5.63944">
        <ele>228.5</ele>
        <time>2017-02-18T15:12:57Z</time>
      </trkpt>
      <trkpt lat="45.30084" lon="5.63953">
        <ele>229.18</ele>
        <time>2017-02-18T15:12:58Z</time>
      </trkpt>
      <trkpt lat="45.30078" lon="5.63961">
        <ele>229.88</ele>
        <time>2017-02-18T15:12:59Z</time>
      </trkpt>
      <trkpt lat="45.30068" lon="5.63968">
        <ele>230.65</ele>
        <time>2017-02-18T15:13:00Z</time>
      </trkpt>
      <trkpt lat="45.30057" lon="5.63976">
        <ele>231.21</ele>
        <time>2017-02-18T15:13:01Z</time>
      </trkpt>
      <trkpt lat="45.30044" lon="5.63983">
        <ele>231.72</ele>
        <time>2017-02-18T15:13:02Z</time>
      </trkpt>
      <trkpt lat="45.30027" lon="5.63991">
        <ele>232.14</ele>
        <time>2017-02-18T15:13:03Z</time>
      </trkpt>
      <trkpt lat="45.3001" lon="5.63999">
        <ele>232.71</ele>
        <time>2017-02-18T15:13:04Z</time>
      </trkpt>
      <trkpt lat="45.29994" lon="5.64007">
        <ele>233.3</ele>
        <time>2017-02-18T15:13:05Z</time>
      </trkpt>
      <trkpt lat="45.29977" lon="5.64015">
        <ele>233.98</ele>
        <time>2017-02-18T15:13:06Z</time>
      </trkpt>
      <trkpt lat="45.29962" lon="5.64021">
        <ele>234.52</ele>
        <time>2017-02-18T15:13:07Z</time>
      </trkpt>
      <trkpt lat="45.29948" lon="5.64026">
        <ele>235.34</ele>
        <time>2017-02-18T15:13:08Z</time>
      </trkpt>
      <trkpt lat="45.29933" lon="5.6403">
        <ele>236.15</ele>
        <time>2017-02-18T15:13:09Z</time>
      </trkpt>
      <trkpt lat="45.29919" lon="5.64034">
        <ele>236.79</ele>
        <time>2017-02-18T15:13:10Z</time>
      </trkpt>
      <trkpt lat="45.29906" lon="5.64038">
        <ele>237.64</ele>
        <time>2017-02-18T15:13:11Z</time>
      </trkpt>
      <trkpt lat="45.29892" lon="5.64044">
        <ele>238.53</ele>
        <time>2017-02-18T15:13:12Z</time>
      </trkpt>
      <trkpt lat="45.2988" lon="5.64048">
        <ele>239.34</ele>
        <time>2017-02-18T15:13:13Z</time>
      </trkpt>
      <trkpt lat="45.29868" lon="5.64053">
        <ele>240.47</ele>
        <time>2017-02-18T15:13:14Z</time>
      </trkpt>
      <trkpt lat="45.29857" lon="5.64059">
        <ele>241.41</ele>
        <time>2017-02-18T15:13:15Z</time>
      </trkpt>
      <trkpt lat="45.29845" lon="5.64064">
        <ele>242.64</ele>
        <time>2017-02-18T15:13:16Z</time>
      </trkpt>
      <trkpt lat="45.29834" lon="5.64072">
        <ele>243.45</ele>
        <time>2017-02-18T15:13:17Z</time>
      </trkpt>
      <trkpt lat="45.29822" lon="5.6408">
        <ele>244.41</ele>
        <time>2017-02-18T15:13:18Z</time>
      </trkpt>
      <trkpt lat="45.29811" lon="5.64087">
        <ele>245.32</ele>
        <time>2017-02-18T15:13:19Z</time>
      </trkpt>
      <trkpt lat="45.298" lon="5.64094">
        <ele>246.46</ele>
        <time>2017-02-18T15:13:20Z</time>
      </trkpt>
      <trkpt lat="45.29788" lon="5.64099">
        <ele>247.41</ele>
        <time>2017-02-18T15:13:21Z</time>
      </trkpt>
      <trkpt lat="45.29778" lon="5.64102">
        <ele>248.48</ele>
        <time>2017-02-18T15:13:22Z</time>
      </trkpt>
      <trkpt lat="45.29768" lon="5.64105">
        <ele>249.74</ele>
        <time>2017-02-18T15:13:23Z</time>
      </trkpt>
      <trkpt lat="45.29758" lon="5.64109">
        <ele>251.03</ele>
        <time>2017-02-18T15:13:24Z</time>
      </trkpt>
      <trkpt lat="45.29751" lon="5.64115">
        <ele>252</ele>
        <time>2017-02-18T15:13:25Z</time>
      </trkpt>
      <trkpt lat="45.29747" lon="5.64121">
        <ele>253</ele>
        <time>2017-02-18T15:13:26Z</time>
      </trkpt>
      <trkpt lat="45.29747" lon="5.64127">
        <ele>254.16</ele>
        <time>2017-02-18T15:13:27Z</time>
      </trkpt>
      <trkpt lat="45.29749" lon="5.64133">
        <ele>255.19</ele>
        <time>2017-02-18T15:13:28Z</time>
      </trkpt>
      <trkpt lat="45.29752" lon="5.64138">
        <ele>256.12</ele>
        <time>2017-02-18T15:13:29Z</time>
      </trkpt>
      <trkpt lat="45.29757" lon="5.6414">
        <ele>256.94</ele>
        <time>2017-02-18T15:13:30Z</time>
      </trkpt>
      <trkpt lat="45.29764" lon="5.64141">
        <ele>258.15</ele>
        <time>2017-02-18T15:13:31Z</time>
      </trkpt>
      <trkpt lat="45.29773" lon="5.6414">
        <ele>259.03</ele>
        <time>2017-02-18T15:13:32Z</time>
      </trkpt>
      <trkpt lat="45.29783" lon="5.64136">
        <ele>259.84</ele>
        <time>2017-02-18T15:13:33Z</time>
      </trkpt>
      <trkpt lat="45.29794" lon="5.64133">
        <ele>260.73</ele>
        <time>2017-02-18T15:13:34Z</time>
      </trkpt>
      <trkpt lat="45.29805" lon="5.64129">
        <ele>261.62</ele>
        <time>2017-02-18T15:13:35Z</time>
      </trkpt>
      <trkpt lat="45.29816" lon="5.64124">
        <ele>262.84</ele>
        <time>2017-02-18T15:13:36Z</time>
      </trkpt>
      <trkpt lat="45.29827" lon="5.64121">
        <ele>264.21</ele>
        <time>2017-02-18T15:13:37Z</time>
      </trkpt>
      <trkpt lat="45.29838" lon="5.64118">
        <ele>265.44</ele>
        <time>2017-02-18T15:13:38Z</time>
      </trkpt>
      <trkpt lat="45.29848" lon="5.64115">
        <ele>266.65</ele>
        <time>2017-02-18T15:13:39Z</time>
      </trkpt>
      <trkpt lat="45.2986" lon="5.64112">
        <ele>268.25</ele>
        <time>2017-02-18T15:13:40Z</time>
      </trkpt>
      <trkpt lat="45.29871" lon="5.64107">
        <ele>269.69</ele>
        <time>2017-02-18T15:13:41Z</time>
      </trkpt>
      <trkpt lat="45.29882" lon="5.64104">
        <ele>271.02</ele>
        <time>2017-02-18T15:13:42Z</time>
      </trkpt>
      <trkpt lat="45.29894" lon="5.64102">
        <ele>272.16</ele>
        <time>2017-02-18T15:13:43Z</time>
      </trkpt>
      <trkpt lat="45.29906" lon="5.64103">
        <ele>273.11</ele>
        <time>2017-02-18T15:13:44Z</time>
      </trkpt>
      <trkpt lat="45.29917" lon="5.64106">
        <ele>274.18</ele>
        <time>2017-02-18T15:13:45Z</time>
      </trkpt>
      <trkpt lat="45.29928" lon="5.64112">
        <ele>275.36</ele>
        <time>2017-02-18T15:13:46Z</time>
      </trkpt>
      <trkpt lat="45.29938" lon="5.64119">
        <ele>276.55</ele>
        <time>2017-02-18T15:13:47Z</time>
      </trkpt>
      <trkpt lat="45.29948" lon="5.64126">
        <ele>277.51</ele>
        <time>2017-02-18T15:13:48Z</time>
      </trkpt>
      <trkpt lat="45.29959" lon="5.64128">
        <ele>278.5</ele>
        <time>2017-02-18T15:13:49Z</time>
      </trkpt>
      <trkpt lat="45.29971" lon="5.64126">
        <ele>279.5</ele>
        <time>2017-02-18T15:13:50Z</time>
      </trkpt>
      <trkpt lat="45.29982" lon="5.64123">
        <ele>280.1</ele>
        <time>2017-02-18T15:13:51Z</time>
      </trkpt>
      <trkpt lat="45.29995" lon="5.6412">
        <ele>280.86</ele>
        <time>2017-02-18T15:13:52Z</time>
      </trkpt>
      <trkpt lat="45.3001" lon="5.64119">
        <ele>281.57</ele>
        <time>2017-02-18T15:13:53Z</time>
      </trkpt>
      <trkpt lat="45.30025" lon="5.64121">
        <ele>282.27</ele>
        <time>2017-02-18T15:13:54Z</time>
      </trkpt>
      <trkpt lat="45.3004" lon="5.64124">
        <ele>282.89</ele>
        <time>2017-02-18T15:13:55Z</time>
      </trkpt>
      <trkpt lat="45.30054" lon="5.64127">
        <ele>283.58</ele>
        <time>2017-02-18T15:13:56Z</time>
      </trkpt>
      <trkpt lat="45.30067" lon="5.64129">
        <ele>284.43</ele>
        <time>2017-02-18T15:13:57Z</time>
      </trkpt>
      <trkpt lat="45.3008" lon="5.64132">
        <ele>285.25</ele>
        <time>2017-02-18T15:13:58Z</time>
      </trkpt>
      <trkpt lat="45.30091" lon="5.64137">
        <ele>286.29</ele>
        <time>2017-02-18T15:13:59Z</time>
      </trkpt>
      <trkpt lat="45.301" lon="5.64144">
        <ele>287.46</ele>
        <time>2017-02-18T15:14:00Z</time>
      </trkpt>
      <trkpt lat="45.30107" lon="5.64155">
        <ele>288.17</ele>
        <time>2017-02-18T15:14:01Z</time>
      </trkpt>
      <trkpt lat="45.30111" lon="5.6417">
        <ele>288.71</ele>
        <time>2017-02-18T15:14:02Z</time>
      </trkpt>
      <trkpt lat="45.30113" lon="5.64187">
        <ele>289.38</ele>
        <time>2017-02-18T15:14:03Z</time>
      </trkpt>
      <trkpt lat="45.30115" lon="5.64207">
        <ele>289.92</ele>
        <time>2017-02-18T15:14:04Z</time>
      </trkpt>
      <trkpt lat="45.30117" lon="5.64227">
        <ele>290.5</ele>
        <time>2017-02-18T15:14:05Z</time>
      </trkpt>
      <trkpt lat="45.30121" lon="5.64247">
        <ele>291.26</ele>
        <time>2017-02-18T15:14:06Z</time>
      </trkpt>
      <trkpt lat="45.30126" lon="5.64268">
        <ele>291.89</ele>
        <time>2017-02-18T15:14:07Z</time>
      </trkpt>
      <trkpt lat="45.30133" lon="5.64287">
        <ele>293.22</ele>
        <time>2017-02-18T15:14:08Z</time>
      </trkpt>
      <trkpt lat="45.30141" lon="5.64307">
        <ele>294.92</ele>
        <time>2017-02-18T15:14:09Z</time>
      </trkpt>
      <trkpt lat="45.30147" lon="5.64324">
        <ele>296.86</ele>
        <time>2017-02-18T15:14:10Z</time>
      </trkpt>
      <trkpt lat="45.30153" lon="5.64342">
        <ele>298.53</ele>
        <time>2017-02-18T15:14:11Z</time>
      </trkpt>
      <trkpt lat="45.3016" lon="5.64359">
        <ele>300.23</ele>
        <time>2017-02-18T15:14:12Z</time>
      </trkpt>
      <trkpt lat="45.30167" lon="5.64378">
        <ele>301.92</ele>
        <time>2017-02-18T15:14:13Z</time>
      </trkpt>
      <trkpt lat="45.30175" lon="5.64396">
        <ele>303.54</ele>
        <time>2017-02-18T15:14:14Z</time>
      </trkpt>
      <trkpt lat="45.30184" lon="5.64415">
        <ele>305.07</ele>
        <time>2017-02-18T15:14:15Z</time>
      </trkpt>
      <trkpt lat="45.30193" lon="5.64433">
        <ele>306.41</ele>
        <time>2017-02-18T15:14:16Z</time>
      </trkpt>
      <trkpt lat="45.30203" lon="5.6445">
        <ele>307.64</ele>
        <time>2017-02-18T15:14:17Z</time>
      </trkpt>
      <trkpt lat="45.30214" lon="5.64466">
        <ele>308.85</ele>
        <time>2017-02-18T15:14:18Z</time>
      </trkpt>
      <trkpt lat="45.30227" lon="5.64481">
        <ele>310.13</ele>
        <time>2017-02-18T15:14:19Z</time>
      </trkpt>
      <trkpt lat="45.3024" lon="5.64497">
        <ele>311.5</ele>
        <time>2017-02-18T15:14:20Z</time>
      </trkpt>
      <trkpt lat="45.30253" lon="5.64512">
        <ele>312.9</ele>
        <time>2017-02-18T15:14:21Z</time>
      </trkpt>
      <trkpt lat="45.30265" lon="5.64528">
        <ele>314.22</ele>
        <time>2017-02-18T15:14:22Z</time>
      </trkpt>
      <trkpt lat="45.30276" lon="5.64543">
        <ele>316</ele>
        <time>2017-02-18T15:14:23Z</time>
      </trkpt>
      <trkpt lat="45.30286" lon="5.64556">
        <ele>317.8</ele>
        <time>2017-02-18T15:14:24Z</time>
      </trkpt>
      <trkpt lat="45.30294" lon="5.64568">
        <ele>319.36</ele>
        <time>2017-02-18T15:14:25Z</time>
      </trkpt>
      <trkpt lat="45.30301" lon="5.6458">
        <ele>320.95</ele>
        <time>2017-02-18T15:14:26Z</time>
      </trkpt>
      <trkpt lat="45.30306" lon="5.64592">
        <ele>322.31</ele>
        <time>2017-02-18T15:14:27Z</time>
      </trkpt>
      <trkpt lat="45.30309" lon="5.64605">
        <ele>323.86</ele>
        <time>2017-02-18T15:14:28Z</time>
      </trkpt>
      <trkpt lat="45.30309" lon="5.6462">
        <ele>325.37</ele>
        <time>2017-02-18T15:14:29Z</time>
      </trkpt>
      <trkpt lat="45.30306" lon="5.64636">
        <ele>326.63</ele>
        <time>2017-02-18T15:14:30Z</time>
      </trkpt>
      <trkpt lat="45.30303" lon="5.64654">
        <ele>328.09</ele>
        <time>2017-02-18T15:14:31Z</time>
      </trkpt>
      <trkpt lat="45.30301" lon="5.64672">
        <ele>329.66</ele>
        <time>2017-02-18T15:14:32Z</time>
      </trkpt>
      <trkpt lat="45.30299" lon="5.64691">
        <ele>331.33</ele>
        <time>2017-02-18T15:14:33Z</time>
      </trkpt>
      <trkpt lat="45.30298" lon="5.64712">
        <ele>333.03</ele>
        <time>2017-02-18T15:14:34Z</time>
      </trkpt>
      <trkpt lat="45.30298" lon="5.64733">
        <ele>334.56</ele>
        <time>2017-02-18T15:14:35Z</time>
      </trkpt>
      <trkpt lat="45.30298" lon="5.64754">
        <ele>334.95</ele>
        <time>2017-02-18T15:14:36Z</time>
      </trkpt>
      <trkpt lat="45.303" lon="5.64775">
        <ele>335.35</ele>
        <time>2017-02-18T15:14:37Z</time>
      </trkpt>
      <trkpt lat="45.30301" lon="5.64795">
        <ele>335.83</ele>
        <time>2017-02-18T15:14:38Z</time>
      </trkpt>
      <trkpt lat="45.30302" lon="5.64814">
        <ele>336.33</ele>
        <time>2017-02-18T15:14:39Z</time>
      </trkpt>
      <trkpt lat="45.30302" lon="5.64833">
        <ele>336.98</ele>
        <time>2017-02-18T15:14:40Z</time>
      </trkpt>
      <trkpt lat="45.30302" lon="5.6485">
        <ele>337.76</ele>
        <time>2017-02-18T15:14:41Z</time>
      </trkpt>
      <trkpt lat="45.30302" lon="5.64866">
        <ele>338.39</ele>
        <time>2017-02-18T15:14:42Z</time>
      </trkpt>
      <trkpt lat="45.30302" lon="5.6488">
        <ele>339.16</ele>
        <time>2017-02-18T15:14:43Z</time>
      </trkpt>
      <trkpt lat="45.30302" lon="5.64891">
        <ele>339.95</ele>
        <time>2017-02-18T15:14:44Z</time>
      </trkpt>
      <trkpt lat="45.30303" lon="5.64901">
        <ele>340.75</ele>
        <time>2017-02-18T15:14:45Z</time>
      </trkpt>
      <trkpt lat="45.30306" lon="5.64908">
        <ele>341.55</ele>
        <time>2017-02-18T15:14:46Z</time>
      </trkpt>
      <trkpt lat="45.30311" lon="5.64911">
        <ele>341.95</ele>
        <time>2017-02-18T15:14:47Z</time>
      </trkpt>
      <trkpt lat="45.30317" lon="5.64911">
        <ele>342.43</ele>
        <time>2017-02-18T15:14:48Z</time>
      </trkpt>
      <trkpt lat="45.30323" lon="5.64907">
        <ele>343.17</ele>
        <time>2017-02-18T15:14:49Z</time>
      </trkpt>
      <trkpt lat="45.30329" lon="5.64901">
        <ele>344.03</ele>
        <time>2017-02-18T15:14:50Z</time>
      </trkpt>
      <trkpt lat="45.30337" lon="5.6489">
        <ele>344.93</ele>
        <time>2017-02-18T15:14:51Z</time>
      </trkpt>
      <trkpt lat="45.30346" lon="5.64877">
        <ele>346.46</ele>
        <time>2017-02-18T15:14:52Z</time>
      </trkpt>
      <trkpt lat="45.30353" lon="5.64861">
        <ele>347.97</ele>
        <time>2017-02-18T15:14:53Z</time>
      </trkpt>
      <trkpt lat="45.3036" lon="5.64847">
        <ele>349.15</ele>
        <time>2017-02-18T15:14:54Z</time>
      </trkpt>
      <trkpt lat="45.30369" lon="5.64836">
        <ele>350.51</ele>
        <time>2017-02-18T15:14:55Z</time>
      </trkpt>
      <trkpt lat="45.30378" lon="5.64828">
        <ele>351.58</ele>
        <time>2017-02-18T15:14:56Z</time>
      </trkpt>
      <trkpt lat="45.30388" lon="5.64825">
        <ele>352.76</ele>
        <time>2017-02-18T15:14:57Z</time>
      </trkpt>
      <trkpt lat="45.30396" lon="5.64826">
        <ele>353.87</ele>
        <time>2017-02-18T15:14:58Z</time>
      </trkpt>
      <trkpt lat="45.30404" lon="5.6483">
        <ele>354.89</ele>
        <time>2017-02-18T15:14:59Z</time>
      </trkpt>
      <trkpt lat="45.30412" lon="5.64839">
        <ele>356.06</ele>
        <time>2017-02-18T15:15:00Z</time>
      </trkpt>
      <trkpt lat="45.3042" lon="5.6485">
        <ele>357.33</ele>
        <time>2017-02-18T15:15:01Z</time>
      </trkpt>
      <trkpt lat="45.3043" lon="5.64865">
        <ele>358.79</ele>
        <time>2017-02-18T15:15:02Z</time>
      </trkpt>
      <trkpt lat="45.30441" lon="5.6488">
        <ele>360.2</ele>
        <time>2017-02-18T15:15:03Z</time>
      </trkpt>
      <trkpt lat="45.3045" lon="5.64898">
        <ele>361.68</ele>
        <time>2017-02-18T15:15:04Z</time>
      </trkpt>
      <trkpt lat="45.30457" lon="5.64916">
        <ele>363.17</ele>
        <time>2017-02-18T15:15:05Z</time>
      </trkpt>
      <trkpt lat="45.30463" lon="5.64935">
        <ele>364.75</ele>
        <time>2017-02-18T15:15:06Z</time>
      </trkpt>
      <trkpt lat="45.30468" lon="5.64954">
        <ele>366.51</ele>
        <time>2017-02-18T15:15:07Z</time>
      </trkpt>
      <trkpt lat="45.3047" lon="5.64973">
        <ele>368.3</ele>
        <time>2017-02-18T15:15:08Z</time>
      </trkpt>
      <trkpt lat="45.30471" lon="5.64993">
        <ele>370.18</ele>
        <time>2017-02-18T15:15:09Z</time>
      </trkpt>
      <trkpt lat="45.30468" lon="5.65012">
        <ele>372.24</ele>
        <time>2017-02-18T15:15:10Z</time>
      </trkpt>
      <trkpt lat="45.30464" lon="5.65032">
        <ele>374.01</ele>
        <time>2017-02-18T15:15:11Z</time>
      </trkpt>
      <trkpt lat="45.30457" lon="5.65049">
        <ele>376.04</ele>
        <time>2017-02-18T15:15:12Z</time>
      </trkpt>
      <trkpt lat="45.30447" lon="5.65064">
        <ele>378.05</ele>
        <time>2017-02-18T15:15:13Z</time>
      </trkpt>
      <trkpt lat="45.30436" lon="5.65077">
        <ele>380.13</ele>
        <time>2017-02-18T15:15:14Z</time>
      </trkpt>
      <trkpt lat="45.30424" lon="5.65086">
        <ele>382.38</ele>
        <time>2017-02-18T15:15:15Z</time>
      </trkpt>
      <trkpt lat="45.3041" lon="5.65091">
        <ele>384.52</ele>
        <time>2017-02-18T15:15:16Z</time>
      </trkpt>
      <trkpt lat="45.30397" lon="5.65092">
        <ele>386.62</ele>
        <time>2017-02-18T15:15:17Z</time>
      </trkpt>
      <trkpt lat="45.30384" lon="5.65093">
        <ele>388.72</ele>
        <time>2017-02-18T15:15:18Z</time>
      </trkpt>
      <trkpt lat="45.30374" lon="5.65095">
        <ele>390.74</ele>
        <time>2017-02-18T15:15:19Z</time>
      </trkpt>
      <trkpt lat="45.30366" lon="5.65103">
        <ele>392.27</ele>
        <time>2017-02-18T15:15:20Z</time>
      </trkpt>
      <trkpt lat="45.3036" lon="5.65117">
        <ele>393.61</ele>
        <time>2017-02-18T15:15:21Z</time>
      </trkpt>
      <trkpt lat="45.30354" lon="5.65136">
        <ele>394.68</ele>
        <time>2017-02-18T15:15:22Z</time>
      </trkpt>
      <trkpt lat="45.30348" lon="5.65159">
        <ele>395.78</ele>
        <time>2017-02-18T15:15:23Z</time>
      </trkpt>
      <trkpt lat="45.30342" lon="5.65187">
        <ele>397.59</ele>
        <time>2017-02-18T15:15:24Z</time>
      </trkpt>
      <trkpt lat="45.30335" lon="5.65216">
        <ele>399.64</ele>
        <time>2017-02-18T15:15:25Z</time>
      </trkpt>
      <trkpt lat="45.3033" lon="5.65246">
        <ele>402.05</ele>
        <time>2017-02-18T15:15:26Z</time>
      </trkpt>
      <trkpt lat="45.30327" lon="5.65273">
        <ele>403.81</ele>
        <time>2017-02-18T15:15:27Z</time>
      </trkpt>
      <trkpt lat="45.30323" lon="5.65298">
        <ele>406</ele>
        <time>2017-02-18T15:15:28Z</time>
      </trkpt>
      <trkpt lat="45.30317" lon="5.6532">
        <ele>408.52</ele>
        <time>2017-02-18T15:15:29Z</time>
      </trkpt>
      <trkpt lat="45.30309" lon="5.65341">
        <ele>410.54</ele>
        <time>2017-02-18T15:15:30Z</time>
      </trkpt>
      <trkpt lat="45.30297" lon="5.6536">
        <ele>412.79</ele>
        <time>2017-02-18T15:15:31Z</time>
      </trkpt>
      <trkpt lat="45.30284" lon="5.65376">
        <ele>415.08</ele>
        <time>2017-02-18T15:15:32Z</time>
      </trkpt>
      <trkpt lat="45.30272" lon="5.65391">
        <ele>417.45</ele>
        <time>2017-02-18T15:15:33Z</time>
      </trkpt>
      <trkpt lat="45.30261" lon="5.65405">
        <ele>419.77</ele>
        <time>2017-02-18T15:15:34Z</time>
      </trkpt>
      <trkpt lat="45.30252" lon="5.6542">
        <ele>421.83</ele>
        <time>2017-02-18T15:15:35Z</time>
      </trkpt>
      <trkpt lat="45.30245" lon="5.65435">
        <ele>423.85</ele>
        <time>2017-02-18T15:15:36Z</time>
      </trkpt>
      <trkpt lat="45.30239" lon="5.65453">
        <ele>425.85</ele>
        <time>2017-02-18T15:15:37Z</time>
      </trkpt>
      <trkpt lat="45.30236" lon="5.65473">
        <ele>428.25</ele>
        <time>2017-02-18T15:15:38Z</time>
      </trkpt>
      <trkpt lat="45.30233" lon="5.65494">
        <ele>430.57</ele>
        <time>2017-02-18T15:15:39Z</time>
      </trkpt>
      <trkpt lat="45.30229" lon="5.65514">
        <ele>433.03</ele>
        <time>2017-02-18T15:15:40Z</time>
      </trkpt>
      <trkpt lat="45.30225" lon="5.65534">
        <ele>435.37</ele>
        <time>2017-02-18T15:15:41Z</time>
      </trkpt>
      <trkpt lat="45.30224" lon="5.65556">
        <ele>437.75</ele>
        <time>2017-02-18T15:15:42Z</time>
      </trkpt>
      <trkpt lat="45.30224" lon="5.65579">
        <ele>440.07</ele>
        <time>2017-02-18T15:15:43Z</time>
      </trkpt>
      <trkpt lat="45.30224" lon="5.65602">
        <ele>442.37</ele>
        <time>2017-02-18T15:15:44Z</time>
      </trkpt>
      <trkpt lat="45.30224" lon="5.65626">
        <ele>444.59</ele>
        <time>2017-02-18T15:15:45Z</time>
      </trkpt>
      <trkpt lat="45.30221" lon="5.65648">
        <ele>446.72</ele>
        <time>2017-02-18T15:15:46Z</time>
      </trkpt>
      <trkpt lat="45.30216" lon="5.65669">
        <ele>448.74</ele>
        <time>2017-02-18T15:15:47Z</time>
      </trkpt>
      <trkpt lat="45.30209" lon="5.65689">
        <ele>450.75</ele>
        <time>2017-02-18T15:15:48Z</time>
      </trkpt>
      <trkpt lat="45.30199" lon="5.65706">
        <ele>452.75</ele>
        <time>2017-02-18T15:15:49Z</time>
      </trkpt>
      <trkpt lat="45.30187" lon="5.65721">
        <ele>454.75</ele>
        <time>2017-02-18T15:15:50Z</time>
      </trkpt>
      <trkpt lat="45.30173" lon="5.65736">
        <ele>456.99</ele>
        <time>2017-02-18T15:15:51Z</time>
      </trkpt>
      <trkpt lat="45.30159" lon="5.65752">
        <ele>459.44</ele>
        <time>2017-02-18T15:15:52Z</time>
      </trkpt>
      <trkpt lat="45.30145" lon="5.65769">
        <ele>460.81</ele>
        <time>2017-02-18T15:15:53Z</time>
      </trkpt>
      <trkpt lat="45.30133" lon="5.65783">
        <ele>462.52</ele>
        <time>2017-02-18T15:15:54Z</time>
      </trkpt>
      <trkpt lat="45.30125" lon="5.65796">
        <ele>464.3</ele>
        <time>2017-02-18T15:15:55Z</time>
      </trkpt>
      <trkpt lat="45.30119" lon="5.65811">
        <ele>465.94</ele>
        <time>2017-02-18T15:15:56Z</time>
      </trkpt>
      <trkpt lat="45.30113" lon="5.65829">
        <ele>467.55</ele>
        <time>2017-02-18T15:15:57Z</time>
      </trkpt>
      <trkpt lat="45.30107" lon="5.65847">
        <ele>469.23</ele>
        <time>2017-02-18T15:15:58Z</time>
      </trkpt>
      <trkpt lat="45.30099" lon="5.65865">
        <ele>471.08</ele>
        <time>2017-02-18T15:15:59Z</time>
      </trkpt>
      <trkpt lat="45.3009" lon="5.6588">
        <ele>473.3</ele>
        <time>2017-02-18T15:16:00Z</time>
      </trkpt>
      <trkpt lat="45.30082" lon="5.65895">
        <ele>475.58</ele>
        <time>2017-02-18T15:16:01Z</time>
      </trkpt>
      <trkpt lat="45.30075" lon="5.65912">
        <ele>477.63</ele>
        <time>2017-02-18T15:16:02Z</time>
      </trkpt>
      <trkpt lat="45.30071" lon="5.65928">
        <ele>479.73</ele>
        <time>2017-02-18T15:16:03Z</time>
      </trkpt>
      <trkpt lat="45.30067" lon="5.65947">
        <ele>481.58</ele>
        <time>2017-02-18T15:16:04Z</time>
      </trkpt>
      <trkpt lat="45.30063" lon="5.65965">
        <ele>483.24</ele>
        <time>2017-02-18T15:16:05Z</time>
      </trkpt>
      <trkpt lat="45.30058" lon="5.65984">
        <ele>484.85</ele>
        <time>2017-02-18T15:16:06Z</time>
      </trkpt>
      <trkpt lat="45.30052" lon="5.66003">
        <ele>486.45</ele>
        <time>2017-02-18T15:16:07Z</time>
      </trkpt>
      <trkpt lat="45.30046" lon="5.66023">
        <ele>488.13</ele>
        <time>2017-02-18T15:16:08Z</time>
      </trkpt>
      <trkpt lat="45.3004" lon="5.66042">
        <ele>489.9</ele>
        <time>2017-02-18T15:16:09Z</time>
      </trkpt>
      <trkpt lat="45.30034" lon="5.66062">
        <ele>491.54</ele>
        <time>2017-02-18T15:16:10Z</time>
      </trkpt>
      <trkpt lat="45.30029" lon="5.6608">
        <ele>493.47</ele>
        <time>2017-02-18T15:16:11Z</time>
      </trkpt>
      <trkpt lat="45.30023" lon="5.66095">
        <ele>495.53</ele>
        <time>2017-02-18T15:16:12Z</time>
      </trkpt>
      <trkpt lat="45.30017" lon="5.66104">
        <ele>497.79</ele>
        <time>2017-02-18T15:16:13Z</time>
      </trkpt>
      <trkpt lat="45.30009" lon="5.6611">
        <ele>500.16</ele>
        <time>2017-02-18T15:16:14Z</time>
      </trkpt>
      <trkpt lat="45.30002" lon="5.66114">
        <ele>502.07</ele>
        <time>2017-02-18T15:16:15Z</time>
      </trkpt>
      <trkpt lat="45.29992" lon="5.66111">
        <ele>504.13</ele>
        <time>2017-02-18T15:16:16Z</time>
      </trkpt>
      <trkpt lat="45.29983" lon="5.66106">
        <ele>505.91</ele>
        <time>2017-02-18T15:16:17Z</time>
      </trkpt>
      <trkpt lat="45.29974" lon="5.66099">
        <ele>507.78</ele>
        <time>2017-02-18T15:16:18Z</time>
      </trkpt>
      <trkpt lat="45.29966" lon="5.66091">
        <ele>509.36</ele>
        <time>2017-02-18T15:16:19Z</time>
      </trkpt>
      <trkpt lat="45.29957" lon="5.66083">
        <ele>511.11</ele>
        <time>2017-02-18T15:16:20Z</time>
      </trkpt>
      <trkpt lat="45.29947" lon="5.66075">
        <ele>512.74</ele>
        <time>2017-02-18T15:16:21Z</time>
      </trkpt>
      <trkpt lat="45.29939" lon="5.66066">
        <ele>514.35</ele>
        <time>2017-02-18T15:16:22Z</time>
      </trkpt>
      <trkpt lat="45.29931" lon="5.66055">
        <ele>514.51</ele>
        <time>2017-02-18T15:16:23Z</time>
      </trkpt>
      <trkpt lat="45.29925" lon="5.66041">
        <ele>515.74</ele>
        <time>2017-02-18T15:16:24Z</time>
      </trkpt>
      <trkpt lat="45.2992" lon="5.66024">
        <ele>516.87</ele>
        <time>2017-02-18T15:16:25Z</time>
      </trkpt>
      <trkpt lat="45.29918" lon="5.66005">
        <ele>518.29</ele>
        <time>2017-02-18T15:16:26Z</time>
      </trkpt>
      <trkpt lat="45.29916" lon="5.65985">
        <ele>519.62</ele>
        <time>2017-02-18T15:16:27Z</time>
      </trkpt>
      <trkpt lat="45.29914" lon="5.65965">
        <ele>520.92</ele>
        <time>2017-02-18T15:16:28Z</time>
      </trkpt>
      <trkpt lat="45.29913" lon="5.65944">
        <ele>522.22</ele>
        <time>2017-02-18T15:16:29Z</time>
      </trkpt>
      <trkpt lat="45.29913" lon="5.65923">
        <ele>523.84</ele>
        <time>2017-02-18T15:16:30Z</time>
      </trkpt>
      <trkpt lat="45.29914" lon="5.65902">
        <ele>525.61</ele>
        <time>2017-02-18T15:16:31Z</time>
      </trkpt>
      <trkpt lat="45.29917" lon="5.65882">
        <ele>527.48</ele>
        <time>2017-02-18T15:16:32Z</time>
      </trkpt>
      <trkpt lat="45.29921" lon="5.65864">
        <ele>529.46</ele>
        <time>2017-02-18T15:16:33Z</time>
      </trkpt>
      <trkpt lat="45.29924" lon="5.65847">
        <ele>531.45</ele>
        <time>2017-02-18T15:16:34Z</time>
      </trkpt>
      <trkpt lat="45.29925" lon="5.65833">
        <ele>533.61</ele>
        <time>2017-02-18T15:16:35Z</time>
      </trkpt>
      <trkpt lat="45.29923" lon="5.65822">
        <ele>535.32</ele>
        <time>2017-02-18T15:16:36Z</time>
      </trkpt>
      <trkpt lat="45.29919" lon="5.65813">
        <ele>536.94</ele>
        <time>2017-02-18T15:16:37Z</time>
      </trkpt>
      <trkpt lat="45.29912" lon="5.65806">
        <ele>537.27</ele>
        <time>2017-02-18T15:16:38Z</time>
      </trkpt>
      <trkpt lat="45.29904" lon="5.65799">
        <ele>538.21</ele>
        <time>2017-02-18T15:16:39Z</time>
      </trkpt>
      <trkpt lat="45.29898" lon="5.65789">
        <ele>539.36</ele>
        <time>2017-02-18T15:16:40Z</time>
      </trkpt>
      <trkpt lat="45.29891" lon="5.65779">
        <ele>540.63</ele>
        <time>2017-02-18T15:16:41Z</time>
      </trkpt>
      <trkpt lat="45.29882" lon="5.6577">
        <ele>542.01</ele>
        <time>2017-02-18T15:16:42Z</time>
      </trkpt>
      <trkpt lat="45.29874" lon="5.65761">
        <ele>543.48</ele>
        <time>2017-02-18T15:16:43Z</time>
      </trkpt>
      <trkpt lat="45.29866" lon="5.6575">
        <ele>545.06</ele>
        <time>2017-02-18T15:16:44Z</time>
      </trkpt>
      <trkpt lat="45.29858" lon="5.65737">
        <ele>546.49</ele>
        <time>2017-02-18T15:16:45Z</time>
      </trkpt>
      <trkpt lat="45.29853" lon="5.65722">
        <ele>547.98</ele>
        <time>2017-02-18T15:16:46Z</time>
      </trkpt>
      <trkpt lat="45.29847" lon="5.65704">
        <ele>549.39</ele>
        <time>2017-02-18T15:16:47Z</time>
      </trkpt>
      <trkpt lat="45.2984" lon="5.65678">
        <ele>551.04</ele>
        <time>2017-02-18T15:16:48Z</time>
      </trkpt>
      <trkpt lat="45.29834" lon="5.65654">
        <ele>551.61</ele>
        <time>2017-02-18T15:16:49Z</time>
      </trkpt>
      <trkpt lat="45.2983" lon="5.6563">
        <ele>552.92</ele>
        <time>2017-02-18T15:16:50Z</time>
      </trkpt>
      <trkpt lat="45.29827" lon="5.65607">
        <ele>554.22</ele>
        <time>2017-02-18T15:16:51Z</time>
      </trkpt>
      <trkpt lat="45.29825" lon="5.65585">
        <ele>555.68</ele>
        <time>2017-02-18T15:16:52Z</time>
      </trkpt>
      <trkpt lat="45.29827" lon="5.65563">
        <ele>557.26</ele>
        <time>2017-02-18T15:16:53Z</time>
      </trkpt>
      <trkpt lat="45.29831" lon="5.65544">
        <ele>558.77</ele>
        <time>2017-02-18T15:16:54Z</time>
      </trkpt>
      <trkpt lat="45.29834" lon="5.65526">
        <ele>560.03</ele>
        <time>2017-02-18T15:16:55Z</time>
      </trkpt>
      <trkpt lat="45.29838" lon="5.65512">
        <ele>561.41</ele>
        <time>2017-02-18T15:16:56Z</time>
      </trkpt>
      <trkpt lat="45.29837" lon="5.65499">
        <ele>563.12</ele>
        <time>2017-02-18T15:16:57Z</time>
      </trkpt>
      <trkpt lat="45.29834" lon="5.65486">
        <ele>564.58</ele>
        <time>2017-02-18T15:16:58Z</time>
      </trkpt>
      <trkpt lat="45.2983" lon="5.65473">
        <ele>565.92</ele>
        <time>2017-02-18T15:16:59Z</time>
      </trkpt>
      <trkpt lat="45.29821" lon="5.65464">
        <ele>567.14</ele>
        <time>2017-02-18T15:17:00Z</time>
      </trkpt>
      <trkpt lat="45.29812" lon="5.65453">
        <ele>568.35</ele>
        <time>2017-02-18T15:17:01Z</time>
      </trkpt>
      <trkpt lat="45.29802" lon="5.65443">
        <ele>569.63</ele>
        <time>2017-02-18T15:17:02Z</time>
      </trkpt>
      <trkpt lat="45.29793" lon="5.65434">
        <ele>571</ele>
        <time>2017-02-18T15:17:03Z</time>
      </trkpt>
      <trkpt lat="45.29784" lon="5.65426">
        <ele>572.32</ele>
        <time>2017-02-18T15:17:04Z</time>
      </trkpt>
      <trkpt lat="45.29776" lon="5.6542">
        <ele>573.62</ele>
        <time>2017-02-18T15:17:05Z</time>
      </trkpt>
      <trkpt lat="45.2977" lon="5.65419">
        <ele>575.56</ele>
        <time>2017-02-18T15:17:06Z</time>
      </trkpt>
      <trkpt lat="45.29762" lon="5.65423">
        <ele>577.07</ele>
        <time>2017-02-18T15:17:07Z</time>
      </trkpt>
      <trkpt lat="45.29754" lon="5.65429">
        <ele>578.25</ele>
        <time>2017-02-18T15:17:08Z</time>
      </trkpt>
      <trkpt lat="45.29748" lon="5.6544">
        <ele>579.77</ele>
        <time>2017-02-18T15:17:09Z</time>
      </trkpt>
      <trkpt lat="45.29745" lon="5.65459">
        <ele>581.03</ele>
        <time>2017-02-18T15:17:10Z</time>
      </trkpt>
      <trkpt lat="45.29742" lon="5.65481">
        <ele>582.41</ele>
        <time>2017-02-18T15:17:11Z</time>
      </trkpt>
      <trkpt lat="45.29739" lon="5.65502">
        <ele>583.8</ele>
        <time>2017-02-18T15:17:12Z</time>
      </trkpt>
      <trkpt lat="45.29736" lon="5.6552">
        <ele>585.52</ele>
        <time>2017-02-18T15:17:13Z</time>
      </trkpt>
      <trkpt lat="45.29735" lon="5.65533">
        <ele>587.22</ele>
        <time>2017-02-18T15:17:14Z</time>
      </trkpt>
      <trkpt lat="45.29734" lon="5.65543">
        <ele>588.84</ele>
        <time>2017-02-18T15:17:15Z</time>
      </trkpt>
      <trkpt lat="45.29735" lon="5.6555">
        <ele>590.21</ele>
        <time>2017-02-18T15:17:16Z</time>
      </trkpt>
      <trkpt lat="45.29737" lon="5.65555">
        <ele>591.6</ele>
        <time>2017-02-18T15:17:17Z</time>
      </trkpt>
      <trkpt lat="45.29738" lon="5.65557">
        <ele>593</ele>
        <time>2017-02-18T15:17:18Z</time>
      </trkpt>
      <trkpt lat="45.29738" lon="5.65557">
        <ele>594.16</ele>
        <time>2017-02-18T15:17:19Z</time>
      </trkpt>
      <trkpt lat="45.29739" lon="5.65557">
        <ele>595.35</ele>
        <time>2017-02-18T15:17:20Z</time>
      </trkpt>
      <trkpt lat="45.29739" lon="5.65557">
        <ele>596.55</ele>
        <time>2017-02-18T15:17:21Z</time>
      </trkpt>
      <trkpt lat="45.29739" lon="5.65557">
        <ele>596.79</ele>
        <time>2017-02-18T15:17:22Z</time>
      </trkpt>
      <trkpt lat="45.29739" lon="5.65557">
        <ele>596.84</ele>
        <time>2017-02-18T15:17:23Z</time>
      </trkpt>
      <trkpt lat="45.29739" lon="5.65557">
        <ele>596.85</ele>
        <time>2017-02-18T15:17:24Z</time>
      </trkpt>
      <trkpt lat="45.29739" lon="5.65557">
        <ele>596.85</ele>
        <time>2017-02-18T15:17:25Z</time>
      </trkpt>
      <trkpt lat="45.29739" lon="5.65557">
        <ele>596.85</ele>
        <time>2017-02-18T15:17:26Z</time>
      </trkpt>
      <trkpt lat="45.29739" lon="5.65557">
        <ele>596.85</ele>
        <time>2017-02-18T15:17:27Z</time>
      </trkpt>
      <trkpt lat="45.29739" lon="5.65557">
        <ele>596.85</ele>
        <time>2017-02-18T15:17:28Z</time>
      </trkpt>
      <trkpt lat="45.29739" lon="5.65557">
        <ele>596.85</ele>
        <time>2017-02-18T15:17:29Z</time>
      </trkpt>
      <trkpt lat="45.29739" lon="5.65557">
        <ele>596.85</ele>
        <time>2017-02-18T15:17:30Z</time>
      </trkpt>
      <trkpt lat="45.29739" lon="5.65557">
        <ele>596.85</ele>
        <time>2017-02-18T15:17:31Z</time>
      </trkpt>
      <trkpt lat="45.29739" lon="5.65557">
        <ele>596.85</ele>
        <time>2017-02-18T15:17:32Z</time>
      </trkpt>
      <trkpt lat="45.29739" lon="5.65557">
        <ele>596.85</ele>
        <time>2017-02-18T15:17:33Z</time>
      </trkpt>
      <trkpt lat="45.29739" lon="5.65557">
        <ele>596.85</ele>
        <time>2017-02-18T15:17:34Z</time>
      </trkpt>
      <trkpt lat="45.29739" lon="5.65557">
        <ele>596.85</ele>
        <time>2017-02-18T15:17:35Z</time>
      </trkpt>
      <trkpt lat="45.29739" lon="5.65557">
        <ele>596.85</ele>
        <time>2017-02-18T15:17:36Z</time>
      </trkpt>
      <trkpt lat="45.29739" lon="5.65557">
        <ele>596.85</ele>
        <time>2017-02-18T15:17:37Z</time>
      </trkpt>
      <trkpt lat="45.29739" lon="5.65557">
        <ele>596.85</ele>
        <time>2017-02-18T15:17:38Z</time>
      </trkpt>
      <trkpt lat="45.29739" lon="5.65557">
        <ele>596.85</ele>
        <time>2017-02-18T15:17:39Z</time>
      </trkpt>
      <trkpt lat="45.29739" lon="5.65557">
        <ele>596.85</ele>
        <time>2017-02-18T15:17:40Z</time>
      </trkpt>
      <trkpt lat="45.29739" lon="5.65557">
        <ele>596.85</ele>
        <time>2017-02-18T15:17:41Z</time>
      </trkpt>
      <trkpt lat="45.29739" lon="5.65557">
        <ele>596.85</ele>
        <time>2017-02-18T15:17:42Z</time>
      </trkpt>
      <trkpt lat="45.29739" lon="5.65557">
        <ele>596.85</ele>
        <time>2017-02-18T15:17:43Z</time>
      </trkpt>
      <trkpt lat="45.29739" lon="5.65557">
        <ele>596.85</ele>
        <time>2017-02-18T15:17:44Z</time>
      </trkpt>
      <trkpt lat="45.29739" lon="5.65557">
        <ele>596.85</ele>
        <time>2017-02-18T15:17:45Z</time>
      </trkpt>
      <trkpt lat="45.29739" lon="5.65557">
        <ele>596.85</ele>
        <time>2017-02-18T15:17:46Z</time>
      </trkpt>
      <trkpt lat="45.29739" lon="5.65557">
        <ele>596.85</ele>
        <time>2017-02-18T15:17:47Z</time>
      </trkpt>
      <trkpt lat="45.29739" lon="5.65557">
        <ele>596.85</ele>
        <time>2017-02-18T15:17:48Z</time>
      </trkpt>
      <trkpt lat="45.29739" lon="5.65557">
        <ele>596.85</ele>
        <time>2017-02-18T15:17:49Z</time>
      </trkpt>
      <trkpt lat="45.29739" lon="5.65557">
        <ele>596.85</ele>
        <time>2017-02-18T15:17:50Z</time>
      </trkpt>
      <trkpt lat="45.29739" lon="5.65557">
        <ele>596.85</ele>
        <time>2017-02-18T15:17:51Z</time>
      </trkpt>
      <trkpt lat="45.29739" lon="5.65557">
        <ele>596.85</ele>
        <time>2017-02-18T15:17:52Z</time>
      </trkpt>
      <trkpt lat="45.29739" lon="5.65557">
        <ele>596.85</ele>
        <time>2017-02-18T15:17:53Z</time>
      </trkpt>
      <trkpt lat="45.29739" lon="5.65557">
        <ele>596.85</ele>
        <time>2017-02-18T15:17:54Z</time>
      </trkpt>
      <trkpt lat="45.29739" lon="5.65557">
        <ele>596.85</ele>
        <time>2017-02-18T15:17:55Z</time>
      </trkpt>
      <trkpt lat="45.29739" lon="5.65557">
        <ele>596.85</ele>
        <time>2017-02-18T15:17:56Z</time>
      </trkpt>
      <trkpt lat="45.29739" lon="5.65557">
        <ele>596.85</ele>
        <time>2017-02-18T15:17:57Z</time>
      </trkpt>
      <trkpt lat="45.29739" lon="5.65557">
        <ele>596.85</ele>
        <time>2017-02-18T15:17:58Z</time>
      </trkpt>
      <trkpt lat="45.29739" lon="5.65557">
        <ele>596.85</ele>
        <time>2017-02-18T15:17:59Z</time>
      </trkpt>
      <trkpt lat="45.29739" lon="5.65557">
        <ele>596.85</ele>
        <time>2017-02-18T15:18:00Z</time>
      </trkpt>
      <trkpt lat="45.29739" lon="5.65557">
        <ele>596.85</ele>
        <time>2017-02-18T15:18:01Z</time>
      </trkpt>
      <trkpt lat="45.29739" lon="5.65557">
        <ele>596.85</ele>
        <time>2017-02-18T15:18:02Z</time>
      </trkpt>
      <trkpt lat="45.29739" lon="5.65557">
        <ele>596.85</ele>
        <time>2017-02-18T15:18:03Z</time>
      </trkpt>
      <trkpt lat="45.29739" lon="5.65557">
        <ele>596.85</ele>
        <time>2017-02-18T15:18:04Z</time>
      </trkpt>
      <trkpt lat="45.29739" lon="5.65557">
        <ele>596.85</ele>
        <time>2017-02-18T15:18:05Z</time>
      </trkpt>
      <trkpt lat="45.29739" lon="5.65557">
        <ele>596.85</ele>
        <time>2017-02-18T15:18:06Z</time>
      </trkpt>
      <trkpt lat="45.29739" lon="5.65557">
        <ele>596.85</ele>
        <time>2017-02-18T15:18:07Z</time>
      </trkpt>
      <trkpt lat="45.29739" lon="5.65557">
        <ele>596.85</ele>
        <time>2017-02-18T15:18:08Z</time>
      </trkpt>
      <trkpt lat="45.29739" lon="5.65557">
        <ele>596.85</ele>
        <time>2017-02-18T15:18:09Z</time>
      </trkpt>
      <trkpt lat="45.29739" lon="5.65557">
        <ele>596.85</ele>
        <time>2017-02-18T15:18:10Z</time>
      </trkpt>
      <trkpt lat="45.29739" lon="5.65557">
        <ele>596.85</ele>
        <time>2017-02-18T15:18:11Z</time>
      </trkpt>
      <trkpt lat="45.29739" lon="5.65557">
        <ele>596.85</ele>
        <time>2017-02-18T15:18:12Z</time>
      </trkpt>
      <trkpt lat="45.29739" lon="5.65557">
        <ele>596.85</ele>
        <time>2017-02-18T15:18:13Z</time>
      </trkpt>
      <trkpt lat="45.29739" lon="5.65557">
        <ele>596.85</ele>
        <time>2017-02-18T15:18:14Z</time>
      </trkpt>
      <trkpt lat="45.29739" lon="5.65557">
        <ele>596.85</ele>
        <time>2017-02-18T15:18:15Z</time>
      </trkpt>
      <trkpt lat="45.29739" lon="5.65557">
        <ele>596.85</ele>
        <time>2017-02-18T15:18:16Z</time>
      </trkpt>
      <trkpt lat="45.29739" lon="5.65557">
        <ele>596.85</ele>
        <time>2017-02-18T15:18:17Z</time>
      </trkpt>
      <trkpt lat="45.29739" lon="5.65557">
        <ele>596.85</ele>
        <time>2017-02-18T15:18:18Z</time>
      </trkpt>
      <trkpt lat="45.29739" lon="5.65557">
        <ele>596.85</ele>
        <time>2017-02-18T15:18:19Z</time>
      </trkpt>
      <trkpt lat="45.29739" lon="5.65557">
        <ele>596.85</ele>
        <time>2017-02-18T15:18:20Z</time>
      </trkpt>
      <trkpt lat="45.29738" lon="5.65563">
        <ele>598.13</ele>
        <time>2017-02-18T15:18:21Z</time>
      </trkpt>
      <trkpt lat="45.29736" lon="5.65571">
        <ele>598.39</ele>
        <time>2017-02-18T15:18:22Z</time>
      </trkpt>
      <trkpt lat="45.29735" lon="5.65581">
        <ele>598.84</ele>
        <time>2017-02-18T15:18:23Z</time>
      </trkpt>
      <trkpt lat="45.29736" lon="5.65591">
        <ele>599.41</ele>
        <time>2017-02-18T15:18:24Z</time>
      </trkpt>
      <trkpt lat="45.29737" lon="5.65604">
        <ele>599.84</ele>
        <time>2017-02-18T15:18:25Z</time>
      </trkpt>
      <trkpt lat="45.29737" lon="5.65618">
        <ele>600.33</ele>
        <time>2017-02-18T15:18:26Z</time>
      </trkpt>
      <trkpt lat="45.29735" lon="5.65634">
        <ele>600.82</ele>
        <time>2017-02-18T15:18:27Z</time>
      </trkpt>
      <trkpt lat="45.29732" lon="5.65651">
        <ele>601.32</ele>
        <time>2017-02-18T15:18:28Z</time>
      </trkpt>
      <trkpt lat="45.29729" lon="5.65669">
        <ele>601.82</ele>
        <time>2017-02-18T15:18:29Z</time>
      </trkpt>
      <trkpt lat="45.29727" lon="5.6569">
        <ele>602.4</ele>
        <time>2017-02-18T15:18:30Z</time>
      </trkpt>
      <trkpt lat="45.29726" lon="5.65709">
        <ele>602.92</ele>
        <time>2017-02-18T15:18:31Z</time>
      </trkpt>
      <trkpt lat="45.29727" lon="5.6573">
        <ele>603.5</ele>
        <time>2017-02-18T15:18:32Z</time>
      </trkpt>
      <trkpt lat="45.2973" lon="5.65748">
        <ele>604.18</ele>
        <time>2017-02-18T15:18:33Z</time>
      </trkpt>
      <trkpt lat="45.29733" lon="5.65766">
        <ele>605.04</ele>
        <time>2017-02-18T15:18:34Z</time>
      </trkpt>
      <trkpt lat="45.29738" lon="5.65784">
        <ele>605.93</ele>
        <time>2017-02-18T15:18:35Z</time>
      </trkpt>
      <trkpt lat="45.29741" lon="5.658">
        <ele>606.9</ele>
        <time>2017-02-18T15:18:36Z</time>
      </trkpt>
      <trkpt lat="45.29742" lon="5.65815">
        <ele>607.98</ele>
        <time>2017-02-18T15:18:37Z</time>
      </trkpt>
      <trkpt lat="45.29741" lon="5.6583">
        <ele>609</ele>
        <time>2017-02-18T15:18:38Z</time>
      </trkpt>
      <trkpt lat="45.29738" lon="5.65847">
        <ele>609.92</ele>
        <time>2017-02-18T15:18:39Z</time>
      </trkpt>
      <trkpt lat="45.29735" lon="5.65864">
        <ele>610.82</ele>
        <time>2017-02-18T15:18:40Z</time>
      </trkpt>
      <trkpt lat="45.29731" lon="5.65882">
        <ele>611.8</ele>
        <time>2017-02-18T15:18:41Z</time>
      </trkpt>
      <trkpt lat="45.29728" lon="5.65901">
        <ele>612.88</ele>
        <time>2017-02-18T15:18:42Z</time>
      </trkpt>
      <trkpt lat="45.29725" lon="5.65922">
        <ele>614.14</ele>
        <time>2017-02-18T15:18:43Z</time>
      </trkpt>
      <trkpt lat="45.29721" lon="5.65944">
        <ele>615.51</ele>
        <time>2017-02-18T15:18:44Z</time>
      </trkpt>
      <trkpt lat="45.29718" lon="5.65966">
        <ele>616.9</ele>
        <time>2017-02-18T15:18:45Z</time>
      </trkpt>
      <trkpt lat="45.29715" lon="5.65987">
        <ele>618.3</ele>
        <time>2017-02-18T15:18:46Z</time>
      </trkpt>
      <trkpt lat="45.29711" lon="5.66007">
        <ele>619.94</ele>
        <time>2017-02-18T15:18:47Z</time>
      </trkpt>
      <trkpt lat="45.29708" lon="5.66024">
        <ele>621.63</ele>
        <time>2017-02-18T15:18:48Z</time>
      </trkpt>
      <trkpt lat="45.29701" lon="5.66039">
        <ele>623.4</ele>
        <time>2017-02-18T15:18:49Z</time>
      </trkpt>
      <trkpt lat="45.29694" lon="5.66054">
        <ele>624.96</ele>
        <time>2017-02-18T15:18:50Z</time>
      </trkpt>
      <trkpt lat="45.29686" lon="5.66071">
        <ele>626.55</ele>
        <time>2017-02-18T15:18:51Z</time>
      </trkpt>
      <trkpt lat="45.29679" lon="5.66089">
        <ele>628.23</ele>
        <time>2017-02-18T15:18:52Z</time>
      </trkpt>
      <trkpt lat="45.29672" lon="5.66108">
        <ele>629.85</ele>
        <time>2017-02-18T15:18:53Z</time>
      </trkpt>
      <trkpt lat="45.29664" lon="5.66126">
        <ele>631.53</ele>
        <time>2017-02-18T15:18:54Z</time>
      </trkpt>
      <trkpt lat="45.29655" lon="5.66145">
        <ele>633.3</ele>
        <time>2017-02-18T15:18:55Z</time>
      </trkpt>
      <trkpt lat="45.29647" lon="5.66164">
        <ele>634.94</ele>
        <time>2017-02-18T15:18:56Z</time>
      </trkpt>
      <trkpt lat="45.29638" lon="5.66183">
        <ele>636.71</ele>
        <time>2017-02-18T15:18:57Z</time>
      </trkpt>
      <trkpt lat="45.29631" lon="5.66202">
        <ele>638.5</ele>
        <time>2017-02-18T15:18:58Z</time>
      </trkpt>
      <trkpt lat="45.29624" lon="5.66222">
        <ele>640.3</ele>
        <time>2017-02-18T15:18:59Z</time>
      </trkpt>
      <trkpt lat="45.29617" lon="5.66242">
        <ele>642.02</ele>
        <time>2017-02-18T15:19:00Z</time>
      </trkpt>
      <trkpt lat="45.29611" lon="5.66261">
        <ele>643.64</ele>
        <time>2017-02-18T15:19:01Z</time>
      </trkpt>
      <trkpt lat="45.29604" lon="5.66281">
        <ele>645.57</ele>
        <time>2017-02-18T15:19:02Z</time>
      </trkpt>
      <trkpt lat="45.29598" lon="5.66301">
        <ele>647.31</ele>
        <time>2017-02-18T15:19:03Z</time>
      </trkpt>
      <trkpt lat="45.29593" lon="5.66321">
        <ele>648.94</ele>
        <time>2017-02-18T15:19:04Z</time>
      </trkpt>
      <trkpt lat="45.29589" lon="5.6634">
        <ele>650.63</ele>
        <time>2017-02-18T15:19:05Z</time>
      </trkpt>
      <trkpt lat="45.29586" lon="5.66358">
        <ele>653.12</ele>
        <time>2017-02-18T15:19:06Z</time>
      </trkpt>
      <trkpt lat="45.29584" lon="5.66373">
        <ele>656.02</ele>
        <time>2017-02-18T15:19:07Z</time>
      </trkpt>
      <trkpt lat="45.29582" lon="5.66385">
        <ele>658.28</ele>
        <time>2017-02-18T15:19:08Z</time>
      </trkpt>
      <trkpt lat="45.29577" lon="5.66394">
        <ele>659.14</ele>
        <time>2017-02-18T15:19:09Z</time>
      </trkpt>
      <trkpt lat="45.29573" lon="5.66401">
        <ele>660.43</ele>
        <time>2017-02-18T15:19:10Z</time>
      </trkpt>
      <trkpt lat="45.29566" lon="5.66407">
        <ele>661.72</ele>
        <time>2017-02-18T15:19:11Z</time>
      </trkpt>
      <trkpt lat="45.2956" lon="5.66417">
        <ele>663.1</ele>
        <time>2017-02-18T15:19:12Z</time>
      </trkpt>
      <trkpt lat="45.29555" lon="5.66428">
        <ele>664.34</ele>
        <time>2017-02-18T15:19:13Z</time>
      </trkpt>
      <trkpt lat="45.2955" lon="5.66443">
        <ele>665.63</ele>
        <time>2017-02-18T15:19:14Z</time>
      </trkpt>
      <trkpt lat="45.29545" lon="5.66459">
        <ele>666.92</ele>
        <time>2017-02-18T15:19:15Z</time>
      </trkpt>
      <trkpt lat="45.29542" lon="5.66478">
        <ele>668.38</ele>
        <time>2017-02-18T15:19:16Z</time>
      </trkpt>
      <trkpt lat="45.29538" lon="5.66497">
        <ele>669.8</ele>
        <time>2017-02-18T15:19:17Z</time>
      </trkpt>
      <trkpt lat="45.29534" lon="5.66516">
        <ele>671.36</ele>
        <time>2017-02-18T15:19:18Z</time>
      </trkpt>
      <trkpt lat="45.29532" lon="5.66534">
        <ele>672.87</ele>
        <time>2017-02-18T15:19:19Z</time>
      </trkpt>
      <trkpt lat="45.29531" lon="5.66552">
        <ele>675.09</ele>
        <time>2017-02-18T15:19:20Z</time>
      </trkpt>
      <trkpt lat="45.29529" lon="5.66566">
        <ele>677.06</ele>
        <time>2017-02-18T15:19:21Z</time>
      </trkpt>
      <trkpt lat="45.29524" lon="5.66577">
        <ele>678.73</ele>
        <time>2017-02-18T15:19:22Z</time>
      </trkpt>
      <trkpt lat="45.29518" lon="5.66591">
        <ele>680.67</ele>
        <time>2017-02-18T15:19:23Z</time>
      </trkpt>
      <trkpt lat="45.2951" lon="5.66605">
        <ele>681.61</ele>
        <time>2017-02-18T15:19:24Z</time>
      </trkpt>
      <trkpt lat="45.29505" lon="5.66621">
        <ele>682.84</ele>
        <time>2017-02-18T15:19:25Z</time>
      </trkpt>
      <trkpt lat="45.29503" lon="5.66641">
        <ele>684.85</ele>
        <time>2017-02-18T15:19:26Z</time>
      </trkpt>
      <trkpt lat="45.295" lon="5.66663">
        <ele>686.77</ele>
        <time>2017-02-18T15:19:27Z</time>
      </trkpt>
      <trkpt lat="45.29499" lon="5.66685">
        <ele>689.15</ele>
        <time>2017-02-18T15:19:28Z</time>
      </trkpt>
      <trkpt lat="45.29498" lon="5.66707">
        <ele>691.63</ele>
        <time>2017-02-18T15:19:29Z</time>
      </trkpt>
      <trkpt lat="45.29496" lon="5.66728">
        <ele>694.21</ele>
        <time>2017-02-18T15:19:30Z</time>
      </trkpt>
      <trkpt lat="45.29495" lon="5.66747">
        <ele>696.48</ele>
        <time>2017-02-18T15:19:31Z</time>
      </trkpt>
      <trkpt lat="45.29495" lon="5.66763">
        <ele>698.94</ele>
        <time>2017-02-18T15:19:32Z</time>
      </trkpt>
      <trkpt lat="45.29495" lon="5.66775">
        <ele>701.43</ele>
        <time>2017-02-18T15:19:33Z</time>
      </trkpt>
      <trkpt lat="45.29496" lon="5.66786">
        <ele>703.68</ele>
        <time>2017-02-18T15:19:34Z</time>
      </trkpt>
      <trkpt lat="45.29498" lon="5.66792">
        <ele>704.54</ele>
        <time>2017-02-18T15:19:35Z</time>
      </trkpt>
      <trkpt lat="45.29499" lon="5.66795">
        <ele>706.23</ele>
        <time>2017-02-18T15:19:36Z</time>
      </trkpt>
      <trkpt lat="45.29499" lon="5.66796">
        <ele>707.6</ele>
        <time>2017-02-18T15:19:37Z</time>
      </trkpt>
      <trkpt lat="45.295" lon="5.66796">
        <ele>709.4</ele>
        <time>2017-02-18T15:19:38Z</time>
      </trkpt>
      <trkpt lat="45.29499" lon="5.66795">
        <ele>709.84</ele>
        <time>2017-02-18T15:19:39Z</time>
      </trkpt>
      <trkpt lat="45.29499" lon="5.66795">
        <ele>709.93</ele>
        <time>2017-02-18T15:19:40Z</time>
      </trkpt>
      <trkpt lat="45.29499" lon="5.66795">
        <ele>709.94</ele>
        <time>2017-02-18T15:19:41Z</time>
      </trkpt>
      <trkpt lat="45.29499" lon="5.66795">
        <ele>709.95</ele>
        <time>2017-02-18T15:19:42Z</time>
      </trkpt>
      <trkpt lat="45.29499" lon="5.66795">
        <ele>709.95</ele>
        <time>2017-02-18T15:19:43Z</time>
      </trkpt>
      <trkpt lat="45.29499" lon="5.66795">
        <ele>709.95</ele>
        <time>2017-02-18T15:19:44Z</time>
      </trkpt>
      <trkpt lat="45.29499" lon="5.66795">
        <ele>709.95</ele>
        <time>2017-02-18T15:19:45Z</time>
      </trkpt>
      <trkpt lat="45.29499" lon="5.66795">
        <ele>709.95</ele>
        <time>2017-02-18T15:19:46Z</time>
      </trkpt>
      <trkpt lat="45.29499" lon="5.66795">
        <ele>709.95</ele>
        <time>2017-02-18T15:19:47Z</time>
      </trkpt>
      <trkpt lat="45.29499" lon="5.66795">
        <ele>709.95</ele>
        <time>2017-02-18T15:19:48Z</time>
      </trkpt>
      <trkpt lat="45.29499" lon="5.66795">
        <ele>709.95</ele>
        <time>2017-02-18T15:19:49Z</time>
      </trkpt>
      <trkpt lat="45.29499" lon="5.66795">
        <ele>709.95</ele>
        <time>2017-02-18T15:19:50Z</time>
      </trkpt>
      <trkpt lat="45.29499" lon="5.66795">
        <ele>709.95</ele>
        <time>2017-02-18T15:19:51Z</time>
      </trkpt>
      <trkpt lat="45.29499" lon="5.66795">
        <ele>709.95</ele>
        <time>2017-02-18T15:19:52Z</time>
      </trkpt>
      <trkpt lat="45.29499" lon="5.66795">
        <ele>709.95</ele>
        <time>2017-02-18T15:19:53Z</time>
      </trkpt>
      <trkpt lat="45.29499" lon="5.66795">
        <ele>709.95</ele>
        <time>2017-02-18T15:19:54Z</time>
      </trkpt>
      <trkpt lat="45.29499" lon="5.66795">
        <ele>709.95</ele>
        <time>2017-02-18T15:19:55Z</time>
      </trkpt>
      <trkpt lat="45.29499" lon="5.66795">
        <ele>709.95</ele>
        <time>2017-02-18T15:19:56Z</time>
      </trkpt>
      <trkpt lat="45.29499" lon="5.66795">
        <ele>709.95</ele>
        <time>2017-02-18T15:19:57Z</time>
      </trkpt>
      <trkpt lat="45.29499" lon="5.66795">
        <ele>709.95</ele>
        <time>2017-02-18T15:19:58Z</time>
      </trkpt>
      <trkpt lat="45.29499" lon="5.66795">
        <ele>709.95</ele>
        <time>2017-02-18T15:19:59Z</time>
      </trkpt>
      <trkpt lat="45.29499" lon="5.66795">
        <ele>709.95</ele>
        <time>2017-02-18T15:20:00Z</time>
      </trkpt>
      <trkpt lat="45.29499" lon="5.66795">
        <ele>709.95</ele>
        <time>2017-02-18T15:20:01Z</time>
      </trkpt>
      <trkpt lat="45.29498" lon="5.66804">
        <ele>710.91</ele>
        <time>2017-02-18T15:20:02Z</time>
      </trkpt>
      <trkpt lat="45.29498" lon="5.66813">
        <ele>711.26</ele>
        <time>2017-02-18T15:20:03Z</time>
      </trkpt>
      <trkpt lat="45.295" lon="5.66824">
        <ele>711.57</ele>
        <time>2017-02-18T15:20:04Z</time>
      </trkpt>
      <trkpt lat="45.29501" lon="5.66837">
        <ele>711.87</ele>
        <time>2017-02-18T15:20:05Z</time>
      </trkpt>
      <trkpt lat="45.29502" lon="5.66852">
        <ele>712.17</ele>
        <time>2017-02-18T15:20:06Z</time>
      </trkpt>
      <trkpt lat="45.29503" lon="5.6687">
        <ele>712.55</ele>
        <time>2017-02-18T15:20:07Z</time>
      </trkpt>
      <trkpt lat="45.29504" lon="5.66888">
        <ele>712.95</ele>
        <time>2017-02-18T15:20:08Z</time>
      </trkpt>
      <trkpt lat="45.29504" lon="5.66908">
        <ele>713.67</ele>
        <time>2017-02-18T15:20:09Z</time>
      </trkpt>
      <trkpt lat="45.29505" lon="5.66926">
        <ele>714.61</ele>
        <time>2017-02-18T15:20:10Z</time>
      </trkpt>
      <trkpt lat="45.29506" lon="5.66945">
        <ele>715.84</ele>
        <time>2017-02-18T15:20:11Z</time>
      </trkpt>
      <trkpt lat="45.29507" lon="5.66963">
        <ele>717.21</ele>
        <time>2017-02-18T15:20:12Z</time>
      </trkpt>
      <trkpt lat="45.29507" lon="5.66982">
        <ele>718.68</ele>
        <time>2017-02-18T15:20:13Z</time>
      </trkpt>
      <trkpt lat="45.29506" lon="5.66999">
        <ele>720.18</ele>
        <time>2017-02-18T15:20:14Z</time>
      </trkpt>
      <trkpt lat="45.29505" lon="5.67016">
        <ele>721.75</ele>
        <time>2017-02-18T15:20:15Z</time>
      </trkpt>
      <trkpt lat="45.29503" lon="5.67032">
        <ele>723.27</ele>
        <time>2017-02-18T15:20:16Z</time>
      </trkpt>
      <trkpt lat="45.295" lon="5.67047">
        <ele>724.77</ele>
        <time>2017-02-18T15:20:17Z</time>
      </trkpt>
      <trkpt lat="45.29498" lon="5.67061">
        <ele>726.27</ele>
        <time>2017-02-18T15:20:18Z</time>
      </trkpt>
      <trkpt lat="45.29497" lon="5.67076">
        <ele>727.77</ele>
        <time>2017-02-18T15:20:19Z</time>
      </trkpt>
      <trkpt lat="45.29498" lon="5.67088">
        <ele>729.19</ele>
        <time>2017-02-18T15:20:20Z</time>
      </trkpt>
      <trkpt lat="45.295" lon="5.671">
        <ele>730.6</ele>
        <time>2017-02-18T15:20:21Z</time>
      </trkpt>
      <trkpt lat="45.2951" lon="5.6711">
        <ele>732.16</ele>
        <time>2017-02-18T15:20:22Z</time>
      </trkpt>
      <trkpt lat="45.29522" lon="5.67118">
        <ele>733.75</ele>
        <time>2017-02-18T15:20:23Z</time>
      </trkpt>
      <trkpt lat="45.29533" lon="5.67124">
        <ele>735.35</ele>
        <time>2017-02-18T15:20:24Z</time>
      </trkpt>
      <trkpt lat="45.29546" lon="5.67128">
        <ele>736.87</ele>
        <time>2017-02-18T15:20:25Z</time>
      </trkpt>
      <trkpt lat="45.29562" lon="5.67133">
        <ele>738.37</ele>
        <time>2017-02-18T15:20:26Z</time>
      </trkpt>
      <trkpt lat="45.29578" lon="5.67138">
        <ele>740.03</ele>
        <time>2017-02-18T15:20:27Z</time>
      </trkpt>
      <trkpt lat="45.29594" lon="5.67141">
        <ele>741.65</ele>
        <time>2017-02-18T15:20:28Z</time>
      </trkpt>
      <trkpt lat="45.29608" lon="5.67143">
        <ele>743.01</ele>
        <time>2017-02-18T15:20:29Z</time>
      </trkpt>
      <trkpt lat="45.29622" lon="5.67142">
        <ele>744.56</ele>
        <time>2017-02-18T15:20:30Z</time>
      </trkpt>
      <trkpt lat="45.29636" lon="5.6714">
        <ele>746.23</ele>
        <time>2017-02-18T15:20:31Z</time>
      </trkpt>
      <trkpt lat="45.2965" lon="5.67138">
        <ele>747.69</ele>
        <time>2017-02-18T15:20:32Z</time>
      </trkpt>
      <trkpt lat="45.29664" lon="5.67137">
        <ele>749.18</ele>
        <time>2017-02-18T15:20:33Z</time>
      </trkpt>
      <trkpt lat="45.29678" lon="5.67136">
        <ele>750.75</ele>
        <time>2017-02-18T15:20:34Z</time>
      </trkpt>
      <trkpt lat="45.29691" lon="5.67136">
        <ele>752.27</ele>
        <time>2017-02-18T15:20:35Z</time>
      </trkpt>
      <trkpt lat="45.29704" lon="5.67136">
        <ele>753.61</ele>
        <time>2017-02-18T15:20:36Z</time>
      </trkpt>
      <trkpt lat="45.29717" lon="5.67133">
        <ele>755.32</ele>
        <time>2017-02-18T15:20:37Z</time>
      </trkpt>
      <trkpt lat="45.29728" lon="5.67128">
        <ele>757.1</ele>
        <time>2017-02-18T15:20:38Z</time>
      </trkpt>
      <trkpt lat="45.29737" lon="5.67116">
        <ele>759.94</ele>
        <time>2017-02-18T15:20:39Z</time>
      </trkpt>
      <trkpt lat="45.29744" lon="5.67111">
        <ele>761.87</ele>
        <time>2017-02-18T15:20:40Z</time>
      </trkpt>
      <trkpt lat="45.29751" lon="5.67107">
        <ele>763.45</ele>
        <time>2017-02-18T15:20:41Z</time>
      </trkpt>
      <trkpt lat="45.29757" lon="5.67105">
        <ele>764.01</ele>
        <time>2017-02-18T15:20:42Z</time>
      </trkpt>
      <trkpt lat="45.29762" lon="5.67106">
        <ele>765.16</ele>
        <time>2017-02-18T15:20:43Z</time>
      </trkpt>
      <trkpt lat="45.29766" lon="5.67109">
        <ele>766.11</ele>
        <time>2017-02-18T15:20:44Z</time>
      </trkpt>
      <trkpt lat="45.29767" lon="5.67114">
        <ele>767.34</ele>
        <time>2017-02-18T15:20:45Z</time>
      </trkpt>
      <trkpt lat="45.29766" lon="5.67119">
        <ele>768.63</ele>
        <time>2017-02-18T15:20:46Z</time>
      </trkpt>
      <trkpt lat="45.29762" lon="5.67124">
        <ele>769.92</ele>
        <time>2017-02-18T15:20:47Z</time>
      </trkpt>
      <trkpt lat="45.29756" lon="5.67129">
        <ele>770.98</ele>
        <time>2017-02-18T15:20:48Z</time>
      </trkpt>
      <trkpt lat="45.29747" lon="5.67135">
        <ele>772.88</ele>
        <time>2017-02-18T15:20:49Z</time>
      </trkpt>
      <trkpt lat="45.29738" lon="5.67144">
        <ele>774.93</ele>
        <time>2017-02-18T15:20:50Z</time>
      </trkpt>
      <trkpt lat="45.29728" lon="5.67154">
        <ele>777.03</ele>
        <time>2017-02-18T15:20:51Z</time>
      </trkpt>
      <trkpt lat="45.29717" lon="5.67165">
        <ele>778.88</ele>
        <time>2017-02-18T15:20:52Z</time>
      </trkpt>
      <trkpt lat="45.29705" lon="5.67174">
        <ele>780.54</ele>
        <time>2017-02-18T15:20:53Z</time>
      </trkpt>
      <trkpt lat="45.29693" lon="5.67181">
        <ele>781.99</ele>
        <time>2017-02-18T15:20:54Z</time>
      </trkpt>
      <trkpt lat="45.2968" lon="5.67188">
        <ele>783.32</ele>
        <time>2017-02-18T15:20:55Z</time>
      </trkpt>
      <trkpt lat="45.29668" lon="5.67195">
        <ele>784.86</ele>
        <time>2017-02-18T15:20:56Z</time>
      </trkpt>
      <trkpt lat="45.29656" lon="5.67202">
        <ele>786.45</ele>
        <time>2017-02-18T15:20:57Z</time>
      </trkpt>
      <trkpt lat="45.29644" lon="5.67205">
        <ele>787.73</ele>
        <time>2017-02-18T15:20:58Z</time>
      </trkpt>
      <trkpt lat="45.29633" lon="5.67206">
        <ele>789.11</ele>
        <time>2017-02-18T15:20:59Z</time>
      </trkpt>
      <trkpt lat="45.29622" lon="5.67205">
        <ele>790.34</ele>
        <time>2017-02-18T15:21:00Z</time>
      </trkpt>
      <trkpt lat="45.29613" lon="5.67204">
        <ele>791.63</ele>
        <time>2017-02-18T15:21:01Z</time>
      </trkpt>
      <trkpt lat="45.29604" lon="5.67204">
        <ele>793.08</ele>
        <time>2017-02-18T15:21:02Z</time>
      </trkpt>
      <trkpt lat="45.29597" lon="5.67204">
        <ele>794.66</ele>
        <time>2017-02-18T15:21:03Z</time>
      </trkpt>
      <trkpt lat="45.29591" lon="5.67209">
        <ele>796.01</ele>
        <time>2017-02-18T15:21:04Z</time>
      </trkpt>
      <trkpt lat="45.29583" lon="5.67214">
        <ele>797.72</ele>
        <time>2017-02-18T15:21:05Z</time>
      </trkpt>
      <trkpt lat="45.29575" lon="5.67222">
        <ele>799.66</ele>
        <time>2017-02-18T15:21:06Z</time>
      </trkpt>
      <trkpt lat="45.29565" lon="5.6723">
        <ele>801.25</ele>
        <time>2017-02-18T15:21:07Z</time>
      </trkpt>
      <trkpt lat="45.29552" lon="5.67235">
        <ele>803.17</ele>
        <time>2017-02-18T15:21:08Z</time>
      </trkpt>
      <trkpt lat="45.2954" lon="5.67243">
        <ele>804.59</ele>
        <time>2017-02-18T15:21:09Z</time>
      </trkpt>
      <trkpt lat="45.29528" lon="5.67251">
        <ele>806.16</ele>
        <time>2017-02-18T15:21:10Z</time>
      </trkpt>
      <trkpt lat="45.29515" lon="5.67257">
        <ele>807.59</ele>
        <time>2017-02-18T15:21:11Z</time>
      </trkpt>
      <trkpt lat="45.29503" lon="5.67262">
        <ele>808.84</ele>
        <time>2017-02-18T15:21:12Z</time>
      </trkpt>
      <trkpt lat="45.2949" lon="5.67265">
        <ele>810.29</ele>
        <time>2017-02-18T15:21:13Z</time>
      </trkpt>
      <trkpt lat="45.29478" lon="5.67269">
        <ele>811.54</ele>
        <time>2017-02-18T15:21:14Z</time>
      </trkpt>
      <trkpt lat="45.29466" lon="5.67273">
        <ele>812.83</ele>
        <time>2017-02-18T15:21:15Z</time>
      </trkpt>
      <trkpt lat="45.29454" lon="5.67275">
        <ele>814.04</ele>
        <time>2017-02-18T15:21:16Z</time>
      </trkpt>
      <trkpt lat="45.29443" lon="5.67278">
        <ele>815.49</ele>
        <time>2017-02-18T15:21:17Z</time>
      </trkpt>
      <trkpt lat="45.29433" lon="5.67282">
        <ele>816.82</ele>
        <time>2017-02-18T15:21:18Z</time>
      </trkpt>
      <trkpt lat="45.29424" lon="5.67287">
        <ele>818.12</ele>
        <time>2017-02-18T15:21:19Z</time>
      </trkpt>
      <trkpt lat="45.29415" lon="5.67293">
        <ele>819.26</ele>
        <time>2017-02-18T15:21:20Z</time>
      </trkpt>
      <trkpt lat="45.29407" lon="5.67299">
        <ele>820.37</ele>
        <time>2017-02-18T15:21:21Z</time>
      </trkpt>
      <trkpt lat="45.294" lon="5.67305">
        <ele>821.55</ele>
        <time>2017-02-18T15:21:22Z</time>
      </trkpt>
      <trkpt lat="45.29392" lon="5.6731">
        <ele>822.75</ele>
        <time>2017-02-18T15:21:23Z</time>
      </trkpt>
      <trkpt lat="45.29386" lon="5.67313">
        <ele>823.87</ele>
        <time>2017-02-18T15:21:24Z</time>
      </trkpt>
      <trkpt lat="45.29379" lon="5.67312">
        <ele>825.29</ele>
        <time>2017-02-18T15:21:25Z</time>
      </trkpt>
      <trkpt lat="45.29374" lon="5.67312">
        <ele>826.62</ele>
        <time>2017-02-18T15:21:26Z</time>
      </trkpt>
      <trkpt lat="45.29369" lon="5.67306">
        <ele>828.4</ele>
        <time>2017-02-18T15:21:27Z</time>
      </trkpt>
      <trkpt lat="45.29366" lon="5.67301">
        <ele>830.44</ele>
        <time>2017-02-18T15:21:28Z</time>
      </trkpt>
      <trkpt lat="45.29362" lon="5.67291">
        <ele>833.25</ele>
        <time>2017-02-18T15:21:29Z</time>
      </trkpt>
      <trkpt lat="45.29358" lon="5.67284">
        <ele>835.57</ele>
        <time>2017-02-18T15:21:30Z</time>
      </trkpt>
      <trkpt lat="45.29355" lon="5.67279">
        <ele>837.63</ele>
        <time>2017-02-18T15:21:31Z</time>
      </trkpt>
      <trkpt lat="45.29351" lon="5.67274">
        <ele>839.25</ele>
        <time>2017-02-18T15:21:32Z</time>
      </trkpt>
      <trkpt lat="45.29347" lon="5.67269">
        <ele>840.85</ele>
        <time>2017-02-18T15:21:33Z</time>
      </trkpt>
      <trkpt lat="45.29343" lon="5.67264">
        <ele>842.53</ele>
        <time>2017-02-18T15:21:34Z</time>
      </trkpt>
      <trkpt lat="45.29339" lon="5.67259">
        <ele>844.14</ele>
        <time>2017-02-18T15:21:35Z</time>
      </trkpt>
      <trkpt lat="45.29334" lon="5.67255">
        <ele>845.75</ele>
        <time>2017-02-18T15:21:36Z</time>
      </trkpt>
      <trkpt lat="45.2933" lon="5.67253">
        <ele>847.27</ele>
        <time>2017-02-18T15:21:37Z</time>
      </trkpt>
      <trkpt lat="45.29325" lon="5.67253">
        <ele>848.77</ele>
        <time>2017-02-18T15:21:38Z</time>
      </trkpt>
      <trkpt lat="45.29322" lon="5.67254">
        <ele>850.19</ele>
        <time>2017-02-18T15:21:39Z</time>
      </trkpt>
      <trkpt lat="45.29321" lon="5.67256">
        <ele>851.84</ele>
        <time>2017-02-18T15:21:40Z</time>
      </trkpt>
      <trkpt lat="45.29319" lon="5.67258">
        <ele>853.13</ele>
        <time>2017-02-18T15:21:41Z</time>
      </trkpt>
      <trkpt lat="45.29319" lon="5.6726">
        <ele>854.5</ele>
        <time>2017-02-18T15:21:42Z</time>
      </trkpt>
      <trkpt lat="45.29319" lon="5.67262">
        <ele>856.14</ele>
        <time>2017-02-18T15:21:43Z</time>
      </trkpt>
      <trkpt lat="45.29319" lon="5.67264">
        <ele>857.83</ele>
        <time>2017-02-18T15:21:44Z</time>
      </trkpt>
      <trkpt lat="45.29319" lon="5.67268">
        <ele>859.36</ele>
        <time>2017-02-18T15:21:45Z</time>
      </trkpt>
      <trkpt lat="45.29319" lon="5.67274">
        <ele>860.63</ele>
        <time>2017-02-18T15:21:46Z</time>
      </trkpt>
      <trkpt lat="45.29321" lon="5.67283">
        <ele>861.77</ele>
        <time>2017-02-18T15:21:47Z</time>
      </trkpt>
      <trkpt lat="45.29324" lon="5.67291">
        <ele>862.87</ele>
        <time>2017-02-18T15:21:48Z</time>
      </trkpt>
      <trkpt lat="45.29329" lon="5.673">
        <ele>863.89</ele>
        <time>2017-02-18T15:21:49Z</time>
      </trkpt>
      <trkpt lat="45.29333" lon="5.67308">
        <ele>864.9</ele>
        <time>2017-02-18T15:21:50Z</time>
      </trkpt>
      <trkpt lat="45.29337" lon="5.67316">
        <ele>865.98</ele>
        <time>2017-02-18T15:21:51Z</time>
      </trkpt>
      <trkpt lat="45.29341" lon="5.67324">
        <ele>866.83</ele>
        <time>2017-02-18T15:21:52Z</time>
      </trkpt>
      <trkpt lat="45.29346" lon="5.67331">
        <ele>868.05</ele>
        <time>2017-02-18T15:21:53Z</time>
      </trkpt>
      <trkpt lat="45.2935" lon="5.67339">
        <ele>869.57</ele>
        <time>2017-02-18T15:21:54Z</time>
      </trkpt>
      <trkpt lat="45.29353" lon="5.67346">
        <ele>870.83</ele>
        <time>2017-02-18T15:21:55Z</time>
      </trkpt>
      <trkpt lat="45.29357" lon="5.67354">
        <ele>872.45</ele>
        <time>2017-02-18T15:21:56Z</time>
      </trkpt>
      <trkpt lat="45.2936" lon="5.67362">
        <ele>873.57</ele>
        <time>2017-02-18T15:21:57Z</time>
      </trkpt>
      <trkpt lat="45.29362" lon="5.67371">
        <ele>874.99</ele>
        <time>2017-02-18T15:21:58Z</time>
      </trkpt>
      <trkpt lat="45.29363" lon="5.67379">
        <ele>876.64</ele>
        <time>2017-02-18T15:21:59Z</time>
      </trkpt>
      <trkpt lat="45.29363" lon="5.67388">
        <ele>877.77</ele>
        <time>2017-02-18T15:22:00Z</time>
      </trkpt>
      <trkpt lat="45.2936" lon="5.67397">
        <ele>878.87</ele>
        <time>2017-02-18T15:22:01Z</time>
      </trkpt>
      <trkpt lat="45.29357" lon="5.67406">
        <ele>880.21</ele>
        <time>2017-02-18T15:22:02Z</time>
      </trkpt>
      <trkpt lat="45.29354" lon="5.67414">
        <ele>881.44</ele>
        <time>2017-02-18T15:22:03Z</time>
      </trkpt>
      <trkpt lat="45.2935" lon="5.67421">
        <ele>882.65</ele>
        <time>2017-02-18T15:22:04Z</time>
      </trkpt>
      <trkpt lat="45.29346" lon="5.67429">
        <ele>883.69</ele>
        <time>2017-02-18T15:22:05Z</time>
      </trkpt>
      <trkpt lat="45.29343" lon="5.67437">
        <ele>884.78</ele>
        <time>2017-02-18T15:22:06Z</time>
      </trkpt>
      <trkpt lat="45.2934" lon="5.67445">
        <ele>885.63</ele>
        <time>2017-02-18T15:22:07Z</time>
      </trkpt>
      <trkpt lat="45.29337" lon="5.67453">
        <ele>886.37</ele>
        <time>2017-02-18T15:22:08Z</time>
      </trkpt>
      <trkpt lat="45.29334" lon="5.67462">
        <ele>887.15</ele>
        <time>2017-02-18T15:22:09Z</time>
      </trkpt>
      <trkpt lat="45.29331" lon="5.6747">
        <ele>888.11</ele>
        <time>2017-02-18T15:22:10Z</time>
      </trkpt>
      <trkpt lat="45.29328" lon="5.67478">
        <ele>888.94</ele>
        <time>2017-02-18T15:22:11Z</time>
      </trkpt>
      <trkpt lat="45.29326" lon="5.67486">
        <ele>889.59</ele>
        <time>2017-02-18T15:22:12Z</time>
      </trkpt>
      <trkpt lat="45.29323" lon="5.67495">
        <ele>890.12</ele>
        <time>2017-02-18T15:22:13Z</time>
      </trkpt>
      <trkpt lat="45.29321" lon="5.67504">
        <ele>890.7</ele>
        <time>2017-02-18T15:22:14Z</time>
      </trkpt>
      <trkpt lat="45.29319" lon="5.67511">
        <ele>891.38</ele>
        <time>2017-02-18T15:22:15Z</time>
      </trkpt>
      <trkpt lat="45.29317" lon="5.67518">
        <ele>892</ele>
        <time>2017-02-18T15:22:16Z</time>
      </trkpt>
      <trkpt lat="45.29316" lon="5.67525">
        <ele>892.68</ele>
        <time>2017-02-18T15:22:17Z</time>
      </trkpt>
      <trkpt lat="45.29314" lon="5.67533">
        <ele>893.21</ele>
        <time>2017-02-18T15:22:18Z</time>
      </trkpt>
      <trkpt lat="45.29311" lon="5.67541">
        <ele>893.64</ele>
        <time>2017-02-18T15:22:19Z</time>
      </trkpt>
      <trkpt lat="45.2931" lon="5.6755">
        <ele>893.49</ele>
        <time>2017-02-18T15:22:20Z</time>
      </trkpt>
      <trkpt lat="45.29309" lon="5.6756">
        <ele>893.38</ele>
        <time>2017-02-18T15:22:21Z</time>
      </trkpt>
      <trkpt lat="45.29309" lon="5.6757">
        <ele>893.19</ele>
        <time>2017-02-18T15:22:22Z</time>
      </trkpt>
      <trkpt lat="45.2931" lon="5.67581">
        <ele>893.08</ele>
        <time>2017-02-18T15:22:23Z</time>
      </trkpt>
      <trkpt lat="45.29312" lon="5.67591">
        <ele>893.05</ele>
        <time>2017-02-18T15:22:24Z</time>
      </trkpt>
      <trkpt lat="45.29313" lon="5.676">
        <ele>893.21</ele>
        <time>2017-02-18T15:22:25Z</time>
      </trkpt>
      <trkpt lat="45.29314" lon="5.67609">
        <ele>893.48</ele>
        <time>2017-02-18T15:22:26Z</time>
      </trkpt>
      <trkpt lat="45.29313" lon="5.67617">
        <ele>893.7</ele>
        <time>2017-02-18T15:22:27Z</time>
      </trkpt>
      <trkpt lat="45.29311" lon="5.67626">
        <ele>893.82</ele>
        <time>2017-02-18T15:22:28Z</time>
      </trkpt>
      <trkpt lat="45.29307" lon="5.67633">
        <ele>894.08</ele>
        <time>2017-02-18T15:22:29Z</time>
      </trkpt>
      <trkpt lat="45.29302" lon="5.67639">
        <ele>894.54</ele>
        <time>2017-02-18T15:22:30Z</time>
      </trkpt>
      <trkpt lat="45.29296" lon="5.67646">
        <ele>894.87</ele>
        <time>2017-02-18T15:22:31Z</time>
      </trkpt>
      <trkpt lat="45.29289" lon="5.6765">
        <ele>895.33</ele>
        <time>2017-02-18T15:22:32Z</time>
      </trkpt>
      <trkpt lat="45.29281" lon="5.67655">
        <ele>895.67</ele>
        <time>2017-02-18T15:22:33Z</time>
      </trkpt>
      <trkpt lat="45.29273" lon="5.6766">
        <ele>895.65</ele>
        <time>2017-02-18T15:22:34Z</time>
      </trkpt>
      <trkpt lat="45.29266" lon="5.67665">
        <ele>895.65</ele>
        <time>2017-02-18T15:22:35Z</time>
      </trkpt>
      <trkpt lat="45.2926" lon="5.67671">
        <ele>895.73</ele>
        <time>2017-02-18T15:22:36Z</time>
      </trkpt>
      <trkpt lat="45.29254" lon="5.67676">
        <ele>895.75</ele>
        <time>2017-02-18T15:22:37Z</time>
      </trkpt>
      <trkpt lat="45.29248" lon="5.67681">
        <ele>895.83</ele>
        <time>2017-02-18T15:22:38Z</time>
      </trkpt>
      <trkpt lat="45.29243" lon="5.67685">
        <ele>895.92</ele>
        <time>2017-02-18T15:22:39Z</time>
      </trkpt>
      <trkpt lat="45.29239" lon="5.67689">
        <ele>895.94</ele>
        <time>2017-02-18T15:22:40Z</time>
      </trkpt>
      <trkpt lat="45.29236" lon="5.67692">
        <ele>896.83</ele>
        <time>2017-02-18T15:22:41Z</time>
      </trkpt>
      <trkpt lat="45.29234" lon="5.67695">
        <ele>897.32</ele>
        <time>2017-02-18T15:22:42Z</time>
      </trkpt>
      <trkpt lat="45.29232" lon="5.67697">
        <ele>897.74</ele>
        <time>2017-02-18T15:22:43Z</time>
      </trkpt>
      <trkpt lat="45.29231" lon="5.677">
        <ele>897.67</ele>
        <time>2017-02-18T15:22:44Z</time>
      </trkpt>
      <trkpt lat="45.29229" lon="5.67703">
        <ele>897.57</ele>
        <time>2017-02-18T15:22:45Z</time>
      </trkpt>
      <trkpt lat="45.29227" lon="5.67706">
        <ele>897.31</ele>
        <time>2017-02-18T15:22:46Z</time>
      </trkpt>
      <trkpt lat="45.29225" lon="5.6771">
        <ele>897.02</ele>
        <time>2017-02-18T15:22:47Z</time>
      </trkpt>
      <trkpt lat="45.29223" lon="5.67714">
        <ele>896.88</ele>
        <time>2017-02-18T15:22:48Z</time>
      </trkpt>
      <trkpt lat="45.29221" lon="5.67716">
        <ele>896.62</ele>
        <time>2017-02-18T15:22:49Z</time>
      </trkpt>
      <trkpt lat="45.2922" lon="5.67718">
        <ele>896.4</ele>
        <time>2017-02-18T15:22:50Z</time>
      </trkpt>
      <trkpt lat="45.29219" lon="5.67719">
        <ele>896.6</ele>
        <time>2017-02-18T15:22:51Z</time>
      </trkpt>
      <trkpt lat="45.29219" lon="5.6772">
        <ele>896.8</ele>
        <time>2017-02-18T15:22:52Z</time>
      </trkpt>
      <trkpt lat="45.29219" lon="5.67721">
        <ele>896.84</ele>
        <time>2017-02-18T15:22:53Z</time>
      </trkpt>
      <trkpt lat="45.29219" lon="5.67721">
        <ele>896.85</ele>
        <time>2017-02-18T15:22:54Z</time>
      </trkpt>
      <trkpt lat="45.29219" lon="5.67721">
        <ele>896.85</ele>
        <time>2017-02-18T15:22:55Z</time>
      </trkpt>
      <trkpt lat="45.29219" lon="5.67721">
        <ele>896.85</ele>
        <time>2017-02-18T15:22:56Z</time>
      </trkpt>
      <trkpt lat="45.29219" lon="5.67721">
        <ele>896.85</ele>
        <time>2017-02-18T15:22:57Z</time>
      </trkpt>
      <trkpt lat="45.29219" lon="5.67721">
        <ele>896.85</ele>
        <time>2017-02-18T15:22:58Z</time>
      </trkpt>
      <trkpt lat="45.29219" lon="5.67721">
        <ele>896.85</ele>
        <time>2017-02-18T15:22:59Z</time>
      </trkpt>
      <trkpt lat="45.29219" lon="5.67721">
        <ele>896.85</ele>
        <time>2017-02-18T15:23:00Z</time>
      </trkpt>
      <trkpt lat="45.29219" lon="5.67721">
        <ele>896.85</ele>
        <time>2017-02-18T15:23:01Z</time>
      </trkpt>
      <trkpt lat="45.29219" lon="5.67721">
        <ele>896.85</ele>
        <time>2017-02-18T15:23:02Z</time>
      </trkpt>
      <trkpt lat="45.29219" lon="5.67721">
        <ele>896.85</ele>
        <time>2017-02-18T15:23:03Z</time>
      </trkpt>
      <trkpt lat="45.29219" lon="5.67721">
        <ele>896.85</ele>
        <time>2017-02-18T15:23:04Z</time>
      </trkpt>
      <trkpt lat="45.29219" lon="5.67721">
        <ele>896.85</ele>
        <time>2017-02-18T15:23:05Z</time>
      </trkpt>
      <trkpt lat="45.29219" lon="5.67721">
        <ele>896.85</ele>
        <time>2017-02-18T15:23:06Z</time>
      </trkpt>
      <trkpt lat="45.29219" lon="5.67721">
        <ele>896.85</ele>
        <time>2017-02-18T15:23:07Z</time>
      </trkpt>
      <trkpt lat="45.29219" lon="5.67721">
        <ele>896.85</ele>
        <time>2017-02-18T15:23:08Z</time>
      </trkpt>
      <trkpt lat="45.29219" lon="5.67721">
        <ele>896.85</ele>
        <time>2017-02-18T15:23:09Z</time>
      </trkpt>
      <trkpt lat="45.29219" lon="5.67721">
        <ele>896.85</ele>
        <time>2017-02-18T15:23:10Z</time>
      </trkpt>
      <trkpt lat="45.29219" lon="5.67721">
        <ele>896.85</ele>
        <time>2017-02-18T15:23:11Z</time>
      </trkpt>
      <trkpt lat="45.29219" lon="5.67721">
        <ele>896.85</ele>
        <time>2017-02-18T15:23:12Z</time>
      </trkpt>
      <trkpt lat="45.29219" lon="5.67721">
        <ele>896.85</ele>
        <time>2017-02-18T15:23:13Z</time>
      </trkpt>
      <trkpt lat="45.29219" lon="5.67721">
        <ele>896.85</ele>
        <time>2017-02-18T15:23:14Z</time>
      </trkpt>
      <trkpt lat="45.29219" lon="5.67721">
        <ele>896.85</ele>
        <time>2017-02-18T15:23:15Z</time>
      </trkpt>
      <trkpt lat="45.29219" lon="5.67721">
        <ele>896.85</ele>
        <time>2017-02-18T15:23:16Z</time>
      </trkpt>
      <trkpt lat="45.29219" lon="5.67721">
        <ele>896.85</ele>
        <time>2017-02-18T15:23:17Z</time>
      </trkpt>
      <trkpt lat="45.29219" lon="5.67721">
        <ele>896.85</ele>
        <time>2017-02-18T15:23:18Z</time>
      </trkpt>
      <trkpt lat="45.29219" lon="5.67721">
        <ele>896.85</ele>
        <time>2017-02-18T15:23:19Z</time>
      </trkpt>
      <trkpt lat="45.29219" lon="5.67721">
        <ele>896.85</ele>
        <time>2017-02-18T15:23:20Z</time>
      </trkpt>
      <trkpt lat="45.29217" lon="5.67724">
        <ele>897.41</ele>
        <time>2017-02-18T15:23:21Z</time>
      </trkpt>
      <trkpt lat="45.29215" lon="5.67725">
        <ele>897.6</ele>
        <time>2017-02-18T15:23:22Z</time>
      </trkpt>
      <trkpt lat="45.29211" lon="5.67729">
        <ele>897.88</ele>
        <time>2017-02-18T15:23:23Z</time>
      </trkpt>
      <trkpt lat="45.29208" lon="5.67733">
        <ele>898.18</ele>
        <time>2017-02-18T15:23:24Z</time>
      </trkpt>
      <trkpt lat="45.29205" lon="5.67737">
        <ele>898.47</ele>
        <time>2017-02-18T15:23:25Z</time>
      </trkpt>
      <trkpt lat="45.29202" lon="5.67741">
        <ele>898.85</ele>
        <time>2017-02-18T15:23:26Z</time>
      </trkpt>
      <trkpt lat="45.29199" lon="5.67744">
        <ele>899.41</ele>
        <time>2017-02-18T15:23:27Z</time>
      </trkpt>
      <trkpt lat="45.29196" lon="5.67746">
        <ele>899.76</ele>
        <time>2017-02-18T15:23:28Z</time>
      </trkpt>
      <trkpt lat="45.29193" lon="5.67748">
        <ele>900.15</ele>
        <time>2017-02-18T15:23:29Z</time>
      </trkpt>
      <trkpt lat="45.29191" lon="5.67751">
        <ele>900.71</ele>
        <time>2017-02-18T15:23:30Z</time>
      </trkpt>
      <trkpt lat="45.29189" lon="5.67754">
        <ele>901.14</ele>
        <time>2017-02-18T15:23:31Z</time>
      </trkpt>
      <trkpt lat="45.29188" lon="5.67757">
        <ele>901.71</ele>
        <time>2017-02-18T15:23:32Z</time>
      </trkpt>
      <trkpt lat="45.29187" lon="5.6776">
        <ele>902.14</ele>
        <time>2017-02-18T15:23:33Z</time>
      </trkpt>
      <trkpt lat="45.29187" lon="5.67762">
        <ele>902.55</ele>
        <time>2017-02-18T15:23:34Z</time>
      </trkpt>
      <trkpt lat="45.29187" lon="5.67763">
        <ele>902.95</ele>
        <time>2017-02-18T15:23:35Z</time>
      </trkpt>
      <trkpt lat="45.29187" lon="5.67763">
        <ele>902.63</ele>
        <time>2017-02-18T15:23:36Z</time>
      </trkpt>
      <trkpt lat="45.29187" lon="5.67763">
        <ele>902.57</ele>
        <time>2017-02-18T15:23:37Z</time>
      </trkpt>
      <trkpt lat="45.29187" lon="5.67763">
        <ele>902.55</ele>
        <time>2017-02-18T15:23:38Z</time>
      </trkpt>
      <trkpt lat="45.29187" lon="5.67763">
        <ele>902.55</ele>
        <time>2017-02-18T15:23:39Z</time>
      </trkpt>
      <trkpt lat="45.29187" lon="5.67763">
        <ele>902.55</ele>
        <time>2017-02-18T15:23:40Z</time>
      </trkpt>
      <trkpt lat="45.29187" lon="5.67763">
        <ele>902.55</ele>
        <time>2017-02-18T15:23:41Z</time>
      </trkpt>
      <trkpt lat="45.29188" lon="5.67762">
        <ele>903.27</ele>
        <time>2017-02-18T15:23:42Z</time>
      </trkpt>
      <trkpt lat="45.29189" lon="5.6776">
        <ele>903.49</ele>
        <time>2017-02-18T15:23:43Z</time>
      </trkpt>
      <trkpt lat="45.2919" lon="5.67759">
        <ele>903.62</ele>
        <time>2017-02-18T15:23:44Z</time>
      </trkpt>
      <trkpt lat="45.29191" lon="5.67758">
        <ele>903.72</ele>
        <time>2017-02-18T15:23:45Z</time>
      </trkpt>
      <trkpt lat="45.29193" lon="5.67758">
        <ele>903.82</ele>
        <time>2017-02-18T15:23:46Z</time>
      </trkpt>
      <trkpt lat="45.29194" lon="5.67757">
        <ele>903.84</ele>
        <time>2017-02-18T15:23:47Z</time>
      </trkpt>
      <trkpt lat="45.29196" lon="5.67756">
        <ele>903.85</ele>
        <time>2017-02-18T15:23:48Z</time>
      </trkpt>
      <trkpt lat="45.29198" lon="5.67754">
        <ele>903.85</ele>
        <time>2017-02-18T15:23:49Z</time>
      </trkpt>
      <trkpt lat="45.292" lon="5.67752">
        <ele>903.85</ele>
        <time>2017-02-18T15:23:50Z</time>
      </trkpt>
      <trkpt lat="45.29202" lon="5.6775">
        <ele>903.77</ele>
        <time>2017-02-18T15:23:51Z</time>
      </trkpt>
      <trkpt lat="45.29202" lon="5.67748">
        <ele>903.75</ele>
        <time>2017-02-18T15:23:52Z</time>
      </trkpt>
      <trkpt lat="45.29203" lon="5.67748">
        <ele>903.59</ele>
        <time>2017-02-18T15:23:53Z</time>
      </trkpt>
      <trkpt lat="45.29203" lon="5.67748">
        <ele>903.64</ele>
        <time>2017-02-18T15:23:54Z</time>
      </trkpt>
      <trkpt lat="45.29203" lon="5.67748">
        <ele>903.73</ele>
        <time>2017-02-18T15:23:55Z</time>
      </trkpt>
      <trkpt lat="45.29203" lon="5.67748">
        <ele>903.74</ele>
        <time>2017-02-18T15:23:56Z</time>
      </trkpt>
      <trkpt lat="45.29203" lon="5.67748">
        <ele>903.75</ele>
        <time>2017-02-18T15:23:57Z</time>
      </trkpt>
      <trkpt lat="45.29203" lon="5.67748">
        <ele>903.75</ele>
        <time>2017-02-18T15:23:58Z</time>
      </trkpt>
      <trkpt lat="45.29203" lon="5.67748">
        <ele>903.75</ele>
        <time>2017-02-18T15:23:59Z</time>
      </trkpt>
      <trkpt lat="45.29203" lon="5.67748">
        <ele>903.75</ele>
        <time>2017-02-18T15:24:00Z</time>
      </trkpt>
      <trkpt lat="45.29203" lon="5.67748">
        <ele>903.75</ele>
        <time>2017-02-18T15:24:01Z</time>
      </trkpt>
      <trkpt lat="45.29203" lon="5.67748">
        <ele>903.75</ele>
        <time>2017-02-18T15:24:02Z</time>
      </trkpt>
      <trkpt lat="45.29203" lon="5.67748">
        <ele>903.75</ele>
        <time>2017-02-18T15:24:03Z</time>
      </trkpt>
      <trkpt lat="45.29203" lon="5.67748">
        <ele>903.75</ele>
        <time>2017-02-18T15:24:04Z</time>
      </trkpt>
      <trkpt lat="45.29203" lon="5.67748">
        <ele>903.75</ele>
        <time>2017-02-18T15:24:05Z</time>
      </trkpt>
      <trkpt lat="45.29203" lon="5.67748">
        <ele>903.75</ele>
        <time>2017-02-18T15:24:06Z</time>
      </trkpt>
      <trkpt lat="45.29203" lon="5.67748">
        <ele>903.75</ele>
        <time>2017-02-18T15:24:07Z</time>
      </trkpt>
      <trkpt lat="45.29203" lon="5.67748">
        <ele>903.75</ele>
        <time>2017-02-18T15:24:08Z</time>
      </trkpt>
      <trkpt lat="45.29206" lon="5.67747">
        <ele>904.15</ele>
        <time>2017-02-18T15:24:09Z</time>
      </trkpt>
      <trkpt lat="45.29207" lon="5.67745">
        <ele>904.31</ele>
        <time>2017-02-18T15:24:10Z</time>
      </trkpt>
      <trkpt lat="45.29208" lon="5.67744">
        <ele>904.34</ele>
        <time>2017-02-18T15:24:11Z</time>
      </trkpt>
      <trkpt lat="45.29209" lon="5.67743">
        <ele>904.35</ele>
        <time>2017-02-18T15:24:12Z</time>
      </trkpt>
      <trkpt lat="45.2921" lon="5.67742">
        <ele>904.35</ele>
        <time>2017-02-18T15:24:13Z</time>
      </trkpt>
      <trkpt lat="45.29211" lon="5.67741">
        <ele>904.35</ele>
        <time>2017-02-18T15:24:14Z</time>
      </trkpt>
      <trkpt lat="45.29213" lon="5.67739">
        <ele>904.35</ele>
        <time>2017-02-18T15:24:15Z</time>
      </trkpt>
      <trkpt lat="45.29214" lon="5.67737">
        <ele>904.27</ele>
        <time>2017-02-18T15:24:16Z</time>
      </trkpt>
      <trkpt lat="45.29215" lon="5.67736">
        <ele>904.25</ele>
        <time>2017-02-18T15:24:17Z</time>
      </trkpt>
      <trkpt lat="45.29217" lon="5.67734">
        <ele>904.25</ele>
        <time>2017-02-18T15:24:18Z</time>
      </trkpt>
      <trkpt lat="45.29218" lon="5.67732">
        <ele>904.17</ele>
        <time>2017-02-18T15:24:19Z</time>
      </trkpt>
      <trkpt lat="45.29219" lon="5.67731">
        <ele>904.15</ele>
        <time>2017-02-18T15:24:20Z</time>
      </trkpt>
      <trkpt lat="45.2922" lon="5.67729">
        <ele>904.15</ele>
        <time>2017-02-18T15:24:21Z</time>
      </trkpt>
      <trkpt lat="45.2922" lon="5.67728">
        <ele>904.07</ele>
        <time>2017-02-18T15:24:22Z</time>
      </trkpt>
      <trkpt lat="45.2922" lon="5.67727">
        <ele>904.13</ele>
        <time>2017-02-18T15:24:23Z</time>
      </trkpt>
      <trkpt lat="45.2922" lon="5.67727">
        <ele>904.15</ele>
        <time>2017-02-18T15:24:24Z</time>
      </trkpt>
      <trkpt lat="45.2922" lon="5.67727">
        <ele>904.15</ele>
        <time>2017-02-18T15:24:25Z</time>
      </trkpt>
      <trkpt lat="45.2922" lon="5.67727">
        <ele>904.15</ele>
        <time>2017-02-18T15:24:26Z</time>
      </trkpt>
      <trkpt lat="45.2922" lon="5.67727">
        <ele>904.15</ele>
        <time>2017-02-18T15:24:27Z</time>
      </trkpt>
      <trkpt lat="45.2922" lon="5.67727">
        <ele>904.15</ele>
        <time>2017-02-18T15:24:28Z</time>
      </trkpt>
      <trkpt lat="45.2922" lon="5.67727">
        <ele>904.15</ele>
        <time>2017-02-18T15:24:29Z</time>
      </trkpt>
      <trkpt lat="45.2922" lon="5.67727">
        <ele>904.15</ele>
        <time>2017-02-18T15:24:30Z</time>
      </trkpt>
      <trkpt lat="45.2922" lon="5.67727">
        <ele>904.15</ele>
        <time>2017-02-18T15:24:31Z</time>
      </trkpt>
      <trkpt lat="45.2922" lon="5.67727">
        <ele>904.15</ele>
        <time>2017-02-18T15:24:32Z</time>
      </trkpt>
      <trkpt lat="45.2922" lon="5.67727">
        <ele>904.15</ele>
        <time>2017-02-18T15:24:33Z</time>
      </trkpt>
      <trkpt lat="45.2922" lon="5.67727">
        <ele>904.15</ele>
        <time>2017-02-18T15:24:34Z</time>
      </trkpt>
      <trkpt lat="45.2922" lon="5.67727">
        <ele>904.15</ele>
        <time>2017-02-18T15:24:35Z</time>
      </trkpt>
      <trkpt lat="45.2922" lon="5.67727">
        <ele>904.15</ele>
        <time>2017-02-18T15:24:36Z</time>
      </trkpt>
      <trkpt lat="45.2922" lon="5.67727">
        <ele>904.15</ele>
        <time>2017-02-18T15:24:37Z</time>
      </trkpt>
      <trkpt lat="45.2922" lon="5.67727">
        <ele>904.15</ele>
        <time>2017-02-18T15:24:38Z</time>
      </trkpt>
      <trkpt lat="45.2922" lon="5.67727">
        <ele>904.15</ele>
        <time>2017-02-18T15:24:39Z</time>
      </trkpt>
      <trkpt lat="45.2922" lon="5.67727">
        <ele>904.15</ele>
        <time>2017-02-18T15:24:40Z</time>
      </trkpt>
      <trkpt lat="45.2922" lon="5.67727">
        <ele>904.15</ele>
        <time>2017-02-18T15:24:41Z</time>
      </trkpt>
      <trkpt lat="45.2922" lon="5.67727">
        <ele>904.15</ele>
        <time>2017-02-18T15:24:42Z</time>
      </trkpt>
      <trkpt lat="45.2922" lon="5.67727">
        <ele>904.15</ele>
        <time>2017-02-18T15:24:43Z</time>
      </trkpt>
      <trkpt lat="45.2922" lon="5.67727">
        <ele>904.15</ele>
        <time>2017-02-18T15:24:44Z</time>
      </trkpt>
      <trkpt lat="45.2922" lon="5.67727">
        <ele>904.15</ele>
        <time>2017-02-18T15:24:45Z</time>
      </trkpt>
      <trkpt lat="45.2922" lon="5.67727">
        <ele>904.15</ele>
        <time>2017-02-18T15:24:46Z</time>
      </trkpt>
      <trkpt lat="45.2922" lon="5.67727">
        <ele>904.15</ele>
        <time>2017-02-18T15:24:47Z</time>
      </trkpt>
      <trkpt lat="45.2922" lon="5.67727">
        <ele>904.15</ele>
        <time>2017-02-18T15:24:48Z</time>
      </trkpt>
      <trkpt lat="45.2922" lon="5.67727">
        <ele>904.15</ele>
        <time>2017-02-18T15:24:49Z</time>
      </trkpt>
      <trkpt lat="45.2922" lon="5.67727">
        <ele>904.15</ele>
        <time>2017-02-18T15:24:50Z</time>
      </trkpt>
      <trkpt lat="45.2922" lon="5.67727">
        <ele>904.15</ele>
        <time>2017-02-18T15:24:51Z</time>
      </trkpt>
      <trkpt lat="45.2922" lon="5.67727">
        <ele>904.15</ele>
        <time>2017-02-18T15:24:52Z</time>
      </trkpt>
      <trkpt lat="45.2922" lon="5.67727">
        <ele>904.15</ele>
        <time>2017-02-18T15:24:53Z</time>
      </trkpt>
      <trkpt lat="45.2922" lon="5.67727">
        <ele>904.15</ele>
        <time>2017-02-18T15:24:54Z</time>
      </trkpt>
      <trkpt lat="45.2922" lon="5.67727">
        <ele>904.15</ele>
        <time>2017-02-18T15:24:55Z</time>
      </trkpt>
      <trkpt lat="45.2922" lon="5.67727">
        <ele>904.15</ele>
        <time>2017-02-18T15:24:56Z</time>
      </trkpt>
      <trkpt lat="45.2922" lon="5.67727">
        <ele>904.15</ele>
        <time>2017-02-18T15:24:57Z</time>
      </trkpt>
      <trkpt lat="45.2922" lon="5.67727">
        <ele>904.15</ele>
        <time>2017-02-18T15:24:58Z</time>
      </trkpt>
      <trkpt lat="45.2922" lon="5.67727">
        <ele>904.15</ele>
        <time>2017-02-18T15:24:59Z</time>
      </trkpt>
      <trkpt lat="45.2922" lon="5.67727">
        <ele>904.15</ele>
        <time>2017-02-18T15:25:00Z</time>
      </trkpt>
      <trkpt lat="45.2922" lon="5.67727">
        <ele>904.15</ele>
        <time>2017-02-18T15:25:01Z</time>
      </trkpt>
      <trkpt lat="45.2922" lon="5.67727">
        <ele>904.15</ele>
        <time>2017-02-18T15:25:02Z</time>
      </trkpt>
      <trkpt lat="45.2922" lon="5.67727">
        <ele>904.15</ele>
        <time>2017-02-18T15:25:03Z</time>
      </trkpt>
      <trkpt lat="45.2922" lon="5.67727">
        <ele>904.15</ele>
        <time>2017-02-18T15:25:04Z</time>
      </trkpt>
      <trkpt lat="45.2922" lon="5.67727">
        <ele>904.15</ele>
        <time>2017-02-18T15:25:05Z</time>
      </trkpt>
      <trkpt lat="45.2922" lon="5.67727">
        <ele>904.15</ele>
        <time>2017-02-18T15:25:06Z</time>
      </trkpt>
      <trkpt lat="45.2922" lon="5.67727">
        <ele>904.15</ele>
        <time>2017-02-18T15:25:07Z</time>
      </trkpt>
      <trkpt lat="45.2922" lon="5.67727">
        <ele>904.15</ele>
        <time>2017-02-18T15:25:08Z</time>
      </trkpt>
      <trkpt lat="45.2922" lon="5.67727">
        <ele>904.15</ele>
        <time>2017-02-18T15:25:09Z</time>
      </trkpt>
      <trkpt lat="45.2922" lon="5.67727">
        <ele>904.15</ele>
        <time>2017-02-18T15:25:10Z</time>
      </trkpt>
      <trkpt lat="45.2922" lon="5.67727">
        <ele>904.15</ele>
        <time>2017-02-18T15:25:11Z</time>
      </trkpt>
      <trkpt lat="45.29223" lon="5.67723">
        <ele>904.07</ele>
        <time>2017-02-18T15:25:12Z</time>
      </trkpt>
      <trkpt lat="45.29224" lon="5.67721">
        <ele>904.05</ele>
        <time>2017-02-18T15:25:13Z</time>
      </trkpt>
      <trkpt lat="45.29225" lon="5.67719">
        <ele>904.05</ele>
        <time>2017-02-18T15:25:14Z</time>
      </trkpt>
      <trkpt lat="45.29226" lon="5.67717">
        <ele>904.13</ele>
        <time>2017-02-18T15:25:15Z</time>
      </trkpt>
      <trkpt lat="45.29228" lon="5.67714">
        <ele>904.15</ele>
        <time>2017-02-18T15:25:16Z</time>
      </trkpt>
      <trkpt lat="45.29229" lon="5.67711">
        <ele>904.07</ele>
        <time>2017-02-18T15:25:17Z</time>
      </trkpt>
      <trkpt lat="45.2923" lon="5.67708">
        <ele>903.97</ele>
        <time>2017-02-18T15:25:18Z</time>
      </trkpt>
      <trkpt lat="45.29232" lon="5.67706">
        <ele>904.11</ele>
        <time>2017-02-18T15:25:19Z</time>
      </trkpt>
      <trkpt lat="45.29234" lon="5.67704">
        <ele>904.14</ele>
        <time>2017-02-18T15:25:20Z</time>
      </trkpt>
      <trkpt lat="45.29236" lon="5.67702">
        <ele>904.23</ele>
        <time>2017-02-18T15:25:21Z</time>
      </trkpt>
      <trkpt lat="45.29237" lon="5.67701">
        <ele>904.48</ele>
        <time>2017-02-18T15:25:22Z</time>
      </trkpt>
      <trkpt lat="45.29239" lon="5.677">
        <ele>904.78</ele>
        <time>2017-02-18T15:25:23Z</time>
      </trkpt>
      <trkpt lat="45.29241" lon="5.67698">
        <ele>904.83</ele>
        <time>2017-02-18T15:25:24Z</time>
      </trkpt>
      <trkpt lat="45.29243" lon="5.67696">
        <ele>904.85</ele>
        <time>2017-02-18T15:25:25Z</time>
      </trkpt>
      <trkpt lat="45.29246" lon="5.67692">
        <ele>905.25</ele>
        <time>2017-02-18T15:25:26Z</time>
      </trkpt>
      <trkpt lat="45.29251" lon="5.67688">
        <ele>905.41</ele>
        <time>2017-02-18T15:25:27Z</time>
      </trkpt>
      <trkpt lat="45.29257" lon="5.67682">
        <ele>905.52</ele>
        <time>2017-02-18T15:25:28Z</time>
      </trkpt>
      <trkpt lat="45.29263" lon="5.67677">
        <ele>905.7</ele>
        <time>2017-02-18T15:25:29Z</time>
      </trkpt>
      <trkpt lat="45.2927" lon="5.6767">
        <ele>905.9</ele>
        <time>2017-02-18T15:25:30Z</time>
      </trkpt>
      <trkpt lat="45.29278" lon="5.67664">
        <ele>905.94</ele>
        <time>2017-02-18T15:25:31Z</time>
      </trkpt>
      <trkpt lat="45.29287" lon="5.67658">
        <ele>906.03</ele>
        <time>2017-02-18T15:25:32Z</time>
      </trkpt>
      <trkpt lat="45.29295" lon="5.67652">
        <ele>905.88</ele>
        <time>2017-02-18T15:25:33Z</time>
      </trkpt>
      <trkpt lat="45.29302" lon="5.67646">
        <ele>905.78</ele>
        <time>2017-02-18T15:25:34Z</time>
      </trkpt>
      <trkpt lat="45.29308" lon="5.67639">
        <ele>905.91</ele>
        <time>2017-02-18T15:25:35Z</time>
      </trkpt>
      <trkpt lat="45.29312" lon="5.67631">
        <ele>906.02</ele>
        <time>2017-02-18T15:25:36Z</time>
      </trkpt>
      <trkpt lat="45.29315" lon="5.67621">
        <ele>906.04</ele>
        <time>2017-02-18T15:25:37Z</time>
      </trkpt>
      <trkpt lat="45.29314" lon="5.6761">
        <ele>906.29</ele>
        <time>2017-02-18T15:25:38Z</time>
      </trkpt>
      <trkpt lat="45.29312" lon="5.67598">
        <ele>906.34</ele>
        <time>2017-02-18T15:25:39Z</time>
      </trkpt>
      <trkpt lat="45.2931" lon="5.67585">
        <ele>906.03</ele>
        <time>2017-02-18T15:25:40Z</time>
      </trkpt>
      <trkpt lat="45.2931" lon="5.67572">
        <ele>905.8</ele>
        <time>2017-02-18T15:25:41Z</time>
      </trkpt>
      <trkpt lat="45.29312" lon="5.67555">
        <ele>905.76</ele>
        <time>2017-02-18T15:25:42Z</time>
      </trkpt>
      <trkpt lat="45.29315" lon="5.67537">
        <ele>905.91</ele>
        <time>2017-02-18T15:25:43Z</time>
      </trkpt>
      <trkpt lat="45.2932" lon="5.67518">
        <ele>905.94</ele>
        <time>2017-02-18T15:25:44Z</time>
      </trkpt>
      <trkpt lat="45.29324" lon="5.67499">
        <ele>905.95</ele>
        <time>2017-02-18T15:25:45Z</time>
      </trkpt>
      <trkpt lat="45.29328" lon="5.67482">
        <ele>906.35</ele>
        <time>2017-02-18T15:25:46Z</time>
      </trkpt>
      <trkpt lat="45.29332" lon="5.67466">
        <ele>906.67</ele>
        <time>2017-02-18T15:25:47Z</time>
      </trkpt>
      <trkpt lat="45.29336" lon="5.67452">
        <ele>906.97</ele>
        <time>2017-02-18T15:25:48Z</time>
      </trkpt>
      <trkpt lat="45.2934" lon="5.6744">
        <ele>906.95</ele>
        <time>2017-02-18T15:25:49Z</time>
      </trkpt>
      <trkpt lat="45.29343" lon="5.67434">
        <ele>906.87</ele>
        <time>2017-02-18T15:25:50Z</time>
      </trkpt>
      <trkpt lat="45.29345" lon="5.6743">
        <ele>906.05</ele>
        <time>2017-02-18T15:25:51Z</time>
      </trkpt>
      <trkpt lat="45.29347" lon="5.67428">
        <ele>905.57</ele>
        <time>2017-02-18T15:25:52Z</time>
      </trkpt>
      <trkpt lat="45.29347" lon="5.67427">
        <ele>904.75</ele>
        <time>2017-02-18T15:25:53Z</time>
      </trkpt>
      <trkpt lat="45.29348" lon="5.67425">
        <ele>904.11</ele>
        <time>2017-02-18T15:25:54Z</time>
      </trkpt>
      <trkpt lat="45.29351" lon="5.67422">
        <ele>903.74</ele>
        <time>2017-02-18T15:25:55Z</time>
      </trkpt>
      <trkpt lat="45.29354" lon="5.67415">
        <ele>903.35</ele>
        <time>2017-02-18T15:25:56Z</time>
      </trkpt>
      <trkpt lat="45.29358" lon="5.67407">
        <ele>902.87</ele>
        <time>2017-02-18T15:25:57Z</time>
      </trkpt>
      <trkpt lat="45.29361" lon="5.67399">
        <ele>902.37</ele>
        <time>2017-02-18T15:25:58Z</time>
      </trkpt>
      <trkpt lat="45.29364" lon="5.6739">
        <ele>901.95</ele>
        <time>2017-02-18T15:25:59Z</time>
      </trkpt>
      <trkpt lat="45.29365" lon="5.67381">
        <ele>901.71</ele>
        <time>2017-02-18T15:26:00Z</time>
      </trkpt>
      <trkpt lat="45.29365" lon="5.67373">
        <ele>901.34</ele>
        <time>2017-02-18T15:26:01Z</time>
      </trkpt>
      <trkpt lat="45.29364" lon="5.67365">
        <ele>900.79</ele>
        <time>2017-02-18T15:26:02Z</time>
      </trkpt>
      <trkpt lat="45.29362" lon="5.67357">
        <ele>900.2</ele>
        <time>2017-02-18T15:26:03Z</time>
      </trkpt>
      <trkpt lat="45.2936" lon="5.6735">
        <ele>899.76</ele>
        <time>2017-02-18T15:26:04Z</time>
      </trkpt>
      <trkpt lat="45.29356" lon="5.67343">
        <ele>899.03</ele>
        <time>2017-02-18T15:26:05Z</time>
      </trkpt>
      <trkpt lat="45.29353" lon="5.67335">
        <ele>898.41</ele>
        <time>2017-02-18T15:26:06Z</time>
      </trkpt>
      <trkpt lat="45.2935" lon="5.67329">
        <ele>897.72</ele>
        <time>2017-02-18T15:26:07Z</time>
      </trkpt>
      <trkpt lat="45.29347" lon="5.67322">
        <ele>897.02</ele>
        <time>2017-02-18T15:26:08Z</time>
      </trkpt>
      <trkpt lat="45.29343" lon="5.67316">
        <ele>896.32</ele>
        <time>2017-02-18T15:26:09Z</time>
      </trkpt>
      <trkpt lat="45.2934" lon="5.6731">
        <ele>895.7</ele>
        <time>2017-02-18T15:26:10Z</time>
      </trkpt>
      <trkpt lat="45.29337" lon="5.67304">
        <ele>895.02</ele>
        <time>2017-02-18T15:26:11Z</time>
      </trkpt>
      <trkpt lat="45.29334" lon="5.67297">
        <ele>894.32</ele>
        <time>2017-02-18T15:26:12Z</time>
      </trkpt>
      <trkpt lat="45.2933" lon="5.67291">
        <ele>893.86</ele>
        <time>2017-02-18T15:26:13Z</time>
      </trkpt>
      <trkpt lat="45.29328" lon="5.67284">
        <ele>892.97</ele>
        <time>2017-02-18T15:26:14Z</time>
      </trkpt>
      <trkpt lat="45.29326" lon="5.67277">
        <ele>891.99</ele>
        <time>2017-02-18T15:26:15Z</time>
      </trkpt>
      <trkpt lat="45.29324" lon="5.67271">
        <ele>891.24</ele>
        <time>2017-02-18T15:26:16Z</time>
      </trkpt>
      <trkpt lat="45.29323" lon="5.67266">
        <ele>890.29</ele>
        <time>2017-02-18T15:26:17Z</time>
      </trkpt>
      <trkpt lat="45.29321" lon="5.67263">
        <ele>889.46</ele>
        <time>2017-02-18T15:26:18Z</time>
      </trkpt>
      <trkpt lat="45.2932" lon="5.67263">
        <ele>888.65</ele>
        <time>2017-02-18T15:26:19Z</time>
      </trkpt>
      <trkpt lat="45.29318" lon="5.67264">
        <ele>887.69</ele>
        <time>2017-02-18T15:26:20Z</time>
      </trkpt>
      <trkpt lat="45.29317" lon="5.67265">
        <ele>886.78</ele>
        <time>2017-02-18T15:26:21Z</time>
      </trkpt>
      <trkpt lat="45.29316" lon="5.67267">
        <ele>885.63</ele>
        <time>2017-02-18T15:26:22Z</time>
      </trkpt>
      <trkpt lat="45.29314" lon="5.67269">
        <ele>884.77</ele>
        <time>2017-02-18T15:26:23Z</time>
      </trkpt>
      <trkpt lat="45.29313" lon="5.67274">
        <ele>883.63</ele>
        <time>2017-02-18T15:26:24Z</time>
      </trkpt>
      <trkpt lat="45.29312" lon="5.67279">
        <ele>882.77</ele>
        <time>2017-02-18T15:26:25Z</time>
      </trkpt>
      <trkpt lat="45.29312" lon="5.67285">
        <ele>882.03</ele>
        <time>2017-02-18T15:26:26Z</time>
      </trkpt>
      <trkpt lat="45.29311" lon="5.67292">
        <ele>881.41</ele>
        <time>2017-02-18T15:26:27Z</time>
      </trkpt>
      <trkpt lat="45.29312" lon="5.67298">
        <ele>880.64</ele>
        <time>2017-02-18T15:26:28Z</time>
      </trkpt>
      <trkpt lat="45.29313" lon="5.67303">
        <ele>879.85</ele>
        <time>2017-02-18T15:26:29Z</time>
      </trkpt>
      <trkpt lat="45.29314" lon="5.67309">
        <ele>879.13</ele>
        <time>2017-02-18T15:26:30Z</time>
      </trkpt>
      <trkpt lat="45.29314" lon="5.67313">
        <ele>878.42</ele>
        <time>2017-02-18T15:26:31Z</time>
      </trkpt>
      <trkpt lat="45.29314" lon="5.67317">
        <ele>877.8</ele>
        <time>2017-02-18T15:26:32Z</time>
      </trkpt>
      <trkpt lat="45.29314" lon="5.67321">
        <ele>877.28</ele>
        <time>2017-02-18T15:26:33Z</time>
      </trkpt>
      <trkpt lat="45.29314" lon="5.67326">
        <ele>876.62</ele>
        <time>2017-02-18T15:26:34Z</time>
      </trkpt>
      <trkpt lat="45.29314" lon="5.67331">
        <ele>875.92</ele>
        <time>2017-02-18T15:26:35Z</time>
      </trkpt>
      <trkpt lat="45.29314" lon="5.67336">
        <ele>875.22</ele>
        <time>2017-02-18T15:26:36Z</time>
      </trkpt>
      <trkpt lat="45.29315" lon="5.67343">
        <ele>874.28</ele>
        <time>2017-02-18T15:26:37Z</time>
      </trkpt>
      <trkpt lat="45.29315" lon="5.6735">
        <ele>873.54</ele>
        <time>2017-02-18T15:26:38Z</time>
      </trkpt>
      <trkpt lat="45.29315" lon="5.67359">
        <ele>872.99</ele>
        <time>2017-02-18T15:26:39Z</time>
      </trkpt>
      <trkpt lat="45.29316" lon="5.67368">
        <ele>872.56</ele>
        <time>2017-02-18T15:26:40Z</time>
      </trkpt>
      <trkpt lat="45.29316" lon="5.67377">
        <ele>872.15</ele>
        <time>2017-02-18T15:26:41Z</time>
      </trkpt>
      <trkpt lat="45.29316" lon="5.67386">
        <ele>871.99</ele>
        <time>2017-02-18T15:26:42Z</time>
      </trkpt>
      <trkpt lat="45.29315" lon="5.67395">
        <ele>872.04</ele>
        <time>2017-02-18T15:26:43Z</time>
      </trkpt>
      <trkpt lat="45.29313" lon="5.67403">
        <ele>871.65</ele>
        <time>2017-02-18T15:26:44Z</time>
      </trkpt>
      <trkpt lat="45.29311" lon="5.67411">
        <ele>872.05</ele>
        <time>2017-02-18T15:26:45Z</time>
      </trkpt>
      <trkpt lat="45.29308" lon="5.67419">
        <ele>872.45</ele>
        <time>2017-02-18T15:26:46Z</time>
      </trkpt>
      <trkpt lat="45.29306" lon="5.67425">
        <ele>872.85</ele>
        <time>2017-02-18T15:26:47Z</time>
      </trkpt>
      <trkpt lat="45.29305" lon="5.67432">
        <ele>872.77</ele>
        <time>2017-02-18T15:26:48Z</time>
      </trkpt>
      <trkpt lat="45.29304" lon="5.67438">
        <ele>872.99</ele>
        <time>2017-02-18T15:26:49Z</time>
      </trkpt>
      <trkpt lat="45.29303" lon="5.67444">
        <ele>873.2</ele>
        <time>2017-02-18T15:26:50Z</time>
      </trkpt>
      <trkpt lat="45.29303" lon="5.67451">
        <ele>873.32</ele>
        <time>2017-02-18T15:26:51Z</time>
      </trkpt>
      <trkpt lat="45.29302" lon="5.67458">
        <ele>873.74</ele>
        <time>2017-02-18T15:26:52Z</time>
      </trkpt>
      <trkpt lat="45.29302" lon="5.67465">
        <ele>873.91</ele>
        <time>2017-02-18T15:26:53Z</time>
      </trkpt>
      <trkpt lat="45.29302" lon="5.67472">
        <ele>874.42</ele>
        <time>2017-02-18T15:26:54Z</time>
      </trkpt>
      <trkpt lat="45.29301" lon="5.67479">
        <ele>874.68</ele>
        <time>2017-02-18T15:26:55Z</time>
      </trkpt>
      <trkpt lat="45.29301" lon="5.67485">
        <ele>874.9</ele>
        <time>2017-02-18T15:26:56Z</time>
      </trkpt>
      <trkpt lat="45.293" lon="5.67491">
        <ele>875.02</ele>
        <time>2017-02-18T15:26:57Z</time>
      </trkpt>
      <trkpt lat="45.29299" lon="5.67497">
        <ele>874.8</ele>
        <time>2017-02-18T15:26:58Z</time>
      </trkpt>
      <trkpt lat="45.29298" lon="5.67502">
        <ele>874.92</ele>
        <time>2017-02-18T15:26:59Z</time>
      </trkpt>
      <trkpt lat="45.29297" lon="5.67506">
        <ele>874.94</ele>
        <time>2017-02-18T15:27:00Z</time>
      </trkpt>
      <trkpt lat="45.29296" lon="5.67509">
        <ele>875.03</ele>
        <time>2017-02-18T15:27:01Z</time>
      </trkpt>
      <trkpt lat="45.29297" lon="5.67512">
        <ele>875.2</ele>
        <time>2017-02-18T15:27:02Z</time>
      </trkpt>
      <trkpt lat="45.29297" lon="5.67512">
        <ele>875.72</ele>
        <time>2017-02-18T15:27:03Z</time>
      </trkpt>
      <trkpt lat="45.29298" lon="5.67513">
        <ele>876.06</ele>
        <time>2017-02-18T15:27:04Z</time>
      </trkpt>
      <trkpt lat="45.29298" lon="5.67513">
        <ele>876.13</ele>
        <time>2017-02-18T15:27:05Z</time>
      </trkpt>
      <trkpt lat="45.29298" lon="5.67513">
        <ele>876.15</ele>
        <time>2017-02-18T15:27:06Z</time>
      </trkpt>
      <trkpt lat="45.29298" lon="5.67513">
        <ele>876.15</ele>
        <time>2017-02-18T15:27:07Z</time>
      </trkpt>
      <trkpt lat="45.29298" lon="5.67513">
        <ele>876.15</ele>
        <time>2017-02-18T15:27:08Z</time>
      </trkpt>
      <trkpt lat="45.29298" lon="5.67513">
        <ele>876.15</ele>
        <time>2017-02-18T15:27:09Z</time>
      </trkpt>
      <trkpt lat="45.29298" lon="5.67513">
        <ele>876.15</ele>
        <time>2017-02-18T15:27:10Z</time>
      </trkpt>
      <trkpt lat="45.29298" lon="5.67513">
        <ele>876.15</ele>
        <time>2017-02-18T15:27:11Z</time>
      </trkpt>
      <trkpt lat="45.29298" lon="5.67513">
        <ele>876.15</ele>
        <time>2017-02-18T15:27:12Z</time>
      </trkpt>
      <trkpt lat="45.29298" lon="5.67513">
        <ele>876.15</ele>
        <time>2017-02-18T15:27:13Z</time>
      </trkpt>
      <trkpt lat="45.29298" lon="5.67513">
        <ele>876.15</ele>
        <time>2017-02-18T15:27:14Z</time>
      </trkpt>
      <trkpt lat="45.29298" lon="5.67513">
        <ele>876.15</ele>
        <time>2017-02-18T15:27:15Z</time>
      </trkpt>
      <trkpt lat="45.29298" lon="5.67513">
        <ele>876.15</ele>
        <time>2017-02-18T15:27:16Z</time>
      </trkpt>
      <trkpt lat="45.29298" lon="5.67513">
        <ele>876.15</ele>
        <time>2017-02-18T15:27:17Z</time>
      </trkpt>
      <trkpt lat="45.29298" lon="5.67513">
        <ele>876.15</ele>
        <time>2017-02-18T15:27:19Z</time>
      </trkpt>
      <trkpt lat="45.29298" lon="5.67513">
        <ele>876.15</ele>
        <time>2017-02-18T15:27:20Z</time>
      </trkpt>
      <trkpt lat="45.29298" lon="5.67513">
        <ele>876.15</ele>
        <time>2017-02-18T15:27:21Z</time>
      </trkpt>
      <trkpt lat="45.29298" lon="5.67513">
        <ele>876.15</ele>
        <time>2017-02-18T15:27:22Z</time>
      </trkpt>
      <trkpt lat="45.29298" lon="5.67513">
        <ele>876.15</ele>
        <time>2017-02-18T15:27:23Z</time>
      </trkpt>
      <trkpt lat="45.29298" lon="5.67513">
        <ele>876.15</ele>
        <time>2017-02-18T15:27:24Z</time>
      </trkpt>
      <trkpt lat="45.29298" lon="5.67513">
        <ele>876.15</ele>
        <time>2017-02-18T15:27:25Z</time>
      </trkpt>
      <trkpt lat="45.29298" lon="5.67513">
        <ele>876.15</ele>
        <time>2017-02-18T15:27:26Z</time>
      </trkpt>
      <trkpt lat="45.29298" lon="5.67513">
        <ele>876.15</ele>
        <time>2017-02-18T15:27:27Z</time>
      </trkpt>
      <trkpt lat="45.29298" lon="5.67513">
        <ele>876.15</ele>
        <time>2017-02-18T15:27:28Z</time>
      </trkpt>
      <trkpt lat="45.29298" lon="5.67513">
        <ele>876.15</ele>
        <time>2017-02-18T15:27:29Z</time>
      </trkpt>
      <trkpt lat="45.29298" lon="5.67513">
        <ele>876.15</ele>
        <time>2017-02-18T15:27:30Z</time>
      </trkpt>
      <trkpt lat="45.29298" lon="5.67513">
        <ele>876.15</ele>
        <time>2017-02-18T15:27:31Z</time>
      </trkpt>
      <trkpt lat="45.29298" lon="5.67513">
        <ele>876.15</ele>
        <time>2017-02-18T15:27:32Z</time>
      </trkpt>
      <trkpt lat="45.29298" lon="5.67513">
        <ele>876.15</ele>
        <time>2017-02-18T15:27:33Z</time>
      </trkpt>
      <trkpt lat="45.29298" lon="5.67513">
        <ele>876.15</ele>
        <time>2017-02-18T15:27:34Z</time>
      </trkpt>
      <trkpt lat="45.29298" lon="5.67513">
        <ele>876.15</ele>
        <time>2017-02-18T15:27:35Z</time>
      </trkpt>
      <trkpt lat="45.29298" lon="5.67513">
        <ele>876.15</ele>
        <time>2017-02-18T15:27:36Z</time>
      </trkpt>
      <trkpt lat="45.29298" lon="5.67513">
        <ele>876.15</ele>
        <time>2017-02-18T15:27:37Z</time>
      </trkpt>
      <trkpt lat="45.29298" lon="5.67513">
        <ele>876.15</ele>
        <time>2017-02-18T15:27:38Z</time>
      </trkpt>
      <trkpt lat="45.29298" lon="5.67513">
        <ele>876.15</ele>
        <time>2017-02-18T15:27:39Z</time>
      </trkpt>
      <trkpt lat="45.29298" lon="5.67513">
        <ele>876.15</ele>
        <time>2017-02-18T15:27:40Z</time>
      </trkpt>
      <trkpt lat="45.29298" lon="5.67513">
        <ele>876.15</ele>
        <time>2017-02-18T15:27:41Z</time>
      </trkpt>
      <trkpt lat="45.29298" lon="5.67513">
        <ele>876.15</ele>
        <time>2017-02-18T15:27:42Z</time>
      </trkpt>
      <trkpt lat="45.29298" lon="5.67513">
        <ele>876.15</ele>
        <time>2017-02-18T15:27:43Z</time>
      </trkpt>
      <trkpt lat="45.29298" lon="5.67513">
        <ele>876.15</ele>
        <time>2017-02-18T15:27:44Z</time>
      </trkpt>
      <trkpt lat="45.29297" lon="5.67512">
        <ele>876.95</ele>
        <time>2017-02-18T15:27:45Z</time>
      </trkpt>
      <trkpt lat="45.29295" lon="5.6751">
        <ele>877.03</ele>
        <time>2017-02-18T15:27:46Z</time>
      </trkpt>
      <trkpt lat="45.29294" lon="5.67507">
        <ele>876.97</ele>
        <time>2017-02-18T15:27:47Z</time>
      </trkpt>
      <trkpt lat="45.29294" lon="5.67503">
        <ele>876.71</ele>
        <time>2017-02-18T15:27:48Z</time>
      </trkpt>
      <trkpt lat="45.29294" lon="5.675">
        <ele>876.98</ele>
        <time>2017-02-18T15:27:49Z</time>
      </trkpt>
      <trkpt lat="45.29293" lon="5.67496">
        <ele>877.12</ele>
        <time>2017-02-18T15:27:50Z</time>
      </trkpt>
      <trkpt lat="45.29294" lon="5.67493">
        <ele>877.14</ele>
        <time>2017-02-18T15:27:51Z</time>
      </trkpt>
      <trkpt lat="45.29294" lon="5.6749">
        <ele>876.99</ele>
        <time>2017-02-18T15:27:52Z</time>
      </trkpt>
      <trkpt lat="45.29295" lon="5.67487">
        <ele>877.52</ele>
        <time>2017-02-18T15:27:53Z</time>
      </trkpt>
      <trkpt lat="45.29297" lon="5.67486">
        <ele>877.78</ele>
        <time>2017-02-18T15:27:54Z</time>
      </trkpt>
      <trkpt lat="45.29299" lon="5.67485">
        <ele>878.08</ele>
        <time>2017-02-18T15:27:55Z</time>
      </trkpt>
      <trkpt lat="45.293" lon="5.67485">
        <ele>878.77</ele>
        <time>2017-02-18T15:27:56Z</time>
      </trkpt>
      <trkpt lat="45.293" lon="5.67485">
        <ele>879.23</ele>
        <time>2017-02-18T15:27:57Z</time>
      </trkpt>
      <trkpt lat="45.293" lon="5.67485">
        <ele>879.17</ele>
        <time>2017-02-18T15:27:58Z</time>
      </trkpt>
      <trkpt lat="45.293" lon="5.67485">
        <ele>879.15</ele>
        <time>2017-02-18T15:27:59Z</time>
      </trkpt>
      <trkpt lat="45.293" lon="5.67485">
        <ele>879.15</ele>
        <time>2017-02-18T15:28:00Z</time>
      </trkpt>
      <trkpt lat="45.293" lon="5.67485">
        <ele>879.15</ele>
        <time>2017-02-18T15:28:01Z</time>
      </trkpt>
      <trkpt lat="45.293" lon="5.67485">
        <ele>879.15</ele>
        <time>2017-02-18T15:28:02Z</time>
      </trkpt>
      <trkpt lat="45.293" lon="5.67485">
        <ele>879.15</ele>
        <time>2017-02-18T15:28:03Z</time>
      </trkpt>
      <trkpt lat="45.293" lon="5.67485">
        <ele>879.15</ele>
        <time>2017-02-18T15:28:04Z</time>
      </trkpt>
      <trkpt lat="45.293" lon="5.67485">
        <ele>879.15</ele>
        <time>2017-02-18T15:28:05Z</time>
      </trkpt>
      <trkpt lat="45.293" lon="5.67485">
        <ele>879.15</ele>
        <time>2017-02-18T15:28:06Z</time>
      </trkpt>
      <trkpt lat="45.293" lon="5.67485">
        <ele>879.15</ele>
        <time>2017-02-18T15:28:07Z</time>
      </trkpt>
      <trkpt lat="45.293" lon="5.67485">
        <ele>879.15</ele>
        <time>2017-02-18T15:28:08Z</time>
      </trkpt>
      <trkpt lat="45.293" lon="5.67485">
        <ele>879.15</ele>
        <time>2017-02-18T15:28:09Z</time>
      </trkpt>
      <trkpt lat="45.293" lon="5.67485">
        <ele>879.15</ele>
        <time>2017-02-18T15:28:10Z</time>
      </trkpt>
      <trkpt lat="45.293" lon="5.67485">
        <ele>879.15</ele>
        <time>2017-02-18T15:28:11Z</time>
      </trkpt>
      <trkpt lat="45.293" lon="5.67485">
        <ele>879.15</ele>
        <time>2017-02-18T15:28:12Z</time>
      </trkpt>
      <trkpt lat="45.293" lon="5.67485">
        <ele>879.15</ele>
        <time>2017-02-18T15:28:13Z</time>
      </trkpt>
      <trkpt lat="45.293" lon="5.67485">
        <ele>879.15</ele>
        <time>2017-02-18T15:28:14Z</time>
      </trkpt>
      <trkpt lat="45.293" lon="5.67485">
        <ele>879.15</ele>
        <time>2017-02-18T15:28:15Z</time>
      </trkpt>
      <trkpt lat="45.293" lon="5.67485">
        <ele>879.15</ele>
        <time>2017-02-18T15:28:16Z</time>
      </trkpt>
      <trkpt lat="45.293" lon="5.67485">
        <ele>879.15</ele>
        <time>2017-02-18T15:28:17Z</time>
      </trkpt>
      <trkpt lat="45.293" lon="5.67485">
        <ele>879.15</ele>
        <time>2017-02-18T15:28:18Z</time>
      </trkpt>
      <trkpt lat="45.293" lon="5.67485">
        <ele>879.15</ele>
        <time>2017-02-18T15:28:19Z</time>
      </trkpt>
      <trkpt lat="45.293" lon="5.67485">
        <ele>879.15</ele>
        <time>2017-02-18T15:28:20Z</time>
      </trkpt>
      <trkpt lat="45.293" lon="5.67485">
        <ele>879.15</ele>
        <time>2017-02-18T15:28:21Z</time>
      </trkpt>
      <trkpt lat="45.293" lon="5.67485">
        <ele>879.15</ele>
        <time>2017-02-18T15:28:22Z</time>
      </trkpt>
      <trkpt lat="45.293" lon="5.67485">
        <ele>879.15</ele>
        <time>2017-02-18T15:28:23Z</time>
      </trkpt>
      <trkpt lat="45.293" lon="5.67485">
        <ele>879.15</ele>
        <time>2017-02-18T15:28:24Z</time>
      </trkpt>
      <trkpt lat="45.293" lon="5.67485">
        <ele>879.15</ele>
        <time>2017-02-18T15:28:25Z</time>
      </trkpt>
      <trkpt lat="45.293" lon="5.67485">
        <ele>879.15</ele>
        <time>2017-02-18T15:28:26Z</time>
      </trkpt>
      <trkpt lat="45.293" lon="5.67485">
        <ele>879.15</ele>
        <time>2017-02-18T15:28:27Z</time>
      </trkpt>
      <trkpt lat="45.293" lon="5.67485">
        <ele>879.15</ele>
        <time>2017-02-18T15:28:28Z</time>
      </trkpt>
      <trkpt lat="45.293" lon="5.67485">
        <ele>879.15</ele>
        <time>2017-02-18T15:28:29Z</time>
      </trkpt>
      <trkpt lat="45.29299" lon="5.67482">
        <ele>878.51</ele>
        <time>2017-02-18T15:28:30Z</time>
      </trkpt>
      <trkpt lat="45.29299" lon="5.67481">
        <ele>878.46</ele>
        <time>2017-02-18T15:28:31Z</time>
      </trkpt>
      <trkpt lat="45.29299" lon="5.67481">
        <ele>878.53</ele>
        <time>2017-02-18T15:28:32Z</time>
      </trkpt>
      <trkpt lat="45.29299" lon="5.67481">
        <ele>878.55</ele>
        <time>2017-02-18T15:28:33Z</time>
      </trkpt>
      <trkpt lat="45.293" lon="5.67482">
        <ele>878.63</ele>
        <time>2017-02-18T15:28:34Z</time>
      </trkpt>
      <trkpt lat="45.293" lon="5.67482">
        <ele>878.64</ele>
        <time>2017-02-18T15:28:35Z</time>
      </trkpt>
      <trkpt lat="45.293" lon="5.67482">
        <ele>878.65</ele>
        <time>2017-02-18T15:28:36Z</time>
      </trkpt>
      <trkpt lat="45.293" lon="5.67482">
        <ele>878.65</ele>
        <time>2017-02-18T15:28:37Z</time>
      </trkpt>
      <trkpt lat="45.293" lon="5.67482">
        <ele>878.65</ele>
        <time>2017-02-18T15:28:38Z</time>
      </trkpt>
      <trkpt lat="45.293" lon="5.67482">
        <ele>878.65</ele>
        <time>2017-02-18T15:28:39Z</time>
      </trkpt>
      <trkpt lat="45.293" lon="5.67482">
        <ele>878.65</ele>
        <time>2017-02-18T15:28:40Z</time>
      </trkpt>
      <trkpt lat="45.293" lon="5.67482">
        <ele>878.65</ele>
        <time>2017-02-18T15:28:41Z</time>
      </trkpt>
      <trkpt lat="45.293" lon="5.67482">
        <ele>878.65</ele>
        <time>2017-02-18T15:28:42Z</time>
      </trkpt>
      <trkpt lat="45.293" lon="5.67482">
        <ele>878.65</ele>
        <time>2017-02-18T15:28:43Z</time>
      </trkpt>
      <trkpt lat="45.293" lon="5.67482">
        <ele>878.65</ele>
        <time>2017-02-18T15:28:44Z</time>
      </trkpt>
      <trkpt lat="45.293" lon="5.67482">
        <ele>878.65</ele>
        <time>2017-02-18T15:28:45Z</time>
      </trkpt>
      <trkpt lat="45.293" lon="5.67482">
        <ele>878.65</ele>
        <time>2017-02-18T15:28:46Z</time>
      </trkpt>
      <trkpt lat="45.293" lon="5.67482">
        <ele>878.65</ele>
        <time>2017-02-18T15:28:47Z</time>
      </trkpt>
      <trkpt lat="45.293" lon="5.67482">
        <ele>878.65</ele>
        <time>2017-02-18T15:28:48Z</time>
      </trkpt>
      <trkpt lat="45.293" lon="5.67482">
        <ele>878.65</ele>
        <time>2017-02-18T15:28:49Z</time>
      </trkpt>
      <trkpt lat="45.293" lon="5.67482">
        <ele>878.65</ele>
        <time>2017-02-18T15:28:50Z</time>
      </trkpt>
      <trkpt lat="45.293" lon="5.67482">
        <ele>878.65</ele>
        <time>2017-02-18T15:28:51Z</time>
      </trkpt>
      <trkpt lat="45.293" lon="5.67482">
        <ele>878.65</ele>
        <time>2017-02-18T15:28:52Z</time>
      </trkpt>
      <trkpt lat="45.293" lon="5.67482">
        <ele>878.65</ele>
        <time>2017-02-18T15:28:53Z</time>
      </trkpt>
      <trkpt lat="45.293" lon="5.67482">
        <ele>878.65</ele>
        <time>2017-02-18T15:28:54Z</time>
      </trkpt>
      <trkpt lat="45.293" lon="5.67482">
        <ele>878.65</ele>
        <time>2017-02-18T15:28:55Z</time>
      </trkpt>
      <trkpt lat="45.293" lon="5.67482">
        <ele>878.65</ele>
        <time>2017-02-18T15:28:56Z</time>
      </trkpt>
      <trkpt lat="45.293" lon="5.67482">
        <ele>878.65</ele>
        <time>2017-02-18T15:28:57Z</time>
      </trkpt>
      <trkpt lat="45.293" lon="5.67495">
        <ele>877.69</ele>
        <time>2017-02-18T15:28:58Z</time>
      </trkpt>
      <trkpt lat="45.29299" lon="5.67496">
        <ele>877.18</ele>
        <time>2017-02-18T15:28:59Z</time>
      </trkpt>
      <trkpt lat="45.29299" lon="5.67497">
        <ele>877.15</ele>
        <time>2017-02-18T15:29:00Z</time>
      </trkpt>
      <trkpt lat="45.29299" lon="5.67498">
        <ele>877.23</ele>
        <time>2017-02-18T15:29:01Z</time>
      </trkpt>
      <trkpt lat="45.29299" lon="5.67498">
        <ele>877.25</ele>
        <time>2017-02-18T15:29:02Z</time>
      </trkpt>
      <trkpt lat="45.29299" lon="5.67498">
        <ele>877.25</ele>
        <time>2017-02-18T15:29:03Z</time>
      </trkpt>
      <trkpt lat="45.29299" lon="5.67498">
        <ele>877.25</ele>
        <time>2017-02-18T15:29:04Z</time>
      </trkpt>
      <trkpt lat="45.29299" lon="5.67498">
        <ele>877.25</ele>
        <time>2017-02-18T15:29:05Z</time>
      </trkpt>
      <trkpt lat="45.29299" lon="5.67498">
        <ele>877.25</ele>
        <time>2017-02-18T15:29:06Z</time>
      </trkpt>
      <trkpt lat="45.29299" lon="5.67498">
        <ele>877.25</ele>
        <time>2017-02-18T15:29:07Z</time>
      </trkpt>
      <trkpt lat="45.29299" lon="5.67512">
        <ele>876.53</ele>
        <time>2017-02-18T15:29:08Z</time>
      </trkpt>
      <trkpt lat="45.29299" lon="5.67514">
        <ele>876.22</ele>
        <time>2017-02-18T15:29:09Z</time>
      </trkpt>
      <trkpt lat="45.29299" lon="5.67516">
        <ele>876.08</ele>
        <time>2017-02-18T15:29:10Z</time>
      </trkpt>
      <trkpt lat="45.29299" lon="5.67518">
        <ele>875.98</ele>
        <time>2017-02-18T15:29:11Z</time>
      </trkpt>
      <trkpt lat="45.29299" lon="5.67518">
        <ele>875.95</ele>
        <time>2017-02-18T15:29:12Z</time>
      </trkpt>
      <trkpt lat="45.29299" lon="5.67518">
        <ele>875.95</ele>
        <time>2017-02-18T15:29:13Z</time>
      </trkpt>
      <trkpt lat="45.29299" lon="5.67518">
        <ele>875.95</ele>
        <time>2017-02-18T15:29:14Z</time>
      </trkpt>
      <trkpt lat="45.29299" lon="5.67518">
        <ele>875.95</ele>
        <time>2017-02-18T15:29:15Z</time>
      </trkpt>
      <trkpt lat="45.29299" lon="5.67518">
        <ele>875.95</ele>
        <time>2017-02-18T15:29:16Z</time>
      </trkpt>
      <trkpt lat="45.29299" lon="5.67518">
        <ele>875.95</ele>
        <time>2017-02-18T15:29:17Z</time>
      </trkpt>
      <trkpt lat="45.29299" lon="5.67518">
        <ele>875.95</ele>
        <time>2017-02-18T15:29:18Z</time>
      </trkpt>
      <trkpt lat="45.29298" lon="5.67531">
        <ele>875.63</ele>
        <time>2017-02-18T15:29:19Z</time>
      </trkpt>
      <trkpt lat="45.29297" lon="5.67532">
        <ele>875.48</ele>
        <time>2017-02-18T15:29:20Z</time>
      </trkpt>
      <trkpt lat="45.29297" lon="5.67534">
        <ele>875.38</ele>
        <time>2017-02-18T15:29:21Z</time>
      </trkpt>
      <trkpt lat="45.29296" lon="5.67537">
        <ele>875.51</ele>
        <time>2017-02-18T15:29:22Z</time>
      </trkpt>
      <trkpt lat="45.29296" lon="5.67537">
        <ele>875.54</ele>
        <time>2017-02-18T15:29:23Z</time>
      </trkpt>
      <trkpt lat="45.29296" lon="5.67537">
        <ele>875.55</ele>
        <time>2017-02-18T15:29:24Z</time>
      </trkpt>
      <trkpt lat="45.29296" lon="5.67537">
        <ele>875.55</ele>
        <time>2017-02-18T15:29:25Z</time>
      </trkpt>
      <trkpt lat="45.29296" lon="5.67537">
        <ele>875.55</ele>
        <time>2017-02-18T15:29:26Z</time>
      </trkpt>
      <trkpt lat="45.29296" lon="5.67537">
        <ele>875.55</ele>
        <time>2017-02-18T15:29:27Z</time>
      </trkpt>
      <trkpt lat="45.29296" lon="5.67537">
        <ele>875.55</ele>
        <time>2017-02-18T15:29:28Z</time>
      </trkpt>
      <trkpt lat="45.29296" lon="5.67537">
        <ele>875.55</ele>
        <time>2017-02-18T15:29:29Z</time>
      </trkpt>
      <trkpt lat="45.29296" lon="5.67537">
        <ele>875.55</ele>
        <time>2017-02-18T15:29:30Z</time>
      </trkpt>
      <trkpt lat="45.2929" lon="5.67547">
        <ele>875.31</ele>
        <time>2017-02-18T15:29:31Z</time>
      </trkpt>
      <trkpt lat="45.29289" lon="5.67549">
        <ele>875.26</ele>
        <time>2017-02-18T15:29:32Z</time>
      </trkpt>
      <trkpt lat="45.29288" lon="5.67549">
        <ele>875.17</ele>
        <time>2017-02-18T15:29:33Z</time>
      </trkpt>
      <trkpt lat="45.29287" lon="5.6755">
        <ele>875.15</ele>
        <time>2017-02-18T15:29:34Z</time>
      </trkpt>
      <trkpt lat="45.29287" lon="5.6755">
        <ele>875.15</ele>
        <time>2017-02-18T15:29:35Z</time>
      </trkpt>
      <trkpt lat="45.29287" lon="5.6755">
        <ele>875.15</ele>
        <time>2017-02-18T15:29:36Z</time>
      </trkpt>
      <trkpt lat="45.29287" lon="5.6755">
        <ele>875.15</ele>
        <time>2017-02-18T15:29:37Z</time>
      </trkpt>
      <trkpt lat="45.29287" lon="5.6755">
        <ele>875.15</ele>
        <time>2017-02-18T15:29:38Z</time>
      </trkpt>
      <trkpt lat="45.29287" lon="5.6755">
        <ele>875.15</ele>
        <time>2017-02-18T15:29:39Z</time>
      </trkpt>
      <trkpt lat="45.29287" lon="5.6755">
        <ele>875.15</ele>
        <time>2017-02-18T15:29:40Z</time>
      </trkpt>
      <trkpt lat="45.29287" lon="5.6755">
        <ele>875.15</ele>
        <time>2017-02-18T15:29:41Z</time>
      </trkpt>
      <trkpt lat="45.29277" lon="5.67553">
        <ele>875.63</ele>
        <time>2017-02-18T15:29:42Z</time>
      </trkpt>
      <trkpt lat="45.29276" lon="5.67554">
        <ele>875.8</ele>
        <time>2017-02-18T15:29:43Z</time>
      </trkpt>
      <trkpt lat="45.29275" lon="5.67554">
        <ele>875.92</ele>
        <time>2017-02-18T15:29:44Z</time>
      </trkpt>
      <trkpt lat="45.29274" lon="5.67554">
        <ele>876.02</ele>
        <time>2017-02-18T15:29:45Z</time>
      </trkpt>
      <trkpt lat="45.29274" lon="5.67554">
        <ele>876.04</ele>
        <time>2017-02-18T15:29:46Z</time>
      </trkpt>
      <trkpt lat="45.29271" lon="5.67554">
        <ele>876.05</ele>
        <time>2017-02-18T15:29:47Z</time>
      </trkpt>
      <trkpt lat="45.2927" lon="5.67554">
        <ele>876.05</ele>
        <time>2017-02-18T15:29:48Z</time>
      </trkpt>
      <trkpt lat="45.2927" lon="5.67554">
        <ele>876.05</ele>
        <time>2017-02-18T15:29:49Z</time>
      </trkpt>
      <trkpt lat="45.29268" lon="5.67555">
        <ele>876.13</ele>
        <time>2017-02-18T15:29:50Z</time>
      </trkpt>
      <trkpt lat="45.29268" lon="5.67555">
        <ele>876.15</ele>
        <time>2017-02-18T15:29:51Z</time>
      </trkpt>
      <trkpt lat="45.29268" lon="5.67555">
        <ele>876.15</ele>
        <time>2017-02-18T15:29:52Z</time>
      </trkpt>
      <trkpt lat="45.29268" lon="5.67555">
        <ele>876.15</ele>
        <time>2017-02-18T15:29:53Z</time>
      </trkpt>
      <trkpt lat="45.29268" lon="5.67555">
        <ele>876.15</ele>
        <time>2017-02-18T15:29:54Z</time>
      </trkpt>
      <trkpt lat="45.29268" lon="5.67555">
        <ele>876.15</ele>
        <time>2017-02-18T15:29:55Z</time>
      </trkpt>
      <trkpt lat="45.29262" lon="5.67561">
        <ele>876.71</ele>
        <time>2017-02-18T15:29:56Z</time>
      </trkpt>
      <trkpt lat="45.29261" lon="5.67563">
        <ele>876.98</ele>
        <time>2017-02-18T15:29:57Z</time>
      </trkpt>
      <trkpt lat="45.29261" lon="5.67563">
        <ele>877.2</ele>
        <time>2017-02-18T15:29:58Z</time>
      </trkpt>
      <trkpt lat="45.29261" lon="5.67564">
        <ele>877.32</ele>
        <time>2017-02-18T15:29:59Z</time>
      </trkpt>
      <trkpt lat="45.2926" lon="5.67565">
        <ele>876.7</ele>
        <time>2017-02-18T15:30:00Z</time>
      </trkpt>
      <trkpt lat="45.2926" lon="5.67565">
        <ele>876.58</ele>
        <time>2017-02-18T15:30:01Z</time>
      </trkpt>
      <trkpt lat="45.2926" lon="5.67565">
        <ele>876.56</ele>
        <time>2017-02-18T15:30:02Z</time>
      </trkpt>
      <trkpt lat="45.2926" lon="5.67565">
        <ele>876.55</ele>
        <time>2017-02-18T15:30:03Z</time>
      </trkpt>
      <trkpt lat="45.2926" lon="5.67565">
        <ele>876.55</ele>
        <time>2017-02-18T15:30:04Z</time>
      </trkpt>
      <trkpt lat="45.2926" lon="5.67565">
        <ele>876.55</ele>
        <time>2017-02-18T15:30:05Z</time>
      </trkpt>
      <trkpt lat="45.2926" lon="5.67565">
        <ele>876.55</ele>
        <time>2017-02-18T15:30:06Z</time>
      </trkpt>
      <trkpt lat="45.2926" lon="5.67565">
        <ele>876.55</ele>
        <time>2017-02-18T15:30:07Z</time>
      </trkpt>
      <trkpt lat="45.2926" lon="5.67565">
        <ele>876.55</ele>
        <time>2017-02-18T15:30:08Z</time>
      </trkpt>
      <trkpt lat="45.2926" lon="5.67565">
        <ele>876.55</ele>
        <time>2017-02-18T15:30:09Z</time>
      </trkpt>
      <trkpt lat="45.2926" lon="5.67565">
        <ele>876.55</ele>
        <time>2017-02-18T15:30:10Z</time>
      </trkpt>
      <trkpt lat="45.2926" lon="5.67565">
        <ele>876.55</ele>
        <time>2017-02-18T15:30:11Z</time>
      </trkpt>
      <trkpt lat="45.2926" lon="5.67565">
        <ele>876.55</ele>
        <time>2017-02-18T15:30:12Z</time>
      </trkpt>
      <trkpt lat="45.2926" lon="5.67565">
        <ele>876.55</ele>
        <time>2017-02-18T15:30:13Z</time>
      </trkpt>
      <trkpt lat="45.2926" lon="5.67565">
        <ele>876.55</ele>
        <time>2017-02-18T15:30:14Z</time>
      </trkpt>
      <trkpt lat="45.2926" lon="5.67565">
        <ele>876.55</ele>
        <time>2017-02-18T15:30:15Z</time>
      </trkpt>
      <trkpt lat="45.2926" lon="5.67565">
        <ele>876.55</ele>
        <time>2017-02-18T15:30:16Z</time>
      </trkpt>
      <trkpt lat="45.2926" lon="5.67565">
        <ele>876.55</ele>
        <time>2017-02-18T15:30:17Z</time>
      </trkpt>
      <trkpt lat="45.2926" lon="5.67565">
        <ele>876.55</ele>
        <time>2017-02-18T15:30:18Z</time>
      </trkpt>
      <trkpt lat="45.2926" lon="5.67565">
        <ele>876.55</ele>
        <time>2017-02-18T15:30:19Z</time>
      </trkpt>
      <trkpt lat="45.2926" lon="5.67565">
        <ele>876.55</ele>
        <time>2017-02-18T15:30:20Z</time>
      </trkpt>
      <trkpt lat="45.2926" lon="5.67565">
        <ele>876.55</ele>
        <time>2017-02-18T15:30:21Z</time>
      </trkpt>
      <trkpt lat="45.2926" lon="5.67565">
        <ele>876.55</ele>
        <time>2017-02-18T15:30:22Z</time>
      </trkpt>
      <trkpt lat="45.2926" lon="5.67565">
        <ele>876.55</ele>
        <time>2017-02-18T15:30:23Z</time>
      </trkpt>
      <trkpt lat="45.29258" lon="5.67578">
        <ele>877.11</ele>
        <time>2017-02-18T15:30:24Z</time>
      </trkpt>
      <trkpt lat="45.29258" lon="5.67579">
        <ele>877.38</ele>
        <time>2017-02-18T15:30:25Z</time>
      </trkpt>
      <trkpt lat="45.29257" lon="5.67579">
        <ele>877.52</ele>
        <time>2017-02-18T15:30:26Z</time>
      </trkpt>
      <trkpt lat="45.29257" lon="5.6758">
        <ele>877.54</ele>
        <time>2017-02-18T15:30:27Z</time>
      </trkpt>
      <trkpt lat="45.29257" lon="5.6758">
        <ele>877.55</ele>
        <time>2017-02-18T15:30:28Z</time>
      </trkpt>
      <trkpt lat="45.29257" lon="5.6758">
        <ele>877.55</ele>
        <time>2017-02-18T15:30:29Z</time>
      </trkpt>
      <trkpt lat="45.29257" lon="5.6758">
        <ele>877.55</ele>
        <time>2017-02-18T15:30:30Z</time>
      </trkpt>
      <trkpt lat="45.29257" lon="5.6758">
        <ele>877.55</ele>
        <time>2017-02-18T15:30:31Z</time>
      </trkpt>
      <trkpt lat="45.29257" lon="5.6758">
        <ele>877.55</ele>
        <time>2017-02-18T15:30:32Z</time>
      </trkpt>
      <trkpt lat="45.29257" lon="5.6758">
        <ele>877.55</ele>
        <time>2017-02-18T15:30:33Z</time>
      </trkpt>
      <trkpt lat="45.29257" lon="5.6758">
        <ele>877.55</ele>
        <time>2017-02-18T15:30:34Z</time>
      </trkpt>
      <trkpt lat="45.29257" lon="5.6758">
        <ele>877.55</ele>
        <time>2017-02-18T15:30:35Z</time>
      </trkpt>
      <trkpt lat="45.29257" lon="5.6758">
        <ele>877.55</ele>
        <time>2017-02-18T15:30:36Z</time>
      </trkpt>
      <trkpt lat="45.29257" lon="5.6758">
        <ele>877.55</ele>
        <time>2017-02-18T15:30:37Z</time>
      </trkpt>
      <trkpt lat="45.29257" lon="5.6758">
        <ele>877.55</ele>
        <time>2017-02-18T15:30:38Z</time>
      </trkpt>
      <trkpt lat="45.29257" lon="5.6758">
        <ele>877.55</ele>
        <time>2017-02-18T15:30:39Z</time>
      </trkpt>
      <trkpt lat="45.29257" lon="5.6758">
        <ele>877.55</ele>
        <time>2017-02-18T15:30:40Z</time>
      </trkpt>
      <trkpt lat="45.29257" lon="5.6758">
        <ele>877.55</ele>
        <time>2017-02-18T15:30:41Z</time>
      </trkpt>
      <trkpt lat="45.29257" lon="5.6758">
        <ele>877.55</ele>
        <time>2017-02-18T15:30:42Z</time>
      </trkpt>
      <trkpt lat="45.29258" lon="5.67593">
        <ele>876.51</ele>
        <time>2017-02-18T15:30:43Z</time>
      </trkpt>
      <trkpt lat="45.29258" lon="5.67594">
        <ele>876.22</ele>
        <time>2017-02-18T15:30:44Z</time>
      </trkpt>
      <trkpt lat="45.29258" lon="5.67595">
        <ele>876.16</ele>
        <time>2017-02-18T15:30:45Z</time>
      </trkpt>
      <trkpt lat="45.29258" lon="5.67597">
        <ele>876.15</ele>
        <time>2017-02-18T15:30:46Z</time>
      </trkpt>
      <trkpt lat="45.29258" lon="5.67597">
        <ele>876.15</ele>
        <time>2017-02-18T15:30:47Z</time>
      </trkpt>
      <trkpt lat="45.29258" lon="5.67597">
        <ele>876.15</ele>
        <time>2017-02-18T15:30:48Z</time>
      </trkpt>
      <trkpt lat="45.29258" lon="5.67597">
        <ele>876.15</ele>
        <time>2017-02-18T15:30:49Z</time>
      </trkpt>
      <trkpt lat="45.29258" lon="5.67597">
        <ele>876.15</ele>
        <time>2017-02-18T15:30:50Z</time>
      </trkpt>
      <trkpt lat="45.29258" lon="5.67597">
        <ele>876.15</ele>
        <time>2017-02-18T15:30:51Z</time>
      </trkpt>
      <trkpt lat="45.29258" lon="5.67597">
        <ele>876.15</ele>
        <time>2017-02-18T15:30:52Z</time>
      </trkpt>
      <trkpt lat="45.29258" lon="5.67597">
        <ele>876.15</ele>
        <time>2017-02-18T15:30:53Z</time>
      </trkpt>
      <trkpt lat="45.29258" lon="5.67597">
        <ele>876.15</ele>
        <time>2017-02-18T15:30:54Z</time>
      </trkpt>
      <trkpt lat="45.29258" lon="5.67597">
        <ele>876.15</ele>
        <time>2017-02-18T15:30:55Z</time>
      </trkpt>
      <trkpt lat="45.29258" lon="5.67597">
        <ele>876.15</ele>
        <time>2017-02-18T15:30:56Z</time>
      </trkpt>
      <trkpt lat="45.29258" lon="5.67597">
        <ele>876.15</ele>
        <time>2017-02-18T15:30:57Z</time>
      </trkpt>
      <trkpt lat="45.29258" lon="5.67597">
        <ele>876.15</ele>
        <time>2017-02-18T15:30:58Z</time>
      </trkpt>
      <trkpt lat="45.29258" lon="5.67597">
        <ele>876.15</ele>
        <time>2017-02-18T15:30:59Z</time>
      </trkpt>
      <trkpt lat="45.29258" lon="5.67597">
        <ele>876.15</ele>
        <time>2017-02-18T15:31:00Z</time>
      </trkpt>
      <trkpt lat="45.29261" lon="5.67609">
        <ele>876.39</ele>
        <time>2017-02-18T15:31:01Z</time>
      </trkpt>
      <trkpt lat="45.29261" lon="5.6761">
        <ele>876.44</ele>
        <time>2017-02-18T15:31:02Z</time>
      </trkpt>
      <trkpt lat="45.29262" lon="5.67611">
        <ele>876.45</ele>
        <time>2017-02-18T15:31:03Z</time>
      </trkpt>
      <trkpt lat="45.29262" lon="5.67611">
        <ele>876.45</ele>
        <time>2017-02-18T15:31:04Z</time>
      </trkpt>
      <trkpt lat="45.29262" lon="5.67611">
        <ele>876.45</ele>
        <time>2017-02-18T15:31:05Z</time>
      </trkpt>
      <trkpt lat="45.29262" lon="5.67611">
        <ele>876.45</ele>
        <time>2017-02-18T15:31:06Z</time>
      </trkpt>
      <trkpt lat="45.29262" lon="5.67611">
        <ele>876.45</ele>
        <time>2017-02-18T15:31:07Z</time>
      </trkpt>
      <trkpt lat="45.29262" lon="5.67611">
        <ele>876.45</ele>
        <time>2017-02-18T15:31:08Z</time>
      </trkpt>
      <trkpt lat="45.29262" lon="5.67611">
        <ele>876.45</ele>
        <time>2017-02-18T15:31:09Z</time>
      </trkpt>
      <trkpt lat="45.29262" lon="5.67611">
        <ele>876.45</ele>
        <time>2017-02-18T15:31:10Z</time>
      </trkpt>
      <trkpt lat="45.29262" lon="5.67611">
        <ele>876.45</ele>
        <time>2017-02-18T15:31:11Z</time>
      </trkpt>
      <trkpt lat="45.29262" lon="5.67611">
        <ele>876.45</ele>
        <time>2017-02-18T15:31:12Z</time>
      </trkpt>
      <trkpt lat="45.29262" lon="5.67611">
        <ele>876.45</ele>
        <time>2017-02-18T15:31:13Z</time>
      </trkpt>
      <trkpt lat="45.29262" lon="5.67611">
        <ele>876.45</ele>
        <time>2017-02-18T15:31:14Z</time>
      </trkpt>
      <trkpt lat="45.29262" lon="5.67611">
        <ele>876.45</ele>
        <time>2017-02-18T15:31:15Z</time>
      </trkpt>
      <trkpt lat="45.29262" lon="5.67611">
        <ele>876.45</ele>
        <time>2017-02-18T15:31:16Z</time>
      </trkpt>
      <trkpt lat="45.29262" lon="5.67611">
        <ele>876.45</ele>
        <time>2017-02-18T15:31:17Z</time>
      </trkpt>
      <trkpt lat="45.29262" lon="5.67611">
        <ele>876.45</ele>
        <time>2017-02-18T15:31:18Z</time>
      </trkpt>
      <trkpt lat="45.29262" lon="5.67611">
        <ele>876.45</ele>
        <time>2017-02-18T15:31:19Z</time>
      </trkpt>
      <trkpt lat="45.29262" lon="5.67611">
        <ele>876.45</ele>
        <time>2017-02-18T15:31:20Z</time>
      </trkpt>
      <trkpt lat="45.29262" lon="5.67611">
        <ele>876.45</ele>
        <time>2017-02-18T15:31:21Z</time>
      </trkpt>
      <trkpt lat="45.29262" lon="5.67611">
        <ele>876.45</ele>
        <time>2017-02-18T15:31:22Z</time>
      </trkpt>
      <trkpt lat="45.29262" lon="5.67611">
        <ele>876.45</ele>
        <time>2017-02-18T15:31:23Z</time>
      </trkpt>
      <trkpt lat="45.29262" lon="5.67611">
        <ele>876.45</ele>
        <time>2017-02-18T15:31:24Z</time>
      </trkpt>
      <trkpt lat="45.29262" lon="5.67611">
        <ele>876.45</ele>
        <time>2017-02-18T15:31:25Z</time>
      </trkpt>
      <trkpt lat="45.29262" lon="5.67611">
        <ele>876.45</ele>
        <time>2017-02-18T15:31:26Z</time>
      </trkpt>
      <trkpt lat="45.29259" lon="5.67627">
        <ele>876.61</ele>
        <time>2017-02-18T15:31:27Z</time>
      </trkpt>
      <trkpt lat="45.29259" lon="5.67628">
        <ele>876.64</ele>
        <time>2017-02-18T15:31:28Z</time>
      </trkpt>
      <trkpt lat="45.2926" lon="5.67629">
        <ele>876.65</ele>
        <time>2017-02-18T15:31:29Z</time>
      </trkpt>
      <trkpt lat="45.2926" lon="5.6763">
        <ele>876.65</ele>
        <time>2017-02-18T15:31:30Z</time>
      </trkpt>
      <trkpt lat="45.2926" lon="5.6763">
        <ele>876.65</ele>
        <time>2017-02-18T15:31:31Z</time>
      </trkpt>
      <trkpt lat="45.2926" lon="5.6763">
        <ele>876.65</ele>
        <time>2017-02-18T15:31:32Z</time>
      </trkpt>
      <trkpt lat="45.2926" lon="5.6763">
        <ele>876.65</ele>
        <time>2017-02-18T15:31:33Z</time>
      </trkpt>
      <trkpt lat="45.2926" lon="5.6763">
        <ele>876.65</ele>
        <time>2017-02-18T15:31:34Z</time>
      </trkpt>
      <trkpt lat="45.2926" lon="5.6763">
        <ele>876.65</ele>
        <time>2017-02-18T15:31:35Z</time>
      </trkpt>
      <trkpt lat="45.2926" lon="5.6763">
        <ele>876.65</ele>
        <time>2017-02-18T15:31:36Z</time>
      </trkpt>
      <trkpt lat="45.2926" lon="5.6763">
        <ele>876.65</ele>
        <time>2017-02-18T15:31:37Z</time>
      </trkpt>
      <trkpt lat="45.2926" lon="5.6763">
        <ele>876.65</ele>
        <time>2017-02-18T15:31:38Z</time>
      </trkpt>
      <trkpt lat="45.2926" lon="5.6763">
        <ele>876.65</ele>
        <time>2017-02-18T15:31:39Z</time>
      </trkpt>
      <trkpt lat="45.2926" lon="5.6763">
        <ele>876.65</ele>
        <time>2017-02-18T15:31:40Z</time>
      </trkpt>
      <trkpt lat="45.2926" lon="5.6763">
        <ele>876.65</ele>
        <time>2017-02-18T15:31:41Z</time>
      </trkpt>
      <trkpt lat="45.2926" lon="5.6763">
        <ele>876.65</ele>
        <time>2017-02-18T15:31:42Z</time>
      </trkpt>
      <trkpt lat="45.2926" lon="5.6763">
        <ele>876.65</ele>
        <time>2017-02-18T15:31:43Z</time>
      </trkpt>
      <trkpt lat="45.2926" lon="5.6763">
        <ele>876.65</ele>
        <time>2017-02-18T15:31:44Z</time>
      </trkpt>
      <trkpt lat="45.2926" lon="5.6763">
        <ele>876.65</ele>
        <time>2017-02-18T15:31:45Z</time>
      </trkpt>
      <trkpt lat="45.2926" lon="5.6763">
        <ele>876.65</ele>
        <time>2017-02-18T15:31:46Z</time>
      </trkpt>
      <trkpt lat="45.2926" lon="5.6763">
        <ele>876.65</ele>
        <time>2017-02-18T15:31:47Z</time>
      </trkpt>
      <trkpt lat="45.2926" lon="5.6763">
        <ele>876.65</ele>
        <time>2017-02-18T15:31:48Z</time>
      </trkpt>
      <trkpt lat="45.2926" lon="5.6763">
        <ele>876.65</ele>
        <time>2017-02-18T15:31:49Z</time>
      </trkpt>
      <trkpt lat="45.2926" lon="5.6763">
        <ele>876.65</ele>
        <time>2017-02-18T15:31:50Z</time>
      </trkpt>
      <trkpt lat="45.2926" lon="5.6763">
        <ele>876.65</ele>
        <time>2017-02-18T15:31:51Z</time>
      </trkpt>
      <trkpt lat="45.2926" lon="5.6763">
        <ele>876.65</ele>
        <time>2017-02-18T15:31:52Z</time>
      </trkpt>
      <trkpt lat="45.2926" lon="5.6763">
        <ele>876.65</ele>
        <time>2017-02-18T15:31:53Z</time>
      </trkpt>
      <trkpt lat="45.2926" lon="5.6763">
        <ele>876.65</ele>
        <time>2017-02-18T15:31:54Z</time>
      </trkpt>
      <trkpt lat="45.2926" lon="5.6763">
        <ele>876.65</ele>
        <time>2017-02-18T15:31:55Z</time>
      </trkpt>
      <trkpt lat="45.2926" lon="5.6763">
        <ele>876.65</ele>
        <time>2017-02-18T15:31:56Z</time>
      </trkpt>
      <trkpt lat="45.2926" lon="5.6763">
        <ele>876.65</ele>
        <time>2017-02-18T15:31:57Z</time>
      </trkpt>
      <trkpt lat="45.2926" lon="5.6763">
        <ele>876.65</ele>
        <time>2017-02-18T15:31:58Z</time>
      </trkpt>
      <trkpt lat="45.2926" lon="5.6763">
        <ele>876.65</ele>
        <time>2017-02-18T15:31:59Z</time>
      </trkpt>
      <trkpt lat="45.2926" lon="5.6763">
        <ele>876.65</ele>
        <time>2017-02-18T15:32:00Z</time>
      </trkpt>
      <trkpt lat="45.2926" lon="5.6763">
        <ele>876.65</ele>
        <time>2017-02-18T15:32:01Z</time>
      </trkpt>
      <trkpt lat="45.2926" lon="5.6763">
        <ele>876.65</ele>
        <time>2017-02-18T15:32:02Z</time>
      </trkpt>
      <trkpt lat="45.2926" lon="5.6763">
        <ele>876.65</ele>
        <time>2017-02-18T15:32:03Z</time>
      </trkpt>
      <trkpt lat="45.29259" lon="5.67626">
        <ele>876.73</ele>
        <time>2017-02-18T15:32:04Z</time>
      </trkpt>
      <trkpt lat="45.29259" lon="5.67626">
        <ele>876.74</ele>
        <time>2017-02-18T15:32:05Z</time>
      </trkpt>
      <trkpt lat="45.29259" lon="5.67625">
        <ele>876.75</ele>
        <time>2017-02-18T15:32:06Z</time>
      </trkpt>
      <trkpt lat="45.29259" lon="5.67625">
        <ele>876.75</ele>
        <time>2017-02-18T15:32:07Z</time>
      </trkpt>
      <trkpt lat="45.29259" lon="5.67625">
        <ele>876.75</ele>
        <time>2017-02-18T15:32:08Z</time>
      </trkpt>
      <trkpt lat="45.29259" lon="5.67624">
        <ele>876.75</ele>
        <time>2017-02-18T15:32:09Z</time>
      </trkpt>
      <trkpt lat="45.29259" lon="5.67624">
        <ele>876.75</ele>
        <time>2017-02-18T15:32:10Z</time>
      </trkpt>
      <trkpt lat="45.29259" lon="5.67623">
        <ele>876.75</ele>
        <time>2017-02-18T15:32:11Z</time>
      </trkpt>
      <trkpt lat="45.29259" lon="5.67623">
        <ele>876.75</ele>
        <time>2017-02-18T15:32:12Z</time>
      </trkpt>
      <trkpt lat="45.29259" lon="5.67623">
        <ele>876.75</ele>
        <time>2017-02-18T15:32:13Z</time>
      </trkpt>
      <trkpt lat="45.29259" lon="5.67623">
        <ele>876.75</ele>
        <time>2017-02-18T15:32:14Z</time>
      </trkpt>
      <trkpt lat="45.29259" lon="5.67623">
        <ele>876.75</ele>
        <time>2017-02-18T15:32:15Z</time>
      </trkpt>
      <trkpt lat="45.2926" lon="5.67623">
        <ele>876.75</ele>
        <time>2017-02-18T15:32:16Z</time>
      </trkpt>
      <trkpt lat="45.29261" lon="5.67624">
        <ele>876.75</ele>
        <time>2017-02-18T15:32:17Z</time>
      </trkpt>
      <trkpt lat="45.29261" lon="5.67624">
        <ele>876.75</ele>
        <time>2017-02-18T15:32:18Z</time>
      </trkpt>
      <trkpt lat="45.29261" lon="5.67624">
        <ele>876.75</ele>
        <time>2017-02-18T15:32:19Z</time>
      </trkpt>
      <trkpt lat="45.29261" lon="5.67624">
        <ele>876.75</ele>
        <time>2017-02-18T15:32:20Z</time>
      </trkpt>
      <trkpt lat="45.29261" lon="5.67624">
        <ele>876.75</ele>
        <time>2017-02-18T15:32:21Z</time>
      </trkpt>
      <trkpt lat="45.29261" lon="5.67624">
        <ele>876.75</ele>
        <time>2017-02-18T15:32:22Z</time>
      </trkpt>
      <trkpt lat="45.29261" lon="5.67624">
        <ele>876.75</ele>
        <time>2017-02-18T15:32:23Z</time>
      </trkpt>
      <trkpt lat="45.29261" lon="5.67624">
        <ele>876.75</ele>
        <time>2017-02-18T15:32:24Z</time>
      </trkpt>
      <trkpt lat="45.29261" lon="5.67624">
        <ele>876.75</ele>
        <time>2017-02-18T15:32:25Z</time>
      </trkpt>
      <trkpt lat="45.29261" lon="5.67624">
        <ele>876.75</ele>
        <time>2017-02-18T15:32:26Z</time>
      </trkpt>
      <trkpt lat="45.29261" lon="5.67624">
        <ele>876.75</ele>
        <time>2017-02-18T15:32:27Z</time>
      </trkpt>
      <trkpt lat="45.29261" lon="5.67624">
        <ele>876.75</ele>
        <time>2017-02-18T15:32:28Z</time>
      </trkpt>
      <trkpt lat="45.29261" lon="5.67624">
        <ele>876.75</ele>
        <time>2017-02-18T15:32:29Z</time>
      </trkpt>
      <trkpt lat="45.29261" lon="5.67624">
        <ele>876.75</ele>
        <time>2017-02-18T15:32:30Z</time>
      </trkpt>
      <trkpt lat="45.29261" lon="5.67624">
        <ele>876.75</ele>
        <time>2017-02-18T15:32:31Z</time>
      </trkpt>
      <trkpt lat="45.29261" lon="5.67624">
        <ele>876.75</ele>
        <time>2017-02-18T15:32:32Z</time>
      </trkpt>
      <trkpt lat="45.29261" lon="5.67624">
        <ele>876.75</ele>
        <time>2017-02-18T15:32:33Z</time>
      </trkpt>
      <trkpt lat="45.29261" lon="5.67624">
        <ele>876.75</ele>
        <time>2017-02-18T15:32:34Z</time>
      </trkpt>
      <trkpt lat="45.29261" lon="5.67624">
        <ele>876.75</ele>
        <time>2017-02-18T15:32:35Z</time>
      </trkpt>
      <trkpt lat="45.29259" lon="5.67631">
        <ele>876.75</ele>
        <time>2017-02-18T15:32:36Z</time>
      </trkpt>
      <trkpt lat="45.29259" lon="5.67631">
        <ele>876.75</ele>
        <time>2017-02-18T15:32:37Z</time>
      </trkpt>
      <trkpt lat="45.29257" lon="5.67632">
        <ele>876.75</ele>
        <time>2017-02-18T15:32:38Z</time>
      </trkpt>
      <trkpt lat="45.29256" lon="5.67633">
        <ele>876.75</ele>
        <time>2017-02-18T15:32:39Z</time>
      </trkpt>
      <trkpt lat="45.29254" lon="5.67634">
        <ele>876.75</ele>
        <time>2017-02-18T15:32:40Z</time>
      </trkpt>
      <trkpt lat="45.29254" lon="5.67634">
        <ele>876.75</ele>
        <time>2017-02-18T15:32:41Z</time>
      </trkpt>
      <trkpt lat="45.29254" lon="5.67634">
        <ele>876.75</ele>
        <time>2017-02-18T15:32:42Z</time>
      </trkpt>
      <trkpt lat="45.29254" lon="5.67634">
        <ele>876.75</ele>
        <time>2017-02-18T15:32:43Z</time>
      </trkpt>
      <trkpt lat="45.29254" lon="5.67634">
        <ele>876.75</ele>
        <time>2017-02-18T15:32:44Z</time>
      </trkpt>
      <trkpt lat="45.29254" lon="5.67634">
        <ele>876.75</ele>
        <time>2017-02-18T15:32:45Z</time>
      </trkpt>
      <trkpt lat="45.29254" lon="5.67634">
        <ele>876.75</ele>
        <time>2017-02-18T15:32:46Z</time>
      </trkpt>
      <trkpt lat="45.29254" lon="5.67634">
        <ele>876.75</ele>
        <time>2017-02-18T15:32:47Z</time>
      </trkpt>
      <trkpt lat="45.29254" lon="5.67634">
        <ele>876.75</ele>
        <time>2017-02-18T15:32:48Z</time>
      </trkpt>
      <trkpt lat="45.29254" lon="5.67634">
        <ele>876.75</ele>
        <time>2017-02-18T15:32:49Z</time>
      </trkpt>
      <trkpt lat="45.29254" lon="5.67634">
        <ele>876.75</ele>
        <time>2017-02-18T15:32:50Z</time>
      </trkpt>
      <trkpt lat="45.29254" lon="5.67634">
        <ele>876.75</ele>
        <time>2017-02-18T15:32:51Z</time>
      </trkpt>
      <trkpt lat="45.29254" lon="5.67634">
        <ele>876.75</ele>
        <time>2017-02-18T15:32:52Z</time>
      </trkpt>
      <trkpt lat="45.29254" lon="5.67634">
        <ele>876.75</ele>
        <time>2017-02-18T15:32:53Z</time>
      </trkpt>
      <trkpt lat="45.29254" lon="5.67634">
        <ele>876.75</ele>
        <time>2017-02-18T15:32:54Z</time>
      </trkpt>
      <trkpt lat="45.29254" lon="5.67634">
        <ele>876.75</ele>
        <time>2017-02-18T15:32:55Z</time>
      </trkpt>
      <trkpt lat="45.29254" lon="5.67634">
        <ele>876.75</ele>
        <time>2017-02-18T15:32:57Z</time>
      </trkpt>
      <trkpt lat="45.29254" lon="5.67634">
        <ele>876.75</ele>
        <time>2017-02-18T15:32:58Z</time>
      </trkpt>
      <trkpt lat="45.29254" lon="5.67634">
        <ele>876.75</ele>
        <time>2017-02-18T15:32:59Z</time>
      </trkpt>
      <trkpt lat="45.29254" lon="5.67634">
        <ele>876.75</ele>
        <time>2017-02-18T15:33:00Z</time>
      </trkpt>
      <trkpt lat="45.29254" lon="5.67634">
        <ele>876.75</ele>
        <time>2017-02-18T15:33:01Z</time>
      </trkpt>
      <trkpt lat="45.29254" lon="5.67634">
        <ele>876.75</ele>
        <time>2017-02-18T15:33:02Z</time>
      </trkpt>
      <trkpt lat="45.29254" lon="5.67634">
        <ele>876.75</ele>
        <time>2017-02-18T15:33:03Z</time>
      </trkpt>
      <trkpt lat="45.29265" lon="5.67631">
        <ele>876.83</ele>
        <time>2017-02-18T15:33:04Z</time>
      </trkpt>
      <trkpt lat="45.29267" lon="5.67629">
        <ele>876.84</ele>
        <time>2017-02-18T15:33:05Z</time>
      </trkpt>
      <trkpt lat="45.29266" lon="5.67627">
        <ele>876.85</ele>
        <time>2017-02-18T15:33:06Z</time>
      </trkpt>
      <trkpt lat="45.29268" lon="5.67625">
        <ele>876.85</ele>
        <time>2017-02-18T15:33:07Z</time>
      </trkpt>
      <trkpt lat="45.29268" lon="5.67625">
        <ele>876.85</ele>
        <time>2017-02-18T15:33:08Z</time>
      </trkpt>
      <trkpt lat="45.29268" lon="5.67625">
        <ele>876.85</ele>
        <time>2017-02-18T15:33:09Z</time>
      </trkpt>
      <trkpt lat="45.29268" lon="5.67625">
        <ele>876.85</ele>
        <time>2017-02-18T15:33:10Z</time>
      </trkpt>
      <trkpt lat="45.29268" lon="5.67625">
        <ele>876.85</ele>
        <time>2017-02-18T15:33:11Z</time>
      </trkpt>
      <trkpt lat="45.29268" lon="5.67625">
        <ele>876.85</ele>
        <time>2017-02-18T15:33:12Z</time>
      </trkpt>
      <trkpt lat="45.29268" lon="5.67625">
        <ele>876.85</ele>
        <time>2017-02-18T15:33:13Z</time>
      </trkpt>
      <trkpt lat="45.29268" lon="5.67625">
        <ele>876.85</ele>
        <time>2017-02-18T15:33:14Z</time>
      </trkpt>
      <trkpt lat="45.29268" lon="5.67625">
        <ele>876.85</ele>
        <time>2017-02-18T15:33:15Z</time>
      </trkpt>
      <trkpt lat="45.29268" lon="5.67625">
        <ele>876.85</ele>
        <time>2017-02-18T15:33:16Z</time>
      </trkpt>
      <trkpt lat="45.29268" lon="5.67625">
        <ele>876.85</ele>
        <time>2017-02-18T15:33:17Z</time>
      </trkpt>
      <trkpt lat="45.29268" lon="5.67625">
        <ele>876.85</ele>
        <time>2017-02-18T15:33:18Z</time>
      </trkpt>
      <trkpt lat="45.29268" lon="5.67625">
        <ele>876.85</ele>
        <time>2017-02-18T15:33:19Z</time>
      </trkpt>
      <trkpt lat="45.29268" lon="5.67625">
        <ele>876.85</ele>
        <time>2017-02-18T15:33:20Z</time>
      </trkpt>
      <trkpt lat="45.29268" lon="5.67625">
        <ele>876.85</ele>
        <time>2017-02-18T15:33:21Z</time>
      </trkpt>
      <trkpt lat="45.29268" lon="5.67625">
        <ele>876.85</ele>
        <time>2017-02-18T15:33:22Z</time>
      </trkpt>
      <trkpt lat="45.29268" lon="5.67625">
        <ele>876.85</ele>
        <time>2017-02-18T15:33:23Z</time>
      </trkpt>
      <trkpt lat="45.29268" lon="5.67625">
        <ele>876.85</ele>
        <time>2017-02-18T15:33:24Z</time>
      </trkpt>
      <trkpt lat="45.29268" lon="5.67625">
        <ele>876.85</ele>
        <time>2017-02-18T15:33:25Z</time>
      </trkpt>
      <trkpt lat="45.29268" lon="5.67625">
        <ele>876.85</ele>
        <time>2017-02-18T15:33:26Z</time>
      </trkpt>
      <trkpt lat="45.29268" lon="5.67625">
        <ele>876.85</ele>
        <time>2017-02-18T15:33:27Z</time>
      </trkpt>
      <trkpt lat="45.29268" lon="5.67625">
        <ele>876.85</ele>
        <time>2017-02-18T15:33:28Z</time>
      </trkpt>
      <trkpt lat="45.29268" lon="5.67625">
        <ele>876.85</ele>
        <time>2017-02-18T15:33:29Z</time>
      </trkpt>
      <trkpt lat="45.29268" lon="5.67625">
        <ele>876.85</ele>
        <time>2017-02-18T15:33:30Z</time>
      </trkpt>
      <trkpt lat="45.29268" lon="5.67625">
        <ele>876.85</ele>
        <time>2017-02-18T15:33:31Z</time>
      </trkpt>
      <trkpt lat="45.29268" lon="5.67625">
        <ele>876.85</ele>
        <time>2017-02-18T15:33:32Z</time>
      </trkpt>
      <trkpt lat="45.29268" lon="5.67625">
        <ele>876.85</ele>
        <time>2017-02-18T15:33:33Z</time>
      </trkpt>
      <trkpt lat="45.29268" lon="5.67625">
        <ele>876.85</ele>
        <time>2017-02-18T15:33:34Z</time>
      </trkpt>
      <trkpt lat="45.29268" lon="5.67625">
        <ele>876.85</ele>
        <time>2017-02-18T15:33:35Z</time>
      </trkpt>
      <trkpt lat="45.29268" lon="5.67625">
        <ele>876.85</ele>
        <time>2017-02-18T15:33:36Z</time>
      </trkpt>
      <trkpt lat="45.29268" lon="5.67625">
        <ele>876.85</ele>
        <time>2017-02-18T15:33:37Z</time>
      </trkpt>
      <trkpt lat="45.29268" lon="5.67625">
        <ele>876.85</ele>
        <time>2017-02-18T15:33:38Z</time>
      </trkpt>
      <trkpt lat="45.29268" lon="5.67625">
        <ele>876.85</ele>
        <time>2017-02-18T15:33:39Z</time>
      </trkpt>
      <trkpt lat="45.29268" lon="5.67625">
        <ele>876.85</ele>
        <time>2017-02-18T15:33:40Z</time>
      </trkpt>
      <trkpt lat="45.29268" lon="5.67625">
        <ele>876.85</ele>
        <time>2017-02-18T15:33:41Z</time>
      </trkpt>
      <trkpt lat="45.29268" lon="5.67625">
        <ele>876.85</ele>
        <time>2017-02-18T15:33:42Z</time>
      </trkpt>
      <trkpt lat="45.29268" lon="5.67625">
        <ele>876.85</ele>
        <time>2017-02-18T15:33:43Z</time>
      </trkpt>
      <trkpt lat="45.29268" lon="5.67625">
        <ele>876.85</ele>
        <time>2017-02-18T15:33:44Z</time>
      </trkpt>
      <trkpt lat="45.29268" lon="5.67625">
        <ele>876.85</ele>
        <time>2017-02-18T15:33:45Z</time>
      </trkpt>
      <trkpt lat="45.29268" lon="5.67625">
        <ele>876.85</ele>
        <time>2017-02-18T15:33:46Z</time>
      </trkpt>
      <trkpt lat="45.29268" lon="5.67625">
        <ele>876.85</ele>
        <time>2017-02-18T15:33:47Z</time>
      </trkpt>
      <trkpt lat="45.29268" lon="5.67625">
        <ele>876.85</ele>
        <time>2017-02-18T15:33:48Z</time>
      </trkpt>
      <trkpt lat="45.29268" lon="5.67625">
        <ele>876.85</ele>
        <time>2017-02-18T15:33:49Z</time>
      </trkpt>
      <trkpt lat="45.29268" lon="5.67625">
        <ele>876.85</ele>
        <time>2017-02-18T15:33:50Z</time>
      </trkpt>
      <trkpt lat="45.29268" lon="5.67625">
        <ele>876.85</ele>
        <time>2017-02-18T15:33:51Z</time>
      </trkpt>
      <trkpt lat="45.29268" lon="5.67625">
        <ele>876.85</ele>
        <time>2017-02-18T15:33:52Z</time>
      </trkpt>
      <trkpt lat="45.29268" lon="5.67625">
        <ele>876.85</ele>
        <time>2017-02-18T15:33:53Z</time>
      </trkpt>
      <trkpt lat="45.29268" lon="5.67625">
        <ele>876.85</ele>
        <time>2017-02-18T15:33:54Z</time>
      </trkpt>
      <trkpt lat="45.29268" lon="5.67625">
        <ele>876.85</ele>
        <time>2017-02-18T15:33:55Z</time>
      </trkpt>
      <trkpt lat="45.29268" lon="5.67625">
        <ele>876.85</ele>
        <time>2017-02-18T15:33:56Z</time>
      </trkpt>
      <trkpt lat="45.29268" lon="5.67625">
        <ele>876.85</ele>
        <time>2017-02-18T15:33:57Z</time>
      </trkpt>
      <trkpt lat="45.29268" lon="5.67625">
        <ele>876.85</ele>
        <time>2017-02-18T15:33:58Z</time>
      </trkpt>
      <trkpt lat="45.29268" lon="5.67625">
        <ele>876.85</ele>
        <time>2017-02-18T15:33:59Z</time>
      </trkpt>
      <trkpt lat="45.29268" lon="5.67625">
        <ele>876.85</ele>
        <time>2017-02-18T15:34:00Z</time>
      </trkpt>
      <trkpt lat="45.29268" lon="5.67625">
        <ele>876.85</ele>
        <time>2017-02-18T15:34:01Z</time>
      </trkpt>
      <trkpt lat="45.29268" lon="5.67625">
        <ele>876.85</ele>
        <time>2017-02-18T15:34:02Z</time>
      </trkpt>
      <trkpt lat="45.29268" lon="5.67625">
        <ele>876.85</ele>
        <time>2017-02-18T15:34:03Z</time>
      </trkpt>
      <trkpt lat="45.29268" lon="5.67625">
        <ele>876.85</ele>
        <time>2017-02-18T15:34:04Z</time>
      </trkpt>
      <trkpt lat="45.29268" lon="5.67625">
        <ele>876.85</ele>
        <time>2017-02-18T15:34:05Z</time>
      </trkpt>
      <trkpt lat="45.29268" lon="5.67625">
        <ele>876.85</ele>
        <time>2017-02-18T15:34:06Z</time>
      </trkpt>
      <trkpt lat="45.29268" lon="5.67625">
        <ele>876.85</ele>
        <time>2017-02-18T15:34:07Z</time>
      </trkpt>
      <trkpt lat="45.29268" lon="5.67625">
        <ele>876.85</ele>
        <time>2017-02-18T15:34:08Z</time>
      </trkpt>
      <trkpt lat="45.29268" lon="5.67625">
        <ele>876.85</ele>
        <time>2017-02-18T15:34:09Z</time>
      </trkpt>
      <trkpt lat="45.29268" lon="5.67625">
        <ele>876.85</ele>
        <time>2017-02-18T15:34:10Z</time>
      </trkpt>
      <trkpt lat="45.29268" lon="5.67625">
        <ele>876.85</ele>
        <time>2017-02-18T15:34:11Z</time>
      </trkpt>
      <trkpt lat="45.29268" lon="5.67625">
        <ele>876.85</ele>
        <time>2017-02-18T15:34:12Z</time>
      </trkpt>
      <trkpt lat="45.29268" lon="5.67625">
        <ele>876.85</ele>
        <time>2017-02-18T15:34:13Z</time>
      </trkpt>
      <trkpt lat="45.29268" lon="5.67625">
        <ele>876.85</ele>
        <time>2017-02-18T15:34:14Z</time>
      </trkpt>
      <trkpt lat="45.29268" lon="5.67625">
        <ele>876.85</ele>
        <time>2017-02-18T15:34:15Z</time>
      </trkpt>
      <trkpt lat="45.29268" lon="5.67625">
        <ele>876.85</ele>
        <time>2017-02-18T15:34:16Z</time>
      </trkpt>
      <trkpt lat="45.29268" lon="5.67625">
        <ele>876.85</ele>
        <time>2017-02-18T15:34:17Z</time>
      </trkpt>
      <trkpt lat="45.29268" lon="5.67625">
        <ele>876.85</ele>
        <time>2017-02-18T15:34:18Z</time>
      </trkpt>
      <trkpt lat="45.29268" lon="5.67625">
        <ele>876.85</ele>
        <time>2017-02-18T15:34:19Z</time>
      </trkpt>
      <trkpt lat="45.29268" lon="5.67625">
        <ele>876.85</ele>
        <time>2017-02-18T15:34:20Z</time>
      </trkpt>
      <trkpt lat="45.29268" lon="5.67625">
        <ele>876.85</ele>
        <time>2017-02-18T15:34:21Z</time>
      </trkpt>
      <trkpt lat="45.29268" lon="5.67625">
        <ele>876.85</ele>
        <time>2017-02-18T15:34:22Z</time>
      </trkpt>
      <trkpt lat="45.29268" lon="5.67625">
        <ele>876.85</ele>
        <time>2017-02-18T15:34:23Z</time>
      </trkpt>
      <trkpt lat="45.29268" lon="5.67625">
        <ele>876.85</ele>
        <time>2017-02-18T15:34:24Z</time>
      </trkpt>
      <trkpt lat="45.29268" lon="5.67625">
        <ele>876.85</ele>
        <time>2017-02-18T15:34:25Z</time>
      </trkpt>
      <trkpt lat="45.29268" lon="5.67625">
        <ele>876.85</ele>
        <time>2017-02-18T15:34:26Z</time>
      </trkpt>
      <trkpt lat="45.29268" lon="5.67625">
        <ele>876.85</ele>
        <time>2017-02-18T15:34:27Z</time>
      </trkpt>
      <trkpt lat="45.29268" lon="5.67625">
        <ele>876.85</ele>
        <time>2017-02-18T15:34:28Z</time>
      </trkpt>
      <trkpt lat="45.29268" lon="5.67625">
        <ele>876.85</ele>
        <time>2017-02-18T15:34:29Z</time>
      </trkpt>
      <trkpt lat="45.29268" lon="5.67625">
        <ele>876.85</ele>
        <time>2017-02-18T15:34:30Z</time>
      </trkpt>
      <trkpt lat="45.29268" lon="5.67625">
        <ele>876.85</ele>
        <time>2017-02-18T15:34:31Z</time>
      </trkpt>
      <trkpt lat="45.29268" lon="5.67625">
        <ele>876.85</ele>
        <time>2017-02-18T15:34:32Z</time>
      </trkpt>
      <trkpt lat="45.29268" lon="5.67625">
        <ele>876.85</ele>
        <time>2017-02-18T15:34:33Z</time>
      </trkpt>
      <trkpt lat="45.29268" lon="5.67625">
        <ele>876.85</ele>
        <time>2017-02-18T15:34:34Z</time>
      </trkpt>
      <trkpt lat="45.29268" lon="5.67625">
        <ele>876.85</ele>
        <time>2017-02-18T15:34:35Z</time>
      </trkpt>
      <trkpt lat="45.29268" lon="5.67625">
        <ele>876.85</ele>
        <time>2017-02-18T15:34:36Z</time>
      </trkpt>
      <trkpt lat="45.29268" lon="5.67625">
        <ele>876.85</ele>
        <time>2017-02-18T15:34:37Z</time>
      </trkpt>
      <trkpt lat="45.29268" lon="5.67625">
        <ele>876.85</ele>
        <time>2017-02-18T15:34:38Z</time>
      </trkpt>
      <trkpt lat="45.29268" lon="5.67625">
        <ele>876.85</ele>
        <time>2017-02-18T15:34:39Z</time>
      </trkpt>
      <trkpt lat="45.29268" lon="5.67625">
        <ele>876.85</ele>
        <time>2017-02-18T15:34:40Z</time>
      </trkpt>
      <trkpt lat="45.29268" lon="5.67625">
        <ele>876.85</ele>
        <time>2017-02-18T15:34:41Z</time>
      </trkpt>
      <trkpt lat="45.29275" lon="5.67634">
        <ele>876.77</ele>
        <time>2017-02-18T15:34:42Z</time>
      </trkpt>
      <trkpt lat="45.29275" lon="5.67636">
        <ele>876.75</ele>
        <time>2017-02-18T15:34:43Z</time>
      </trkpt>
      <trkpt lat="45.29275" lon="5.67636">
        <ele>876.75</ele>
        <time>2017-02-18T15:34:44Z</time>
      </trkpt>
      <trkpt lat="45.29276" lon="5.67636">
        <ele>876.75</ele>
        <time>2017-02-18T15:34:45Z</time>
      </trkpt>
      <trkpt lat="45.29276" lon="5.67636">
        <ele>876.75</ele>
        <time>2017-02-18T15:34:46Z</time>
      </trkpt>
      <trkpt lat="45.29276" lon="5.67636">
        <ele>876.75</ele>
        <time>2017-02-18T15:34:47Z</time>
      </trkpt>
      <trkpt lat="45.29276" lon="5.67636">
        <ele>876.75</ele>
        <time>2017-02-18T15:34:48Z</time>
      </trkpt>
      <trkpt lat="45.29276" lon="5.67636">
        <ele>876.75</ele>
        <time>2017-02-18T15:34:49Z</time>
      </trkpt>
      <trkpt lat="45.29276" lon="5.67636">
        <ele>876.75</ele>
        <time>2017-02-18T15:34:50Z</time>
      </trkpt>
      <trkpt lat="45.29276" lon="5.67636">
        <ele>876.75</ele>
        <time>2017-02-18T15:34:51Z</time>
      </trkpt>
      <trkpt lat="45.29276" lon="5.67636">
        <ele>876.75</ele>
        <time>2017-02-18T15:34:52Z</time>
      </trkpt>
      <trkpt lat="45.29276" lon="5.67636">
        <ele>876.75</ele>
        <time>2017-02-18T15:34:53Z</time>
      </trkpt>
      <trkpt lat="45.29276" lon="5.67636">
        <ele>876.75</ele>
        <time>2017-02-18T15:34:54Z</time>
      </trkpt>
      <trkpt lat="45.29276" lon="5.67636">
        <ele>876.75</ele>
        <time>2017-02-18T15:34:55Z</time>
      </trkpt>
      <trkpt lat="45.29266" lon="5.67632">
        <ele>876.83</ele>
        <time>2017-02-18T15:34:56Z</time>
      </trkpt>
      <trkpt lat="45.29266" lon="5.67631">
        <ele>876.84</ele>
        <time>2017-02-18T15:34:57Z</time>
      </trkpt>
      <trkpt lat="45.29265" lon="5.6763">
        <ele>876.77</ele>
        <time>2017-02-18T15:34:58Z</time>
      </trkpt>
      <trkpt lat="45.29264" lon="5.67629">
        <ele>876.75</ele>
        <time>2017-02-18T15:34:59Z</time>
      </trkpt>
      <trkpt lat="45.29264" lon="5.67629">
        <ele>876.75</ele>
        <time>2017-02-18T15:35:00Z</time>
      </trkpt>
      <trkpt lat="45.29264" lon="5.67629">
        <ele>876.75</ele>
        <time>2017-02-18T15:35:01Z</time>
      </trkpt>
      <trkpt lat="45.29264" lon="5.67629">
        <ele>876.75</ele>
        <time>2017-02-18T15:35:02Z</time>
      </trkpt>
      <trkpt lat="45.29264" lon="5.67629">
        <ele>876.75</ele>
        <time>2017-02-18T15:35:03Z</time>
      </trkpt>
      <trkpt lat="45.29264" lon="5.67629">
        <ele>876.75</ele>
        <time>2017-02-18T15:35:04Z</time>
      </trkpt>
      <trkpt lat="45.29264" lon="5.67629">
        <ele>876.75</ele>
        <time>2017-02-18T15:35:05Z</time>
      </trkpt>
      <trkpt lat="45.29264" lon="5.67629">
        <ele>876.75</ele>
        <time>2017-02-18T15:35:06Z</time>
      </trkpt>
      <trkpt lat="45.29264" lon="5.67629">
        <ele>876.75</ele>
        <time>2017-02-18T15:35:07Z</time>
      </trkpt>
      <trkpt lat="45.29258" lon="5.67619">
        <ele>876.51</ele>
        <time>2017-02-18T15:35:08Z</time>
      </trkpt>
      <trkpt lat="45.29258" lon="5.67618">
        <ele>876.38</ele>
        <time>2017-02-18T15:35:09Z</time>
      </trkpt>
      <trkpt lat="45.29258" lon="5.67618">
        <ele>876.36</ele>
        <time>2017-02-18T15:35:10Z</time>
      </trkpt>
      <trkpt lat="45.29258" lon="5.67615">
        <ele>876.43</ele>
        <time>2017-02-18T15:35:11Z</time>
      </trkpt>
      <trkpt lat="45.29258" lon="5.67615">
        <ele>876.45</ele>
        <time>2017-02-18T15:35:12Z</time>
      </trkpt>
      <trkpt lat="45.29258" lon="5.67615">
        <ele>876.45</ele>
        <time>2017-02-18T15:35:13Z</time>
      </trkpt>
      <trkpt lat="45.29258" lon="5.67615">
        <ele>876.45</ele>
        <time>2017-02-18T15:35:14Z</time>
      </trkpt>
      <trkpt lat="45.29258" lon="5.67615">
        <ele>876.45</ele>
        <time>2017-02-18T15:35:15Z</time>
      </trkpt>
      <trkpt lat="45.29258" lon="5.67615">
        <ele>876.45</ele>
        <time>2017-02-18T15:35:16Z</time>
      </trkpt>
      <trkpt lat="45.29258" lon="5.67615">
        <ele>876.45</ele>
        <time>2017-02-18T15:35:17Z</time>
      </trkpt>
      <trkpt lat="45.29258" lon="5.67615">
        <ele>876.45</ele>
        <time>2017-02-18T15:35:18Z</time>
      </trkpt>
      <trkpt lat="45.29258" lon="5.67615">
        <ele>876.45</ele>
        <time>2017-02-18T15:35:19Z</time>
      </trkpt>
      <trkpt lat="45.29258" lon="5.67615">
        <ele>876.45</ele>
        <time>2017-02-18T15:35:20Z</time>
      </trkpt>
      <trkpt lat="45.29258" lon="5.67615">
        <ele>876.45</ele>
        <time>2017-02-18T15:35:21Z</time>
      </trkpt>
      <trkpt lat="45.29256" lon="5.67602">
        <ele>877.33</ele>
        <time>2017-02-18T15:35:22Z</time>
      </trkpt>
      <trkpt lat="45.29256" lon="5.676">
        <ele>877.51</ele>
        <time>2017-02-18T15:35:23Z</time>
      </trkpt>
      <trkpt lat="45.29256" lon="5.67598">
        <ele>877.7</ele>
        <time>2017-02-18T15:35:24Z</time>
      </trkpt>
      <trkpt lat="45.29255" lon="5.67596">
        <ele>877.82</ele>
        <time>2017-02-18T15:35:25Z</time>
      </trkpt>
      <trkpt lat="45.29255" lon="5.67594">
        <ele>877.84</ele>
        <time>2017-02-18T15:35:26Z</time>
      </trkpt>
      <trkpt lat="45.29255" lon="5.67591">
        <ele>878.33</ele>
        <time>2017-02-18T15:35:27Z</time>
      </trkpt>
      <trkpt lat="45.29254" lon="5.67588">
        <ele>878.74</ele>
        <time>2017-02-18T15:35:28Z</time>
      </trkpt>
      <trkpt lat="45.29254" lon="5.67586">
        <ele>878.91</ele>
        <time>2017-02-18T15:35:29Z</time>
      </trkpt>
      <trkpt lat="45.29255" lon="5.67584">
        <ele>879.18</ele>
        <time>2017-02-18T15:35:30Z</time>
      </trkpt>
      <trkpt lat="45.29255" lon="5.67582">
        <ele>879.4</ele>
        <time>2017-02-18T15:35:31Z</time>
      </trkpt>
      <trkpt lat="45.29255" lon="5.6758">
        <ele>879.44</ele>
        <time>2017-02-18T15:35:32Z</time>
      </trkpt>
      <trkpt lat="45.29255" lon="5.67579">
        <ele>879.37</ele>
        <time>2017-02-18T15:35:33Z</time>
      </trkpt>
      <trkpt lat="45.29254" lon="5.67577">
        <ele>879.35</ele>
        <time>2017-02-18T15:35:34Z</time>
      </trkpt>
      <trkpt lat="45.29254" lon="5.67576">
        <ele>879.43</ele>
        <time>2017-02-18T15:35:35Z</time>
      </trkpt>
      <trkpt lat="45.29254" lon="5.67574">
        <ele>879.45</ele>
        <time>2017-02-18T15:35:36Z</time>
      </trkpt>
      <trkpt lat="45.29254" lon="5.67573">
        <ele>879.45</ele>
        <time>2017-02-18T15:35:37Z</time>
      </trkpt>
      <trkpt lat="45.29255" lon="5.67571">
        <ele>879.37</ele>
        <time>2017-02-18T15:35:38Z</time>
      </trkpt>
      <trkpt lat="45.29256" lon="5.6757">
        <ele>879.27</ele>
        <time>2017-02-18T15:35:39Z</time>
      </trkpt>
      <trkpt lat="45.29256" lon="5.67568">
        <ele>879.09</ele>
        <time>2017-02-18T15:35:40Z</time>
      </trkpt>
      <trkpt lat="45.29257" lon="5.67567">
        <ele>878.82</ele>
        <time>2017-02-18T15:35:41Z</time>
      </trkpt>
      <trkpt lat="45.29258" lon="5.67566">
        <ele>878.52</ele>
        <time>2017-02-18T15:35:42Z</time>
      </trkpt>
      <trkpt lat="45.29258" lon="5.67565">
        <ele>878.22</ele>
        <time>2017-02-18T15:35:43Z</time>
      </trkpt>
      <trkpt lat="45.29259" lon="5.67564">
        <ele>877.68</ele>
        <time>2017-02-18T15:35:44Z</time>
      </trkpt>
      <trkpt lat="45.29259" lon="5.67564">
        <ele>877.42</ele>
        <time>2017-02-18T15:35:45Z</time>
      </trkpt>
      <trkpt lat="45.29259" lon="5.67564">
        <ele>877.36</ele>
        <time>2017-02-18T15:35:46Z</time>
      </trkpt>
      <trkpt lat="45.29259" lon="5.67564">
        <ele>877.35</ele>
        <time>2017-02-18T15:35:47Z</time>
      </trkpt>
      <trkpt lat="45.29259" lon="5.67564">
        <ele>877.35</ele>
        <time>2017-02-18T15:35:48Z</time>
      </trkpt>
      <trkpt lat="45.29259" lon="5.67564">
        <ele>877.35</ele>
        <time>2017-02-18T15:35:49Z</time>
      </trkpt>
      <trkpt lat="45.29259" lon="5.67564">
        <ele>877.35</ele>
        <time>2017-02-18T15:35:50Z</time>
      </trkpt>
      <trkpt lat="45.29259" lon="5.67564">
        <ele>877.35</ele>
        <time>2017-02-18T15:35:51Z</time>
      </trkpt>
      <trkpt lat="45.29259" lon="5.67564">
        <ele>877.35</ele>
        <time>2017-02-18T15:35:52Z</time>
      </trkpt>
      <trkpt lat="45.29263" lon="5.67558">
        <ele>876.39</ele>
        <time>2017-02-18T15:35:53Z</time>
      </trkpt>
      <trkpt lat="45.29264" lon="5.67557">
        <ele>876.2</ele>
        <time>2017-02-18T15:35:54Z</time>
      </trkpt>
      <trkpt lat="45.29265" lon="5.67556">
        <ele>876.08</ele>
        <time>2017-02-18T15:35:55Z</time>
      </trkpt>
      <trkpt lat="45.29266" lon="5.67556">
        <ele>875.97</ele>
        <time>2017-02-18T15:35:56Z</time>
      </trkpt>
      <trkpt lat="45.29267" lon="5.67556">
        <ele>875.79</ele>
        <time>2017-02-18T15:35:57Z</time>
      </trkpt>
      <trkpt lat="45.29268" lon="5.67557">
        <ele>875.68</ele>
        <time>2017-02-18T15:35:58Z</time>
      </trkpt>
      <trkpt lat="45.29269" lon="5.67558">
        <ele>875.57</ele>
        <time>2017-02-18T15:35:59Z</time>
      </trkpt>
      <trkpt lat="45.29269" lon="5.67559">
        <ele>875.47</ele>
        <time>2017-02-18T15:36:00Z</time>
      </trkpt>
      <trkpt lat="45.29269" lon="5.6756">
        <ele>875.37</ele>
        <time>2017-02-18T15:36:01Z</time>
      </trkpt>
      <trkpt lat="45.2927" lon="5.6756">
        <ele>875.27</ele>
        <time>2017-02-18T15:36:02Z</time>
      </trkpt>
      <trkpt lat="45.2927" lon="5.6756">
        <ele>875.25</ele>
        <time>2017-02-18T15:36:03Z</time>
      </trkpt>
      <trkpt lat="45.2927" lon="5.6756">
        <ele>875.25</ele>
        <time>2017-02-18T15:36:04Z</time>
      </trkpt>
      <trkpt lat="45.2927" lon="5.6756">
        <ele>875.25</ele>
        <time>2017-02-18T15:36:05Z</time>
      </trkpt>
      <trkpt lat="45.2927" lon="5.6756">
        <ele>875.25</ele>
        <time>2017-02-18T15:36:06Z</time>
      </trkpt>
      <trkpt lat="45.2927" lon="5.6756">
        <ele>875.25</ele>
        <time>2017-02-18T15:36:07Z</time>
      </trkpt>
      <trkpt lat="45.2927" lon="5.6756">
        <ele>875.25</ele>
        <time>2017-02-18T15:36:08Z</time>
      </trkpt>
      <trkpt lat="45.2927" lon="5.6756">
        <ele>875.25</ele>
        <time>2017-02-18T15:36:09Z</time>
      </trkpt>
      <trkpt lat="45.2927" lon="5.6756">
        <ele>875.25</ele>
        <time>2017-02-18T15:36:10Z</time>
      </trkpt>
      <trkpt lat="45.2927" lon="5.6756">
        <ele>875.25</ele>
        <time>2017-02-18T15:36:11Z</time>
      </trkpt>
      <trkpt lat="45.2927" lon="5.6756">
        <ele>875.25</ele>
        <time>2017-02-18T15:36:12Z</time>
      </trkpt>
      <trkpt lat="45.2927" lon="5.6756">
        <ele>875.25</ele>
        <time>2017-02-18T15:36:13Z</time>
      </trkpt>
      <trkpt lat="45.2927" lon="5.6756">
        <ele>875.25</ele>
        <time>2017-02-18T15:36:14Z</time>
      </trkpt>
      <trkpt lat="45.2927" lon="5.6756">
        <ele>875.25</ele>
        <time>2017-02-18T15:36:15Z</time>
      </trkpt>
      <trkpt lat="45.2927" lon="5.6756">
        <ele>875.25</ele>
        <time>2017-02-18T15:36:16Z</time>
      </trkpt>
      <trkpt lat="45.2927" lon="5.6756">
        <ele>875.25</ele>
        <time>2017-02-18T15:36:17Z</time>
      </trkpt>
      <trkpt lat="45.2927" lon="5.6756">
        <ele>875.25</ele>
        <time>2017-02-18T15:36:18Z</time>
      </trkpt>
      <trkpt lat="45.2927" lon="5.6756">
        <ele>875.25</ele>
        <time>2017-02-18T15:36:19Z</time>
      </trkpt>
      <trkpt lat="45.2927" lon="5.6756">
        <ele>875.25</ele>
        <time>2017-02-18T15:36:20Z</time>
      </trkpt>
      <trkpt lat="45.2927" lon="5.6756">
        <ele>875.25</ele>
        <time>2017-02-18T15:36:21Z</time>
      </trkpt>
      <trkpt lat="45.2927" lon="5.6756">
        <ele>875.25</ele>
        <time>2017-02-18T15:36:22Z</time>
      </trkpt>
      <trkpt lat="45.2927" lon="5.6756">
        <ele>875.25</ele>
        <time>2017-02-18T15:36:23Z</time>
      </trkpt>
      <trkpt lat="45.2927" lon="5.6756">
        <ele>875.25</ele>
        <time>2017-02-18T15:36:24Z</time>
      </trkpt>
      <trkpt lat="45.2927" lon="5.6756">
        <ele>875.25</ele>
        <time>2017-02-18T15:36:25Z</time>
      </trkpt>
      <trkpt lat="45.2927" lon="5.6756">
        <ele>875.25</ele>
        <time>2017-02-18T15:36:26Z</time>
      </trkpt>
      <trkpt lat="45.2927" lon="5.6756">
        <ele>875.25</ele>
        <time>2017-02-18T15:36:27Z</time>
      </trkpt>
      <trkpt lat="45.2927" lon="5.6756">
        <ele>875.25</ele>
        <time>2017-02-18T15:36:28Z</time>
      </trkpt>
      <trkpt lat="45.2927" lon="5.6756">
        <ele>875.25</ele>
        <time>2017-02-18T15:36:29Z</time>
      </trkpt>
      <trkpt lat="45.2927" lon="5.6756">
        <ele>875.25</ele>
        <time>2017-02-18T15:36:30Z</time>
      </trkpt>
      <trkpt lat="45.2927" lon="5.6756">
        <ele>875.25</ele>
        <time>2017-02-18T15:36:31Z</time>
      </trkpt>
      <trkpt lat="45.2927" lon="5.6756">
        <ele>875.25</ele>
        <time>2017-02-18T15:36:32Z</time>
      </trkpt>
      <trkpt lat="45.2927" lon="5.6756">
        <ele>875.25</ele>
        <time>2017-02-18T15:36:33Z</time>
      </trkpt>
      <trkpt lat="45.2927" lon="5.6756">
        <ele>875.25</ele>
        <time>2017-02-18T15:36:34Z</time>
      </trkpt>
      <trkpt lat="45.2927" lon="5.6756">
        <ele>875.25</ele>
        <time>2017-02-18T15:36:35Z</time>
      </trkpt>
      <trkpt lat="45.2927" lon="5.6756">
        <ele>875.25</ele>
        <time>2017-02-18T15:36:36Z</time>
      </trkpt>
      <trkpt lat="45.2927" lon="5.6756">
        <ele>875.25</ele>
        <time>2017-02-18T15:36:37Z</time>
      </trkpt>
      <trkpt lat="45.2927" lon="5.6756">
        <ele>875.25</ele>
        <time>2017-02-18T15:36:38Z</time>
      </trkpt>
      <trkpt lat="45.2927" lon="5.6756">
        <ele>875.25</ele>
        <time>2017-02-18T15:36:39Z</time>
      </trkpt>
      <trkpt lat="45.2927" lon="5.6756">
        <ele>875.25</ele>
        <time>2017-02-18T15:36:40Z</time>
      </trkpt>
      <trkpt lat="45.2927" lon="5.6756">
        <ele>875.25</ele>
        <time>2017-02-18T15:36:41Z</time>
      </trkpt>
      <trkpt lat="45.2927" lon="5.6756">
        <ele>875.25</ele>
        <time>2017-02-18T15:36:42Z</time>
      </trkpt>
      <trkpt lat="45.2927" lon="5.6756">
        <ele>875.25</ele>
        <time>2017-02-18T15:36:43Z</time>
      </trkpt>
      <trkpt lat="45.2927" lon="5.6756">
        <ele>875.25</ele>
        <time>2017-02-18T15:36:44Z</time>
      </trkpt>
      <trkpt lat="45.2927" lon="5.6756">
        <ele>875.25</ele>
        <time>2017-02-18T15:36:45Z</time>
      </trkpt>
      <trkpt lat="45.2927" lon="5.6756">
        <ele>875.25</ele>
        <time>2017-02-18T15:36:46Z</time>
      </trkpt>
      <trkpt lat="45.2927" lon="5.6756">
        <ele>875.25</ele>
        <time>2017-02-18T15:36:47Z</time>
      </trkpt>
      <trkpt lat="45.2927" lon="5.6756">
        <ele>875.25</ele>
        <time>2017-02-18T15:36:48Z</time>
      </trkpt>
      <trkpt lat="45.2927" lon="5.6756">
        <ele>875.25</ele>
        <time>2017-02-18T15:36:49Z</time>
      </trkpt>
      <trkpt lat="45.29279" lon="5.67556">
        <ele>874.93</ele>
        <time>2017-02-18T15:36:50Z</time>
      </trkpt>
      <trkpt lat="45.29279" lon="5.67556">
        <ele>874.86</ele>
        <time>2017-02-18T15:36:51Z</time>
      </trkpt>
      <trkpt lat="45.2928" lon="5.67556">
        <ele>874.85</ele>
        <time>2017-02-18T15:36:52Z</time>
      </trkpt>
      <trkpt lat="45.2928" lon="5.67556">
        <ele>874.85</ele>
        <time>2017-02-18T15:36:53Z</time>
      </trkpt>
      <trkpt lat="45.2928" lon="5.67556">
        <ele>874.85</ele>
        <time>2017-02-18T15:36:54Z</time>
      </trkpt>
      <trkpt lat="45.2928" lon="5.67556">
        <ele>874.85</ele>
        <time>2017-02-18T15:36:55Z</time>
      </trkpt>
      <trkpt lat="45.2928" lon="5.67556">
        <ele>874.85</ele>
        <time>2017-02-18T15:36:56Z</time>
      </trkpt>
      <trkpt lat="45.2928" lon="5.67556">
        <ele>874.85</ele>
        <time>2017-02-18T15:36:57Z</time>
      </trkpt>
      <trkpt lat="45.2928" lon="5.67556">
        <ele>874.85</ele>
        <time>2017-02-18T15:36:58Z</time>
      </trkpt>
      <trkpt lat="45.2928" lon="5.67556">
        <ele>874.85</ele>
        <time>2017-02-18T15:36:59Z</time>
      </trkpt>
      <trkpt lat="45.2928" lon="5.67556">
        <ele>874.85</ele>
        <time>2017-02-18T15:37:00Z</time>
      </trkpt>
      <trkpt lat="45.2928" lon="5.67556">
        <ele>874.85</ele>
        <time>2017-02-18T15:37:01Z</time>
      </trkpt>
      <trkpt lat="45.2928" lon="5.67556">
        <ele>874.85</ele>
        <time>2017-02-18T15:37:02Z</time>
      </trkpt>
      <trkpt lat="45.2928" lon="5.67556">
        <ele>874.85</ele>
        <time>2017-02-18T15:37:03Z</time>
      </trkpt>
      <trkpt lat="45.2928" lon="5.67556">
        <ele>874.85</ele>
        <time>2017-02-18T15:37:04Z</time>
      </trkpt>
      <trkpt lat="45.2928" lon="5.67556">
        <ele>874.85</ele>
        <time>2017-02-18T15:37:05Z</time>
      </trkpt>
      <trkpt lat="45.2928" lon="5.67556">
        <ele>874.85</ele>
        <time>2017-02-18T15:37:06Z</time>
      </trkpt>
      <trkpt lat="45.2928" lon="5.67556">
        <ele>874.85</ele>
        <time>2017-02-18T15:37:07Z</time>
      </trkpt>
      <trkpt lat="45.2928" lon="5.67556">
        <ele>874.85</ele>
        <time>2017-02-18T15:37:08Z</time>
      </trkpt>
      <trkpt lat="45.2928" lon="5.67556">
        <ele>874.85</ele>
        <time>2017-02-18T15:37:09Z</time>
      </trkpt>
      <trkpt lat="45.2928" lon="5.67556">
        <ele>874.85</ele>
        <time>2017-02-18T15:37:10Z</time>
      </trkpt>
      <trkpt lat="45.2928" lon="5.67556">
        <ele>874.85</ele>
        <time>2017-02-18T15:37:11Z</time>
      </trkpt>
      <trkpt lat="45.2928" lon="5.67556">
        <ele>874.85</ele>
        <time>2017-02-18T15:37:12Z</time>
      </trkpt>
      <trkpt lat="45.2928" lon="5.67556">
        <ele>874.85</ele>
        <time>2017-02-18T15:37:13Z</time>
      </trkpt>
      <trkpt lat="45.2928" lon="5.67556">
        <ele>874.85</ele>
        <time>2017-02-18T15:37:14Z</time>
      </trkpt>
      <trkpt lat="45.2928" lon="5.67556">
        <ele>874.85</ele>
        <time>2017-02-18T15:37:15Z</time>
      </trkpt>
      <trkpt lat="45.2928" lon="5.67556">
        <ele>874.85</ele>
        <time>2017-02-18T15:37:16Z</time>
      </trkpt>
      <trkpt lat="45.2928" lon="5.67556">
        <ele>874.85</ele>
        <time>2017-02-18T15:37:17Z</time>
      </trkpt>
      <trkpt lat="45.2928" lon="5.67556">
        <ele>874.85</ele>
        <time>2017-02-18T15:37:18Z</time>
      </trkpt>
      <trkpt lat="45.2928" lon="5.67556">
        <ele>874.85</ele>
        <time>2017-02-18T15:37:19Z</time>
      </trkpt>
      <trkpt lat="45.2928" lon="5.67556">
        <ele>874.85</ele>
        <time>2017-02-18T15:37:20Z</time>
      </trkpt>
      <trkpt lat="45.2928" lon="5.67556">
        <ele>874.85</ele>
        <time>2017-02-18T15:37:21Z</time>
      </trkpt>
      <trkpt lat="45.2928" lon="5.67556">
        <ele>874.85</ele>
        <time>2017-02-18T15:37:22Z</time>
      </trkpt>
      <trkpt lat="45.2928" lon="5.67556">
        <ele>874.85</ele>
        <time>2017-02-18T15:37:23Z</time>
      </trkpt>
      <trkpt lat="45.2928" lon="5.67556">
        <ele>874.85</ele>
        <time>2017-02-18T15:37:24Z</time>
      </trkpt>
      <trkpt lat="45.2928" lon="5.67556">
        <ele>874.85</ele>
        <time>2017-02-18T15:37:25Z</time>
      </trkpt>
      <trkpt lat="45.2928" lon="5.67556">
        <ele>874.85</ele>
        <time>2017-02-18T15:37:26Z</time>
      </trkpt>
      <trkpt lat="45.2928" lon="5.67556">
        <ele>874.85</ele>
        <time>2017-02-18T15:37:27Z</time>
      </trkpt>
      <trkpt lat="45.2928" lon="5.67556">
        <ele>874.85</ele>
        <time>2017-02-18T15:37:28Z</time>
      </trkpt>
      <trkpt lat="45.2928" lon="5.67556">
        <ele>874.85</ele>
        <time>2017-02-18T15:37:29Z</time>
      </trkpt>
      <trkpt lat="45.2928" lon="5.67556">
        <ele>874.85</ele>
        <time>2017-02-18T15:37:30Z</time>
      </trkpt>
      <trkpt lat="45.2928" lon="5.67556">
        <ele>874.85</ele>
        <time>2017-02-18T15:37:31Z</time>
      </trkpt>
      <trkpt lat="45.2928" lon="5.67556">
        <ele>874.85</ele>
        <time>2017-02-18T15:37:32Z</time>
      </trkpt>
      <trkpt lat="45.2928" lon="5.67556">
        <ele>874.85</ele>
        <time>2017-02-18T15:37:33Z</time>
      </trkpt>
      <trkpt lat="45.2928" lon="5.67556">
        <ele>874.85</ele>
        <time>2017-02-18T15:37:34Z</time>
      </trkpt>
      <trkpt lat="45.2928" lon="5.67556">
        <ele>874.85</ele>
        <time>2017-02-18T15:37:35Z</time>
      </trkpt>
      <trkpt lat="45.2928" lon="5.67556">
        <ele>874.85</ele>
        <time>2017-02-18T15:37:36Z</time>
      </trkpt>
      <trkpt lat="45.2928" lon="5.67556">
        <ele>874.85</ele>
        <time>2017-02-18T15:37:37Z</time>
      </trkpt>
      <trkpt lat="45.2928" lon="5.67556">
        <ele>874.85</ele>
        <time>2017-02-18T15:37:38Z</time>
      </trkpt>
      <trkpt lat="45.2928" lon="5.6757">
        <ele>874.85</ele>
        <time>2017-02-18T15:37:39Z</time>
      </trkpt>
      <trkpt lat="45.2928" lon="5.6757">
        <ele>874.85</ele>
        <time>2017-02-18T15:37:40Z</time>
      </trkpt>
      <trkpt lat="45.2928" lon="5.6757">
        <ele>874.85</ele>
        <time>2017-02-18T15:37:41Z</time>
      </trkpt>
      <trkpt lat="45.29281" lon="5.6757">
        <ele>874.85</ele>
        <time>2017-02-18T15:37:42Z</time>
      </trkpt>
      <trkpt lat="45.29281" lon="5.6757">
        <ele>874.85</ele>
        <time>2017-02-18T15:37:43Z</time>
      </trkpt>
      <trkpt lat="45.29281" lon="5.6757">
        <ele>874.85</ele>
        <time>2017-02-18T15:37:44Z</time>
      </trkpt>
      <trkpt lat="45.29281" lon="5.6757">
        <ele>874.85</ele>
        <time>2017-02-18T15:37:45Z</time>
      </trkpt>
      <trkpt lat="45.29281" lon="5.6757">
        <ele>874.85</ele>
        <time>2017-02-18T15:37:46Z</time>
      </trkpt>
      <trkpt lat="45.29281" lon="5.6757">
        <ele>874.85</ele>
        <time>2017-02-18T15:37:47Z</time>
      </trkpt>
      <trkpt lat="45.29281" lon="5.6757">
        <ele>874.85</ele>
        <time>2017-02-18T15:37:48Z</time>
      </trkpt>
      <trkpt lat="45.29281" lon="5.6757">
        <ele>874.85</ele>
        <time>2017-02-18T15:37:49Z</time>
      </trkpt>
      <trkpt lat="45.29281" lon="5.6757">
        <ele>874.85</ele>
        <time>2017-02-18T15:37:50Z</time>
      </trkpt>
      <trkpt lat="45.29281" lon="5.6757">
        <ele>874.85</ele>
        <time>2017-02-18T15:37:51Z</time>
      </trkpt>
      <trkpt lat="45.29276" lon="5.67559">
        <ele>874.85</ele>
        <time>2017-02-18T15:37:52Z</time>
      </trkpt>
      <trkpt lat="45.29276" lon="5.67558">
        <ele>874.93</ele>
        <time>2017-02-18T15:37:53Z</time>
      </trkpt>
      <trkpt lat="45.29277" lon="5.67558">
        <ele>874.95</ele>
        <time>2017-02-18T15:37:54Z</time>
      </trkpt>
      <trkpt lat="45.29277" lon="5.67558">
        <ele>874.95</ele>
        <time>2017-02-18T15:37:55Z</time>
      </trkpt>
      <trkpt lat="45.29277" lon="5.67558">
        <ele>874.95</ele>
        <time>2017-02-18T15:37:56Z</time>
      </trkpt>
      <trkpt lat="45.29277" lon="5.67558">
        <ele>874.95</ele>
        <time>2017-02-18T15:37:57Z</time>
      </trkpt>
      <trkpt lat="45.29277" lon="5.67558">
        <ele>874.95</ele>
        <time>2017-02-18T15:37:58Z</time>
      </trkpt>
      <trkpt lat="45.29277" lon="5.67558">
        <ele>874.95</ele>
        <time>2017-02-18T15:37:59Z</time>
      </trkpt>
      <trkpt lat="45.29277" lon="5.67558">
        <ele>874.95</ele>
        <time>2017-02-18T15:38:00Z</time>
      </trkpt>
      <trkpt lat="45.29277" lon="5.67558">
        <ele>874.95</ele>
        <time>2017-02-18T15:38:01Z</time>
      </trkpt>
      <trkpt lat="45.29277" lon="5.67558">
        <ele>874.95</ele>
        <time>2017-02-18T15:38:02Z</time>
      </trkpt>
      <trkpt lat="45.29277" lon="5.67558">
        <ele>874.95</ele>
        <time>2017-02-18T15:38:03Z</time>
      </trkpt>
      <trkpt lat="45.29277" lon="5.67558">
        <ele>874.95</ele>
        <time>2017-02-18T15:38:04Z</time>
      </trkpt>
      <trkpt lat="45.29277" lon="5.67558">
        <ele>874.95</ele>
        <time>2017-02-18T15:38:05Z</time>
      </trkpt>
      <trkpt lat="45.29277" lon="5.67558">
        <ele>874.95</ele>
        <time>2017-02-18T15:38:06Z</time>
      </trkpt>
      <trkpt lat="45.29277" lon="5.67558">
        <ele>874.95</ele>
        <time>2017-02-18T15:38:07Z</time>
      </trkpt>
      <trkpt lat="45.29277" lon="5.67558">
        <ele>874.95</ele>
        <time>2017-02-18T15:38:08Z</time>
      </trkpt>
      <trkpt lat="45.29277" lon="5.67558">
        <ele>874.95</ele>
        <time>2017-02-18T15:38:09Z</time>
      </trkpt>
      <trkpt lat="45.29277" lon="5.67558">
        <ele>874.95</ele>
        <time>2017-02-18T15:38:10Z</time>
      </trkpt>
      <trkpt lat="45.29277" lon="5.67558">
        <ele>874.95</ele>
        <time>2017-02-18T15:38:11Z</time>
      </trkpt>
      <trkpt lat="45.29277" lon="5.67558">
        <ele>874.95</ele>
        <time>2017-02-18T15:38:12Z</time>
      </trkpt>
      <trkpt lat="45.29277" lon="5.67558">
        <ele>874.95</ele>
        <time>2017-02-18T15:38:13Z</time>
      </trkpt>
      <trkpt lat="45.29277" lon="5.67558">
        <ele>874.95</ele>
        <time>2017-02-18T15:38:14Z</time>
      </trkpt>
      <trkpt lat="45.29277" lon="5.67558">
        <ele>874.95</ele>
        <time>2017-02-18T15:38:15Z</time>
      </trkpt>
      <trkpt lat="45.29277" lon="5.67558">
        <ele>874.95</ele>
        <time>2017-02-18T15:38:16Z</time>
      </trkpt>
      <trkpt lat="45.29277" lon="5.67558">
        <ele>874.95</ele>
        <time>2017-02-18T15:38:17Z</time>
      </trkpt>
      <trkpt lat="45.29277" lon="5.67558">
        <ele>874.95</ele>
        <time>2017-02-18T15:38:18Z</time>
      </trkpt>
      <trkpt lat="45.29277" lon="5.67558">
        <ele>874.95</ele>
        <time>2017-02-18T15:38:19Z</time>
      </trkpt>
      <trkpt lat="45.29277" lon="5.67558">
        <ele>874.95</ele>
        <time>2017-02-18T15:38:20Z</time>
      </trkpt>
      <trkpt lat="45.29277" lon="5.67558">
        <ele>874.95</ele>
        <time>2017-02-18T15:38:21Z</time>
      </trkpt>
      <trkpt lat="45.29277" lon="5.67558">
        <ele>874.95</ele>
        <time>2017-02-18T15:38:22Z</time>
      </trkpt>
      <trkpt lat="45.29277" lon="5.67558">
        <ele>874.95</ele>
        <time>2017-02-18T15:38:23Z</time>
      </trkpt>
      <trkpt lat="45.29277" lon="5.67558">
        <ele>874.95</ele>
        <time>2017-02-18T15:38:24Z</time>
      </trkpt>
      <trkpt lat="45.29277" lon="5.67558">
        <ele>874.95</ele>
        <time>2017-02-18T15:38:25Z</time>
      </trkpt>
      <trkpt lat="45.29277" lon="5.67558">
        <ele>874.95</ele>
        <time>2017-02-18T15:38:26Z</time>
      </trkpt>
      <trkpt lat="45.29277" lon="5.67558">
        <ele>874.95</ele>
        <time>2017-02-18T15:38:27Z</time>
      </trkpt>
      <trkpt lat="45.29277" lon="5.67558">
        <ele>874.95</ele>
        <time>2017-02-18T15:38:28Z</time>
      </trkpt>
      <trkpt lat="45.29277" lon="5.67558">
        <ele>874.95</ele>
        <time>2017-02-18T15:38:29Z</time>
      </trkpt>
      <trkpt lat="45.29277" lon="5.67558">
        <ele>874.95</ele>
        <time>2017-02-18T15:38:30Z</time>
      </trkpt>
      <trkpt lat="45.29277" lon="5.67558">
        <ele>874.95</ele>
        <time>2017-02-18T15:38:31Z</time>
      </trkpt>
      <trkpt lat="45.29277" lon="5.67558">
        <ele>874.95</ele>
        <time>2017-02-18T15:38:32Z</time>
      </trkpt>
      <trkpt lat="45.29277" lon="5.67558">
        <ele>874.95</ele>
        <time>2017-02-18T15:38:33Z</time>
      </trkpt>
      <trkpt lat="45.29277" lon="5.67558">
        <ele>874.95</ele>
        <time>2017-02-18T15:38:34Z</time>
      </trkpt>
      <trkpt lat="45.29277" lon="5.67558">
        <ele>874.95</ele>
        <time>2017-02-18T15:38:35Z</time>
      </trkpt>
      <trkpt lat="45.29277" lon="5.67558">
        <ele>874.95</ele>
        <time>2017-02-18T15:38:36Z</time>
      </trkpt>
      <trkpt lat="45.29277" lon="5.67558">
        <ele>874.95</ele>
        <time>2017-02-18T15:38:37Z</time>
      </trkpt>
      <trkpt lat="45.29277" lon="5.67558">
        <ele>874.95</ele>
        <time>2017-02-18T15:38:38Z</time>
      </trkpt>
      <trkpt lat="45.29277" lon="5.67558">
        <ele>874.95</ele>
        <time>2017-02-18T15:38:39Z</time>
      </trkpt>
      <trkpt lat="45.29277" lon="5.67558">
        <ele>874.95</ele>
        <time>2017-02-18T15:38:40Z</time>
      </trkpt>
      <trkpt lat="45.29277" lon="5.67558">
        <ele>874.95</ele>
        <time>2017-02-18T15:38:41Z</time>
      </trkpt>
      <trkpt lat="45.29277" lon="5.67558">
        <ele>874.95</ele>
        <time>2017-02-18T15:38:42Z</time>
      </trkpt>
      <trkpt lat="45.29277" lon="5.67558">
        <ele>874.95</ele>
        <time>2017-02-18T15:38:43Z</time>
      </trkpt>
      <trkpt lat="45.29277" lon="5.67558">
        <ele>874.95</ele>
        <time>2017-02-18T15:38:44Z</time>
      </trkpt>
      <trkpt lat="45.29277" lon="5.67558">
        <ele>874.95</ele>
        <time>2017-02-18T15:38:45Z</time>
      </trkpt>
      <trkpt lat="45.29277" lon="5.67558">
        <ele>874.95</ele>
        <time>2017-02-18T15:38:46Z</time>
      </trkpt>
      <trkpt lat="45.29277" lon="5.67558">
        <ele>874.95</ele>
        <time>2017-02-18T15:38:47Z</time>
      </trkpt>
      <trkpt lat="45.29277" lon="5.67558">
        <ele>874.95</ele>
        <time>2017-02-18T15:38:48Z</time>
      </trkpt>
      <trkpt lat="45.29277" lon="5.67558">
        <ele>874.95</ele>
        <time>2017-02-18T15:38:49Z</time>
      </trkpt>
      <trkpt lat="45.29277" lon="5.67558">
        <ele>874.95</ele>
        <time>2017-02-18T15:38:50Z</time>
      </trkpt>
      <trkpt lat="45.29277" lon="5.67558">
        <ele>874.95</ele>
        <time>2017-02-18T15:38:51Z</time>
      </trkpt>
      <trkpt lat="45.29277" lon="5.67558">
        <ele>874.95</ele>
        <time>2017-02-18T15:38:52Z</time>
      </trkpt>
      <trkpt lat="45.29277" lon="5.67558">
        <ele>874.95</ele>
        <time>2017-02-18T15:38:53Z</time>
      </trkpt>
      <trkpt lat="45.29277" lon="5.67558">
        <ele>874.95</ele>
        <time>2017-02-18T15:38:54Z</time>
      </trkpt>
      <trkpt lat="45.29277" lon="5.67558">
        <ele>874.95</ele>
        <time>2017-02-18T15:38:55Z</time>
      </trkpt>
      <trkpt lat="45.29277" lon="5.67558">
        <ele>874.95</ele>
        <time>2017-02-18T15:38:56Z</time>
      </trkpt>
      <trkpt lat="45.29277" lon="5.67558">
        <ele>874.95</ele>
        <time>2017-02-18T15:38:57Z</time>
      </trkpt>
      <trkpt lat="45.29277" lon="5.67558">
        <ele>874.95</ele>
        <time>2017-02-18T15:38:58Z</time>
      </trkpt>
      <trkpt lat="45.29277" lon="5.67558">
        <ele>874.95</ele>
        <time>2017-02-18T15:38:59Z</time>
      </trkpt>
      <trkpt lat="45.29277" lon="5.67558">
        <ele>874.95</ele>
        <time>2017-02-18T15:39:00Z</time>
      </trkpt>
      <trkpt lat="45.29277" lon="5.67558">
        <ele>874.95</ele>
        <time>2017-02-18T15:39:01Z</time>
      </trkpt>
      <trkpt lat="45.29277" lon="5.67558">
        <ele>874.95</ele>
        <time>2017-02-18T15:39:02Z</time>
      </trkpt>
      <trkpt lat="45.29277" lon="5.67558">
        <ele>874.95</ele>
        <time>2017-02-18T15:39:03Z</time>
      </trkpt>
      <trkpt lat="45.29277" lon="5.67558">
        <ele>874.95</ele>
        <time>2017-02-18T15:39:04Z</time>
      </trkpt>
      <trkpt lat="45.29277" lon="5.67558">
        <ele>874.95</ele>
        <time>2017-02-18T15:39:05Z</time>
      </trkpt>
      <trkpt lat="45.29277" lon="5.67558">
        <ele>874.95</ele>
        <time>2017-02-18T15:39:06Z</time>
      </trkpt>
      <trkpt lat="45.29277" lon="5.67558">
        <ele>874.95</ele>
        <time>2017-02-18T15:39:07Z</time>
      </trkpt>
      <trkpt lat="45.29277" lon="5.67558">
        <ele>874.95</ele>
        <time>2017-02-18T15:39:08Z</time>
      </trkpt>
      <trkpt lat="45.29277" lon="5.67558">
        <ele>874.95</ele>
        <time>2017-02-18T15:39:09Z</time>
      </trkpt>
      <trkpt lat="45.29277" lon="5.67558">
        <ele>874.95</ele>
        <time>2017-02-18T15:39:10Z</time>
      </trkpt>
      <trkpt lat="45.29277" lon="5.67558">
        <ele>874.95</ele>
        <time>2017-02-18T15:39:11Z</time>
      </trkpt>
      <trkpt lat="45.29277" lon="5.67558">
        <ele>874.95</ele>
        <time>2017-02-18T15:39:12Z</time>
      </trkpt>
      <trkpt lat="45.29277" lon="5.67558">
        <ele>874.95</ele>
        <time>2017-02-18T15:39:13Z</time>
      </trkpt>
      <trkpt lat="45.29277" lon="5.67558">
        <ele>874.95</ele>
        <time>2017-02-18T15:39:14Z</time>
      </trkpt>
      <trkpt lat="45.29277" lon="5.67558">
        <ele>874.95</ele>
        <time>2017-02-18T15:39:15Z</time>
      </trkpt>
      <trkpt lat="45.29277" lon="5.67558">
        <ele>874.95</ele>
        <time>2017-02-18T15:39:16Z</time>
      </trkpt>
      <trkpt lat="45.29277" lon="5.67558">
        <ele>874.95</ele>
        <time>2017-02-18T15:39:17Z</time>
      </trkpt>
      <trkpt lat="45.29277" lon="5.67558">
        <ele>874.95</ele>
        <time>2017-02-18T15:39:18Z</time>
      </trkpt>
      <trkpt lat="45.29277" lon="5.67558">
        <ele>874.95</ele>
        <time>2017-02-18T15:39:19Z</time>
      </trkpt>
      <trkpt lat="45.29277" lon="5.67558">
        <ele>874.95</ele>
        <time>2017-02-18T15:39:20Z</time>
      </trkpt>
      <trkpt lat="45.29277" lon="5.67558">
        <ele>874.95</ele>
        <time>2017-02-18T15:39:21Z</time>
      </trkpt>
      <trkpt lat="45.29277" lon="5.67558">
        <ele>874.95</ele>
        <time>2017-02-18T15:39:22Z</time>
      </trkpt>
      <trkpt lat="45.29277" lon="5.67558">
        <ele>874.95</ele>
        <time>2017-02-18T15:39:23Z</time>
      </trkpt>
      <trkpt lat="45.29277" lon="5.67558">
        <ele>874.95</ele>
        <time>2017-02-18T15:39:24Z</time>
      </trkpt>
      <trkpt lat="45.29277" lon="5.67558">
        <ele>874.95</ele>
        <time>2017-02-18T15:39:25Z</time>
      </trkpt>
      <trkpt lat="45.29277" lon="5.67558">
        <ele>874.95</ele>
        <time>2017-02-18T15:39:26Z</time>
      </trkpt>
      <trkpt lat="45.29277" lon="5.67558">
        <ele>874.95</ele>
        <time>2017-02-18T15:39:27Z</time>
      </trkpt>
      <trkpt lat="45.29277" lon="5.67558">
        <ele>874.95</ele>
        <time>2017-02-18T15:39:28Z</time>
      </trkpt>
      <trkpt lat="45.29277" lon="5.67558">
        <ele>874.95</ele>
        <time>2017-02-18T15:39:29Z</time>
      </trkpt>
      <trkpt lat="45.29277" lon="5.67558">
        <ele>874.95</ele>
        <time>2017-02-18T15:39:30Z</time>
      </trkpt>
      <trkpt lat="45.29277" lon="5.67558">
        <ele>874.95</ele>
        <time>2017-02-18T15:39:31Z</time>
      </trkpt>
      <trkpt lat="45.29277" lon="5.67558">
        <ele>874.95</ele>
        <time>2017-02-18T15:39:32Z</time>
      </trkpt>
      <trkpt lat="45.29277" lon="5.67558">
        <ele>874.95</ele>
        <time>2017-02-18T15:39:33Z</time>
      </trkpt>
      <trkpt lat="45.29277" lon="5.67558">
        <ele>874.95</ele>
        <time>2017-02-18T15:39:34Z</time>
      </trkpt>
      <trkpt lat="45.29277" lon="5.67558">
        <ele>874.95</ele>
        <time>2017-02-18T15:39:35Z</time>
      </trkpt>
      <trkpt lat="45.29277" lon="5.67558">
        <ele>874.95</ele>
        <time>2017-02-18T15:39:36Z</time>
      </trkpt>
      <trkpt lat="45.29277" lon="5.67558">
        <ele>874.95</ele>
        <time>2017-02-18T15:39:37Z</time>
      </trkpt>
      <trkpt lat="45.29277" lon="5.67558">
        <ele>874.95</ele>
        <time>2017-02-18T15:39:38Z</time>
      </trkpt>
      <trkpt lat="45.29277" lon="5.67558">
        <ele>874.95</ele>
        <time>2017-02-18T15:39:39Z</time>
      </trkpt>
      <trkpt lat="45.29277" lon="5.67558">
        <ele>874.95</ele>
        <time>2017-02-18T15:39:40Z</time>
      </trkpt>
      <trkpt lat="45.29277" lon="5.67558">
        <ele>874.95</ele>
        <time>2017-02-18T15:39:41Z</time>
      </trkpt>
      <trkpt lat="45.29277" lon="5.67558">
        <ele>874.95</ele>
        <time>2017-02-18T15:39:42Z</time>
      </trkpt>
      <trkpt lat="45.29277" lon="5.67558">
        <ele>874.95</ele>
        <time>2017-02-18T15:39:43Z</time>
      </trkpt>
      <trkpt lat="45.29277" lon="5.67558">
        <ele>874.95</ele>
        <time>2017-02-18T15:39:44Z</time>
      </trkpt>
      <trkpt lat="45.29277" lon="5.67558">
        <ele>874.95</ele>
        <time>2017-02-18T15:39:45Z</time>
      </trkpt>
      <trkpt lat="45.29277" lon="5.67558">
        <ele>874.95</ele>
        <time>2017-02-18T15:39:46Z</time>
      </trkpt>
      <trkpt lat="45.29277" lon="5.67558">
        <ele>874.95</ele>
        <time>2017-02-18T15:39:47Z</time>
      </trkpt>
      <trkpt lat="45.29277" lon="5.67558">
        <ele>874.95</ele>
        <time>2017-02-18T15:39:48Z</time>
      </trkpt>
      <trkpt lat="45.29277" lon="5.67558">
        <ele>874.95</ele>
        <time>2017-02-18T15:39:49Z</time>
      </trkpt>
      <trkpt lat="45.29277" lon="5.67558">
        <ele>874.95</ele>
        <time>2017-02-18T15:39:50Z</time>
      </trkpt>
      <trkpt lat="45.29277" lon="5.67558">
        <ele>874.95</ele>
        <time>2017-02-18T15:39:51Z</time>
      </trkpt>
      <trkpt lat="45.29277" lon="5.67558">
        <ele>874.95</ele>
        <time>2017-02-18T15:39:52Z</time>
      </trkpt>
      <trkpt lat="45.29277" lon="5.67558">
        <ele>874.95</ele>
        <time>2017-02-18T15:39:53Z</time>
      </trkpt>
      <trkpt lat="45.29277" lon="5.67558">
        <ele>874.95</ele>
        <time>2017-02-18T15:39:54Z</time>
      </trkpt>
      <trkpt lat="45.29277" lon="5.67558">
        <ele>874.95</ele>
        <time>2017-02-18T15:39:55Z</time>
      </trkpt>
      <trkpt lat="45.29277" lon="5.67558">
        <ele>874.95</ele>
        <time>2017-02-18T15:39:56Z</time>
      </trkpt>
      <trkpt lat="45.29277" lon="5.67558">
        <ele>874.95</ele>
        <time>2017-02-18T15:39:57Z</time>
      </trkpt>
      <trkpt lat="45.29277" lon="5.67558">
        <ele>874.95</ele>
        <time>2017-02-18T15:39:58Z</time>
      </trkpt>
      <trkpt lat="45.29277" lon="5.67558">
        <ele>874.95</ele>
        <time>2017-02-18T15:39:59Z</time>
      </trkpt>
      <trkpt lat="45.29277" lon="5.67558">
        <ele>874.95</ele>
        <time>2017-02-18T15:40:00Z</time>
      </trkpt>
      <trkpt lat="45.29277" lon="5.67558">
        <ele>874.95</ele>
        <time>2017-02-18T15:40:01Z</time>
      </trkpt>
      <trkpt lat="45.29277" lon="5.67558">
        <ele>874.95</ele>
        <time>2017-02-18T15:40:02Z</time>
      </trkpt>
      <trkpt lat="45.29277" lon="5.67558">
        <ele>874.95</ele>
        <time>2017-02-18T15:40:03Z</time>
      </trkpt>
      <trkpt lat="45.29277" lon="5.67558">
        <ele>874.95</ele>
        <time>2017-02-18T15:40:04Z</time>
      </trkpt>
      <trkpt lat="45.29277" lon="5.67558">
        <ele>874.95</ele>
        <time>2017-02-18T15:40:05Z</time>
      </trkpt>
      <trkpt lat="45.29277" lon="5.67558">
        <ele>874.95</ele>
        <time>2017-02-18T15:40:06Z</time>
      </trkpt>
      <trkpt lat="45.29277" lon="5.67558">
        <ele>874.95</ele>
        <time>2017-02-18T15:40:07Z</time>
      </trkpt>
      <trkpt lat="45.29277" lon="5.67558">
        <ele>874.95</ele>
        <time>2017-02-18T15:40:08Z</time>
      </trkpt>
      <trkpt lat="45.29277" lon="5.67558">
        <ele>874.95</ele>
        <time>2017-02-18T15:40:09Z</time>
      </trkpt>
      <trkpt lat="45.29277" lon="5.67558">
        <ele>874.95</ele>
        <time>2017-02-18T15:40:10Z</time>
      </trkpt>
      <trkpt lat="45.29277" lon="5.67558">
        <ele>874.95</ele>
        <time>2017-02-18T15:40:11Z</time>
      </trkpt>
      <trkpt lat="45.29277" lon="5.67558">
        <ele>874.95</ele>
        <time>2017-02-18T15:40:12Z</time>
      </trkpt>
      <trkpt lat="45.29277" lon="5.67558">
        <ele>874.95</ele>
        <time>2017-02-18T15:40:13Z</time>
      </trkpt>
      <trkpt lat="45.29277" lon="5.67558">
        <ele>874.95</ele>
        <time>2017-02-18T15:40:14Z</time>
      </trkpt>
      <trkpt lat="45.29277" lon="5.67558">
        <ele>874.95</ele>
        <time>2017-02-18T15:40:15Z</time>
      </trkpt>
      <trkpt lat="45.29277" lon="5.67558">
        <ele>874.95</ele>
        <time>2017-02-18T15:40:16Z</time>
      </trkpt>
      <trkpt lat="45.29277" lon="5.67558">
        <ele>874.95</ele>
        <time>2017-02-18T15:40:17Z</time>
      </trkpt>
      <trkpt lat="45.29277" lon="5.67558">
        <ele>874.95</ele>
        <time>2017-02-18T15:40:18Z</time>
      </trkpt>
      <trkpt lat="45.29277" lon="5.67558">
        <ele>874.95</ele>
        <time>2017-02-18T15:40:19Z</time>
      </trkpt>
      <trkpt lat="45.29277" lon="5.67558">
        <ele>874.95</ele>
        <time>2017-02-18T15:40:20Z</time>
      </trkpt>
      <trkpt lat="45.29277" lon="5.67558">
        <ele>874.95</ele>
        <time>2017-02-18T15:40:21Z</time>
      </trkpt>
      <trkpt lat="45.29277" lon="5.67558">
        <ele>874.95</ele>
        <time>2017-02-18T15:40:22Z</time>
      </trkpt>
      <trkpt lat="45.29277" lon="5.67558">
        <ele>874.95</ele>
        <time>2017-02-18T15:40:23Z</time>
      </trkpt>
      <trkpt lat="45.29277" lon="5.67558">
        <ele>874.95</ele>
        <time>2017-02-18T15:40:24Z</time>
      </trkpt>
      <trkpt lat="45.29277" lon="5.67558">
        <ele>874.95</ele>
        <time>2017-02-18T15:40:25Z</time>
      </trkpt>
      <trkpt lat="45.29277" lon="5.67558">
        <ele>874.95</ele>
        <time>2017-02-18T15:40:26Z</time>
      </trkpt>
      <trkpt lat="45.29277" lon="5.67558">
        <ele>874.95</ele>
        <time>2017-02-18T15:40:27Z</time>
      </trkpt>
      <trkpt lat="45.29277" lon="5.67558">
        <ele>874.95</ele>
        <time>2017-02-18T15:40:28Z</time>
      </trkpt>
      <trkpt lat="45.29277" lon="5.67558">
        <ele>874.95</ele>
        <time>2017-02-18T15:40:29Z</time>
      </trkpt>
      <trkpt lat="45.29277" lon="5.67558">
        <ele>874.95</ele>
        <time>2017-02-18T15:40:30Z</time>
      </trkpt>
      <trkpt lat="45.29277" lon="5.67558">
        <ele>874.95</ele>
        <time>2017-02-18T15:40:31Z</time>
      </trkpt>
      <trkpt lat="45.29277" lon="5.67558">
        <ele>874.95</ele>
        <time>2017-02-18T15:40:32Z</time>
      </trkpt>
      <trkpt lat="45.29277" lon="5.67558">
        <ele>874.95</ele>
        <time>2017-02-18T15:40:33Z</time>
      </trkpt>
      <trkpt lat="45.29277" lon="5.67558">
        <ele>874.95</ele>
        <time>2017-02-18T15:40:34Z</time>
      </trkpt>
      <trkpt lat="45.29277" lon="5.67558">
        <ele>874.95</ele>
        <time>2017-02-18T15:40:35Z</time>
      </trkpt>
      <trkpt lat="45.29277" lon="5.67558">
        <ele>874.95</ele>
        <time>2017-02-18T15:40:36Z</time>
      </trkpt>
      <trkpt lat="45.29277" lon="5.67558">
        <ele>874.95</ele>
        <time>2017-02-18T15:40:37Z</time>
      </trkpt>
      <trkpt lat="45.29277" lon="5.67558">
        <ele>874.95</ele>
        <time>2017-02-18T15:40:38Z</time>
      </trkpt>
      <trkpt lat="45.29277" lon="5.67558">
        <ele>874.95</ele>
        <time>2017-02-18T15:40:39Z</time>
      </trkpt>
      <trkpt lat="45.29277" lon="5.67558">
        <ele>874.95</ele>
        <time>2017-02-18T15:40:40Z</time>
      </trkpt>
      <trkpt lat="45.29277" lon="5.67558">
        <ele>874.95</ele>
        <time>2017-02-18T15:40:41Z</time>
      </trkpt>
      <trkpt lat="45.29277" lon="5.67558">
        <ele>874.95</ele>
        <time>2017-02-18T15:40:42Z</time>
      </trkpt>
      <trkpt lat="45.29277" lon="5.67558">
        <ele>874.95</ele>
        <time>2017-02-18T15:40:43Z</time>
      </trkpt>
      <trkpt lat="45.29277" lon="5.67558">
        <ele>874.95</ele>
        <time>2017-02-18T15:40:44Z</time>
      </trkpt>
      <trkpt lat="45.29277" lon="5.67558">
        <ele>874.95</ele>
        <time>2017-02-18T15:40:45Z</time>
      </trkpt>
      <trkpt lat="45.29277" lon="5.67558">
        <ele>874.95</ele>
        <time>2017-02-18T15:40:46Z</time>
      </trkpt>
      <trkpt lat="45.29277" lon="5.67558">
        <ele>874.95</ele>
        <time>2017-02-18T15:40:47Z</time>
      </trkpt>
      <trkpt lat="45.29277" lon="5.67558">
        <ele>874.95</ele>
        <time>2017-02-18T15:40:48Z</time>
      </trkpt>
      <trkpt lat="45.29277" lon="5.67558">
        <ele>874.95</ele>
        <time>2017-02-18T15:40:49Z</time>
      </trkpt>
      <trkpt lat="45.29277" lon="5.67558">
        <ele>874.95</ele>
        <time>2017-02-18T15:40:50Z</time>
      </trkpt>
      <trkpt lat="45.29277" lon="5.67558">
        <ele>874.95</ele>
        <time>2017-02-18T15:40:51Z</time>
      </trkpt>
      <trkpt lat="45.29277" lon="5.67558">
        <ele>874.95</ele>
        <time>2017-02-18T15:40:52Z</time>
      </trkpt>
      <trkpt lat="45.29277" lon="5.67558">
        <ele>874.95</ele>
        <time>2017-02-18T15:40:53Z</time>
      </trkpt>
      <trkpt lat="45.29277" lon="5.67558">
        <ele>874.95</ele>
        <time>2017-02-18T15:40:54Z</time>
      </trkpt>
      <trkpt lat="45.29277" lon="5.67558">
        <ele>874.95</ele>
        <time>2017-02-18T15:40:55Z</time>
      </trkpt>
      <trkpt lat="45.29277" lon="5.67558">
        <ele>874.95</ele>
        <time>2017-02-18T15:40:56Z</time>
      </trkpt>
      <trkpt lat="45.29277" lon="5.67558">
        <ele>874.95</ele>
        <time>2017-02-18T15:40:57Z</time>
      </trkpt>
      <trkpt lat="45.29277" lon="5.67558">
        <ele>874.95</ele>
        <time>2017-02-18T15:40:58Z</time>
      </trkpt>
      <trkpt lat="45.29277" lon="5.67558">
        <ele>874.95</ele>
        <time>2017-02-18T15:40:59Z</time>
      </trkpt>
      <trkpt lat="45.29277" lon="5.67558">
        <ele>874.95</ele>
        <time>2017-02-18T15:41:00Z</time>
      </trkpt>
      <trkpt lat="45.29277" lon="5.67558">
        <ele>874.95</ele>
        <time>2017-02-18T15:41:01Z</time>
      </trkpt>
      <trkpt lat="45.29277" lon="5.67558">
        <ele>874.95</ele>
        <time>2017-02-18T15:41:02Z</time>
      </trkpt>
      <trkpt lat="45.29277" lon="5.67558">
        <ele>874.95</ele>
        <time>2017-02-18T15:41:03Z</time>
      </trkpt>
      <trkpt lat="45.29277" lon="5.67558">
        <ele>874.95</ele>
        <time>2017-02-18T15:41:04Z</time>
      </trkpt>
      <trkpt lat="45.29277" lon="5.67558">
        <ele>874.95</ele>
        <time>2017-02-18T15:41:05Z</time>
      </trkpt>
      <trkpt lat="45.29277" lon="5.67558">
        <ele>874.95</ele>
        <time>2017-02-18T15:41:06Z</time>
      </trkpt>
      <trkpt lat="45.29277" lon="5.67558">
        <ele>874.95</ele>
        <time>2017-02-18T15:41:07Z</time>
      </trkpt>
      <trkpt lat="45.29277" lon="5.67558">
        <ele>874.95</ele>
        <time>2017-02-18T15:41:08Z</time>
      </trkpt>
      <trkpt lat="45.29277" lon="5.67558">
        <ele>874.95</ele>
        <time>2017-02-18T15:41:09Z</time>
      </trkpt>
      <trkpt lat="45.29277" lon="5.67558">
        <ele>874.95</ele>
        <time>2017-02-18T15:41:10Z</time>
      </trkpt>
      <trkpt lat="45.29277" lon="5.67558">
        <ele>874.95</ele>
        <time>2017-02-18T15:41:11Z</time>
      </trkpt>
      <trkpt lat="45.29277" lon="5.67558">
        <ele>874.95</ele>
        <time>2017-02-18T15:41:12Z</time>
      </trkpt>
      <trkpt lat="45.29277" lon="5.67558">
        <ele>874.95</ele>
        <time>2017-02-18T15:41:13Z</time>
      </trkpt>
      <trkpt lat="45.29277" lon="5.67558">
        <ele>874.95</ele>
        <time>2017-02-18T15:41:14Z</time>
      </trkpt>
      <trkpt lat="45.29268" lon="5.6756">
        <ele>875.11</ele>
        <time>2017-02-18T15:41:15Z</time>
      </trkpt>
      <trkpt lat="45.29267" lon="5.67559">
        <ele>875.22</ele>
        <time>2017-02-18T15:41:16Z</time>
      </trkpt>
      <trkpt lat="45.29267" lon="5.67558">
        <ele>875.32</ele>
        <time>2017-02-18T15:41:17Z</time>
      </trkpt>
      <trkpt lat="45.29267" lon="5.67556">
        <ele>875.34</ele>
        <time>2017-02-18T15:41:18Z</time>
      </trkpt>
      <trkpt lat="45.29268" lon="5.67555">
        <ele>875.43</ele>
        <time>2017-02-18T15:41:19Z</time>
      </trkpt>
      <trkpt lat="45.29269" lon="5.67554">
        <ele>875.52</ele>
        <time>2017-02-18T15:41:20Z</time>
      </trkpt>
      <trkpt lat="45.2927" lon="5.67553">
        <ele>875.62</ele>
        <time>2017-02-18T15:41:21Z</time>
      </trkpt>
      <trkpt lat="45.29272" lon="5.67553">
        <ele>875.72</ele>
        <time>2017-02-18T15:41:22Z</time>
      </trkpt>
      <trkpt lat="45.29273" lon="5.67552">
        <ele>875.74</ele>
        <time>2017-02-18T15:41:23Z</time>
      </trkpt>
      <trkpt lat="45.29273" lon="5.67552">
        <ele>875.75</ele>
        <time>2017-02-18T15:41:24Z</time>
      </trkpt>
      <trkpt lat="45.29273" lon="5.67552">
        <ele>875.75</ele>
        <time>2017-02-18T15:41:25Z</time>
      </trkpt>
      <trkpt lat="45.29273" lon="5.67552">
        <ele>875.75</ele>
        <time>2017-02-18T15:41:26Z</time>
      </trkpt>
      <trkpt lat="45.29273" lon="5.67552">
        <ele>875.75</ele>
        <time>2017-02-18T15:41:27Z</time>
      </trkpt>
      <trkpt lat="45.29273" lon="5.67552">
        <ele>875.75</ele>
        <time>2017-02-18T15:41:28Z</time>
      </trkpt>
      <trkpt lat="45.29273" lon="5.67552">
        <ele>875.75</ele>
        <time>2017-02-18T15:41:29Z</time>
      </trkpt>
      <trkpt lat="45.29273" lon="5.67552">
        <ele>875.75</ele>
        <time>2017-02-18T15:41:30Z</time>
      </trkpt>
      <trkpt lat="45.29276" lon="5.6755">
        <ele>876.39</ele>
        <time>2017-02-18T15:41:31Z</time>
      </trkpt>
      <trkpt lat="45.29274" lon="5.6755">
        <ele>876.76</ele>
        <time>2017-02-18T15:41:32Z</time>
      </trkpt>
      <trkpt lat="45.29273" lon="5.6755">
        <ele>876.99</ele>
        <time>2017-02-18T15:41:33Z</time>
      </trkpt>
      <trkpt lat="45.29272" lon="5.6755">
        <ele>877.2</ele>
        <time>2017-02-18T15:41:34Z</time>
      </trkpt>
      <trkpt lat="45.29271" lon="5.67551">
        <ele>877.4</ele>
        <time>2017-02-18T15:41:35Z</time>
      </trkpt>
      <trkpt lat="45.2927" lon="5.67551">
        <ele>877.52</ele>
        <time>2017-02-18T15:41:36Z</time>
      </trkpt>
      <trkpt lat="45.2927" lon="5.67552">
        <ele>877.7</ele>
        <time>2017-02-18T15:41:37Z</time>
      </trkpt>
      <trkpt lat="45.29269" lon="5.67553">
        <ele>877.9</ele>
        <time>2017-02-18T15:41:38Z</time>
      </trkpt>
      <trkpt lat="45.29269" lon="5.67553">
        <ele>878.18</ele>
        <time>2017-02-18T15:41:39Z</time>
      </trkpt>
      <trkpt lat="45.29269" lon="5.67553">
        <ele>878.24</ele>
        <time>2017-02-18T15:41:40Z</time>
      </trkpt>
      <trkpt lat="45.29269" lon="5.67553">
        <ele>878.25</ele>
        <time>2017-02-18T15:41:41Z</time>
      </trkpt>
      <trkpt lat="45.29269" lon="5.67553">
        <ele>878.25</ele>
        <time>2017-02-18T15:41:42Z</time>
      </trkpt>
      <trkpt lat="45.29269" lon="5.67553">
        <ele>878.25</ele>
        <time>2017-02-18T15:41:43Z</time>
      </trkpt>
      <trkpt lat="45.29269" lon="5.67553">
        <ele>878.25</ele>
        <time>2017-02-18T15:41:44Z</time>
      </trkpt>
      <trkpt lat="45.29269" lon="5.67553">
        <ele>878.25</ele>
        <time>2017-02-18T15:41:45Z</time>
      </trkpt>
      <trkpt lat="45.29269" lon="5.67553">
        <ele>878.25</ele>
        <time>2017-02-18T15:41:46Z</time>
      </trkpt>
      <trkpt lat="45.29269" lon="5.67553">
        <ele>878.25</ele>
        <time>2017-02-18T15:41:47Z</time>
      </trkpt>
      <trkpt lat="45.29269" lon="5.67553">
        <ele>878.25</ele>
        <time>2017-02-18T15:41:48Z</time>
      </trkpt>
      <trkpt lat="45.29269" lon="5.67553">
        <ele>878.25</ele>
        <time>2017-02-18T15:41:49Z</time>
      </trkpt>
      <trkpt lat="45.29269" lon="5.67553">
        <ele>878.25</ele>
        <time>2017-02-18T15:41:50Z</time>
      </trkpt>
      <trkpt lat="45.29269" lon="5.67553">
        <ele>878.25</ele>
        <time>2017-02-18T15:41:51Z</time>
      </trkpt>
      <trkpt lat="45.29269" lon="5.67553">
        <ele>878.25</ele>
        <time>2017-02-18T15:41:52Z</time>
      </trkpt>
      <trkpt lat="45.29269" lon="5.67553">
        <ele>878.25</ele>
        <time>2017-02-18T15:41:53Z</time>
      </trkpt>
      <trkpt lat="45.29269" lon="5.67553">
        <ele>878.25</ele>
        <time>2017-02-18T15:41:54Z</time>
      </trkpt>
      <trkpt lat="45.29269" lon="5.67553">
        <ele>878.25</ele>
        <time>2017-02-18T15:41:55Z</time>
      </trkpt>
      <trkpt lat="45.29269" lon="5.67553">
        <ele>878.25</ele>
        <time>2017-02-18T15:41:56Z</time>
      </trkpt>
      <trkpt lat="45.29273" lon="5.67553">
        <ele>878.33</ele>
        <time>2017-02-18T15:41:57Z</time>
      </trkpt>
      <trkpt lat="45.29275" lon="5.67553">
        <ele>878.34</ele>
        <time>2017-02-18T15:41:58Z</time>
      </trkpt>
      <trkpt lat="45.29276" lon="5.67553">
        <ele>878.35</ele>
        <time>2017-02-18T15:41:59Z</time>
      </trkpt>
      <trkpt lat="45.29277" lon="5.67552">
        <ele>878.35</ele>
        <time>2017-02-18T15:42:00Z</time>
      </trkpt>
      <trkpt lat="45.29278" lon="5.67552">
        <ele>878.27</ele>
        <time>2017-02-18T15:42:01Z</time>
      </trkpt>
      <trkpt lat="45.29279" lon="5.67552">
        <ele>878.17</ele>
        <time>2017-02-18T15:42:02Z</time>
      </trkpt>
      <trkpt lat="45.2928" lon="5.67551">
        <ele>878.15</ele>
        <time>2017-02-18T15:42:03Z</time>
      </trkpt>
      <trkpt lat="45.29281" lon="5.67551">
        <ele>878.07</ele>
        <time>2017-02-18T15:42:04Z</time>
      </trkpt>
      <trkpt lat="45.29282" lon="5.6755">
        <ele>877.97</ele>
        <time>2017-02-18T15:42:05Z</time>
      </trkpt>
      <trkpt lat="45.29283" lon="5.6755">
        <ele>877.79</ele>
        <time>2017-02-18T15:42:06Z</time>
      </trkpt>
      <trkpt lat="45.29284" lon="5.6755">
        <ele>877.68</ele>
        <time>2017-02-18T15:42:07Z</time>
      </trkpt>
      <trkpt lat="45.29285" lon="5.67549">
        <ele>877.57</ele>
        <time>2017-02-18T15:42:08Z</time>
      </trkpt>
      <trkpt lat="45.29285" lon="5.67549">
        <ele>877.55</ele>
        <time>2017-02-18T15:42:09Z</time>
      </trkpt>
      <trkpt lat="45.29285" lon="5.67549">
        <ele>877.55</ele>
        <time>2017-02-18T15:42:10Z</time>
      </trkpt>
      <trkpt lat="45.29285" lon="5.67549">
        <ele>877.55</ele>
        <time>2017-02-18T15:42:11Z</time>
      </trkpt>
      <trkpt lat="45.29285" lon="5.67549">
        <ele>877.55</ele>
        <time>2017-02-18T15:42:12Z</time>
      </trkpt>
      <trkpt lat="45.29285" lon="5.67549">
        <ele>877.55</ele>
        <time>2017-02-18T15:42:13Z</time>
      </trkpt>
      <trkpt lat="45.29285" lon="5.67549">
        <ele>877.55</ele>
        <time>2017-02-18T15:42:14Z</time>
      </trkpt>
      <trkpt lat="45.29285" lon="5.67549">
        <ele>877.55</ele>
        <time>2017-02-18T15:42:15Z</time>
      </trkpt>
      <trkpt lat="45.29285" lon="5.67549">
        <ele>877.55</ele>
        <time>2017-02-18T15:42:16Z</time>
      </trkpt>
      <trkpt lat="45.29292" lon="5.67539">
        <ele>877.55</ele>
        <time>2017-02-18T15:42:17Z</time>
      </trkpt>
      <trkpt lat="45.29292" lon="5.67538">
        <ele>877.47</ele>
        <time>2017-02-18T15:42:18Z</time>
      </trkpt>
      <trkpt lat="45.29292" lon="5.67537">
        <ele>877.45</ele>
        <time>2017-02-18T15:42:19Z</time>
      </trkpt>
      <trkpt lat="45.29293" lon="5.67536">
        <ele>877.45</ele>
        <time>2017-02-18T15:42:20Z</time>
      </trkpt>
      <trkpt lat="45.29293" lon="5.67536">
        <ele>877.45</ele>
        <time>2017-02-18T15:42:21Z</time>
      </trkpt>
      <trkpt lat="45.29294" lon="5.67534">
        <ele>877.29</ele>
        <time>2017-02-18T15:42:22Z</time>
      </trkpt>
      <trkpt lat="45.29294" lon="5.67532">
        <ele>877.18</ele>
        <time>2017-02-18T15:42:23Z</time>
      </trkpt>
      <trkpt lat="45.29295" lon="5.67531">
        <ele>877.15</ele>
        <time>2017-02-18T15:42:24Z</time>
      </trkpt>
      <trkpt lat="45.29295" lon="5.6753">
        <ele>877.07</ele>
        <time>2017-02-18T15:42:25Z</time>
      </trkpt>
      <trkpt lat="45.29295" lon="5.67529">
        <ele>877.13</ele>
        <time>2017-02-18T15:42:26Z</time>
      </trkpt>
      <trkpt lat="45.29295" lon="5.67529">
        <ele>877.15</ele>
        <time>2017-02-18T15:42:27Z</time>
      </trkpt>
      <trkpt lat="45.29295" lon="5.67529">
        <ele>877.15</ele>
        <time>2017-02-18T15:42:28Z</time>
      </trkpt>
      <trkpt lat="45.29295" lon="5.67529">
        <ele>877.15</ele>
        <time>2017-02-18T15:42:29Z</time>
      </trkpt>
      <trkpt lat="45.29295" lon="5.67529">
        <ele>877.15</ele>
        <time>2017-02-18T15:42:30Z</time>
      </trkpt>
      <trkpt lat="45.29295" lon="5.67529">
        <ele>877.15</ele>
        <time>2017-02-18T15:42:31Z</time>
      </trkpt>
      <trkpt lat="45.29295" lon="5.67529">
        <ele>877.15</ele>
        <time>2017-02-18T15:42:32Z</time>
      </trkpt>
      <trkpt lat="45.29295" lon="5.67529">
        <ele>877.15</ele>
        <time>2017-02-18T15:42:33Z</time>
      </trkpt>
      <trkpt lat="45.29295" lon="5.67529">
        <ele>877.15</ele>
        <time>2017-02-18T15:42:34Z</time>
      </trkpt>
      <trkpt lat="45.29293" lon="5.67516">
        <ele>876.83</ele>
        <time>2017-02-18T15:42:35Z</time>
      </trkpt>
      <trkpt lat="45.29292" lon="5.67515">
        <ele>876.6</ele>
        <time>2017-02-18T15:42:36Z</time>
      </trkpt>
      <trkpt lat="45.29292" lon="5.67513">
        <ele>876.48</ele>
        <time>2017-02-18T15:42:37Z</time>
      </trkpt>
      <trkpt lat="45.29291" lon="5.67512">
        <ele>876.46</ele>
        <time>2017-02-18T15:42:38Z</time>
      </trkpt>
      <trkpt lat="45.29291" lon="5.67512">
        <ele>876.45</ele>
        <time>2017-02-18T15:42:39Z</time>
      </trkpt>
      <trkpt lat="45.29291" lon="5.67512">
        <ele>876.45</ele>
        <time>2017-02-18T15:42:40Z</time>
      </trkpt>
      <trkpt lat="45.29291" lon="5.67512">
        <ele>876.45</ele>
        <time>2017-02-18T15:42:41Z</time>
      </trkpt>
      <trkpt lat="45.29291" lon="5.67512">
        <ele>876.45</ele>
        <time>2017-02-18T15:42:42Z</time>
      </trkpt>
      <trkpt lat="45.29291" lon="5.67512">
        <ele>876.45</ele>
        <time>2017-02-18T15:42:43Z</time>
      </trkpt>
      <trkpt lat="45.29291" lon="5.67512">
        <ele>876.45</ele>
        <time>2017-02-18T15:42:44Z</time>
      </trkpt>
      <trkpt lat="45.29291" lon="5.67512">
        <ele>876.45</ele>
        <time>2017-02-18T15:42:45Z</time>
      </trkpt>
      <trkpt lat="45.29291" lon="5.67512">
        <ele>876.45</ele>
        <time>2017-02-18T15:42:46Z</time>
      </trkpt>
      <trkpt lat="45.29291" lon="5.67512">
        <ele>876.45</ele>
        <time>2017-02-18T15:42:47Z</time>
      </trkpt>
      <trkpt lat="45.29291" lon="5.67512">
        <ele>876.45</ele>
        <time>2017-02-18T15:42:48Z</time>
      </trkpt>
      <trkpt lat="45.29291" lon="5.67512">
        <ele>876.45</ele>
        <time>2017-02-18T15:42:49Z</time>
      </trkpt>
      <trkpt lat="45.29291" lon="5.67512">
        <ele>876.45</ele>
        <time>2017-02-18T15:42:50Z</time>
      </trkpt>
      <trkpt lat="45.29294" lon="5.67499">
        <ele>877.65</ele>
        <time>2017-02-18T15:42:51Z</time>
      </trkpt>
      <trkpt lat="45.29295" lon="5.67498">
        <ele>877.97</ele>
        <time>2017-02-18T15:42:52Z</time>
      </trkpt>
      <trkpt lat="45.29295" lon="5.67497">
        <ele>878.11</ele>
        <time>2017-02-18T15:42:53Z</time>
      </trkpt>
      <trkpt lat="45.29296" lon="5.67496">
        <ele>878.14</ele>
        <time>2017-02-18T15:42:54Z</time>
      </trkpt>
      <trkpt lat="45.29296" lon="5.67494">
        <ele>878.23</ele>
        <time>2017-02-18T15:42:55Z</time>
      </trkpt>
      <trkpt lat="45.29296" lon="5.67493">
        <ele>878.32</ele>
        <time>2017-02-18T15:42:56Z</time>
      </trkpt>
      <trkpt lat="45.29296" lon="5.67493">
        <ele>878.5</ele>
        <time>2017-02-18T15:42:57Z</time>
      </trkpt>
      <trkpt lat="45.29297" lon="5.67492">
        <ele>878.62</ele>
        <time>2017-02-18T15:42:58Z</time>
      </trkpt>
      <trkpt lat="45.29297" lon="5.67492">
        <ele>878.64</ele>
        <time>2017-02-18T15:42:59Z</time>
      </trkpt>
      <trkpt lat="45.29297" lon="5.67492">
        <ele>878.65</ele>
        <time>2017-02-18T15:43:00Z</time>
      </trkpt>
      <trkpt lat="45.29297" lon="5.67492">
        <ele>878.65</ele>
        <time>2017-02-18T15:43:01Z</time>
      </trkpt>
      <trkpt lat="45.29297" lon="5.67492">
        <ele>878.65</ele>
        <time>2017-02-18T15:43:02Z</time>
      </trkpt>
      <trkpt lat="45.29297" lon="5.67492">
        <ele>878.65</ele>
        <time>2017-02-18T15:43:03Z</time>
      </trkpt>
      <trkpt lat="45.29297" lon="5.67492">
        <ele>878.65</ele>
        <time>2017-02-18T15:43:04Z</time>
      </trkpt>
      <trkpt lat="45.29297" lon="5.67492">
        <ele>878.65</ele>
        <time>2017-02-18T15:43:05Z</time>
      </trkpt>
      <trkpt lat="45.29297" lon="5.67492">
        <ele>878.65</ele>
        <time>2017-02-18T15:43:06Z</time>
      </trkpt>
      <trkpt lat="45.29297" lon="5.67492">
        <ele>878.65</ele>
        <time>2017-02-18T15:43:07Z</time>
      </trkpt>
      <trkpt lat="45.29297" lon="5.67492">
        <ele>878.65</ele>
        <time>2017-02-18T15:43:08Z</time>
      </trkpt>
      <trkpt lat="45.29297" lon="5.67492">
        <ele>878.65</ele>
        <time>2017-02-18T15:43:09Z</time>
      </trkpt>
      <trkpt lat="45.29297" lon="5.67492">
        <ele>878.65</ele>
        <time>2017-02-18T15:43:10Z</time>
      </trkpt>
      <trkpt lat="45.29297" lon="5.67492">
        <ele>878.65</ele>
        <time>2017-02-18T15:43:11Z</time>
      </trkpt>
      <trkpt lat="45.29297" lon="5.67492">
        <ele>878.65</ele>
        <time>2017-02-18T15:43:12Z</time>
      </trkpt>
      <trkpt lat="45.29297" lon="5.67492">
        <ele>878.65</ele>
        <time>2017-02-18T15:43:13Z</time>
      </trkpt>
      <trkpt lat="45.29297" lon="5.67492">
        <ele>878.65</ele>
        <time>2017-02-18T15:43:14Z</time>
      </trkpt>
      <trkpt lat="45.29297" lon="5.67492">
        <ele>878.65</ele>
        <time>2017-02-18T15:43:15Z</time>
      </trkpt>
      <trkpt lat="45.29297" lon="5.67492">
        <ele>878.65</ele>
        <time>2017-02-18T15:43:16Z</time>
      </trkpt>
      <trkpt lat="45.29297" lon="5.67492">
        <ele>878.65</ele>
        <time>2017-02-18T15:43:17Z</time>
      </trkpt>
      <trkpt lat="45.29297" lon="5.67492">
        <ele>878.65</ele>
        <time>2017-02-18T15:43:18Z</time>
      </trkpt>
      <trkpt lat="45.29297" lon="5.67492">
        <ele>878.65</ele>
        <time>2017-02-18T15:43:19Z</time>
      </trkpt>
      <trkpt lat="45.29297" lon="5.67492">
        <ele>878.65</ele>
        <time>2017-02-18T15:43:20Z</time>
      </trkpt>
      <trkpt lat="45.29297" lon="5.67492">
        <ele>878.65</ele>
        <time>2017-02-18T15:43:21Z</time>
      </trkpt>
      <trkpt lat="45.29297" lon="5.67492">
        <ele>878.65</ele>
        <time>2017-02-18T15:43:22Z</time>
      </trkpt>
      <trkpt lat="45.29297" lon="5.67492">
        <ele>878.65</ele>
        <time>2017-02-18T15:43:23Z</time>
      </trkpt>
      <trkpt lat="45.29297" lon="5.67492">
        <ele>878.65</ele>
        <time>2017-02-18T15:43:24Z</time>
      </trkpt>
      <trkpt lat="45.29297" lon="5.67492">
        <ele>878.65</ele>
        <time>2017-02-18T15:43:25Z</time>
      </trkpt>
      <trkpt lat="45.29297" lon="5.67492">
        <ele>878.65</ele>
        <time>2017-02-18T15:43:26Z</time>
      </trkpt>
      <trkpt lat="45.29297" lon="5.67492">
        <ele>878.65</ele>
        <time>2017-02-18T15:43:27Z</time>
      </trkpt>
      <trkpt lat="45.29297" lon="5.67492">
        <ele>878.65</ele>
        <time>2017-02-18T15:43:28Z</time>
      </trkpt>
      <trkpt lat="45.29297" lon="5.67492">
        <ele>878.65</ele>
        <time>2017-02-18T15:43:29Z</time>
      </trkpt>
      <trkpt lat="45.29297" lon="5.67492">
        <ele>878.65</ele>
        <time>2017-02-18T15:43:30Z</time>
      </trkpt>
      <trkpt lat="45.29297" lon="5.67492">
        <ele>878.65</ele>
        <time>2017-02-18T15:43:31Z</time>
      </trkpt>
      <trkpt lat="45.29297" lon="5.67492">
        <ele>878.65</ele>
        <time>2017-02-18T15:43:32Z</time>
      </trkpt>
      <trkpt lat="45.29297" lon="5.67492">
        <ele>878.65</ele>
        <time>2017-02-18T15:43:33Z</time>
      </trkpt>
      <trkpt lat="45.29297" lon="5.67492">
        <ele>878.65</ele>
        <time>2017-02-18T15:43:34Z</time>
      </trkpt>
      <trkpt lat="45.29297" lon="5.67492">
        <ele>878.65</ele>
        <time>2017-02-18T15:43:35Z</time>
      </trkpt>
      <trkpt lat="45.29297" lon="5.67492">
        <ele>878.65</ele>
        <time>2017-02-18T15:43:36Z</time>
      </trkpt>
      <trkpt lat="45.29297" lon="5.67492">
        <ele>878.65</ele>
        <time>2017-02-18T15:43:37Z</time>
      </trkpt>
      <trkpt lat="45.29297" lon="5.67492">
        <ele>878.65</ele>
        <time>2017-02-18T15:43:38Z</time>
      </trkpt>
      <trkpt lat="45.29297" lon="5.67492">
        <ele>878.65</ele>
        <time>2017-02-18T15:43:39Z</time>
      </trkpt>
      <trkpt lat="45.29297" lon="5.67492">
        <ele>878.65</ele>
        <time>2017-02-18T15:43:40Z</time>
      </trkpt>
      <trkpt lat="45.29297" lon="5.67492">
        <ele>878.65</ele>
        <time>2017-02-18T15:43:41Z</time>
      </trkpt>
      <trkpt lat="45.29297" lon="5.67492">
        <ele>878.65</ele>
        <time>2017-02-18T15:43:42Z</time>
      </trkpt>
      <trkpt lat="45.29297" lon="5.67492">
        <ele>878.65</ele>
        <time>2017-02-18T15:43:43Z</time>
      </trkpt>
      <trkpt lat="45.29297" lon="5.67492">
        <ele>878.65</ele>
        <time>2017-02-18T15:43:44Z</time>
      </trkpt>
      <trkpt lat="45.29297" lon="5.67492">
        <ele>878.65</ele>
        <time>2017-02-18T15:43:45Z</time>
      </trkpt>
      <trkpt lat="45.29297" lon="5.67492">
        <ele>878.65</ele>
        <time>2017-02-18T15:43:46Z</time>
      </trkpt>
      <trkpt lat="45.29297" lon="5.67492">
        <ele>878.65</ele>
        <time>2017-02-18T15:43:47Z</time>
      </trkpt>
      <trkpt lat="45.29297" lon="5.67492">
        <ele>878.65</ele>
        <time>2017-02-18T15:43:48Z</time>
      </trkpt>
      <trkpt lat="45.29297" lon="5.67492">
        <ele>878.65</ele>
        <time>2017-02-18T15:43:49Z</time>
      </trkpt>
      <trkpt lat="45.29297" lon="5.67492">
        <ele>878.65</ele>
        <time>2017-02-18T15:43:50Z</time>
      </trkpt>
      <trkpt lat="45.29297" lon="5.67492">
        <ele>878.65</ele>
        <time>2017-02-18T15:43:51Z</time>
      </trkpt>
      <trkpt lat="45.29297" lon="5.67492">
        <ele>878.65</ele>
        <time>2017-02-18T15:43:52Z</time>
      </trkpt>
      <trkpt lat="45.29297" lon="5.67492">
        <ele>878.65</ele>
        <time>2017-02-18T15:43:53Z</time>
      </trkpt>
      <trkpt lat="45.29297" lon="5.67492">
        <ele>878.65</ele>
        <time>2017-02-18T15:43:54Z</time>
      </trkpt>
      <trkpt lat="45.29297" lon="5.67492">
        <ele>878.65</ele>
        <time>2017-02-18T15:43:55Z</time>
      </trkpt>
      <trkpt lat="45.29297" lon="5.67492">
        <ele>878.65</ele>
        <time>2017-02-18T15:43:56Z</time>
      </trkpt>
      <trkpt lat="45.29297" lon="5.67492">
        <ele>878.65</ele>
        <time>2017-02-18T15:43:57Z</time>
      </trkpt>
      <trkpt lat="45.29297" lon="5.67492">
        <ele>878.65</ele>
        <time>2017-02-18T15:43:58Z</time>
      </trkpt>
      <trkpt lat="45.29297" lon="5.67492">
        <ele>878.65</ele>
        <time>2017-02-18T15:43:59Z</time>
      </trkpt>
      <trkpt lat="45.29297" lon="5.67492">
        <ele>878.65</ele>
        <time>2017-02-18T15:44:00Z</time>
      </trkpt>
      <trkpt lat="45.29297" lon="5.67492">
        <ele>878.65</ele>
        <time>2017-02-18T15:44:01Z</time>
      </trkpt>
      <trkpt lat="45.29297" lon="5.67492">
        <ele>878.65</ele>
        <time>2017-02-18T15:44:02Z</time>
      </trkpt>
      <trkpt lat="45.29297" lon="5.67492">
        <ele>878.65</ele>
        <time>2017-02-18T15:44:03Z</time>
      </trkpt>
      <trkpt lat="45.29297" lon="5.67492">
        <ele>878.65</ele>
        <time>2017-02-18T15:44:04Z</time>
      </trkpt>
      <trkpt lat="45.29297" lon="5.67492">
        <ele>878.65</ele>
        <time>2017-02-18T15:44:05Z</time>
      </trkpt>
      <trkpt lat="45.29297" lon="5.67492">
        <ele>878.65</ele>
        <time>2017-02-18T15:44:06Z</time>
      </trkpt>
      <trkpt lat="45.29297" lon="5.67492">
        <ele>878.65</ele>
        <time>2017-02-18T15:44:07Z</time>
      </trkpt>
      <trkpt lat="45.29297" lon="5.67492">
        <ele>878.65</ele>
        <time>2017-02-18T15:44:08Z</time>
      </trkpt>
      <trkpt lat="45.29297" lon="5.67492">
        <ele>878.65</ele>
        <time>2017-02-18T15:44:09Z</time>
      </trkpt>
      <trkpt lat="45.29297" lon="5.67492">
        <ele>878.65</ele>
        <time>2017-02-18T15:44:10Z</time>
      </trkpt>
      <trkpt lat="45.29297" lon="5.67492">
        <ele>878.65</ele>
        <time>2017-02-18T15:44:11Z</time>
      </trkpt>
      <trkpt lat="45.29297" lon="5.67492">
        <ele>878.65</ele>
        <time>2017-02-18T15:44:12Z</time>
      </trkpt>
      <trkpt lat="45.29297" lon="5.67492">
        <ele>878.65</ele>
        <time>2017-02-18T15:44:13Z</time>
      </trkpt>
      <trkpt lat="45.29297" lon="5.67492">
        <ele>878.65</ele>
        <time>2017-02-18T15:44:14Z</time>
      </trkpt>
      <trkpt lat="45.29297" lon="5.67492">
        <ele>878.65</ele>
        <time>2017-02-18T15:44:15Z</time>
      </trkpt>
      <trkpt lat="45.29297" lon="5.67492">
        <ele>878.65</ele>
        <time>2017-02-18T15:44:16Z</time>
      </trkpt>
      <trkpt lat="45.29297" lon="5.67492">
        <ele>878.65</ele>
        <time>2017-02-18T15:44:17Z</time>
      </trkpt>
      <trkpt lat="45.29297" lon="5.67492">
        <ele>878.65</ele>
        <time>2017-02-18T15:44:18Z</time>
      </trkpt>
      <trkpt lat="45.29297" lon="5.67492">
        <ele>878.65</ele>
        <time>2017-02-18T15:44:19Z</time>
      </trkpt>
      <trkpt lat="45.29297" lon="5.67492">
        <ele>878.65</ele>
        <time>2017-02-18T15:44:20Z</time>
      </trkpt>
      <trkpt lat="45.29297" lon="5.67492">
        <ele>878.65</ele>
        <time>2017-02-18T15:44:21Z</time>
      </trkpt>
      <trkpt lat="45.29297" lon="5.67492">
        <ele>878.65</ele>
        <time>2017-02-18T15:44:22Z</time>
      </trkpt>
      <trkpt lat="45.29297" lon="5.67492">
        <ele>878.65</ele>
        <time>2017-02-18T15:44:23Z</time>
      </trkpt>
      <trkpt lat="45.29297" lon="5.67492">
        <ele>878.65</ele>
        <time>2017-02-18T15:44:24Z</time>
      </trkpt>
      <trkpt lat="45.29297" lon="5.67492">
        <ele>878.65</ele>
        <time>2017-02-18T15:44:25Z</time>
      </trkpt>
      <trkpt lat="45.29297" lon="5.67492">
        <ele>878.65</ele>
        <time>2017-02-18T15:44:26Z</time>
      </trkpt>
      <trkpt lat="45.29297" lon="5.67492">
        <ele>878.65</ele>
        <time>2017-02-18T15:44:27Z</time>
      </trkpt>
      <trkpt lat="45.29297" lon="5.67492">
        <ele>878.65</ele>
        <time>2017-02-18T15:44:28Z</time>
      </trkpt>
      <trkpt lat="45.29297" lon="5.67492">
        <ele>878.65</ele>
        <time>2017-02-18T15:44:29Z</time>
      </trkpt>
      <trkpt lat="45.29297" lon="5.67492">
        <ele>878.65</ele>
        <time>2017-02-18T15:44:30Z</time>
      </trkpt>
      <trkpt lat="45.29297" lon="5.67492">
        <ele>878.65</ele>
        <time>2017-02-18T15:44:31Z</time>
      </trkpt>
      <trkpt lat="45.29297" lon="5.67492">
        <ele>878.65</ele>
        <time>2017-02-18T15:44:32Z</time>
      </trkpt>
      <trkpt lat="45.29297" lon="5.67492">
        <ele>878.65</ele>
        <time>2017-02-18T15:44:33Z</time>
      </trkpt>
      <trkpt lat="45.29297" lon="5.67492">
        <ele>878.65</ele>
        <time>2017-02-18T15:44:34Z</time>
      </trkpt>
      <trkpt lat="45.29297" lon="5.67492">
        <ele>878.65</ele>
        <time>2017-02-18T15:44:35Z</time>
      </trkpt>
      <trkpt lat="45.29297" lon="5.67492">
        <ele>878.65</ele>
        <time>2017-02-18T15:44:36Z</time>
      </trkpt>
      <trkpt lat="45.29297" lon="5.67492">
        <ele>878.65</ele>
        <time>2017-02-18T15:44:37Z</time>
      </trkpt>
      <trkpt lat="45.29297" lon="5.67492">
        <ele>878.65</ele>
        <time>2017-02-18T15:44:38Z</time>
      </trkpt>
      <trkpt lat="45.29297" lon="5.67492">
        <ele>878.65</ele>
        <time>2017-02-18T15:44:39Z</time>
      </trkpt>
      <trkpt lat="45.29297" lon="5.67492">
        <ele>878.65</ele>
        <time>2017-02-18T15:44:40Z</time>
      </trkpt>
      <trkpt lat="45.29297" lon="5.67492">
        <ele>878.65</ele>
        <time>2017-02-18T15:44:41Z</time>
      </trkpt>
      <trkpt lat="45.29297" lon="5.67492">
        <ele>878.65</ele>
        <time>2017-02-18T15:44:42Z</time>
      </trkpt>
      <trkpt lat="45.29297" lon="5.67492">
        <ele>878.65</ele>
        <time>2017-02-18T15:44:43Z</time>
      </trkpt>
      <trkpt lat="45.29297" lon="5.67492">
        <ele>878.65</ele>
        <time>2017-02-18T15:44:44Z</time>
      </trkpt>
      <trkpt lat="45.29297" lon="5.67492">
        <ele>878.65</ele>
        <time>2017-02-18T15:44:45Z</time>
      </trkpt>
      <trkpt lat="45.29297" lon="5.67492">
        <ele>878.65</ele>
        <time>2017-02-18T15:44:46Z</time>
      </trkpt>
      <trkpt lat="45.29297" lon="5.67492">
        <ele>878.65</ele>
        <time>2017-02-18T15:44:47Z</time>
      </trkpt>
      <trkpt lat="45.29297" lon="5.67492">
        <ele>878.65</ele>
        <time>2017-02-18T15:44:48Z</time>
      </trkpt>
      <trkpt lat="45.29297" lon="5.67492">
        <ele>878.65</ele>
        <time>2017-02-18T15:44:49Z</time>
      </trkpt>
      <trkpt lat="45.29297" lon="5.67492">
        <ele>878.65</ele>
        <time>2017-02-18T15:44:50Z</time>
      </trkpt>
      <trkpt lat="45.29297" lon="5.67492">
        <ele>878.65</ele>
        <time>2017-02-18T15:44:51Z</time>
      </trkpt>
      <trkpt lat="45.29297" lon="5.67492">
        <ele>878.65</ele>
        <time>2017-02-18T15:44:52Z</time>
      </trkpt>
      <trkpt lat="45.29297" lon="5.67492">
        <ele>878.65</ele>
        <time>2017-02-18T15:44:53Z</time>
      </trkpt>
      <trkpt lat="45.29297" lon="5.67492">
        <ele>878.65</ele>
        <time>2017-02-18T15:44:54Z</time>
      </trkpt>
      <trkpt lat="45.29297" lon="5.67492">
        <ele>878.65</ele>
        <time>2017-02-18T15:44:55Z</time>
      </trkpt>
      <trkpt lat="45.29297" lon="5.67492">
        <ele>878.65</ele>
        <time>2017-02-18T15:44:56Z</time>
      </trkpt>
      <trkpt lat="45.29297" lon="5.67492">
        <ele>878.65</ele>
        <time>2017-02-18T15:44:57Z</time>
      </trkpt>
      <trkpt lat="45.29297" lon="5.67492">
        <ele>878.65</ele>
        <time>2017-02-18T15:44:58Z</time>
      </trkpt>
      <trkpt lat="45.29297" lon="5.67492">
        <ele>878.65</ele>
        <time>2017-02-18T15:44:59Z</time>
      </trkpt>
      <trkpt lat="45.29297" lon="5.67492">
        <ele>878.65</ele>
        <time>2017-02-18T15:45:00Z</time>
      </trkpt>
      <trkpt lat="45.29297" lon="5.67492">
        <ele>878.65</ele>
        <time>2017-02-18T15:45:01Z</time>
      </trkpt>
      <trkpt lat="45.29297" lon="5.67492">
        <ele>878.65</ele>
        <time>2017-02-18T15:45:02Z</time>
      </trkpt>
      <trkpt lat="45.29297" lon="5.67492">
        <ele>878.65</ele>
        <time>2017-02-18T15:45:03Z</time>
      </trkpt>
      <trkpt lat="45.29297" lon="5.67492">
        <ele>878.65</ele>
        <time>2017-02-18T15:45:04Z</time>
      </trkpt>
      <trkpt lat="45.29297" lon="5.67492">
        <ele>878.65</ele>
        <time>2017-02-18T15:45:05Z</time>
      </trkpt>
      <trkpt lat="45.29297" lon="5.67492">
        <ele>878.65</ele>
        <time>2017-02-18T15:45:06Z</time>
      </trkpt>
      <trkpt lat="45.29297" lon="5.67492">
        <ele>878.65</ele>
        <time>2017-02-18T15:45:07Z</time>
      </trkpt>
      <trkpt lat="45.29297" lon="5.67492">
        <ele>878.65</ele>
        <time>2017-02-18T15:45:08Z</time>
      </trkpt>
      <trkpt lat="45.29297" lon="5.67492">
        <ele>878.65</ele>
        <time>2017-02-18T15:45:09Z</time>
      </trkpt>
      <trkpt lat="45.29297" lon="5.67492">
        <ele>878.65</ele>
        <time>2017-02-18T15:45:10Z</time>
      </trkpt>
      <trkpt lat="45.29297" lon="5.67492">
        <ele>878.65</ele>
        <time>2017-02-18T15:45:11Z</time>
      </trkpt>
      <trkpt lat="45.29297" lon="5.67492">
        <ele>878.65</ele>
        <time>2017-02-18T15:45:12Z</time>
      </trkpt>
      <trkpt lat="45.29297" lon="5.67492">
        <ele>878.65</ele>
        <time>2017-02-18T15:45:13Z</time>
      </trkpt>
      <trkpt lat="45.29297" lon="5.67492">
        <ele>878.65</ele>
        <time>2017-02-18T15:45:14Z</time>
      </trkpt>
      <trkpt lat="45.29297" lon="5.67492">
        <ele>878.65</ele>
        <time>2017-02-18T15:45:15Z</time>
      </trkpt>
      <trkpt lat="45.29297" lon="5.67492">
        <ele>878.65</ele>
        <time>2017-02-18T15:45:16Z</time>
      </trkpt>
      <trkpt lat="45.29297" lon="5.67492">
        <ele>878.65</ele>
        <time>2017-02-18T15:45:17Z</time>
      </trkpt>
      <trkpt lat="45.29301" lon="5.67489">
        <ele>877.93</ele>
        <time>2017-02-18T15:45:18Z</time>
      </trkpt>
      <trkpt lat="45.293" lon="5.67489">
        <ele>878.03</ele>
        <time>2017-02-18T15:45:19Z</time>
      </trkpt>
      <trkpt lat="45.293" lon="5.67489">
        <ele>878.28</ele>
        <time>2017-02-18T15:45:20Z</time>
      </trkpt>
      <trkpt lat="45.293" lon="5.67489">
        <ele>878.58</ele>
        <time>2017-02-18T15:45:21Z</time>
      </trkpt>
      <trkpt lat="45.293" lon="5.67489">
        <ele>878.63</ele>
        <time>2017-02-18T15:45:22Z</time>
      </trkpt>
      <trkpt lat="45.293" lon="5.67489">
        <ele>878.65</ele>
        <time>2017-02-18T15:45:23Z</time>
      </trkpt>
      <trkpt lat="45.293" lon="5.67489">
        <ele>878.65</ele>
        <time>2017-02-18T15:45:24Z</time>
      </trkpt>
      <trkpt lat="45.293" lon="5.67489">
        <ele>878.65</ele>
        <time>2017-02-18T15:45:25Z</time>
      </trkpt>
      <trkpt lat="45.293" lon="5.67489">
        <ele>878.65</ele>
        <time>2017-02-18T15:45:26Z</time>
      </trkpt>
      <trkpt lat="45.293" lon="5.67489">
        <ele>878.65</ele>
        <time>2017-02-18T15:45:27Z</time>
      </trkpt>
      <trkpt lat="45.293" lon="5.67489">
        <ele>878.65</ele>
        <time>2017-02-18T15:45:28Z</time>
      </trkpt>
      <trkpt lat="45.293" lon="5.67489">
        <ele>878.65</ele>
        <time>2017-02-18T15:45:29Z</time>
      </trkpt>
      <trkpt lat="45.293" lon="5.67489">
        <ele>878.65</ele>
        <time>2017-02-18T15:45:30Z</time>
      </trkpt>
      <trkpt lat="45.293" lon="5.67489">
        <ele>878.65</ele>
        <time>2017-02-18T15:45:31Z</time>
      </trkpt>
      <trkpt lat="45.293" lon="5.67489">
        <ele>878.65</ele>
        <time>2017-02-18T15:45:32Z</time>
      </trkpt>
      <trkpt lat="45.293" lon="5.67489">
        <ele>878.65</ele>
        <time>2017-02-18T15:45:33Z</time>
      </trkpt>
      <trkpt lat="45.29303" lon="5.67487">
        <ele>879.37</ele>
        <time>2017-02-18T15:45:34Z</time>
      </trkpt>
      <trkpt lat="45.29304" lon="5.67485">
        <ele>879.67</ele>
        <time>2017-02-18T15:45:35Z</time>
      </trkpt>
      <trkpt lat="45.29304" lon="5.67481">
        <ele>879.89</ele>
        <time>2017-02-18T15:45:36Z</time>
      </trkpt>
      <trkpt lat="45.29304" lon="5.67476">
        <ele>880.26</ele>
        <time>2017-02-18T15:45:37Z</time>
      </trkpt>
      <trkpt lat="45.29303" lon="5.67471">
        <ele>880.65</ele>
        <time>2017-02-18T15:45:38Z</time>
      </trkpt>
      <trkpt lat="45.29303" lon="5.67465">
        <ele>881.05</ele>
        <time>2017-02-18T15:45:39Z</time>
      </trkpt>
      <trkpt lat="45.29304" lon="5.67458">
        <ele>880.89</ele>
        <time>2017-02-18T15:45:40Z</time>
      </trkpt>
      <trkpt lat="45.29305" lon="5.67451">
        <ele>880.78</ele>
        <time>2017-02-18T15:45:41Z</time>
      </trkpt>
      <trkpt lat="45.29306" lon="5.67443">
        <ele>880.75</ele>
        <time>2017-02-18T15:45:42Z</time>
      </trkpt>
      <trkpt lat="45.29309" lon="5.67434">
        <ele>880.35</ele>
        <time>2017-02-18T15:45:43Z</time>
      </trkpt>
      <trkpt lat="45.29313" lon="5.67424">
        <ele>879.79</ele>
        <time>2017-02-18T15:45:44Z</time>
      </trkpt>
      <trkpt lat="45.29316" lon="5.67414">
        <ele>878.96</ele>
        <time>2017-02-18T15:45:45Z</time>
      </trkpt>
      <trkpt lat="45.2932" lon="5.67403">
        <ele>878.55</ele>
        <time>2017-02-18T15:45:46Z</time>
      </trkpt>
      <trkpt lat="45.29322" lon="5.67392">
        <ele>878.31</ele>
        <time>2017-02-18T15:45:47Z</time>
      </trkpt>
      <trkpt lat="45.29322" lon="5.6738">
        <ele>878.34</ele>
        <time>2017-02-18T15:45:48Z</time>
      </trkpt>
      <trkpt lat="45.29322" lon="5.67369">
        <ele>878.35</ele>
        <time>2017-02-18T15:45:49Z</time>
      </trkpt>
      <trkpt lat="45.29321" lon="5.67358">
        <ele>878.19</ele>
        <time>2017-02-18T15:45:50Z</time>
      </trkpt>
      <trkpt lat="45.2932" lon="5.67348">
        <ele>878</ele>
        <time>2017-02-18T15:45:51Z</time>
      </trkpt>
      <trkpt lat="45.29319" lon="5.67338">
        <ele>878.04</ele>
        <time>2017-02-18T15:45:52Z</time>
      </trkpt>
      <trkpt lat="45.29318" lon="5.67329">
        <ele>877.97</ele>
        <time>2017-02-18T15:45:53Z</time>
      </trkpt>
      <trkpt lat="45.29318" lon="5.6732">
        <ele>877.95</ele>
        <time>2017-02-18T15:45:54Z</time>
      </trkpt>
      <trkpt lat="45.29317" lon="5.67311">
        <ele>878.27</ele>
        <time>2017-02-18T15:45:55Z</time>
      </trkpt>
      <trkpt lat="45.29316" lon="5.67302">
        <ele>878.65</ele>
        <time>2017-02-18T15:45:56Z</time>
      </trkpt>
      <trkpt lat="45.29315" lon="5.67293">
        <ele>878.97</ele>
        <time>2017-02-18T15:45:57Z</time>
      </trkpt>
      <trkpt lat="45.29315" lon="5.67284">
        <ele>879.19</ele>
        <time>2017-02-18T15:45:58Z</time>
      </trkpt>
      <trkpt lat="45.29316" lon="5.67276">
        <ele>879.4</ele>
        <time>2017-02-18T15:45:59Z</time>
      </trkpt>
      <trkpt lat="45.29318" lon="5.67269">
        <ele>879.76</ele>
        <time>2017-02-18T15:46:00Z</time>
      </trkpt>
      <trkpt lat="45.29321" lon="5.67264">
        <ele>879.99</ele>
        <time>2017-02-18T15:46:01Z</time>
      </trkpt>
      <trkpt lat="45.29324" lon="5.67261">
        <ele>880.12</ele>
        <time>2017-02-18T15:46:02Z</time>
      </trkpt>
      <trkpt lat="45.29329" lon="5.67259">
        <ele>880.22</ele>
        <time>2017-02-18T15:46:03Z</time>
      </trkpt>
      <trkpt lat="45.29334" lon="5.67256">
        <ele>880.24</ele>
        <time>2017-02-18T15:46:04Z</time>
      </trkpt>
      <trkpt lat="45.29341" lon="5.67255">
        <ele>880.25</ele>
        <time>2017-02-18T15:46:05Z</time>
      </trkpt>
      <trkpt lat="45.29347" lon="5.67256">
        <ele>880.25</ele>
        <time>2017-02-18T15:46:06Z</time>
      </trkpt>
      <trkpt lat="45.29353" lon="5.67261">
        <ele>880.25</ele>
        <time>2017-02-18T15:46:07Z</time>
      </trkpt>
      <trkpt lat="45.29361" lon="5.67267">
        <ele>880.01</ele>
        <time>2017-02-18T15:46:08Z</time>
      </trkpt>
      <trkpt lat="45.29368" lon="5.67275">
        <ele>879.8</ele>
        <time>2017-02-18T15:46:09Z</time>
      </trkpt>
      <trkpt lat="45.29375" lon="5.67282">
        <ele>879.52</ele>
        <time>2017-02-18T15:46:10Z</time>
      </trkpt>
      <trkpt lat="45.29383" lon="5.67289">
        <ele>879.14</ele>
        <time>2017-02-18T15:46:11Z</time>
      </trkpt>
      <trkpt lat="45.2939" lon="5.67294">
        <ele>878.99</ele>
        <time>2017-02-18T15:46:12Z</time>
      </trkpt>
      <trkpt lat="45.29398" lon="5.67297">
        <ele>878.56</ele>
        <time>2017-02-18T15:46:13Z</time>
      </trkpt>
      <trkpt lat="45.29406" lon="5.67299">
        <ele>878.07</ele>
        <time>2017-02-18T15:46:14Z</time>
      </trkpt>
      <trkpt lat="45.29413" lon="5.673">
        <ele>877.49</ele>
        <time>2017-02-18T15:46:15Z</time>
      </trkpt>
      <trkpt lat="45.2942" lon="5.67294">
        <ele>877.06</ele>
        <time>2017-02-18T15:46:16Z</time>
      </trkpt>
      <trkpt lat="45.29426" lon="5.67288">
        <ele>876.41</ele>
        <time>2017-02-18T15:46:17Z</time>
      </trkpt>
      <trkpt lat="45.29431" lon="5.67282">
        <ele>875.88</ele>
        <time>2017-02-18T15:46:18Z</time>
      </trkpt>
      <trkpt lat="45.29437" lon="5.67278">
        <ele>875.3</ele>
        <time>2017-02-18T15:46:19Z</time>
      </trkpt>
      <trkpt lat="45.29444" lon="5.67274">
        <ele>874.54</ele>
        <time>2017-02-18T15:46:20Z</time>
      </trkpt>
      <trkpt lat="45.29452" lon="5.67271">
        <ele>873.75</ele>
        <time>2017-02-18T15:46:21Z</time>
      </trkpt>
      <trkpt lat="45.2946" lon="5.67268">
        <ele>872.87</ele>
        <time>2017-02-18T15:46:22Z</time>
      </trkpt>
      <trkpt lat="45.2947" lon="5.67265">
        <ele>872.05</ele>
        <time>2017-02-18T15:46:23Z</time>
      </trkpt>
      <trkpt lat="45.29479" lon="5.67262">
        <ele>871.33</ele>
        <time>2017-02-18T15:46:24Z</time>
      </trkpt>
      <trkpt lat="45.29489" lon="5.67259">
        <ele>870.63</ele>
        <time>2017-02-18T15:46:25Z</time>
      </trkpt>
      <trkpt lat="45.29499" lon="5.67257">
        <ele>869.84</ele>
        <time>2017-02-18T15:46:26Z</time>
      </trkpt>
      <trkpt lat="45.29508" lon="5.67254">
        <ele>868.57</ele>
        <time>2017-02-18T15:46:27Z</time>
      </trkpt>
      <trkpt lat="45.29518" lon="5.6725">
        <ele>867.35</ele>
        <time>2017-02-18T15:46:28Z</time>
      </trkpt>
      <trkpt lat="45.29526" lon="5.67247">
        <ele>866.15</ele>
        <time>2017-02-18T15:46:29Z</time>
      </trkpt>
      <trkpt lat="45.29535" lon="5.67243">
        <ele>865.03</ele>
        <time>2017-02-18T15:46:30Z</time>
      </trkpt>
      <trkpt lat="45.29544" lon="5.67237">
        <ele>864.01</ele>
        <time>2017-02-18T15:46:31Z</time>
      </trkpt>
      <trkpt lat="45.29553" lon="5.6723">
        <ele>863</ele>
        <time>2017-02-18T15:46:32Z</time>
      </trkpt>
      <trkpt lat="45.29562" lon="5.67223">
        <ele>861.76</ele>
        <time>2017-02-18T15:46:33Z</time>
      </trkpt>
      <trkpt lat="45.29572" lon="5.67215">
        <ele>860.23</ele>
        <time>2017-02-18T15:46:34Z</time>
      </trkpt>
      <trkpt lat="45.29581" lon="5.67207">
        <ele>858.41</ele>
        <time>2017-02-18T15:46:35Z</time>
      </trkpt>
      <trkpt lat="45.2959" lon="5.672">
        <ele>856.36</ele>
        <time>2017-02-18T15:46:36Z</time>
      </trkpt>
      <trkpt lat="45.29598" lon="5.67192">
        <ele>854.59</ele>
        <time>2017-02-18T15:46:37Z</time>
      </trkpt>
      <trkpt lat="45.29604" lon="5.67184">
        <ele>853.36</ele>
        <time>2017-02-18T15:46:38Z</time>
      </trkpt>
      <trkpt lat="45.2961" lon="5.67178">
        <ele>852.39</ele>
        <time>2017-02-18T15:46:39Z</time>
      </trkpt>
      <trkpt lat="45.29617" lon="5.67176">
        <ele>851.8</ele>
        <time>2017-02-18T15:46:40Z</time>
      </trkpt>
      <trkpt lat="45.29626" lon="5.67175">
        <ele>850.56</ele>
        <time>2017-02-18T15:46:41Z</time>
      </trkpt>
      <trkpt lat="45.29636" lon="5.67176">
        <ele>849.11</ele>
        <time>2017-02-18T15:46:42Z</time>
      </trkpt>
      <trkpt lat="45.29646" lon="5.67177">
        <ele>847.46</ele>
        <time>2017-02-18T15:46:43Z</time>
      </trkpt>
      <trkpt lat="45.29656" lon="5.67177">
        <ele>846.17</ele>
        <time>2017-02-18T15:46:44Z</time>
      </trkpt>
      <trkpt lat="45.29666" lon="5.67174">
        <ele>845.27</ele>
        <time>2017-02-18T15:46:45Z</time>
      </trkpt>
      <trkpt lat="45.29675" lon="5.67169">
        <ele>844.29</ele>
        <time>2017-02-18T15:46:46Z</time>
      </trkpt>
      <trkpt lat="45.29684" lon="5.67162">
        <ele>843.38</ele>
        <time>2017-02-18T15:46:47Z</time>
      </trkpt>
      <trkpt lat="45.29693" lon="5.67154">
        <ele>842.39</ele>
        <time>2017-02-18T15:46:48Z</time>
      </trkpt>
      <trkpt lat="45.29704" lon="5.67147">
        <ele>841.16</ele>
        <time>2017-02-18T15:46:49Z</time>
      </trkpt>
      <trkpt lat="45.29715" lon="5.6714">
        <ele>839.71</ele>
        <time>2017-02-18T15:46:50Z</time>
      </trkpt>
      <trkpt lat="45.29725" lon="5.67132">
        <ele>837.82</ele>
        <time>2017-02-18T15:46:51Z</time>
      </trkpt>
      <trkpt lat="45.29735" lon="5.67124">
        <ele>836.24</ele>
        <time>2017-02-18T15:46:52Z</time>
      </trkpt>
      <trkpt lat="45.29744" lon="5.67115">
        <ele>834.65</ele>
        <time>2017-02-18T15:46:53Z</time>
      </trkpt>
      <trkpt lat="45.29753" lon="5.67105">
        <ele>832.65</ele>
        <time>2017-02-18T15:46:54Z</time>
      </trkpt>
      <trkpt lat="45.29761" lon="5.67097">
        <ele>830.81</ele>
        <time>2017-02-18T15:46:55Z</time>
      </trkpt>
      <trkpt lat="45.29767" lon="5.67091">
        <ele>829.08</ele>
        <time>2017-02-18T15:46:56Z</time>
      </trkpt>
      <trkpt lat="45.2977" lon="5.67086">
        <ele>827.7</ele>
        <time>2017-02-18T15:46:57Z</time>
      </trkpt>
      <trkpt lat="45.29772" lon="5.6708">
        <ele>826.62</ele>
        <time>2017-02-18T15:46:58Z</time>
      </trkpt>
      <trkpt lat="45.29771" lon="5.67075">
        <ele>825.92</ele>
        <time>2017-02-18T15:46:59Z</time>
      </trkpt>
      <trkpt lat="45.29768" lon="5.67071">
        <ele>824.98</ele>
        <time>2017-02-18T15:47:00Z</time>
      </trkpt>
      <trkpt lat="45.29765" lon="5.6707">
        <ele>824</ele>
        <time>2017-02-18T15:47:01Z</time>
      </trkpt>
      <trkpt lat="45.29762" lon="5.6707">
        <ele>822.92</ele>
        <time>2017-02-18T15:47:02Z</time>
      </trkpt>
      <trkpt lat="45.29756" lon="5.67074">
        <ele>821.58</ele>
        <time>2017-02-18T15:47:03Z</time>
      </trkpt>
      <trkpt lat="45.29749" lon="5.67079">
        <ele>820.2</ele>
        <time>2017-02-18T15:47:04Z</time>
      </trkpt>
      <trkpt lat="45.29742" lon="5.67084">
        <ele>818.72</ele>
        <time>2017-02-18T15:47:05Z</time>
      </trkpt>
      <trkpt lat="45.29734" lon="5.67089">
        <ele>817.38</ele>
        <time>2017-02-18T15:47:06Z</time>
      </trkpt>
      <trkpt lat="45.29724" lon="5.67093">
        <ele>816.24</ele>
        <time>2017-02-18T15:47:07Z</time>
      </trkpt>
      <trkpt lat="45.29715" lon="5.67097">
        <ele>815.13</ele>
        <time>2017-02-18T15:47:08Z</time>
      </trkpt>
      <trkpt lat="45.29704" lon="5.671">
        <ele>814.1</ele>
        <time>2017-02-18T15:47:09Z</time>
      </trkpt>
      <trkpt lat="45.29694" lon="5.67102">
        <ele>813.1</ele>
        <time>2017-02-18T15:47:10Z</time>
      </trkpt>
      <trkpt lat="45.29683" lon="5.67103">
        <ele>812.02</ele>
        <time>2017-02-18T15:47:11Z</time>
      </trkpt>
      <trkpt lat="45.29672" lon="5.67103">
        <ele>811</ele>
        <time>2017-02-18T15:47:12Z</time>
      </trkpt>
      <trkpt lat="45.29661" lon="5.67104">
        <ele>810</ele>
        <time>2017-02-18T15:47:13Z</time>
      </trkpt>
      <trkpt lat="45.29649" lon="5.67105">
        <ele>808.84</ele>
        <time>2017-02-18T15:47:14Z</time>
      </trkpt>
      <trkpt lat="45.29638" lon="5.67108">
        <ele>807.73</ele>
        <time>2017-02-18T15:47:15Z</time>
      </trkpt>
      <trkpt lat="45.29626" lon="5.6711">
        <ele>806.62</ele>
        <time>2017-02-18T15:47:16Z</time>
      </trkpt>
      <trkpt lat="45.29615" lon="5.67111">
        <ele>805.52</ele>
        <time>2017-02-18T15:47:17Z</time>
      </trkpt>
      <trkpt lat="45.29603" lon="5.67112">
        <ele>804.42</ele>
        <time>2017-02-18T15:47:18Z</time>
      </trkpt>
      <trkpt lat="45.29591" lon="5.67112">
        <ele>803.24</ele>
        <time>2017-02-18T15:47:19Z</time>
      </trkpt>
      <trkpt lat="45.29579" lon="5.6711">
        <ele>802.05</ele>
        <time>2017-02-18T15:47:20Z</time>
      </trkpt>
      <trkpt lat="45.29568" lon="5.67108">
        <ele>800.85</ele>
        <time>2017-02-18T15:47:21Z</time>
      </trkpt>
      <trkpt lat="45.29557" lon="5.67105">
        <ele>799.65</ele>
        <time>2017-02-18T15:47:22Z</time>
      </trkpt>
      <trkpt lat="45.29546" lon="5.67103">
        <ele>798.37</ele>
        <time>2017-02-18T15:47:23Z</time>
      </trkpt>
      <trkpt lat="45.29537" lon="5.671">
        <ele>796.99</ele>
        <time>2017-02-18T15:47:24Z</time>
      </trkpt>
      <trkpt lat="45.29529" lon="5.67096">
        <ele>795.68</ele>
        <time>2017-02-18T15:47:25Z</time>
      </trkpt>
      <trkpt lat="45.29522" lon="5.6709">
        <ele>794.45</ele>
        <time>2017-02-18T15:47:26Z</time>
      </trkpt>
      <trkpt lat="45.29516" lon="5.67082">
        <ele>793.25</ele>
        <time>2017-02-18T15:47:27Z</time>
      </trkpt>
      <trkpt lat="45.29512" lon="5.67073">
        <ele>792.13</ele>
        <time>2017-02-18T15:47:28Z</time>
      </trkpt>
      <trkpt lat="45.29509" lon="5.67062">
        <ele>790.71</ele>
        <time>2017-02-18T15:47:29Z</time>
      </trkpt>
      <trkpt lat="45.2951" lon="5.67049">
        <ele>789.46</ele>
        <time>2017-02-18T15:47:30Z</time>
      </trkpt>
      <trkpt lat="45.29512" lon="5.67035">
        <ele>788.33</ele>
        <time>2017-02-18T15:47:31Z</time>
      </trkpt>
      <trkpt lat="45.29516" lon="5.67017">
        <ele>786.99</ele>
        <time>2017-02-18T15:47:32Z</time>
      </trkpt>
      <trkpt lat="45.29519" lon="5.66999">
        <ele>785.68</ele>
        <time>2017-02-18T15:47:33Z</time>
      </trkpt>
      <trkpt lat="45.2952" lon="5.6698">
        <ele>784.21</ele>
        <time>2017-02-18T15:47:34Z</time>
      </trkpt>
      <trkpt lat="45.29521" lon="5.6696">
        <ele>782.88</ele>
        <time>2017-02-18T15:47:35Z</time>
      </trkpt>
      <trkpt lat="45.29522" lon="5.6694">
        <ele>781.58</ele>
        <time>2017-02-18T15:47:36Z</time>
      </trkpt>
      <trkpt lat="45.29521" lon="5.66921">
        <ele>780.19</ele>
        <time>2017-02-18T15:47:37Z</time>
      </trkpt>
      <trkpt lat="45.29519" lon="5.66901">
        <ele>778.8</ele>
        <time>2017-02-18T15:47:38Z</time>
      </trkpt>
      <trkpt lat="45.29518" lon="5.66881">
        <ele>777.4</ele>
        <time>2017-02-18T15:47:39Z</time>
      </trkpt>
      <trkpt lat="45.29516" lon="5.66862">
        <ele>775.84</ele>
        <time>2017-02-18T15:47:40Z</time>
      </trkpt>
      <trkpt lat="45.29514" lon="5.66843">
        <ele>774.09</ele>
        <time>2017-02-18T15:47:41Z</time>
      </trkpt>
      <trkpt lat="45.29512" lon="5.66824">
        <ele>772.22</ele>
        <time>2017-02-18T15:47:42Z</time>
      </trkpt>
      <trkpt lat="45.29509" lon="5.66806">
        <ele>769.76</ele>
        <time>2017-02-18T15:47:43Z</time>
      </trkpt>
      <trkpt lat="45.29508" lon="5.66787">
        <ele>768.39</ele>
        <time>2017-02-18T15:47:44Z</time>
      </trkpt>
      <trkpt lat="45.29507" lon="5.66769">
        <ele>766.76</ele>
        <time>2017-02-18T15:47:45Z</time>
      </trkpt>
      <trkpt lat="45.29508" lon="5.6675">
        <ele>765.31</ele>
        <time>2017-02-18T15:47:46Z</time>
      </trkpt>
      <trkpt lat="45.29509" lon="5.66732">
        <ele>763.66</ele>
        <time>2017-02-18T15:47:47Z</time>
      </trkpt>
      <trkpt lat="45.29511" lon="5.66714">
        <ele>761.97</ele>
        <time>2017-02-18T15:47:48Z</time>
      </trkpt>
      <trkpt lat="45.29513" lon="5.66696">
        <ele>760.35</ele>
        <time>2017-02-18T15:47:49Z</time>
      </trkpt>
      <trkpt lat="45.29516" lon="5.66678">
        <ele>758.67</ele>
        <time>2017-02-18T15:47:50Z</time>
      </trkpt>
      <trkpt lat="45.29518" lon="5.66661">
        <ele>756.89</ele>
        <time>2017-02-18T15:47:51Z</time>
      </trkpt>
      <trkpt lat="45.29521" lon="5.66643">
        <ele>754.78</ele>
        <time>2017-02-18T15:47:52Z</time>
      </trkpt>
      <trkpt lat="45.29523" lon="5.66626">
        <ele>752.83</ele>
        <time>2017-02-18T15:47:53Z</time>
      </trkpt>
      <trkpt lat="45.29527" lon="5.66611">
        <ele>751.01</ele>
        <time>2017-02-18T15:47:54Z</time>
      </trkpt>
      <trkpt lat="45.29532" lon="5.66597">
        <ele>749.04</ele>
        <time>2017-02-18T15:47:55Z</time>
      </trkpt>
      <trkpt lat="45.29537" lon="5.66585">
        <ele>747.13</ele>
        <time>2017-02-18T15:47:56Z</time>
      </trkpt>
      <trkpt lat="45.29543" lon="5.66574">
        <ele>746.26</ele>
        <time>2017-02-18T15:47:57Z</time>
      </trkpt>
      <trkpt lat="45.29546" lon="5.66562">
        <ele>745.05</ele>
        <time>2017-02-18T15:47:58Z</time>
      </trkpt>
      <trkpt lat="45.29547" lon="5.66549">
        <ele>743.61</ele>
        <time>2017-02-18T15:47:59Z</time>
      </trkpt>
      <trkpt lat="45.29549" lon="5.66535">
        <ele>742.36</ele>
        <time>2017-02-18T15:48:00Z</time>
      </trkpt>
      <trkpt lat="45.29552" lon="5.66519">
        <ele>741.15</ele>
        <time>2017-02-18T15:48:01Z</time>
      </trkpt>
      <trkpt lat="45.29555" lon="5.66503">
        <ele>739.79</ele>
        <time>2017-02-18T15:48:02Z</time>
      </trkpt>
      <trkpt lat="45.29559" lon="5.66486">
        <ele>738.48</ele>
        <time>2017-02-18T15:48:03Z</time>
      </trkpt>
      <trkpt lat="45.29562" lon="5.66469">
        <ele>737.17</ele>
        <time>2017-02-18T15:48:04Z</time>
      </trkpt>
      <trkpt lat="45.29566" lon="5.66453">
        <ele>735.79</ele>
        <time>2017-02-18T15:48:05Z</time>
      </trkpt>
      <trkpt lat="45.2957" lon="5.66437">
        <ele>734.56</ele>
        <time>2017-02-18T15:48:06Z</time>
      </trkpt>
      <trkpt lat="45.29575" lon="5.66424">
        <ele>733.27</ele>
        <time>2017-02-18T15:48:07Z</time>
      </trkpt>
      <trkpt lat="45.29583" lon="5.66412">
        <ele>731.49</ele>
        <time>2017-02-18T15:48:08Z</time>
      </trkpt>
      <trkpt lat="45.29591" lon="5.66403">
        <ele>730.02</ele>
        <time>2017-02-18T15:48:09Z</time>
      </trkpt>
      <trkpt lat="45.29599" lon="5.66395">
        <ele>728.36</ele>
        <time>2017-02-18T15:48:10Z</time>
      </trkpt>
      <trkpt lat="45.29605" lon="5.66388">
        <ele>726.99</ele>
        <time>2017-02-18T15:48:11Z</time>
      </trkpt>
      <trkpt lat="45.29608" lon="5.6638">
        <ele>725.68</ele>
        <time>2017-02-18T15:48:12Z</time>
      </trkpt>
      <trkpt lat="45.29611" lon="5.66369">
        <ele>724.29</ele>
        <time>2017-02-18T15:48:13Z</time>
      </trkpt>
      <trkpt lat="45.29614" lon="5.66356">
        <ele>722.98</ele>
        <time>2017-02-18T15:48:14Z</time>
      </trkpt>
      <trkpt lat="45.29617" lon="5.66341">
        <ele>721.59</ele>
        <time>2017-02-18T15:48:15Z</time>
      </trkpt>
      <trkpt lat="45.29621" lon="5.66325">
        <ele>720.04</ele>
        <time>2017-02-18T15:48:16Z</time>
      </trkpt>
      <trkpt lat="45.29625" lon="5.66309">
        <ele>718.53</ele>
        <time>2017-02-18T15:48:17Z</time>
      </trkpt>
      <trkpt lat="45.2963" lon="5.66291">
        <ele>717.02</ele>
        <time>2017-02-18T15:48:18Z</time>
      </trkpt>
      <trkpt lat="45.29635" lon="5.66274">
        <ele>715.44</ele>
        <time>2017-02-18T15:48:19Z</time>
      </trkpt>
      <trkpt lat="45.2964" lon="5.66256">
        <ele>714.09</ele>
        <time>2017-02-18T15:48:20Z</time>
      </trkpt>
      <trkpt lat="45.29646" lon="5.66238">
        <ele>712.38</ele>
        <time>2017-02-18T15:48:21Z</time>
      </trkpt>
      <trkpt lat="45.29652" lon="5.66221">
        <ele>710.51</ele>
        <time>2017-02-18T15:48:22Z</time>
      </trkpt>
      <trkpt lat="45.29657" lon="5.66204">
        <ele>709.58</ele>
        <time>2017-02-18T15:48:23Z</time>
      </trkpt>
      <trkpt lat="45.29663" lon="5.66187">
        <ele>708.04</ele>
        <time>2017-02-18T15:48:24Z</time>
      </trkpt>
      <trkpt lat="45.29668" lon="5.6617">
        <ele>706.77</ele>
        <time>2017-02-18T15:48:25Z</time>
      </trkpt>
      <trkpt lat="45.29674" lon="5.66154">
        <ele>705.55</ele>
        <time>2017-02-18T15:48:26Z</time>
      </trkpt>
      <trkpt lat="45.29682" lon="5.66137">
        <ele>704.19</ele>
        <time>2017-02-18T15:48:27Z</time>
      </trkpt>
      <trkpt lat="45.29689" lon="5.6612">
        <ele>702.64</ele>
        <time>2017-02-18T15:48:28Z</time>
      </trkpt>
      <trkpt lat="45.29695" lon="5.66103">
        <ele>701.21</ele>
        <time>2017-02-18T15:48:29Z</time>
      </trkpt>
      <trkpt lat="45.297" lon="5.66086">
        <ele>699.88</ele>
        <time>2017-02-18T15:48:30Z</time>
      </trkpt>
      <trkpt lat="45.29705" lon="5.66069">
        <ele>698.1</ele>
        <time>2017-02-18T15:48:31Z</time>
      </trkpt>
      <trkpt lat="45.2971" lon="5.66054">
        <ele>696.7</ele>
        <time>2017-02-18T15:48:32Z</time>
      </trkpt>
      <trkpt lat="45.29716" lon="5.66041">
        <ele>695.38</ele>
        <time>2017-02-18T15:48:33Z</time>
      </trkpt>
      <trkpt lat="45.29721" lon="5.66027">
        <ele>693.59</ele>
        <time>2017-02-18T15:48:34Z</time>
      </trkpt>
      <trkpt lat="45.29724" lon="5.66012">
        <ele>692.2</ele>
        <time>2017-02-18T15:48:35Z</time>
      </trkpt>
      <trkpt lat="45.29726" lon="5.65995">
        <ele>690.72</ele>
        <time>2017-02-18T15:48:36Z</time>
      </trkpt>
      <trkpt lat="45.29728" lon="5.65978">
        <ele>689.22</ele>
        <time>2017-02-18T15:48:37Z</time>
      </trkpt>
      <trkpt lat="45.29729" lon="5.65959">
        <ele>687.64</ele>
        <time>2017-02-18T15:48:38Z</time>
      </trkpt>
      <trkpt lat="45.29732" lon="5.6594">
        <ele>686.13</ele>
        <time>2017-02-18T15:48:39Z</time>
      </trkpt>
      <trkpt lat="45.29735" lon="5.6592">
        <ele>684.7</ele>
        <time>2017-02-18T15:48:40Z</time>
      </trkpt>
      <trkpt lat="45.2974" lon="5.65899">
        <ele>682.34</ele>
        <time>2017-02-18T15:48:41Z</time>
      </trkpt>
      <trkpt lat="45.29744" lon="5.65881">
        <ele>680.43</ele>
        <time>2017-02-18T15:48:42Z</time>
      </trkpt>
      <trkpt lat="45.29747" lon="5.65863">
        <ele>678.68</ele>
        <time>2017-02-18T15:48:43Z</time>
      </trkpt>
      <trkpt lat="45.2975" lon="5.65848">
        <ele>676.9</ele>
        <time>2017-02-18T15:48:44Z</time>
      </trkpt>
      <trkpt lat="45.29753" lon="5.65833">
        <ele>675.1</ele>
        <time>2017-02-18T15:48:45Z</time>
      </trkpt>
      <trkpt lat="45.29755" lon="5.65819">
        <ele>672.18</ele>
        <time>2017-02-18T15:48:46Z</time>
      </trkpt>
      <trkpt lat="45.29755" lon="5.65805">
        <ele>669.27</ele>
        <time>2017-02-18T15:48:47Z</time>
      </trkpt>
      <trkpt lat="45.2975" lon="5.65791">
        <ele>667.09</ele>
        <time>2017-02-18T15:48:48Z</time>
      </trkpt>
      <trkpt lat="45.29745" lon="5.65775">
        <ele>664.98</ele>
        <time>2017-02-18T15:48:49Z</time>
      </trkpt>
      <trkpt lat="45.29739" lon="5.65758">
        <ele>662.87</ele>
        <time>2017-02-18T15:48:50Z</time>
      </trkpt>
      <trkpt lat="45.29734" lon="5.65739">
        <ele>660.61</ele>
        <time>2017-02-18T15:48:51Z</time>
      </trkpt>
      <trkpt lat="45.29731" lon="5.6572">
        <ele>658.88</ele>
        <time>2017-02-18T15:48:52Z</time>
      </trkpt>
      <trkpt lat="45.29731" lon="5.65699">
        <ele>657.26</ele>
        <time>2017-02-18T15:48:53Z</time>
      </trkpt>
      <trkpt lat="45.29733" lon="5.65681">
        <ele>655.57</ele>
        <time>2017-02-18T15:48:54Z</time>
      </trkpt>
      <trkpt lat="45.29735" lon="5.65664">
        <ele>653.87</ele>
        <time>2017-02-18T15:48:55Z</time>
      </trkpt>
      <trkpt lat="45.29739" lon="5.65649">
        <ele>652.01</ele>
        <time>2017-02-18T15:48:56Z</time>
      </trkpt>
      <trkpt lat="45.2974" lon="5.65636">
        <ele>650.36</ele>
        <time>2017-02-18T15:48:57Z</time>
      </trkpt>
      <trkpt lat="45.2974" lon="5.65623">
        <ele>648.75</ele>
        <time>2017-02-18T15:48:58Z</time>
      </trkpt>
      <trkpt lat="45.29738" lon="5.65608">
        <ele>646.59</ele>
        <time>2017-02-18T15:48:59Z</time>
      </trkpt>
      <trkpt lat="45.29737" lon="5.65592">
        <ele>644.48</ele>
        <time>2017-02-18T15:49:00Z</time>
      </trkpt>
      <trkpt lat="45.29738" lon="5.65575">
        <ele>642.37</ele>
        <time>2017-02-18T15:49:01Z</time>
      </trkpt>
      <trkpt lat="45.2974" lon="5.65557">
        <ele>640.75</ele>
        <time>2017-02-18T15:49:02Z</time>
      </trkpt>
      <trkpt lat="45.29742" lon="5.65538">
        <ele>638.75</ele>
        <time>2017-02-18T15:49:03Z</time>
      </trkpt>
      <trkpt lat="45.29746" lon="5.65519">
        <ele>636.83</ele>
        <time>2017-02-18T15:49:04Z</time>
      </trkpt>
      <trkpt lat="45.29749" lon="5.65499">
        <ele>634.45</ele>
        <time>2017-02-18T15:49:05Z</time>
      </trkpt>
      <trkpt lat="45.29752" lon="5.6548">
        <ele>632.45</ele>
        <time>2017-02-18T15:49:06Z</time>
      </trkpt>
      <trkpt lat="45.29755" lon="5.65462">
        <ele>630.45</ele>
        <time>2017-02-18T15:49:07Z</time>
      </trkpt>
      <trkpt lat="45.29759" lon="5.65447">
        <ele>628.61</ele>
        <time>2017-02-18T15:49:08Z</time>
      </trkpt>
      <trkpt lat="45.29763" lon="5.65435">
        <ele>626.8</ele>
        <time>2017-02-18T15:49:09Z</time>
      </trkpt>
      <trkpt lat="45.29769" lon="5.65428">
        <ele>624.92</ele>
        <time>2017-02-18T15:49:10Z</time>
      </trkpt>
      <trkpt lat="45.29777" lon="5.65427">
        <ele>623.1</ele>
        <time>2017-02-18T15:49:11Z</time>
      </trkpt>
      <trkpt lat="45.29786" lon="5.6543">
        <ele>621.3</ele>
        <time>2017-02-18T15:49:12Z</time>
      </trkpt>
      <trkpt lat="45.29796" lon="5.65437">
        <ele>621.1</ele>
        <time>2017-02-18T15:49:13Z</time>
      </trkpt>
      <trkpt lat="45.29807" lon="5.65444">
        <ele>619.86</ele>
        <time>2017-02-18T15:49:14Z</time>
      </trkpt>
      <trkpt lat="45.29818" lon="5.65451">
        <ele>618.65</ele>
        <time>2017-02-18T15:49:15Z</time>
      </trkpt>
      <trkpt lat="45.29828" lon="5.65459">
        <ele>617.21</ele>
        <time>2017-02-18T15:49:16Z</time>
      </trkpt>
      <trkpt lat="45.29837" lon="5.65468">
        <ele>615.72</ele>
        <time>2017-02-18T15:49:17Z</time>
      </trkpt>
      <trkpt lat="45.29844" lon="5.6548">
        <ele>613.58</ele>
        <time>2017-02-18T15:49:18Z</time>
      </trkpt>
      <trkpt lat="45.29849" lon="5.65494">
        <ele>611.24</ele>
        <time>2017-02-18T15:49:19Z</time>
      </trkpt>
      <trkpt lat="45.29852" lon="5.65507">
        <ele>610.29</ele>
        <time>2017-02-18T15:49:20Z</time>
      </trkpt>
      <trkpt lat="45.29852" lon="5.65521">
        <ele>608.5</ele>
        <time>2017-02-18T15:49:21Z</time>
      </trkpt>
      <trkpt lat="45.29851" lon="5.65537">
        <ele>606.46</ele>
        <time>2017-02-18T15:49:22Z</time>
      </trkpt>
      <trkpt lat="45.29849" lon="5.65554">
        <ele>604.21</ele>
        <time>2017-02-18T15:49:23Z</time>
      </trkpt>
      <trkpt lat="45.29848" lon="5.65574">
        <ele>602.08</ele>
        <time>2017-02-18T15:49:24Z</time>
      </trkpt>
      <trkpt lat="45.29848" lon="5.65595">
        <ele>599.98</ele>
        <time>2017-02-18T15:49:25Z</time>
      </trkpt>
      <trkpt lat="45.2985" lon="5.65617">
        <ele>598.03</ele>
        <time>2017-02-18T15:49:26Z</time>
      </trkpt>
      <trkpt lat="45.29853" lon="5.65639">
        <ele>595.97</ele>
        <time>2017-02-18T15:49:27Z</time>
      </trkpt>
      <trkpt lat="45.29856" lon="5.6566">
        <ele>593.47</ele>
        <time>2017-02-18T15:49:28Z</time>
      </trkpt>
      <trkpt lat="45.29859" lon="5.65681">
        <ele>590.81</ele>
        <time>2017-02-18T15:49:29Z</time>
      </trkpt>
      <trkpt lat="45.29863" lon="5.65701">
        <ele>588.52</ele>
        <time>2017-02-18T15:49:30Z</time>
      </trkpt>
      <trkpt lat="45.29867" lon="5.6572">
        <ele>586.46</ele>
        <time>2017-02-18T15:49:31Z</time>
      </trkpt>
      <trkpt lat="45.29873" lon="5.65737">
        <ele>584.37</ele>
        <time>2017-02-18T15:49:32Z</time>
      </trkpt>
      <trkpt lat="45.29878" lon="5.65752">
        <ele>582.43</ele>
        <time>2017-02-18T15:49:33Z</time>
      </trkpt>
      <trkpt lat="45.29885" lon="5.65765">
        <ele>580.53</ele>
        <time>2017-02-18T15:49:34Z</time>
      </trkpt>
      <trkpt lat="45.29893" lon="5.65776">
        <ele>578.38</ele>
        <time>2017-02-18T15:49:35Z</time>
      </trkpt>
      <trkpt lat="45.29902" lon="5.65788">
        <ele>576.28</ele>
        <time>2017-02-18T15:49:36Z</time>
      </trkpt>
      <trkpt lat="45.29912" lon="5.658">
        <ele>574.17</ele>
        <time>2017-02-18T15:49:37Z</time>
      </trkpt>
      <trkpt lat="45.29922" lon="5.65812">
        <ele>571.75</ele>
        <time>2017-02-18T15:49:38Z</time>
      </trkpt>
      <trkpt lat="45.29931" lon="5.65822">
        <ele>569.11</ele>
        <time>2017-02-18T15:49:39Z</time>
      </trkpt>
      <trkpt lat="45.29937" lon="5.65831">
        <ele>567.78</ele>
        <time>2017-02-18T15:49:40Z</time>
      </trkpt>
      <trkpt lat="45.2994" lon="5.65842">
        <ele>566</ele>
        <time>2017-02-18T15:49:41Z</time>
      </trkpt>
      <trkpt lat="45.29939" lon="5.65856">
        <ele>564.2</ele>
        <time>2017-02-18T15:49:42Z</time>
      </trkpt>
      <trkpt lat="45.29936" lon="5.65874">
        <ele>563.12</ele>
        <time>2017-02-18T15:49:43Z</time>
      </trkpt>
      <trkpt lat="45.29934" lon="5.65894">
        <ele>561.86</ele>
        <time>2017-02-18T15:49:44Z</time>
      </trkpt>
      <trkpt lat="45.29932" lon="5.65914">
        <ele>560.49</ele>
        <time>2017-02-18T15:49:45Z</time>
      </trkpt>
      <trkpt lat="45.29931" lon="5.65936">
        <ele>559.02</ele>
        <time>2017-02-18T15:49:46Z</time>
      </trkpt>
      <trkpt lat="45.29931" lon="5.65958">
        <ele>557.36</ele>
        <time>2017-02-18T15:49:47Z</time>
      </trkpt>
      <trkpt lat="45.29931" lon="5.6598">
        <ele>555.83</ele>
        <time>2017-02-18T15:49:48Z</time>
      </trkpt>
      <trkpt lat="45.2993" lon="5.66002">
        <ele>554.41</ele>
        <time>2017-02-18T15:49:49Z</time>
      </trkpt>
      <trkpt lat="45.29931" lon="5.66021">
        <ele>552.92</ele>
        <time>2017-02-18T15:49:50Z</time>
      </trkpt>
      <trkpt lat="45.29932" lon="5.66038">
        <ele>551.26</ele>
        <time>2017-02-18T15:49:51Z</time>
      </trkpt>
      <trkpt lat="45.29935" lon="5.66053">
        <ele>549.73</ele>
        <time>2017-02-18T15:49:52Z</time>
      </trkpt>
      <trkpt lat="45.2994" lon="5.66066">
        <ele>548.23</ele>
        <time>2017-02-18T15:49:53Z</time>
      </trkpt>
      <trkpt lat="45.29949" lon="5.66077">
        <ele>546.88</ele>
        <time>2017-02-18T15:49:54Z</time>
      </trkpt>
      <trkpt lat="45.29959" lon="5.66087">
        <ele>545.58</ele>
        <time>2017-02-18T15:49:55Z</time>
      </trkpt>
      <trkpt lat="45.29971" lon="5.66095">
        <ele>543.55</ele>
        <time>2017-02-18T15:49:56Z</time>
      </trkpt>
      <trkpt lat="45.29983" lon="5.66103">
        <ele>541.23</ele>
        <time>2017-02-18T15:49:57Z</time>
      </trkpt>
      <trkpt lat="45.29994" lon="5.66109">
        <ele>539.01</ele>
        <time>2017-02-18T15:49:58Z</time>
      </trkpt>
      <trkpt lat="45.30004" lon="5.66111">
        <ele>536.96</ele>
        <time>2017-02-18T15:49:59Z</time>
      </trkpt>
      <trkpt lat="45.30014" lon="5.6611">
        <ele>535.59</ele>
        <time>2017-02-18T15:50:00Z</time>
      </trkpt>
      <trkpt lat="45.30024" lon="5.66104">
        <ele>534.12</ele>
        <time>2017-02-18T15:50:01Z</time>
      </trkpt>
      <trkpt lat="45.30033" lon="5.66094">
        <ele>532.62</ele>
        <time>2017-02-18T15:50:02Z</time>
      </trkpt>
      <trkpt lat="45.3004" lon="5.66078">
        <ele>530.8</ele>
        <time>2017-02-18T15:50:03Z</time>
      </trkpt>
      <trkpt lat="45.30047" lon="5.66062">
        <ele>529.48</ele>
        <time>2017-02-18T15:50:04Z</time>
      </trkpt>
      <trkpt lat="45.30054" lon="5.66043">
        <ele>528.02</ele>
        <time>2017-02-18T15:50:05Z</time>
      </trkpt>
      <trkpt lat="45.30059" lon="5.66023">
        <ele>526.28</ele>
        <time>2017-02-18T15:50:06Z</time>
      </trkpt>
      <trkpt lat="45.30066" lon="5.66003">
        <ele>524.18</ele>
        <time>2017-02-18T15:50:07Z</time>
      </trkpt>
      <trkpt lat="45.30072" lon="5.65983">
        <ele>521.83</ele>
        <time>2017-02-18T15:50:08Z</time>
      </trkpt>
      <trkpt lat="45.30078" lon="5.65963">
        <ele>519.85</ele>
        <time>2017-02-18T15:50:09Z</time>
      </trkpt>
      <trkpt lat="45.30082" lon="5.65942">
        <ele>517.93</ele>
        <time>2017-02-18T15:50:10Z</time>
      </trkpt>
      <trkpt lat="45.30085" lon="5.65921">
        <ele>516.34</ele>
        <time>2017-02-18T15:50:11Z</time>
      </trkpt>
      <trkpt lat="45.3009" lon="5.65902">
        <ele>514.35</ele>
        <time>2017-02-18T15:50:12Z</time>
      </trkpt>
      <trkpt lat="45.30097" lon="5.65884">
        <ele>512.03</ele>
        <time>2017-02-18T15:50:13Z</time>
      </trkpt>
      <trkpt lat="45.30106" lon="5.65868">
        <ele>509.64</ele>
        <time>2017-02-18T15:50:14Z</time>
      </trkpt>
      <trkpt lat="45.30115" lon="5.65849">
        <ele>506.93</ele>
        <time>2017-02-18T15:50:15Z</time>
      </trkpt>
      <trkpt lat="45.30123" lon="5.6583">
        <ele>504.38</ele>
        <time>2017-02-18T15:50:16Z</time>
      </trkpt>
      <trkpt lat="45.30128" lon="5.65811">
        <ele>502.04</ele>
        <time>2017-02-18T15:50:17Z</time>
      </trkpt>
      <trkpt lat="45.30133" lon="5.65794">
        <ele>499.65</ele>
        <time>2017-02-18T15:50:18Z</time>
      </trkpt>
      <trkpt lat="45.30138" lon="5.65781">
        <ele>497.65</ele>
        <time>2017-02-18T15:50:19Z</time>
      </trkpt>
      <trkpt lat="45.30145" lon="5.65769">
        <ele>495.65</ele>
        <time>2017-02-18T15:50:20Z</time>
      </trkpt>
      <trkpt lat="45.30155" lon="5.65758">
        <ele>493.33</ele>
        <time>2017-02-18T15:50:21Z</time>
      </trkpt>
      <trkpt lat="45.30166" lon="5.65744">
        <ele>491.26</ele>
        <time>2017-02-18T15:50:22Z</time>
      </trkpt>
      <trkpt lat="45.30177" lon="5.65729">
        <ele>489.17</ele>
        <time>2017-02-18T15:50:23Z</time>
      </trkpt>
      <trkpt lat="45.30188" lon="5.65715">
        <ele>487.23</ele>
        <time>2017-02-18T15:50:24Z</time>
      </trkpt>
      <trkpt lat="45.30199" lon="5.65702">
        <ele>484.93</ele>
        <time>2017-02-18T15:50:25Z</time>
      </trkpt>
      <trkpt lat="45.3021" lon="5.65689">
        <ele>482.7</ele>
        <time>2017-02-18T15:50:26Z</time>
      </trkpt>
      <trkpt lat="45.30218" lon="5.65676">
        <ele>480.58</ele>
        <time>2017-02-18T15:50:27Z</time>
      </trkpt>
      <trkpt lat="45.30224" lon="5.65662">
        <ele>478.64</ele>
        <time>2017-02-18T15:50:28Z</time>
      </trkpt>
      <trkpt lat="45.30228" lon="5.65645">
        <ele>476.57</ele>
        <time>2017-02-18T15:50:29Z</time>
      </trkpt>
      <trkpt lat="45.30232" lon="5.65626">
        <ele>474.71</ele>
        <time>2017-02-18T15:50:30Z</time>
      </trkpt>
      <trkpt lat="45.30234" lon="5.65608">
        <ele>472.98</ele>
        <time>2017-02-18T15:50:31Z</time>
      </trkpt>
      <trkpt lat="45.30234" lon="5.65588">
        <ele>471.68</ele>
        <time>2017-02-18T15:50:32Z</time>
      </trkpt>
      <trkpt lat="45.30234" lon="5.65568">
        <ele>470.21</ele>
        <time>2017-02-18T15:50:33Z</time>
      </trkpt>
      <trkpt lat="45.30233" lon="5.65549">
        <ele>468.72</ele>
        <time>2017-02-18T15:50:34Z</time>
      </trkpt>
      <trkpt lat="45.30234" lon="5.65532">
        <ele>467.22</ele>
        <time>2017-02-18T15:50:35Z</time>
      </trkpt>
      <trkpt lat="45.30236" lon="5.65515">
        <ele>465.88</ele>
        <time>2017-02-18T15:50:36Z</time>
      </trkpt>
      <trkpt lat="45.30239" lon="5.65499">
        <ele>464.5</ele>
        <time>2017-02-18T15:50:37Z</time>
      </trkpt>
      <trkpt lat="45.30242" lon="5.65482">
        <ele>463.02</ele>
        <time>2017-02-18T15:50:38Z</time>
      </trkpt>
      <trkpt lat="45.30245" lon="5.65465">
        <ele>461.52</ele>
        <time>2017-02-18T15:50:39Z</time>
      </trkpt>
      <trkpt lat="45.30248" lon="5.65448">
        <ele>460.02</ele>
        <time>2017-02-18T15:50:40Z</time>
      </trkpt>
      <trkpt lat="45.3025" lon="5.65431">
        <ele>458.44</ele>
        <time>2017-02-18T15:50:41Z</time>
      </trkpt>
      <trkpt lat="45.30254" lon="5.65414">
        <ele>456.85</ele>
        <time>2017-02-18T15:50:42Z</time>
      </trkpt>
      <trkpt lat="45.3026" lon="5.65398">
        <ele>455.01</ele>
        <time>2017-02-18T15:50:43Z</time>
      </trkpt>
      <trkpt lat="45.30268" lon="5.65384">
        <ele>452.88</ele>
        <time>2017-02-18T15:50:44Z</time>
      </trkpt>
      <trkpt lat="45.30277" lon="5.65373">
        <ele>450.62</ele>
        <time>2017-02-18T15:50:45Z</time>
      </trkpt>
      <trkpt lat="45.30286" lon="5.65363">
        <ele>448.16</ele>
        <time>2017-02-18T15:50:46Z</time>
      </trkpt>
      <trkpt lat="45.30296" lon="5.65352">
        <ele>446.47</ele>
        <time>2017-02-18T15:50:47Z</time>
      </trkpt>
      <trkpt lat="45.30306" lon="5.6534">
        <ele>444.21</ele>
        <time>2017-02-18T15:50:48Z</time>
      </trkpt>
      <trkpt lat="45.30314" lon="5.65328">
        <ele>441.68</ele>
        <time>2017-02-18T15:50:49Z</time>
      </trkpt>
      <trkpt lat="45.30321" lon="5.65314">
        <ele>439.42</ele>
        <time>2017-02-18T15:50:50Z</time>
      </trkpt>
      <trkpt lat="45.30327" lon="5.65299">
        <ele>437.44</ele>
        <time>2017-02-18T15:50:51Z</time>
      </trkpt>
      <trkpt lat="45.3033" lon="5.65284">
        <ele>435.13</ele>
        <time>2017-02-18T15:50:52Z</time>
      </trkpt>
      <trkpt lat="45.30332" lon="5.65268">
        <ele>432.58</ele>
        <time>2017-02-18T15:50:53Z</time>
      </trkpt>
      <trkpt lat="45.30334" lon="5.65251">
        <ele>430.32</ele>
        <time>2017-02-18T15:50:54Z</time>
      </trkpt>
      <trkpt lat="45.30336" lon="5.65234">
        <ele>427.94</ele>
        <time>2017-02-18T15:50:55Z</time>
      </trkpt>
      <trkpt lat="45.30338" lon="5.65217">
        <ele>425.71</ele>
        <time>2017-02-18T15:50:56Z</time>
      </trkpt>
      <trkpt lat="45.30341" lon="5.65199">
        <ele>423.18</ele>
        <time>2017-02-18T15:50:57Z</time>
      </trkpt>
      <trkpt lat="45.30344" lon="5.65181">
        <ele>420.68</ele>
        <time>2017-02-18T15:50:58Z</time>
      </trkpt>
      <trkpt lat="45.30349" lon="5.65164">
        <ele>418.33</ele>
        <time>2017-02-18T15:50:59Z</time>
      </trkpt>
      <trkpt lat="45.30353" lon="5.65146">
        <ele>416.91</ele>
        <time>2017-02-18T15:51:00Z</time>
      </trkpt>
      <trkpt lat="45.30357" lon="5.6513">
        <ele>415.1</ele>
        <time>2017-02-18T15:51:01Z</time>
      </trkpt>
      <trkpt lat="45.3036" lon="5.65115">
        <ele>413.46</ele>
        <time>2017-02-18T15:51:02Z</time>
      </trkpt>
      <trkpt lat="45.30364" lon="5.65102">
        <ele>412.01</ele>
        <time>2017-02-18T15:51:03Z</time>
      </trkpt>
      <trkpt lat="45.30369" lon="5.65092">
        <ele>410.52</ele>
        <time>2017-02-18T15:51:04Z</time>
      </trkpt>
      <trkpt lat="45.30375" lon="5.65085">
        <ele>408.94</ele>
        <time>2017-02-18T15:51:05Z</time>
      </trkpt>
      <trkpt lat="45.30383" lon="5.65082">
        <ele>408.47</ele>
        <time>2017-02-18T15:51:06Z</time>
      </trkpt>
      <trkpt lat="45.30392" lon="5.65082">
        <ele>406.85</ele>
        <time>2017-02-18T15:51:07Z</time>
      </trkpt>
      <trkpt lat="45.30401" lon="5.65083">
        <ele>405.17</ele>
        <time>2017-02-18T15:51:08Z</time>
      </trkpt>
      <trkpt lat="45.3041" lon="5.65083">
        <ele>403.63</ele>
        <time>2017-02-18T15:51:09Z</time>
      </trkpt>
      <trkpt lat="45.30417" lon="5.65082">
        <ele>402.21</ele>
        <time>2017-02-18T15:51:10Z</time>
      </trkpt>
      <trkpt lat="45.30424" lon="5.65078">
        <ele>400.8</ele>
        <time>2017-02-18T15:51:11Z</time>
      </trkpt>
      <trkpt lat="45.30431" lon="5.65073">
        <ele>399.8</ele>
        <time>2017-02-18T15:51:12Z</time>
      </trkpt>
      <trkpt lat="45.30438" lon="5.65066">
        <ele>399.2</ele>
        <time>2017-02-18T15:51:13Z</time>
      </trkpt>
      <trkpt lat="45.30444" lon="5.65059">
        <ele>398.04</ele>
        <time>2017-02-18T15:51:14Z</time>
      </trkpt>
      <trkpt lat="45.3045" lon="5.65051">
        <ele>396.93</ele>
        <time>2017-02-18T15:51:15Z</time>
      </trkpt>
      <trkpt lat="45.30456" lon="5.65043">
        <ele>395.9</ele>
        <time>2017-02-18T15:51:16Z</time>
      </trkpt>
      <trkpt lat="45.3046" lon="5.65035">
        <ele>394.9</ele>
        <time>2017-02-18T15:51:17Z</time>
      </trkpt>
      <trkpt lat="45.30463" lon="5.65026">
        <ele>393.66</ele>
        <time>2017-02-18T15:51:18Z</time>
      </trkpt>
      <trkpt lat="45.30465" lon="5.65017">
        <ele>392.69</ele>
        <time>2017-02-18T15:51:19Z</time>
      </trkpt>
      <trkpt lat="45.30466" lon="5.65007">
        <ele>391.78</ele>
        <time>2017-02-18T15:51:20Z</time>
      </trkpt>
      <trkpt lat="45.30467" lon="5.64997">
        <ele>390.31</ele>
        <time>2017-02-18T15:51:21Z</time>
      </trkpt>
      <trkpt lat="45.30468" lon="5.64986">
        <ele>389.14</ele>
        <time>2017-02-18T15:51:22Z</time>
      </trkpt>
      <trkpt lat="45.30467" lon="5.64975">
        <ele>388.11</ele>
        <time>2017-02-18T15:51:23Z</time>
      </trkpt>
      <trkpt lat="45.30465" lon="5.64965">
        <ele>387.1</ele>
        <time>2017-02-18T15:51:24Z</time>
      </trkpt>
      <trkpt lat="45.30464" lon="5.64954">
        <ele>386.02</ele>
        <time>2017-02-18T15:51:25Z</time>
      </trkpt>
      <trkpt lat="45.30461" lon="5.64943">
        <ele>385.08</ele>
        <time>2017-02-18T15:51:26Z</time>
      </trkpt>
      <trkpt lat="45.30458" lon="5.64932">
        <ele>384.18</ele>
        <time>2017-02-18T15:51:27Z</time>
      </trkpt>
      <trkpt lat="45.30455" lon="5.64922">
        <ele>383.27</ele>
        <time>2017-02-18T15:51:28Z</time>
      </trkpt>
      <trkpt lat="45.30452" lon="5.64914">
        <ele>382.61</ele>
        <time>2017-02-18T15:51:29Z</time>
      </trkpt>
      <trkpt lat="45.30449" lon="5.64906">
        <ele>381.68</ele>
        <time>2017-02-18T15:51:30Z</time>
      </trkpt>
      <trkpt lat="45.30446" lon="5.64899">
        <ele>380.62</ele>
        <time>2017-02-18T15:51:31Z</time>
      </trkpt>
      <trkpt lat="45.30443" lon="5.64892">
        <ele>379.52</ele>
        <time>2017-02-18T15:51:32Z</time>
      </trkpt>
      <trkpt lat="45.30439" lon="5.64886">
        <ele>378.34</ele>
        <time>2017-02-18T15:51:33Z</time>
      </trkpt>
      <trkpt lat="45.30436" lon="5.6488">
        <ele>377.23</ele>
        <time>2017-02-18T15:51:34Z</time>
      </trkpt>
      <trkpt lat="45.30432" lon="5.64874">
        <ele>376.28</ele>
        <time>2017-02-18T15:51:35Z</time>
      </trkpt>
      <trkpt lat="45.30428" lon="5.64868">
        <ele>375.38</ele>
        <time>2017-02-18T15:51:36Z</time>
      </trkpt>
      <trkpt lat="45.30424" lon="5.64863">
        <ele>374.55</ele>
        <time>2017-02-18T15:51:37Z</time>
      </trkpt>
      <trkpt lat="45.30419" lon="5.64857">
        <ele>373.99</ele>
        <time>2017-02-18T15:51:38Z</time>
      </trkpt>
      <trkpt lat="45.30414" lon="5.64851">
        <ele>373</ele>
        <time>2017-02-18T15:51:39Z</time>
      </trkpt>
      <trkpt lat="45.3041" lon="5.64845">
        <ele>372</ele>
        <time>2017-02-18T15:51:40Z</time>
      </trkpt>
      <trkpt lat="45.30406" lon="5.64839">
        <ele>371.08</ele>
        <time>2017-02-18T15:51:41Z</time>
      </trkpt>
      <trkpt lat="45.30402" lon="5.64833">
        <ele>370.09</ele>
        <time>2017-02-18T15:51:42Z</time>
      </trkpt>
      <trkpt lat="45.30399" lon="5.64828">
        <ele>369.02</ele>
        <time>2017-02-18T15:51:43Z</time>
      </trkpt>
      <trkpt lat="45.30397" lon="5.64823">
        <ele>368.16</ele>
        <time>2017-02-18T15:51:44Z</time>
      </trkpt>
      <trkpt lat="45.30397" lon="5.64819">
        <ele>367.51</ele>
        <time>2017-02-18T15:51:45Z</time>
      </trkpt>
      <trkpt lat="45.30398" lon="5.64817">
        <ele>366.74</ele>
        <time>2017-02-18T15:51:46Z</time>
      </trkpt>
      <trkpt lat="45.304" lon="5.64815">
        <ele>366.03</ele>
        <time>2017-02-18T15:51:47Z</time>
      </trkpt>
      <trkpt lat="45.30403" lon="5.64814">
        <ele>365.24</ele>
        <time>2017-02-18T15:51:48Z</time>
      </trkpt>
      <trkpt lat="45.30407" lon="5.64815">
        <ele>364.29</ele>
        <time>2017-02-18T15:51:49Z</time>
      </trkpt>
      <trkpt lat="45.30412" lon="5.64815">
        <ele>363.54</ele>
        <time>2017-02-18T15:51:50Z</time>
      </trkpt>
      <trkpt lat="45.30417" lon="5.64815">
        <ele>362.75</ele>
        <time>2017-02-18T15:51:51Z</time>
      </trkpt>
      <trkpt lat="45.30421" lon="5.64815">
        <ele>362.03</ele>
        <time>2017-02-18T15:51:52Z</time>
      </trkpt>
      <trkpt lat="45.30425" lon="5.64815">
        <ele>361.16</ele>
        <time>2017-02-18T15:51:53Z</time>
      </trkpt>
      <trkpt lat="45.30429" lon="5.64814">
        <ele>360.35</ele>
        <time>2017-02-18T15:51:54Z</time>
      </trkpt>
      <trkpt lat="45.30433" lon="5.64814">
        <ele>359.31</ele>
        <time>2017-02-18T15:51:55Z</time>
      </trkpt>
      <trkpt lat="45.30438" lon="5.64813">
        <ele>358.38</ele>
        <time>2017-02-18T15:51:56Z</time>
      </trkpt>
      <trkpt lat="45.30442" lon="5.64813">
        <ele>357.48</ele>
        <time>2017-02-18T15:51:57Z</time>
      </trkpt>
      <trkpt lat="45.30445" lon="5.64813">
        <ele>356.49</ele>
        <time>2017-02-18T15:51:58Z</time>
      </trkpt>
      <trkpt lat="45.30448" lon="5.64812">
        <ele>355.82</ele>
        <time>2017-02-18T15:51:59Z</time>
      </trkpt>
      <trkpt lat="45.3045" lon="5.64813">
        <ele>355.2</ele>
        <time>2017-02-18T15:52:00Z</time>
      </trkpt>
      <trkpt lat="45.30453" lon="5.64814">
        <ele>354.36</ele>
        <time>2017-02-18T15:52:01Z</time>
      </trkpt>
      <trkpt lat="45.30457" lon="5.64816">
        <ele>353.47</ele>
        <time>2017-02-18T15:52:02Z</time>
      </trkpt>
      <trkpt lat="45.3046" lon="5.64819">
        <ele>352.73</ele>
        <time>2017-02-18T15:52:03Z</time>
      </trkpt>
      <trkpt lat="45.30464" lon="5.64822">
        <ele>352.11</ele>
        <time>2017-02-18T15:52:04Z</time>
      </trkpt>
      <trkpt lat="45.30468" lon="5.64826">
        <ele>351.26</ele>
        <time>2017-02-18T15:52:05Z</time>
      </trkpt>
      <trkpt lat="45.30472" lon="5.6483">
        <ele>350.37</ele>
        <time>2017-02-18T15:52:06Z</time>
      </trkpt>
      <trkpt lat="45.30476" lon="5.64834">
        <ele>349.47</ele>
        <time>2017-02-18T15:52:07Z</time>
      </trkpt>
      <trkpt lat="45.3048" lon="5.64838">
        <ele>348.81</ele>
        <time>2017-02-18T15:52:08Z</time>
      </trkpt>
      <trkpt lat="45.30484" lon="5.64842">
        <ele>348.12</ele>
        <time>2017-02-18T15:52:09Z</time>
      </trkpt>
      <trkpt lat="45.30488" lon="5.64846">
        <ele>347.42</ele>
        <time>2017-02-18T15:52:10Z</time>
      </trkpt>
      <trkpt lat="45.30491" lon="5.6485">
        <ele>346.72</ele>
        <time>2017-02-18T15:52:11Z</time>
      </trkpt>
      <trkpt lat="45.30493" lon="5.64853">
        <ele>345.94</ele>
        <time>2017-02-18T15:52:12Z</time>
      </trkpt>
      <trkpt lat="45.30495" lon="5.64856">
        <ele>345.39</ele>
        <time>2017-02-18T15:52:13Z</time>
      </trkpt>
      <trkpt lat="45.30496" lon="5.64858">
        <ele>344.88</ele>
        <time>2017-02-18T15:52:14Z</time>
      </trkpt>
      <trkpt lat="45.30496" lon="5.64859">
        <ele>344.61</ele>
        <time>2017-02-18T15:52:15Z</time>
      </trkpt>
      <trkpt lat="45.30496" lon="5.64859">
        <ele>344.48</ele>
        <time>2017-02-18T15:52:16Z</time>
      </trkpt>
      <trkpt lat="45.30496" lon="5.64859">
        <ele>344.3</ele>
        <time>2017-02-18T15:52:17Z</time>
      </trkpt>
      <trkpt lat="45.30496" lon="5.64859">
        <ele>344.26</ele>
        <time>2017-02-18T15:52:18Z</time>
      </trkpt>
      <trkpt lat="45.30496" lon="5.64859">
        <ele>344.25</ele>
        <time>2017-02-18T15:52:19Z</time>
      </trkpt>
      <trkpt lat="45.30496" lon="5.64859">
        <ele>344.25</ele>
        <time>2017-02-18T15:52:20Z</time>
      </trkpt>
      <trkpt lat="45.30496" lon="5.64859">
        <ele>344.25</ele>
        <time>2017-02-18T15:52:21Z</time>
      </trkpt>
      <trkpt lat="45.30496" lon="5.64859">
        <ele>344.25</ele>
        <time>2017-02-18T15:52:22Z</time>
      </trkpt>
      <trkpt lat="45.30496" lon="5.64859">
        <ele>344.25</ele>
        <time>2017-02-18T15:52:23Z</time>
      </trkpt>
      <trkpt lat="45.30496" lon="5.64859">
        <ele>344.25</ele>
        <time>2017-02-18T15:52:24Z</time>
      </trkpt>
      <trkpt lat="45.30496" lon="5.64859">
        <ele>344.25</ele>
        <time>2017-02-18T15:52:25Z</time>
      </trkpt>
      <trkpt lat="45.30496" lon="5.64859">
        <ele>344.25</ele>
        <time>2017-02-18T15:52:26Z</time>
      </trkpt>
      <trkpt lat="45.30496" lon="5.64859">
        <ele>344.25</ele>
        <time>2017-02-18T15:52:27Z</time>
      </trkpt>
      <trkpt lat="45.30497" lon="5.64864">
        <ele>343.13</ele>
        <time>2017-02-18T15:52:28Z</time>
      </trkpt>
      <trkpt lat="45.305" lon="5.64869">
        <ele>342.83</ele>
        <time>2017-02-18T15:52:29Z</time>
      </trkpt>
      <trkpt lat="45.30504" lon="5.64875">
        <ele>342.6</ele>
        <time>2017-02-18T15:52:30Z</time>
      </trkpt>
      <trkpt lat="45.30509" lon="5.64882">
        <ele>342.32</ele>
        <time>2017-02-18T15:52:31Z</time>
      </trkpt>
      <trkpt lat="45.30513" lon="5.64889">
        <ele>342.02</ele>
        <time>2017-02-18T15:52:32Z</time>
      </trkpt>
      <trkpt lat="45.30517" lon="5.64895">
        <ele>341.72</ele>
        <time>2017-02-18T15:52:33Z</time>
      </trkpt>
      <trkpt lat="45.30521" lon="5.64901">
        <ele>341.34</ele>
        <time>2017-02-18T15:52:34Z</time>
      </trkpt>
      <trkpt lat="45.30525" lon="5.64907">
        <ele>341.03</ele>
        <time>2017-02-18T15:52:35Z</time>
      </trkpt>
      <trkpt lat="45.30529" lon="5.64912">
        <ele>340.88</ele>
        <time>2017-02-18T15:52:36Z</time>
      </trkpt>
      <trkpt lat="45.30532" lon="5.64916">
        <ele>340.62</ele>
        <time>2017-02-18T15:52:37Z</time>
      </trkpt>
      <trkpt lat="45.30535" lon="5.64919">
        <ele>340.48</ele>
        <time>2017-02-18T15:52:38Z</time>
      </trkpt>
      <trkpt lat="45.30539" lon="5.64921">
        <ele>340.62</ele>
        <time>2017-02-18T15:52:39Z</time>
      </trkpt>
      <trkpt lat="45.30542" lon="5.64923">
        <ele>340.8</ele>
        <time>2017-02-18T15:52:40Z</time>
      </trkpt>
      <trkpt lat="45.30547" lon="5.64925">
        <ele>341.24</ele>
        <time>2017-02-18T15:52:41Z</time>
      </trkpt>
      <trkpt lat="45.30552" lon="5.64925">
        <ele>341.81</ele>
        <time>2017-02-18T15:52:42Z</time>
      </trkpt>
      <trkpt lat="45.30555" lon="5.64926">
        <ele>342.24</ele>
        <time>2017-02-18T15:52:43Z</time>
      </trkpt>
      <trkpt lat="45.30557" lon="5.64926">
        <ele>342.81</ele>
        <time>2017-02-18T15:52:44Z</time>
      </trkpt>
      <trkpt lat="45.30558" lon="5.64926">
        <ele>343.24</ele>
        <time>2017-02-18T15:52:45Z</time>
      </trkpt>
      <trkpt lat="45.30559" lon="5.64927">
        <ele>343.33</ele>
        <time>2017-02-18T15:52:46Z</time>
      </trkpt>
      <trkpt lat="45.30559" lon="5.64928">
        <ele>343.42</ele>
        <time>2017-02-18T15:52:47Z</time>
      </trkpt>
      <trkpt lat="45.30559" lon="5.64928">
        <ele>343.44</ele>
        <time>2017-02-18T15:52:48Z</time>
      </trkpt>
      <trkpt lat="45.30559" lon="5.64928">
        <ele>343.45</ele>
        <time>2017-02-18T15:52:49Z</time>
      </trkpt>
      <trkpt lat="45.30559" lon="5.64928">
        <ele>343.45</ele>
        <time>2017-02-18T15:52:50Z</time>
      </trkpt>
      <trkpt lat="45.30559" lon="5.64928">
        <ele>343.45</ele>
        <time>2017-02-18T15:52:51Z</time>
      </trkpt>
      <trkpt lat="45.30559" lon="5.64928">
        <ele>343.45</ele>
        <time>2017-02-18T15:52:52Z</time>
      </trkpt>
      <trkpt lat="45.30559" lon="5.64928">
        <ele>343.45</ele>
        <time>2017-02-18T15:52:53Z</time>
      </trkpt>
      <trkpt lat="45.30559" lon="5.64928">
        <ele>343.45</ele>
        <time>2017-02-18T15:52:54Z</time>
      </trkpt>
      <trkpt lat="45.30559" lon="5.64928">
        <ele>343.45</ele>
        <time>2017-02-18T15:52:55Z</time>
      </trkpt>
      <trkpt lat="45.30559" lon="5.64928">
        <ele>343.45</ele>
        <time>2017-02-18T15:52:56Z</time>
      </trkpt>
      <trkpt lat="45.30559" lon="5.64928">
        <ele>343.45</ele>
        <time>2017-02-18T15:52:57Z</time>
      </trkpt>
      <trkpt lat="45.30559" lon="5.64928">
        <ele>343.45</ele>
        <time>2017-02-18T15:52:58Z</time>
      </trkpt>
      <trkpt lat="45.30559" lon="5.64928">
        <ele>343.45</ele>
        <time>2017-02-18T15:52:59Z</time>
      </trkpt>
      <trkpt lat="45.30559" lon="5.64928">
        <ele>343.45</ele>
        <time>2017-02-18T15:53:00Z</time>
      </trkpt>
      <trkpt lat="45.30559" lon="5.64928">
        <ele>343.45</ele>
        <time>2017-02-18T15:53:01Z</time>
      </trkpt>
      <trkpt lat="45.30559" lon="5.64928">
        <ele>343.45</ele>
        <time>2017-02-18T15:53:02Z</time>
      </trkpt>
      <trkpt lat="45.30559" lon="5.64928">
        <ele>343.45</ele>
        <time>2017-02-18T15:53:03Z</time>
      </trkpt>
      <trkpt lat="45.30559" lon="5.64928">
        <ele>343.45</ele>
        <time>2017-02-18T15:53:04Z</time>
      </trkpt>
      <trkpt lat="45.30559" lon="5.64928">
        <ele>343.45</ele>
        <time>2017-02-18T15:53:05Z</time>
      </trkpt>
      <trkpt lat="45.30559" lon="5.64928">
        <ele>343.45</ele>
        <time>2017-02-18T15:53:06Z</time>
      </trkpt>
      <trkpt lat="45.30559" lon="5.64928">
        <ele>343.45</ele>
        <time>2017-02-18T15:53:07Z</time>
      </trkpt>
      <trkpt lat="45.30559" lon="5.64928">
        <ele>343.45</ele>
        <time>2017-02-18T15:53:08Z</time>
      </trkpt>
      <trkpt lat="45.30559" lon="5.64928">
        <ele>343.45</ele>
        <time>2017-02-18T15:53:09Z</time>
      </trkpt>
      <trkpt lat="45.30559" lon="5.64928">
        <ele>343.45</ele>
        <time>2017-02-18T15:53:10Z</time>
      </trkpt>
      <trkpt lat="45.30555" lon="5.6493">
        <ele>343.61</ele>
        <time>2017-02-18T15:53:11Z</time>
      </trkpt>
      <trkpt lat="45.30552" lon="5.64928">
        <ele>343.56</ele>
        <time>2017-02-18T15:53:12Z</time>
      </trkpt>
      <trkpt lat="45.30547" lon="5.64925">
        <ele>343.47</ele>
        <time>2017-02-18T15:53:13Z</time>
      </trkpt>
      <trkpt lat="45.30542" lon="5.64923">
        <ele>343.45</ele>
        <time>2017-02-18T15:53:14Z</time>
      </trkpt>
      <trkpt lat="45.30537" lon="5.6492">
        <ele>343.45</ele>
        <time>2017-02-18T15:53:15Z</time>
      </trkpt>
      <trkpt lat="45.30531" lon="5.64914">
        <ele>343.45</ele>
        <time>2017-02-18T15:53:16Z</time>
      </trkpt>
      <trkpt lat="45.30525" lon="5.64906">
        <ele>343.45</ele>
        <time>2017-02-18T15:53:17Z</time>
      </trkpt>
      <trkpt lat="45.3052" lon="5.64897">
        <ele>343.61</ele>
        <time>2017-02-18T15:53:18Z</time>
      </trkpt>
      <trkpt lat="45.30515" lon="5.64887">
        <ele>343.88</ele>
        <time>2017-02-18T15:53:19Z</time>
      </trkpt>
      <trkpt lat="45.3051" lon="5.64878">
        <ele>344.1</ele>
        <time>2017-02-18T15:53:20Z</time>
      </trkpt>
      <trkpt lat="45.30505" lon="5.64869">
        <ele>344.46</ele>
        <time>2017-02-18T15:53:21Z</time>
      </trkpt>
      <trkpt lat="45.30501" lon="5.6486">
        <ele>344.45</ele>
        <time>2017-02-18T15:53:22Z</time>
      </trkpt>
      <trkpt lat="45.30495" lon="5.64852">
        <ele>344.53</ele>
        <time>2017-02-18T15:53:23Z</time>
      </trkpt>
      <trkpt lat="45.3049" lon="5.64844">
        <ele>344.63</ele>
        <time>2017-02-18T15:53:24Z</time>
      </trkpt>
      <trkpt lat="45.30485" lon="5.64837">
        <ele>344.88</ele>
        <time>2017-02-18T15:53:25Z</time>
      </trkpt>
      <trkpt lat="45.30479" lon="5.64832">
        <ele>345.1</ele>
        <time>2017-02-18T15:53:26Z</time>
      </trkpt>
      <trkpt lat="45.30473" lon="5.64827">
        <ele>345.54</ele>
        <time>2017-02-18T15:53:27Z</time>
      </trkpt>
      <trkpt lat="45.30466" lon="5.64821">
        <ele>346.19</ele>
        <time>2017-02-18T15:53:28Z</time>
      </trkpt>
      <trkpt lat="45.3046" lon="5.64817">
        <ele>346.88</ele>
        <time>2017-02-18T15:53:29Z</time>
      </trkpt>
      <trkpt lat="45.30454" lon="5.64814">
        <ele>347.57</ele>
        <time>2017-02-18T15:53:30Z</time>
      </trkpt>
      <trkpt lat="45.3045" lon="5.64812">
        <ele>347.71</ele>
        <time>2017-02-18T15:53:31Z</time>
      </trkpt>
      <trkpt lat="45.30445" lon="5.64812">
        <ele>348.14</ele>
        <time>2017-02-18T15:53:32Z</time>
      </trkpt>
      <trkpt lat="45.30439" lon="5.64812">
        <ele>348.95</ele>
        <time>2017-02-18T15:53:33Z</time>
      </trkpt>
      <trkpt lat="45.30433" lon="5.64812">
        <ele>349.59</ele>
        <time>2017-02-18T15:53:34Z</time>
      </trkpt>
      <trkpt lat="45.30425" lon="5.64813">
        <ele>350.36</ele>
        <time>2017-02-18T15:53:35Z</time>
      </trkpt>
      <trkpt lat="45.30419" lon="5.64813">
        <ele>350.99</ele>
        <time>2017-02-18T15:53:36Z</time>
      </trkpt>
      <trkpt lat="45.30413" lon="5.64814">
        <ele>351.84</ele>
        <time>2017-02-18T15:53:37Z</time>
      </trkpt>
      <trkpt lat="45.30408" lon="5.64814">
        <ele>352.81</ele>
        <time>2017-02-18T15:53:38Z</time>
      </trkpt>
      <trkpt lat="45.30404" lon="5.64815">
        <ele>353.48</ele>
        <time>2017-02-18T15:53:39Z</time>
      </trkpt>
      <trkpt lat="45.30399" lon="5.64815">
        <ele>354.02</ele>
        <time>2017-02-18T15:53:40Z</time>
      </trkpt>
      <trkpt lat="45.30393" lon="5.64815">
        <ele>353.8</ele>
        <time>2017-02-18T15:53:41Z</time>
      </trkpt>
      <trkpt lat="45.30385" lon="5.64815">
        <ele>353.44</ele>
        <time>2017-02-18T15:53:42Z</time>
      </trkpt>
      <trkpt lat="45.30376" lon="5.64817">
        <ele>353.21</ele>
        <time>2017-02-18T15:53:43Z</time>
      </trkpt>
      <trkpt lat="45.30366" lon="5.6482">
        <ele>353</ele>
        <time>2017-02-18T15:53:44Z</time>
      </trkpt>
      <trkpt lat="45.30356" lon="5.64825">
        <ele>352.8</ele>
        <time>2017-02-18T15:53:45Z</time>
      </trkpt>
      <trkpt lat="45.30348" lon="5.64834">
        <ele>352.36</ele>
        <time>2017-02-18T15:53:46Z</time>
      </trkpt>
      <trkpt lat="45.30342" lon="5.64848">
        <ele>351.79</ele>
        <time>2017-02-18T15:53:47Z</time>
      </trkpt>
      <trkpt lat="45.30336" lon="5.64861">
        <ele>351.2</ele>
        <time>2017-02-18T15:53:48Z</time>
      </trkpt>
      <trkpt lat="45.30331" lon="5.64873">
        <ele>350.68</ele>
        <time>2017-02-18T15:53:49Z</time>
      </trkpt>
      <trkpt lat="45.30325" lon="5.64884">
        <ele>350.09</ele>
        <time>2017-02-18T15:53:50Z</time>
      </trkpt>
      <trkpt lat="45.3032" lon="5.64892">
        <ele>349.58</ele>
        <time>2017-02-18T15:53:51Z</time>
      </trkpt>
      <trkpt lat="45.30315" lon="5.64897">
        <ele>349.15</ele>
        <time>2017-02-18T15:53:52Z</time>
      </trkpt>
      <trkpt lat="45.3031" lon="5.64901">
        <ele>348.51</ele>
        <time>2017-02-18T15:53:53Z</time>
      </trkpt>
      <trkpt lat="45.30305" lon="5.649">
        <ele>348.14</ele>
        <time>2017-02-18T15:53:54Z</time>
      </trkpt>
      <trkpt lat="45.30301" lon="5.64895">
        <ele>347.91</ele>
        <time>2017-02-18T15:53:55Z</time>
      </trkpt>
      <trkpt lat="45.30298" lon="5.64888">
        <ele>347.7</ele>
        <time>2017-02-18T15:53:56Z</time>
      </trkpt>
      <trkpt lat="45.30297" lon="5.64879">
        <ele>347.5</ele>
        <time>2017-02-18T15:53:57Z</time>
      </trkpt>
      <trkpt lat="45.30297" lon="5.64867">
        <ele>347.3</ele>
        <time>2017-02-18T15:53:58Z</time>
      </trkpt>
      <trkpt lat="45.30299" lon="5.64853">
        <ele>347.42</ele>
        <time>2017-02-18T15:53:59Z</time>
      </trkpt>
      <trkpt lat="45.30301" lon="5.64836">
        <ele>347.52</ele>
        <time>2017-02-18T15:54:00Z</time>
      </trkpt>
      <trkpt lat="45.30302" lon="5.64819">
        <ele>347.54</ele>
        <time>2017-02-18T15:54:01Z</time>
      </trkpt>
      <trkpt lat="45.30301" lon="5.648">
        <ele>347.31</ele>
        <time>2017-02-18T15:54:02Z</time>
      </trkpt>
      <trkpt lat="45.303" lon="5.64781">
        <ele>347.02</ele>
        <time>2017-02-18T15:54:03Z</time>
      </trkpt>
      <trkpt lat="45.30298" lon="5.64762">
        <ele>346.56</ele>
        <time>2017-02-18T15:54:04Z</time>
      </trkpt>
      <trkpt lat="45.30297" lon="5.64742">
        <ele>345.99</ele>
        <time>2017-02-18T15:54:05Z</time>
      </trkpt>
      <trkpt lat="45.30295" lon="5.64724">
        <ele>345.24</ele>
        <time>2017-02-18T15:54:06Z</time>
      </trkpt>
      <trkpt lat="45.30295" lon="5.64708">
        <ele>344.05</ele>
        <time>2017-02-18T15:54:07Z</time>
      </trkpt>
      <trkpt lat="45.30295" lon="5.64693">
        <ele>342.93</ele>
        <time>2017-02-18T15:54:08Z</time>
      </trkpt>
      <trkpt lat="45.30296" lon="5.64678">
        <ele>341.34</ele>
        <time>2017-02-18T15:54:09Z</time>
      </trkpt>
      <trkpt lat="45.30297" lon="5.64665">
        <ele>339.83</ele>
        <time>2017-02-18T15:54:10Z</time>
      </trkpt>
      <trkpt lat="45.30299" lon="5.64652">
        <ele>338.4</ele>
        <time>2017-02-18T15:54:11Z</time>
      </trkpt>
      <trkpt lat="45.30301" lon="5.64639">
        <ele>337</ele>
        <time>2017-02-18T15:54:12Z</time>
      </trkpt>
      <trkpt lat="45.30303" lon="5.64626">
        <ele>335.6</ele>
        <time>2017-02-18T15:54:13Z</time>
      </trkpt>
      <trkpt lat="45.30305" lon="5.64613">
        <ele>335.08</ele>
        <time>2017-02-18T15:54:14Z</time>
      </trkpt>
      <trkpt lat="45.30306" lon="5.64599">
        <ele>334.1</ele>
        <time>2017-02-18T15:54:15Z</time>
      </trkpt>
      <trkpt lat="45.30306" lon="5.64586">
        <ele>332.86</ele>
        <time>2017-02-18T15:54:16Z</time>
      </trkpt>
      <trkpt lat="45.30303" lon="5.64574">
        <ele>331.49</ele>
        <time>2017-02-18T15:54:17Z</time>
      </trkpt>
      <trkpt lat="45.30298" lon="5.64564">
        <ele>329.86</ele>
        <time>2017-02-18T15:54:18Z</time>
      </trkpt>
      <trkpt lat="45.30292" lon="5.64554">
        <ele>328.65</ele>
        <time>2017-02-18T15:54:19Z</time>
      </trkpt>
      <trkpt lat="45.30285" lon="5.64545">
        <ele>327.45</ele>
        <time>2017-02-18T15:54:20Z</time>
      </trkpt>
      <trkpt lat="45.30277" lon="5.64535">
        <ele>326.25</ele>
        <time>2017-02-18T15:54:21Z</time>
      </trkpt>
      <trkpt lat="45.30269" lon="5.64525">
        <ele>325.37</ele>
        <time>2017-02-18T15:54:22Z</time>
      </trkpt>
      <trkpt lat="45.30262" lon="5.64515">
        <ele>324.55</ele>
        <time>2017-02-18T15:54:23Z</time>
      </trkpt>
      <trkpt lat="45.30255" lon="5.64506">
        <ele>323.75</ele>
        <time>2017-02-18T15:54:24Z</time>
      </trkpt>
      <trkpt lat="45.30248" lon="5.64498">
        <ele>323.11</ele>
        <time>2017-02-18T15:54:25Z</time>
      </trkpt>
      <trkpt lat="45.3024" lon="5.6449">
        <ele>322.42</ele>
        <time>2017-02-18T15:54:26Z</time>
      </trkpt>
      <trkpt lat="45.30234" lon="5.64483">
        <ele>321.88</ele>
        <time>2017-02-18T15:54:27Z</time>
      </trkpt>
      <trkpt lat="45.30227" lon="5.64475">
        <ele>320.82</ele>
        <time>2017-02-18T15:54:28Z</time>
      </trkpt>
      <trkpt lat="45.30221" lon="5.64468">
        <ele>319.88</ele>
        <time>2017-02-18T15:54:29Z</time>
      </trkpt>
      <trkpt lat="45.30216" lon="5.64463">
        <ele>319.14</ele>
        <time>2017-02-18T15:54:30Z</time>
      </trkpt>
      <trkpt lat="45.30211" lon="5.64458">
        <ele>318.35</ele>
        <time>2017-02-18T15:54:31Z</time>
      </trkpt>
      <trkpt lat="45.30208" lon="5.64453">
        <ele>317.63</ele>
        <time>2017-02-18T15:54:32Z</time>
      </trkpt>
      <trkpt lat="45.30205" lon="5.6445">
        <ele>317.08</ele>
        <time>2017-02-18T15:54:33Z</time>
      </trkpt>
      <trkpt lat="45.30202" lon="5.64446">
        <ele>316.74</ele>
        <time>2017-02-18T15:54:34Z</time>
      </trkpt>
      <trkpt lat="45.30199" lon="5.64442">
        <ele>316.51</ele>
        <time>2017-02-18T15:54:35Z</time>
      </trkpt>
      <trkpt lat="45.30196" lon="5.64438">
        <ele>316.46</ele>
        <time>2017-02-18T15:54:36Z</time>
      </trkpt>
      <trkpt lat="45.30192" lon="5.64432">
        <ele>316.29</ele>
        <time>2017-02-18T15:54:37Z</time>
      </trkpt>
      <trkpt lat="45.30187" lon="5.64423">
        <ele>316.02</ele>
        <time>2017-02-18T15:54:38Z</time>
      </trkpt>
      <trkpt lat="45.30182" lon="5.64413">
        <ele>316.04</ele>
        <time>2017-02-18T15:54:39Z</time>
      </trkpt>
      <trkpt lat="45.30175" lon="5.64401">
        <ele>316.61</ele>
        <time>2017-02-18T15:54:40Z</time>
      </trkpt>
      <trkpt lat="45.30169" lon="5.64388">
        <ele>316.64</ele>
        <time>2017-02-18T15:54:41Z</time>
      </trkpt>
      <trkpt lat="45.30163" lon="5.64374">
        <ele>316.73</ele>
        <time>2017-02-18T15:54:42Z</time>
      </trkpt>
      <trkpt lat="45.30157" lon="5.6436">
        <ele>316.5</ele>
        <time>2017-02-18T15:54:43Z</time>
      </trkpt>
      <trkpt lat="45.30151" lon="5.64346">
        <ele>316.14</ele>
        <time>2017-02-18T15:54:44Z</time>
      </trkpt>
      <trkpt lat="45.30146" lon="5.64332">
        <ele>315.91</ele>
        <time>2017-02-18T15:54:45Z</time>
      </trkpt>
      <trkpt lat="45.3014" lon="5.64318">
        <ele>315.54</ele>
        <time>2017-02-18T15:54:46Z</time>
      </trkpt>
      <trkpt lat="45.30134" lon="5.64304">
        <ele>315.15</ele>
        <time>2017-02-18T15:54:47Z</time>
      </trkpt>
      <trkpt lat="45.30129" lon="5.64289">
        <ele>314.91</ele>
        <time>2017-02-18T15:54:48Z</time>
      </trkpt>
      <trkpt lat="45.30124" lon="5.64274">
        <ele>314.86</ele>
        <time>2017-02-18T15:54:49Z</time>
      </trkpt>
      <trkpt lat="45.30119" lon="5.6426">
        <ele>314.77</ele>
        <time>2017-02-18T15:54:50Z</time>
      </trkpt>
      <trkpt lat="45.30115" lon="5.64244">
        <ele>314.59</ele>
        <time>2017-02-18T15:54:51Z</time>
      </trkpt>
      <trkpt lat="45.30111" lon="5.64228">
        <ele>314</ele>
        <time>2017-02-18T15:54:52Z</time>
      </trkpt>
      <trkpt lat="45.30108" lon="5.64211">
        <ele>313.56</ele>
        <time>2017-02-18T15:54:53Z</time>
      </trkpt>
      <trkpt lat="45.30106" lon="5.64195">
        <ele>312.99</ele>
        <time>2017-02-18T15:54:54Z</time>
      </trkpt>
      <trkpt lat="45.30106" lon="5.64179">
        <ele>312.32</ele>
        <time>2017-02-18T15:54:55Z</time>
      </trkpt>
      <trkpt lat="45.30105" lon="5.64165">
        <ele>311.62</ele>
        <time>2017-02-18T15:54:56Z</time>
      </trkpt>
      <trkpt lat="45.30103" lon="5.64153">
        <ele>310.76</ele>
        <time>2017-02-18T15:54:57Z</time>
      </trkpt>
      <trkpt lat="45.30101" lon="5.64144">
        <ele>309.71</ele>
        <time>2017-02-18T15:54:58Z</time>
      </trkpt>
      <trkpt lat="45.30099" lon="5.64137">
        <ele>308.86</ele>
        <time>2017-02-18T15:54:59Z</time>
      </trkpt>
      <trkpt lat="45.30098" lon="5.64136">
        <ele>307.97</ele>
        <time>2017-02-18T15:55:00Z</time>
      </trkpt>
      <trkpt lat="45.30098" lon="5.64135">
        <ele>307.15</ele>
        <time>2017-02-18T15:55:01Z</time>
      </trkpt>
      <trkpt lat="45.30099" lon="5.64136">
        <ele>306.27</ele>
        <time>2017-02-18T15:55:02Z</time>
      </trkpt>
      <trkpt lat="45.301" lon="5.64136">
        <ele>305.45</ele>
        <time>2017-02-18T15:55:03Z</time>
      </trkpt>
      <trkpt lat="45.301" lon="5.64136">
        <ele>305.29</ele>
        <time>2017-02-18T15:55:04Z</time>
      </trkpt>
      <trkpt lat="45.301" lon="5.64136">
        <ele>305.26</ele>
        <time>2017-02-18T15:55:05Z</time>
      </trkpt>
      <trkpt lat="45.301" lon="5.64136">
        <ele>305.25</ele>
        <time>2017-02-18T15:55:06Z</time>
      </trkpt>
      <trkpt lat="45.301" lon="5.64136">
        <ele>305.25</ele>
        <time>2017-02-18T15:55:07Z</time>
      </trkpt>
      <trkpt lat="45.301" lon="5.64136">
        <ele>305.25</ele>
        <time>2017-02-18T15:55:08Z</time>
      </trkpt>
      <trkpt lat="45.301" lon="5.64136">
        <ele>305.25</ele>
        <time>2017-02-18T15:55:09Z</time>
      </trkpt>
      <trkpt lat="45.301" lon="5.64136">
        <ele>305.25</ele>
        <time>2017-02-18T15:55:10Z</time>
      </trkpt>
      <trkpt lat="45.301" lon="5.64136">
        <ele>305.25</ele>
        <time>2017-02-18T15:55:11Z</time>
      </trkpt>
      <trkpt lat="45.301" lon="5.64136">
        <ele>305.25</ele>
        <time>2017-02-18T15:55:12Z</time>
      </trkpt>
      <trkpt lat="45.301" lon="5.64136">
        <ele>305.25</ele>
        <time>2017-02-18T15:55:13Z</time>
      </trkpt>
      <trkpt lat="45.30095" lon="5.64134">
        <ele>304.61</ele>
        <time>2017-02-18T15:55:14Z</time>
      </trkpt>
      <trkpt lat="45.30089" lon="5.64132">
        <ele>304</ele>
        <time>2017-02-18T15:55:15Z</time>
      </trkpt>
      <trkpt lat="45.30082" lon="5.6413">
        <ele>303.56</ele>
        <time>2017-02-18T15:55:16Z</time>
      </trkpt>
      <trkpt lat="45.30073" lon="5.64128">
        <ele>302.99</ele>
        <time>2017-02-18T15:55:17Z</time>
      </trkpt>
      <trkpt lat="45.30063" lon="5.64125">
        <ele>302.24</ele>
        <time>2017-02-18T15:55:18Z</time>
      </trkpt>
      <trkpt lat="45.30053" lon="5.64123">
        <ele>301.37</ele>
        <time>2017-02-18T15:55:19Z</time>
      </trkpt>
      <trkpt lat="45.30042" lon="5.64121">
        <ele>300.71</ele>
        <time>2017-02-18T15:55:20Z</time>
      </trkpt>
      <trkpt lat="45.30032" lon="5.64119">
        <ele>300.18</ele>
        <time>2017-02-18T15:55:21Z</time>
      </trkpt>
      <trkpt lat="45.30021" lon="5.64116">
        <ele>299.68</ele>
        <time>2017-02-18T15:55:22Z</time>
      </trkpt>
      <trkpt lat="45.3001" lon="5.64113">
        <ele>299.09</ele>
        <time>2017-02-18T15:55:23Z</time>
      </trkpt>
      <trkpt lat="45.29998" lon="5.64113">
        <ele>298.1</ele>
        <time>2017-02-18T15:55:24Z</time>
      </trkpt>
      <trkpt lat="45.29987" lon="5.64114">
        <ele>297.1</ele>
        <time>2017-02-18T15:55:25Z</time>
      </trkpt>
      <trkpt lat="45.29977" lon="5.64119">
        <ele>296.02</ele>
        <time>2017-02-18T15:55:26Z</time>
      </trkpt>
      <trkpt lat="45.29967" lon="5.64124">
        <ele>294.84</ele>
        <time>2017-02-18T15:55:27Z</time>
      </trkpt>
      <trkpt lat="45.29958" lon="5.64126">
        <ele>293.65</ele>
        <time>2017-02-18T15:55:28Z</time>
      </trkpt>
      <trkpt lat="45.2995" lon="5.64126">
        <ele>292.45</ele>
        <time>2017-02-18T15:55:29Z</time>
      </trkpt>
      <trkpt lat="45.29941" lon="5.64123">
        <ele>291.57</ele>
        <time>2017-02-18T15:55:30Z</time>
      </trkpt>
      <trkpt lat="45.29933" lon="5.64117">
        <ele>290.67</ele>
        <time>2017-02-18T15:55:31Z</time>
      </trkpt>
      <trkpt lat="45.29925" lon="5.64112">
        <ele>289.77</ele>
        <time>2017-02-18T15:55:32Z</time>
      </trkpt>
      <trkpt lat="45.29917" lon="5.64108">
        <ele>288.63</ele>
        <time>2017-02-18T15:55:33Z</time>
      </trkpt>
      <trkpt lat="45.29909" lon="5.64105">
        <ele>287.29</ele>
        <time>2017-02-18T15:55:34Z</time>
      </trkpt>
      <trkpt lat="45.29902" lon="5.64103">
        <ele>286.14</ele>
        <time>2017-02-18T15:55:35Z</time>
      </trkpt>
      <trkpt lat="45.29893" lon="5.64102">
        <ele>284.87</ele>
        <time>2017-02-18T15:55:36Z</time>
      </trkpt>
      <trkpt lat="45.29884" lon="5.64103">
        <ele>283.49</ele>
        <time>2017-02-18T15:55:37Z</time>
      </trkpt>
      <trkpt lat="45.29873" lon="5.64105">
        <ele>282.1</ele>
        <time>2017-02-18T15:55:38Z</time>
      </trkpt>
      <trkpt lat="45.29863" lon="5.64107">
        <ele>280.78</ele>
        <time>2017-02-18T15:55:39Z</time>
      </trkpt>
      <trkpt lat="45.29852" lon="5.6411">
        <ele>279.71</ele>
        <time>2017-02-18T15:55:40Z</time>
      </trkpt>
      <trkpt lat="45.29842" lon="5.64113">
        <ele>278.46</ele>
        <time>2017-02-18T15:55:41Z</time>
      </trkpt>
      <trkpt lat="45.29831" lon="5.64117">
        <ele>277.33</ele>
        <time>2017-02-18T15:55:42Z</time>
      </trkpt>
      <trkpt lat="45.2982" lon="5.64121">
        <ele>276.23</ele>
        <time>2017-02-18T15:55:43Z</time>
      </trkpt>
      <trkpt lat="45.2981" lon="5.64125">
        <ele>275.2</ele>
        <time>2017-02-18T15:55:44Z</time>
      </trkpt>
      <trkpt lat="45.29799" lon="5.64128">
        <ele>274.28</ele>
        <time>2017-02-18T15:55:45Z</time>
      </trkpt>
      <trkpt lat="45.2979" lon="5.64131">
        <ele>273.22</ele>
        <time>2017-02-18T15:55:46Z</time>
      </trkpt>
      <trkpt lat="45.29781" lon="5.64135">
        <ele>272.28</ele>
        <time>2017-02-18T15:55:47Z</time>
      </trkpt>
      <trkpt lat="45.29773" lon="5.64136">
        <ele>272.1</ele>
        <time>2017-02-18T15:55:48Z</time>
      </trkpt>
      <trkpt lat="45.29767" lon="5.64137">
        <ele>271.9</ele>
        <time>2017-02-18T15:55:49Z</time>
      </trkpt>
      <trkpt lat="45.29762" lon="5.64135">
        <ele>271.7</ele>
        <time>2017-02-18T15:55:50Z</time>
      </trkpt>
      <trkpt lat="45.29758" lon="5.64132">
        <ele>271.58</ele>
        <time>2017-02-18T15:55:51Z</time>
      </trkpt>
      <trkpt lat="45.29755" lon="5.64127">
        <ele>271.55</ele>
        <time>2017-02-18T15:55:52Z</time>
      </trkpt>
      <trkpt lat="45.29754" lon="5.64122">
        <ele>271.31</ele>
        <time>2017-02-18T15:55:53Z</time>
      </trkpt>
      <trkpt lat="45.29754" lon="5.64117">
        <ele>271.42</ele>
        <time>2017-02-18T15:55:54Z</time>
      </trkpt>
      <trkpt lat="45.29755" lon="5.64112">
        <ele>271.12</ele>
        <time>2017-02-18T15:55:55Z</time>
      </trkpt>
      <trkpt lat="45.29759" lon="5.64107">
        <ele>270.58</ele>
        <time>2017-02-18T15:55:56Z</time>
      </trkpt>
      <trkpt lat="45.29764" lon="5.64103">
        <ele>270.16</ele>
        <time>2017-02-18T15:55:57Z</time>
      </trkpt>
      <trkpt lat="45.29771" lon="5.641">
        <ele>269.91</ele>
        <time>2017-02-18T15:55:58Z</time>
      </trkpt>
      <trkpt lat="45.2978" lon="5.64097">
        <ele>269.38</ele>
        <time>2017-02-18T15:55:59Z</time>
      </trkpt>
      <trkpt lat="45.29789" lon="5.64094">
        <ele>268.8</ele>
        <time>2017-02-18T15:56:00Z</time>
      </trkpt>
      <trkpt lat="45.29798" lon="5.6409">
        <ele>268.2</ele>
        <time>2017-02-18T15:56:01Z</time>
      </trkpt>
      <trkpt lat="45.29807" lon="5.64085">
        <ele>267.92</ele>
        <time>2017-02-18T15:56:02Z</time>
      </trkpt>
      <trkpt lat="45.29816" lon="5.64078">
        <ele>266.98</ele>
        <time>2017-02-18T15:56:03Z</time>
      </trkpt>
      <trkpt lat="45.29825" lon="5.64071">
        <ele>266.24</ele>
        <time>2017-02-18T15:56:04Z</time>
      </trkpt>
      <trkpt lat="45.29834" lon="5.64063">
        <ele>265.37</ele>
        <time>2017-02-18T15:56:05Z</time>
      </trkpt>
      <trkpt lat="45.29844" lon="5.64056">
        <ele>264.55</ele>
        <time>2017-02-18T15:56:06Z</time>
      </trkpt>
      <trkpt lat="45.29854" lon="5.64049">
        <ele>263.19</ele>
        <time>2017-02-18T15:56:07Z</time>
      </trkpt>
      <trkpt lat="45.29865" lon="5.64043">
        <ele>261.96</ele>
        <time>2017-02-18T15:56:08Z</time>
      </trkpt>
      <trkpt lat="45.29877" lon="5.64039">
        <ele>261.07</ele>
        <time>2017-02-18T15:56:09Z</time>
      </trkpt>
      <trkpt lat="45.29888" lon="5.64034">
        <ele>260.25</ele>
        <time>2017-02-18T15:56:10Z</time>
      </trkpt>
      <trkpt lat="45.29899" lon="5.64031">
        <ele>259.53</ele>
        <time>2017-02-18T15:56:11Z</time>
      </trkpt>
      <trkpt lat="45.2991" lon="5.64029">
        <ele>258.51</ele>
        <time>2017-02-18T15:56:12Z</time>
      </trkpt>
      <trkpt lat="45.2992" lon="5.64026">
        <ele>257.74</ele>
        <time>2017-02-18T15:56:13Z</time>
      </trkpt>
      <trkpt lat="45.29931" lon="5.64024">
        <ele>256.95</ele>
        <time>2017-02-18T15:56:14Z</time>
      </trkpt>
      <trkpt lat="45.29941" lon="5.64022">
        <ele>256.15</ele>
        <time>2017-02-18T15:56:15Z</time>
      </trkpt>
      <trkpt lat="45.29952" lon="5.64021">
        <ele>255.27</ele>
        <time>2017-02-18T15:56:16Z</time>
      </trkpt>
      <trkpt lat="45.29963" lon="5.64019">
        <ele>254.29</ele>
        <time>2017-02-18T15:56:17Z</time>
      </trkpt>
      <trkpt lat="45.29973" lon="5.64016">
        <ele>253.46</ele>
        <time>2017-02-18T15:56:18Z</time>
      </trkpt>
      <trkpt lat="45.29984" lon="5.64013">
        <ele>252.41</ele>
        <time>2017-02-18T15:56:19Z</time>
      </trkpt>
      <trkpt lat="45.29994" lon="5.6401">
        <ele>251.48</ele>
        <time>2017-02-18T15:56:20Z</time>
      </trkpt>
      <trkpt lat="45.30003" lon="5.64006">
        <ele>250.66</ele>
        <time>2017-02-18T15:56:21Z</time>
      </trkpt>
      <trkpt lat="45.30012" lon="5.64002">
        <ele>249.69</ele>
        <time>2017-02-18T15:56:22Z</time>
      </trkpt>
      <trkpt lat="45.30021" lon="5.63998">
        <ele>248.62</ele>
        <time>2017-02-18T15:56:23Z</time>
      </trkpt>
      <trkpt lat="45.30029" lon="5.63993">
        <ele>247.68</ele>
        <time>2017-02-18T15:56:24Z</time>
      </trkpt>
      <trkpt lat="45.30038" lon="5.63988">
        <ele>246.78</ele>
        <time>2017-02-18T15:56:25Z</time>
      </trkpt>
      <trkpt lat="45.30047" lon="5.63983">
        <ele>245.71</ele>
        <time>2017-02-18T15:56:26Z</time>
      </trkpt>
      <trkpt lat="45.30056" lon="5.63978">
        <ele>244.46</ele>
        <time>2017-02-18T15:56:27Z</time>
      </trkpt>
      <trkpt lat="45.30064" lon="5.63973">
        <ele>243.33</ele>
        <time>2017-02-18T15:56:28Z</time>
      </trkpt>
      <trkpt lat="45.30072" lon="5.63967">
        <ele>242.31</ele>
        <time>2017-02-18T15:56:29Z</time>
      </trkpt>
      <trkpt lat="45.30079" lon="5.6396">
        <ele>241.3</ele>
        <time>2017-02-18T15:56:30Z</time>
      </trkpt>
      <trkpt lat="45.30085" lon="5.63952">
        <ele>240.62</ele>
        <time>2017-02-18T15:56:31Z</time>
      </trkpt>
      <trkpt lat="45.30089" lon="5.63942">
        <ele>239.92</ele>
        <time>2017-02-18T15:56:32Z</time>
      </trkpt>
      <trkpt lat="45.30089" lon="5.6393">
        <ele>239.86</ele>
        <time>2017-02-18T15:56:33Z</time>
      </trkpt>
      <trkpt lat="45.30087" lon="5.63919">
        <ele>238.65</ele>
        <time>2017-02-18T15:56:34Z</time>
      </trkpt>
      <trkpt lat="45.30082" lon="5.6391">
        <ele>236.97</ele>
        <time>2017-02-18T15:56:35Z</time>
      </trkpt>
      <trkpt lat="45.30075" lon="5.63903">
        <ele>235.19</ele>
        <time>2017-02-18T15:56:36Z</time>
      </trkpt>
      <trkpt lat="45.30067" lon="5.63901">
        <ele>233.64</ele>
        <time>2017-02-18T15:56:37Z</time>
      </trkpt>
      <trkpt lat="45.30059" lon="5.63902">
        <ele>231.89</ele>
        <time>2017-02-18T15:56:38Z</time>
      </trkpt>
      <trkpt lat="45.30051" lon="5.63907">
        <ele>230.5</ele>
        <time>2017-02-18T15:56:39Z</time>
      </trkpt>
      <trkpt lat="45.30043" lon="5.63913">
        <ele>229.1</ele>
        <time>2017-02-18T15:56:40Z</time>
      </trkpt>
      <trkpt lat="45.30034" lon="5.63921">
        <ele>227.3</ele>
        <time>2017-02-18T15:56:41Z</time>
      </trkpt>
      <trkpt lat="45.30025" lon="5.63928">
        <ele>225.74</ele>
        <time>2017-02-18T15:56:42Z</time>
      </trkpt>
      <trkpt lat="45.30016" lon="5.63932">
        <ele>224.47</ele>
        <time>2017-02-18T15:56:43Z</time>
      </trkpt>
      <trkpt lat="45.30007" lon="5.63934">
        <ele>223.33</ele>
        <time>2017-02-18T15:56:44Z</time>
      </trkpt>
      <trkpt lat="45.29998" lon="5.63935">
        <ele>222.31</ele>
        <time>2017-02-18T15:56:45Z</time>
      </trkpt>
      <trkpt lat="45.2999" lon="5.63935">
        <ele>221.22</ele>
        <time>2017-02-18T15:56:46Z</time>
      </trkpt>
      <trkpt lat="45.29982" lon="5.63934">
        <ele>220.36</ele>
        <time>2017-02-18T15:56:47Z</time>
      </trkpt>
      <trkpt lat="45.29975" lon="5.6393">
        <ele>219.47</ele>
        <time>2017-02-18T15:56:48Z</time>
      </trkpt>
      <trkpt lat="45.29967" lon="5.63925">
        <ele>218.73</ele>
        <time>2017-02-18T15:56:49Z</time>
      </trkpt>
      <trkpt lat="45.29961" lon="5.63919">
        <ele>217.79</ele>
        <time>2017-02-18T15:56:50Z</time>
      </trkpt>
      <trkpt lat="45.29954" lon="5.63913">
        <ele>216.88</ele>
        <time>2017-02-18T15:56:51Z</time>
      </trkpt>
      <trkpt lat="45.29948" lon="5.63907">
        <ele>215.81</ele>
        <time>2017-02-18T15:56:52Z</time>
      </trkpt>
      <trkpt lat="45.29943" lon="5.63901">
        <ele>215.12</ele>
        <time>2017-02-18T15:56:53Z</time>
      </trkpt>
      <trkpt lat="45.29939" lon="5.63897">
        <ele>214.42</ele>
        <time>2017-02-18T15:56:54Z</time>
      </trkpt>
      <trkpt lat="45.29938" lon="5.63895">
        <ele>213.88</ele>
        <time>2017-02-18T15:56:55Z</time>
      </trkpt>
      <trkpt lat="45.29938" lon="5.63895">
        <ele>213.3</ele>
        <time>2017-02-18T15:56:56Z</time>
      </trkpt>
      <trkpt lat="45.29938" lon="5.63896">
        <ele>214.38</ele>
        <time>2017-02-18T15:56:57Z</time>
      </trkpt>
      <trkpt lat="45.29939" lon="5.63897">
        <ele>214.35</ele>
        <time>2017-02-18T15:56:58Z</time>
      </trkpt>
      <trkpt lat="45.29939" lon="5.63897">
        <ele>214.35</ele>
        <time>2017-02-18T15:56:59Z</time>
      </trkpt>
      <trkpt lat="45.29939" lon="5.63897">
        <ele>214.35</ele>
        <time>2017-02-18T15:57:00Z</time>
      </trkpt>
      <trkpt lat="45.29939" lon="5.63897">
        <ele>214.35</ele>
        <time>2017-02-18T15:57:01Z</time>
      </trkpt>
      <trkpt lat="45.29939" lon="5.63897">
        <ele>214.35</ele>
        <time>2017-02-18T15:57:02Z</time>
      </trkpt>
      <trkpt lat="45.29939" lon="5.63897">
        <ele>214.35</ele>
        <time>2017-02-18T15:57:03Z</time>
      </trkpt>
      <trkpt lat="45.29939" lon="5.63897">
        <ele>214.35</ele>
        <time>2017-02-18T15:57:04Z</time>
      </trkpt>
      <trkpt lat="45.29939" lon="5.63897">
        <ele>214.35</ele>
        <time>2017-02-18T15:57:05Z</time>
      </trkpt>
      <trkpt lat="45.29939" lon="5.63897">
        <ele>214.35</ele>
        <time>2017-02-18T15:57:06Z</time>
      </trkpt>
      <trkpt lat="45.29939" lon="5.63897">
        <ele>214.35</ele>
        <time>2017-02-18T15:57:07Z</time>
      </trkpt>
      <trkpt lat="45.29939" lon="5.63897">
        <ele>214.35</ele>
        <time>2017-02-18T15:57:08Z</time>
      </trkpt>
      <trkpt lat="45.29939" lon="5.63897">
        <ele>214.35</ele>
        <time>2017-02-18T15:57:09Z</time>
      </trkpt>
      <trkpt lat="45.29939" lon="5.63897">
        <ele>214.35</ele>
        <time>2017-02-18T15:57:10Z</time>
      </trkpt>
      <trkpt lat="45.29939" lon="5.63897">
        <ele>214.35</ele>
        <time>2017-02-18T15:57:11Z</time>
      </trkpt>
      <trkpt lat="45.29939" lon="5.63897">
        <ele>214.35</ele>
        <time>2017-02-18T15:57:12Z</time>
      </trkpt>
      <trkpt lat="45.29939" lon="5.63897">
        <ele>214.35</ele>
        <time>2017-02-18T15:57:13Z</time>
      </trkpt>
      <trkpt lat="45.29939" lon="5.63897">
        <ele>214.35</ele>
        <time>2017-02-18T15:57:14Z</time>
      </trkpt>
      <trkpt lat="45.29939" lon="5.63897">
        <ele>214.35</ele>
        <time>2017-02-18T15:57:15Z</time>
      </trkpt>
      <trkpt lat="45.29939" lon="5.63897">
        <ele>214.35</ele>
        <time>2017-02-18T15:57:16Z</time>
      </trkpt>
      <trkpt lat="45.29939" lon="5.63897">
        <ele>214.35</ele>
        <time>2017-02-18T15:57:17Z</time>
      </trkpt>
      <trkpt lat="45.29939" lon="5.63897">
        <ele>214.35</ele>
        <time>2017-02-18T15:57:18Z</time>
      </trkpt>
      <trkpt lat="45.29939" lon="5.63897">
        <ele>214.35</ele>
        <time>2017-02-18T15:57:19Z</time>
      </trkpt>
      <trkpt lat="45.29939" lon="5.63897">
        <ele>214.35</ele>
        <time>2017-02-18T15:57:20Z</time>
      </trkpt>
      <trkpt lat="45.29939" lon="5.63897">
        <ele>214.35</ele>
        <time>2017-02-18T15:57:21Z</time>
      </trkpt>
      <trkpt lat="45.29939" lon="5.63897">
        <ele>214.35</ele>
        <time>2017-02-18T15:57:22Z</time>
      </trkpt>
      <trkpt lat="45.29939" lon="5.63897">
        <ele>214.35</ele>
        <time>2017-02-18T15:57:23Z</time>
      </trkpt>
      <trkpt lat="45.29939" lon="5.63897">
        <ele>214.35</ele>
        <time>2017-02-18T15:57:24Z</time>
      </trkpt>
      <trkpt lat="45.29939" lon="5.63897">
        <ele>214.35</ele>
        <time>2017-02-18T15:57:25Z</time>
      </trkpt>
      <trkpt lat="45.29939" lon="5.63897">
        <ele>214.35</ele>
        <time>2017-02-18T15:57:26Z</time>
      </trkpt>
      <trkpt lat="45.29939" lon="5.63897">
        <ele>214.35</ele>
        <time>2017-02-18T15:57:27Z</time>
      </trkpt>
      <trkpt lat="45.29939" lon="5.63897">
        <ele>214.35</ele>
        <time>2017-02-18T15:57:28Z</time>
      </trkpt>
      <trkpt lat="45.29939" lon="5.63897">
        <ele>214.35</ele>
        <time>2017-02-18T15:57:29Z</time>
      </trkpt>
      <trkpt lat="45.29939" lon="5.63897">
        <ele>214.35</ele>
        <time>2017-02-18T15:57:30Z</time>
      </trkpt>
      <trkpt lat="45.29939" lon="5.63897">
        <ele>214.35</ele>
        <time>2017-02-18T15:57:31Z</time>
      </trkpt>
      <trkpt lat="45.29939" lon="5.63897">
        <ele>214.35</ele>
        <time>2017-02-18T15:57:32Z</time>
      </trkpt>
      <trkpt lat="45.29939" lon="5.63897">
        <ele>214.35</ele>
        <time>2017-02-18T15:57:33Z</time>
      </trkpt>
      <trkpt lat="45.29939" lon="5.63897">
        <ele>214.35</ele>
        <time>2017-02-18T15:57:34Z</time>
      </trkpt>
      <trkpt lat="45.29939" lon="5.63897">
        <ele>214.35</ele>
        <time>2017-02-18T15:57:35Z</time>
      </trkpt>
      <trkpt lat="45.29939" lon="5.63897">
        <ele>214.35</ele>
        <time>2017-02-18T15:57:36Z</time>
      </trkpt>
      <trkpt lat="45.29939" lon="5.63897">
        <ele>214.35</ele>
        <time>2017-02-18T15:57:37Z</time>
      </trkpt>
      <trkpt lat="45.29939" lon="5.63897">
        <ele>214.35</ele>
        <time>2017-02-18T15:57:38Z</time>
      </trkpt>
      <trkpt lat="45.29939" lon="5.63897">
        <ele>214.35</ele>
        <time>2017-02-18T15:57:39Z</time>
      </trkpt>
      <trkpt lat="45.29939" lon="5.63897">
        <ele>214.35</ele>
        <time>2017-02-18T15:57:40Z</time>
      </trkpt>
      <trkpt lat="45.29939" lon="5.63897">
        <ele>214.35</ele>
        <time>2017-02-18T15:57:41Z</time>
      </trkpt>
      <trkpt lat="45.29939" lon="5.63897">
        <ele>214.35</ele>
        <time>2017-02-18T15:57:42Z</time>
      </trkpt>
      <trkpt lat="45.29939" lon="5.63897">
        <ele>214.35</ele>
        <time>2017-02-18T15:57:43Z</time>
      </trkpt>
      <trkpt lat="45.29939" lon="5.63897">
        <ele>214.35</ele>
        <time>2017-02-18T15:57:44Z</time>
      </trkpt>
      <trkpt lat="45.29939" lon="5.63897">
        <ele>214.35</ele>
        <time>2017-02-18T15:57:45Z</time>
      </trkpt>
      <trkpt lat="45.29939" lon="5.63897">
        <ele>214.35</ele>
        <time>2017-02-18T15:57:46Z</time>
      </trkpt>
      <trkpt lat="45.29939" lon="5.63897">
        <ele>214.35</ele>
        <time>2017-02-18T15:57:47Z</time>
      </trkpt>
      <trkpt lat="45.29939" lon="5.63897">
        <ele>214.35</ele>
        <time>2017-02-18T15:57:48Z</time>
      </trkpt>
      <trkpt lat="45.29939" lon="5.63897">
        <ele>214.35</ele>
        <time>2017-02-18T15:57:49Z</time>
      </trkpt>
      <trkpt lat="45.29939" lon="5.63897">
        <ele>214.35</ele>
        <time>2017-02-18T15:57:50Z</time>
      </trkpt>
      <trkpt lat="45.29939" lon="5.63897">
        <ele>214.35</ele>
        <time>2017-02-18T15:57:51Z</time>
      </trkpt>
      <trkpt lat="45.29939" lon="5.63897">
        <ele>214.35</ele>
        <time>2017-02-18T15:57:52Z</time>
      </trkpt>
      <trkpt lat="45.29939" lon="5.63897">
        <ele>214.35</ele>
        <time>2017-02-18T15:57:53Z</time>
      </trkpt>
      <trkpt lat="45.29939" lon="5.63897">
        <ele>214.35</ele>
        <time>2017-02-18T15:57:54Z</time>
      </trkpt>
      <trkpt lat="45.29939" lon="5.63897">
        <ele>214.35</ele>
        <time>2017-02-18T15:57:55Z</time>
      </trkpt>
      <trkpt lat="45.29939" lon="5.63897">
        <ele>214.35</ele>
        <time>2017-02-18T15:57:56Z</time>
      </trkpt>
      <trkpt lat="45.29939" lon="5.63897">
        <ele>214.35</ele>
        <time>2017-02-18T15:57:57Z</time>
      </trkpt>
      <trkpt lat="45.29939" lon="5.63897">
        <ele>214.35</ele>
        <time>2017-02-18T15:57:58Z</time>
      </trkpt>
      <trkpt lat="45.29939" lon="5.63897">
        <ele>214.35</ele>
        <time>2017-02-18T15:57:59Z</time>
      </trkpt>
      <trkpt lat="45.29939" lon="5.63897">
        <ele>214.35</ele>
        <time>2017-02-18T15:58:00Z</time>
      </trkpt>
      <trkpt lat="45.29939" lon="5.63897">
        <ele>214.35</ele>
        <time>2017-02-18T15:58:01Z</time>
      </trkpt>
      <trkpt lat="45.29939" lon="5.63897">
        <ele>214.35</ele>
        <time>2017-02-18T15:58:02Z</time>
      </trkpt>
      <trkpt lat="45.29939" lon="5.63897">
        <ele>214.35</ele>
        <time>2017-02-18T15:58:03Z</time>
      </trkpt>
      <trkpt lat="45.29939" lon="5.63897">
        <ele>214.35</ele>
        <time>2017-02-18T15:58:04Z</time>
      </trkpt>
      <trkpt lat="45.29939" lon="5.63897">
        <ele>214.35</ele>
        <time>2017-02-18T15:58:05Z</time>
      </trkpt>
      <trkpt lat="45.29939" lon="5.63897">
        <ele>214.35</ele>
        <time>2017-02-18T15:58:06Z</time>
      </trkpt>
      <trkpt lat="45.29939" lon="5.63897">
        <ele>214.35</ele>
        <time>2017-02-18T15:58:07Z</time>
      </trkpt>
      <trkpt lat="45.29939" lon="5.63897">
        <ele>214.35</ele>
        <time>2017-02-18T15:58:08Z</time>
      </trkpt>
      <trkpt lat="45.29939" lon="5.63897">
        <ele>214.35</ele>
        <time>2017-02-18T15:58:09Z</time>
      </trkpt>
      <trkpt lat="45.29935" lon="5.63895">
        <ele>214.51</ele>
        <time>2017-02-18T15:58:10Z</time>
      </trkpt>
      <trkpt lat="45.29933" lon="5.63894">
        <ele>214.62</ele>
        <time>2017-02-18T15:58:11Z</time>
      </trkpt>
      <trkpt lat="45.2993" lon="5.63892">
        <ele>214.72</ele>
        <time>2017-02-18T15:58:12Z</time>
      </trkpt>
      <trkpt lat="45.29927" lon="5.6389">
        <ele>214.82</ele>
        <time>2017-02-18T15:58:13Z</time>
      </trkpt>
      <trkpt lat="45.29922" lon="5.63886">
        <ele>214.76</ele>
        <time>2017-02-18T15:58:14Z</time>
      </trkpt>
      <trkpt lat="45.29917" lon="5.63882">
        <ele>214.75</ele>
        <time>2017-02-18T15:58:15Z</time>
      </trkpt>
      <trkpt lat="45.29912" lon="5.63875">
        <ele>214.59</ele>
        <time>2017-02-18T15:58:16Z</time>
      </trkpt>
      <trkpt lat="45.29906" lon="5.63866">
        <ele>214.32</ele>
        <time>2017-02-18T15:58:17Z</time>
      </trkpt>
      <trkpt lat="45.29901" lon="5.63857">
        <ele>214.18</ele>
        <time>2017-02-18T15:58:18Z</time>
      </trkpt>
      <trkpt lat="45.29895" lon="5.63849">
        <ele>214</ele>
        <time>2017-02-18T15:58:19Z</time>
      </trkpt>
      <trkpt lat="45.29889" lon="5.63841">
        <ele>213.64</ele>
        <time>2017-02-18T15:58:20Z</time>
      </trkpt>
      <trkpt lat="45.29882" lon="5.63833">
        <ele>213.17</ele>
        <time>2017-02-18T15:58:21Z</time>
      </trkpt>
      <trkpt lat="45.29875" lon="5.63825">
        <ele>212.67</ele>
        <time>2017-02-18T15:58:22Z</time>
      </trkpt>
      <trkpt lat="45.29869" lon="5.63817">
        <ele>212.17</ele>
        <time>2017-02-18T15:58:23Z</time>
      </trkpt>
      <trkpt lat="45.29862" lon="5.63809">
        <ele>211.11</ele>
        <time>2017-02-18T15:58:24Z</time>
      </trkpt>
      <trkpt lat="45.29856" lon="5.63801">
        <ele>210.42</ele>
        <time>2017-02-18T15:58:25Z</time>
      </trkpt>
      <trkpt lat="45.2985" lon="5.63793">
        <ele>209.88</ele>
        <time>2017-02-18T15:58:26Z</time>
      </trkpt>
      <trkpt lat="45.29845" lon="5.63784">
        <ele>209.3</ele>
        <time>2017-02-18T15:58:27Z</time>
      </trkpt>
      <trkpt lat="45.2984" lon="5.63774">
        <ele>208.38</ele>
        <time>2017-02-18T15:58:28Z</time>
      </trkpt>
      <trkpt lat="45.29835" lon="5.63764">
        <ele>207.55</ele>
        <time>2017-02-18T15:58:29Z</time>
      </trkpt>
      <trkpt lat="45.29831" lon="5.63754">
        <ele>206.59</ele>
        <time>2017-02-18T15:58:30Z</time>
      </trkpt>
      <trkpt lat="45.29826" lon="5.63743">
        <ele>205.68</ele>
        <time>2017-02-18T15:58:31Z</time>
      </trkpt>
      <trkpt lat="45.29821" lon="5.63733">
        <ele>204.93</ele>
        <time>2017-02-18T15:58:32Z</time>
      </trkpt>
      <trkpt lat="45.29816" lon="5.63724">
        <ele>204.31</ele>
        <time>2017-02-18T15:58:33Z</time>
      </trkpt>
      <trkpt lat="45.29812" lon="5.63714">
        <ele>203.62</ele>
        <time>2017-02-18T15:58:34Z</time>
      </trkpt>
      <trkpt lat="45.29807" lon="5.63705">
        <ele>203</ele>
        <time>2017-02-18T15:58:35Z</time>
      </trkpt>
      <trkpt lat="45.29803" lon="5.63696">
        <ele>202.24</ele>
        <time>2017-02-18T15:58:36Z</time>
      </trkpt>
      <trkpt lat="45.298" lon="5.63687">
        <ele>202.09</ele>
        <time>2017-02-18T15:58:37Z</time>
      </trkpt>
      <trkpt lat="45.29798" lon="5.63678">
        <ele>201.58</ele>
        <time>2017-02-18T15:58:38Z</time>
      </trkpt>
      <trkpt lat="45.29799" lon="5.63669">
        <ele>201.39</ele>
        <time>2017-02-18T15:58:39Z</time>
      </trkpt>
      <trkpt lat="45.29801" lon="5.63661">
        <ele>201.2</ele>
        <time>2017-02-18T15:58:40Z</time>
      </trkpt>
      <trkpt lat="45.29803" lon="5.63654">
        <ele>200.76</ele>
        <time>2017-02-18T15:58:41Z</time>
      </trkpt>
      <trkpt lat="45.29804" lon="5.63647">
        <ele>200.83</ele>
        <time>2017-02-18T15:58:42Z</time>
      </trkpt>
      <trkpt lat="45.29803" lon="5.6364">
        <ele>200.77</ele>
        <time>2017-02-18T15:58:43Z</time>
      </trkpt>
      <trkpt lat="45.298" lon="5.63635">
        <ele>200.11</ele>
        <time>2017-02-18T15:58:44Z</time>
      </trkpt>
      <trkpt lat="45.29797" lon="5.63633">
        <ele>197.98</ele>
        <time>2017-02-18T15:58:45Z</time>
      </trkpt>
      <trkpt lat="45.29795" lon="5.63633">
        <ele>197</ele>
        <time>2017-02-18T15:58:46Z</time>
      </trkpt>
      <trkpt lat="45.29794" lon="5.63635">
        <ele>196.16</ele>
        <time>2017-02-18T15:58:47Z</time>
      </trkpt>
      <trkpt lat="45.29794" lon="5.63635">
        <ele>195.43</ele>
        <time>2017-02-18T15:58:48Z</time>
      </trkpt>
      <trkpt lat="45.29794" lon="5.63636">
        <ele>194.81</ele>
        <time>2017-02-18T15:58:49Z</time>
      </trkpt>
      <trkpt lat="45.29795" lon="5.63636">
        <ele>194.6</ele>
        <time>2017-02-18T15:58:50Z</time>
      </trkpt>
      <trkpt lat="45.29795" lon="5.63636">
        <ele>194.56</ele>
        <time>2017-02-18T15:58:51Z</time>
      </trkpt>
      <trkpt lat="45.29795" lon="5.63636">
        <ele>194.55</ele>
        <time>2017-02-18T15:58:52Z</time>
      </trkpt>
      <trkpt lat="45.29795" lon="5.63636">
        <ele>194.55</ele>
        <time>2017-02-18T15:58:53Z</time>
      </trkpt>
      <trkpt lat="45.29795" lon="5.63636">
        <ele>194.55</ele>
        <time>2017-02-18T15:58:54Z</time>
      </trkpt>
      <trkpt lat="45.29792" lon="5.6364">
        <ele>196.79</ele>
        <time>2017-02-18T15:58:55Z</time>
      </trkpt>
      <trkpt lat="45.29788" lon="5.63641">
        <ele>197.4</ele>
        <time>2017-02-18T15:58:56Z</time>
      </trkpt>
      <trkpt lat="45.29784" lon="5.6364">
        <ele>197.44</ele>
        <time>2017-02-18T15:58:57Z</time>
      </trkpt>
      <trkpt lat="45.2978" lon="5.63638">
        <ele>197.37</ele>
        <time>2017-02-18T15:58:58Z</time>
      </trkpt>
      <trkpt lat="45.29777" lon="5.63634">
        <ele>197.43</ele>
        <time>2017-02-18T15:58:59Z</time>
      </trkpt>
      <trkpt lat="45.29774" lon="5.63629">
        <ele>197.45</ele>
        <time>2017-02-18T15:59:00Z</time>
      </trkpt>
      <trkpt lat="45.2977" lon="5.63623">
        <ele>197.29</ele>
        <time>2017-02-18T15:59:01Z</time>
      </trkpt>
      <trkpt lat="45.29766" lon="5.63616">
        <ele>197.18</ele>
        <time>2017-02-18T15:59:02Z</time>
      </trkpt>
      <trkpt lat="45.29761" lon="5.63608">
        <ele>197.07</ele>
        <time>2017-02-18T15:59:03Z</time>
      </trkpt>
      <trkpt lat="45.29756" lon="5.636">
        <ele>196.65</ele>
        <time>2017-02-18T15:59:04Z</time>
      </trkpt>
      <trkpt lat="45.2975" lon="5.63591">
        <ele>196.33</ele>
        <time>2017-02-18T15:59:05Z</time>
      </trkpt>
      <trkpt lat="45.29745" lon="5.63583">
        <ele>195.95</ele>
        <time>2017-02-18T15:59:06Z</time>
      </trkpt>
      <trkpt lat="45.2974" lon="5.63576">
        <ele>195.47</ele>
        <time>2017-02-18T15:59:07Z</time>
      </trkpt>
      <trkpt lat="45.29736" lon="5.6357">
        <ele>195.05</ele>
        <time>2017-02-18T15:59:08Z</time>
      </trkpt>
      <trkpt lat="45.29731" lon="5.63564">
        <ele>194.57</ele>
        <time>2017-02-18T15:59:09Z</time>
      </trkpt>
      <trkpt lat="45.29727" lon="5.6356">
        <ele>194.31</ele>
        <time>2017-02-18T15:59:10Z</time>
      </trkpt>
      <trkpt lat="45.29722" lon="5.63554">
        <ele>194.02</ele>
        <time>2017-02-18T15:59:11Z</time>
      </trkpt>
      <trkpt lat="45.29716" lon="5.63547">
        <ele>193.88</ele>
        <time>2017-02-18T15:59:12Z</time>
      </trkpt>
      <trkpt lat="45.2971" lon="5.6354">
        <ele>193.94</ele>
        <time>2017-02-18T15:59:13Z</time>
      </trkpt>
      <trkpt lat="45.29703" lon="5.63532">
        <ele>193.79</ele>
        <time>2017-02-18T15:59:14Z</time>
      </trkpt>
      <trkpt lat="45.29695" lon="5.63523">
        <ele>193.52</ele>
        <time>2017-02-18T15:59:15Z</time>
      </trkpt>
      <trkpt lat="45.29687" lon="5.63514">
        <ele>193.3</ele>
        <time>2017-02-18T15:59:16Z</time>
      </trkpt>
      <trkpt lat="45.29679" lon="5.63506">
        <ele>192.94</ele>
        <time>2017-02-18T15:59:17Z</time>
      </trkpt>
      <trkpt lat="45.2967" lon="5.63497">
        <ele>192.55</ele>
        <time>2017-02-18T15:59:18Z</time>
      </trkpt>
      <trkpt lat="45.29662" lon="5.63488">
        <ele>192.15</ele>
        <time>2017-02-18T15:59:19Z</time>
      </trkpt>
      <trkpt lat="45.29653" lon="5.63481">
        <ele>191.67</ele>
        <time>2017-02-18T15:59:20Z</time>
      </trkpt>
      <trkpt lat="45.29644" lon="5.63473">
        <ele>191.49</ele>
        <time>2017-02-18T15:59:21Z</time>
      </trkpt>
      <trkpt lat="45.29634" lon="5.63465">
        <ele>191.22</ele>
        <time>2017-02-18T15:59:22Z</time>
      </trkpt>
      <trkpt lat="45.29624" lon="5.63457">
        <ele>191</ele>
        <time>2017-02-18T15:59:23Z</time>
      </trkpt>
      <trkpt lat="45.29614" lon="5.6345">
        <ele>190.8</ele>
        <time>2017-02-18T15:59:24Z</time>
      </trkpt>
      <trkpt lat="45.29604" lon="5.63443">
        <ele>190.28</ele>
        <time>2017-02-18T15:59:25Z</time>
      </trkpt>
      <trkpt lat="45.29594" lon="5.63436">
        <ele>189.7</ele>
        <time>2017-02-18T15:59:26Z</time>
      </trkpt>
      <trkpt lat="45.29584" lon="5.63429">
        <ele>188.7</ele>
        <time>2017-02-18T15:59:27Z</time>
      </trkpt>
      <trkpt lat="45.29575" lon="5.63423">
        <ele>187.78</ele>
        <time>2017-02-18T15:59:28Z</time>
      </trkpt>
      <trkpt lat="45.29565" lon="5.63416">
        <ele>186.87</ele>
        <time>2017-02-18T15:59:29Z</time>
      </trkpt>
      <trkpt lat="45.29556" lon="5.63409">
        <ele>186.13</ele>
        <time>2017-02-18T15:59:30Z</time>
      </trkpt>
      <trkpt lat="45.29547" lon="5.63403">
        <ele>185.59</ele>
        <time>2017-02-18T15:59:31Z</time>
      </trkpt>
      <trkpt lat="45.29538" lon="5.63396">
        <ele>184.84</ele>
        <time>2017-02-18T15:59:32Z</time>
      </trkpt>
      <trkpt lat="45.29529" lon="5.63389">
        <ele>183.89</ele>
        <time>2017-02-18T15:59:33Z</time>
      </trkpt>
      <trkpt lat="45.2952" lon="5.63383">
        <ele>183.06</ele>
        <time>2017-02-18T15:59:34Z</time>
      </trkpt>
      <trkpt lat="45.2951" lon="5.63377">
        <ele>182.17</ele>
        <time>2017-02-18T15:59:35Z</time>
      </trkpt>
      <trkpt lat="45.295" lon="5.63371">
        <ele>181.51</ele>
        <time>2017-02-18T15:59:36Z</time>
      </trkpt>
      <trkpt lat="45.2949" lon="5.63364">
        <ele>180.74</ele>
        <time>2017-02-18T15:59:37Z</time>
      </trkpt>
      <trkpt lat="45.2948" lon="5.63356">
        <ele>180.35</ele>
        <time>2017-02-18T15:59:38Z</time>
      </trkpt>
      <trkpt lat="45.29471" lon="5.63345">
        <ele>179.79</ele>
        <time>2017-02-18T15:59:39Z</time>
      </trkpt>
      <trkpt lat="45.29461" lon="5.63332">
        <ele>179.28</ele>
        <time>2017-02-18T15:59:40Z</time>
      </trkpt>
      <trkpt lat="45.29451" lon="5.63318">
        <ele>178.45</ele>
        <time>2017-02-18T15:59:41Z</time>
      </trkpt>
      <trkpt lat="45.2944" lon="5.63304">
        <ele>177.49</ele>
        <time>2017-02-18T15:59:42Z</time>
      </trkpt>
      <trkpt lat="45.29431" lon="5.63291">
        <ele>176.74</ele>
        <time>2017-02-18T15:59:43Z</time>
      </trkpt>
      <trkpt lat="45.29422" lon="5.63279">
        <ele>175.71</ele>
        <time>2017-02-18T15:59:44Z</time>
      </trkpt>
      <trkpt lat="45.29414" lon="5.63269">
        <ele>174.38</ele>
        <time>2017-02-18T15:59:45Z</time>
      </trkpt>
      <trkpt lat="45.29406" lon="5.63259">
        <ele>173.16</ele>
        <time>2017-02-18T15:59:46Z</time>
      </trkpt>
      <trkpt lat="45.29399" lon="5.6325">
        <ele>172.43</ele>
        <time>2017-02-18T15:59:47Z</time>
      </trkpt>
      <trkpt lat="45.29391" lon="5.6324">
        <ele>171.49</ele>
        <time>2017-02-18T15:59:48Z</time>
      </trkpt>
      <trkpt lat="45.29384" lon="5.63231">
        <ele>170.74</ele>
        <time>2017-02-18T15:59:49Z</time>
      </trkpt>
      <trkpt lat="45.29376" lon="5.63221">
        <ele>169.95</ele>
        <time>2017-02-18T15:59:50Z</time>
      </trkpt>
      <trkpt lat="45.29368" lon="5.63211">
        <ele>169.39</ele>
        <time>2017-02-18T15:59:51Z</time>
      </trkpt>
      <trkpt lat="45.2936" lon="5.632">
        <ele>168.96</ele>
        <time>2017-02-18T15:59:52Z</time>
      </trkpt>
      <trkpt lat="45.29353" lon="5.6319">
        <ele>168.47</ele>
        <time>2017-02-18T15:59:53Z</time>
      </trkpt>
      <trkpt lat="45.29345" lon="5.6318">
        <ele>167.89</ele>
        <time>2017-02-18T15:59:54Z</time>
      </trkpt>
      <trkpt lat="45.29339" lon="5.63171">
        <ele>167.46</ele>
        <time>2017-02-18T15:59:55Z</time>
      </trkpt>
      <trkpt lat="45.29332" lon="5.63161">
        <ele>166.89</ele>
        <time>2017-02-18T15:59:56Z</time>
      </trkpt>
      <trkpt lat="45.29326" lon="5.63152">
        <ele>166.14</ele>
        <time>2017-02-18T15:59:57Z</time>
      </trkpt>
      <trkpt lat="45.29321" lon="5.63143">
        <ele>165.67</ele>
        <time>2017-02-18T15:59:58Z</time>
      </trkpt>
      <trkpt lat="45.29316" lon="5.63135">
        <ele>165.41</ele>
        <time>2017-02-18T15:59:59Z</time>
      </trkpt>
      <trkpt lat="45.29311" lon="5.63127">
        <ele>165.04</ele>
        <time>2017-02-18T16:00:00Z</time>
      </trkpt>
      <trkpt lat="45.29308" lon="5.63121">
        <ele>164.65</ele>
        <time>2017-02-18T16:00:01Z</time>
      </trkpt>
      <trkpt lat="45.29305" lon="5.63116">
        <ele>164.41</ele>
        <time>2017-02-18T16:00:02Z</time>
      </trkpt>
      <trkpt lat="45.29302" lon="5.63111">
        <ele>164.12</ele>
        <time>2017-02-18T16:00:03Z</time>
      </trkpt>
      <trkpt lat="45.293" lon="5.63106">
        <ele>163.9</ele>
        <time>2017-02-18T16:00:04Z</time>
      </trkpt>
      <trkpt lat="45.29296" lon="5.631">
        <ele>163.62</ele>
        <time>2017-02-18T16:00:05Z</time>
      </trkpt>
      <trkpt lat="45.29291" lon="5.63098">
        <ele>163.32</ele>
        <time>2017-02-18T16:00:06Z</time>
      </trkpt>
      <trkpt lat="45.29285" lon="5.631">
        <ele>162.38</ele>
        <time>2017-02-18T16:00:07Z</time>
      </trkpt>
      <trkpt lat="45.2928" lon="5.63107">
        <ele>161.48</ele>
        <time>2017-02-18T16:00:08Z</time>
      </trkpt>
      <trkpt lat="45.29275" lon="5.63119">
        <ele>160.49</ele>
        <time>2017-02-18T16:00:09Z</time>
      </trkpt>
      <trkpt lat="45.2927" lon="5.63132">
        <ele>159.34</ele>
        <time>2017-02-18T16:00:10Z</time>
      </trkpt>
      <trkpt lat="45.29264" lon="5.63146">
        <ele>158.31</ele>
        <time>2017-02-18T16:00:11Z</time>
      </trkpt>
      <trkpt lat="45.29258" lon="5.6316">
        <ele>157.62</ele>
        <time>2017-02-18T16:00:12Z</time>
      </trkpt>
      <trkpt lat="45.29251" lon="5.63174">
        <ele>156.84</ele>
        <time>2017-02-18T16:00:13Z</time>
      </trkpt>
      <trkpt lat="45.29245" lon="5.63187">
        <ele>156.29</ele>
        <time>2017-02-18T16:00:14Z</time>
      </trkpt>
      <trkpt lat="45.29239" lon="5.632">
        <ele>156.34</ele>
        <time>2017-02-18T16:00:15Z</time>
      </trkpt>
      <trkpt lat="45.29233" lon="5.63212">
        <ele>156.19</ele>
        <time>2017-02-18T16:00:16Z</time>
      </trkpt>
      <trkpt lat="45.29227" lon="5.63223">
        <ele>156</ele>
        <time>2017-02-18T16:00:17Z</time>
      </trkpt>
      <trkpt lat="45.29222" lon="5.63234">
        <ele>156.12</ele>
        <time>2017-02-18T16:00:18Z</time>
      </trkpt>
      <trkpt lat="45.29217" lon="5.63243">
        <ele>156.06</ele>
        <time>2017-02-18T16:00:19Z</time>
      </trkpt>
      <trkpt lat="45.29212" lon="5.63252">
        <ele>156.37</ele>
        <time>2017-02-18T16:00:20Z</time>
      </trkpt>
      <trkpt lat="45.29208" lon="5.63261">
        <ele>156.67</ele>
        <time>2017-02-18T16:00:21Z</time>
      </trkpt>
      <trkpt lat="45.29204" lon="5.6327">
        <ele>157.05</ele>
        <time>2017-02-18T16:00:22Z</time>
      </trkpt>
      <trkpt lat="45.292" lon="5.63278">
        <ele>156.97</ele>
        <time>2017-02-18T16:00:23Z</time>
      </trkpt>
      <trkpt lat="45.29196" lon="5.63286">
        <ele>156.87</ele>
        <time>2017-02-18T16:00:24Z</time>
      </trkpt>
      <trkpt lat="45.29193" lon="5.63294">
        <ele>156.77</ele>
        <time>2017-02-18T16:00:25Z</time>
      </trkpt>
      <trkpt lat="45.29189" lon="5.63301">
        <ele>156.67</ele>
        <time>2017-02-18T16:00:26Z</time>
      </trkpt>
      <trkpt lat="45.29185" lon="5.63309">
        <ele>156.33</ele>
        <time>2017-02-18T16:00:27Z</time>
      </trkpt>
      <trkpt lat="45.29182" lon="5.63316">
        <ele>155.71</ele>
        <time>2017-02-18T16:00:28Z</time>
      </trkpt>
      <trkpt lat="45.29178" lon="5.63323">
        <ele>155.5</ele>
        <time>2017-02-18T16:00:29Z</time>
      </trkpt>
      <trkpt lat="45.29175" lon="5.6333">
        <ele>155.46</ele>
        <time>2017-02-18T16:00:30Z</time>
      </trkpt>
      <trkpt lat="45.29172" lon="5.63336">
        <ele>155.37</ele>
        <time>2017-02-18T16:00:31Z</time>
      </trkpt>
      <trkpt lat="45.29169" lon="5.63342">
        <ele>155.27</ele>
        <time>2017-02-18T16:00:32Z</time>
      </trkpt>
      <trkpt lat="45.29166" lon="5.63349">
        <ele>155.09</ele>
        <time>2017-02-18T16:00:33Z</time>
      </trkpt>
      <trkpt lat="45.29164" lon="5.63354">
        <ele>154.82</ele>
        <time>2017-02-18T16:00:34Z</time>
      </trkpt>
      <trkpt lat="45.29162" lon="5.6336">
        <ele>155.32</ele>
        <time>2017-02-18T16:00:35Z</time>
      </trkpt>
      <trkpt lat="45.29159" lon="5.63364">
        <ele>155.34</ele>
        <time>2017-02-18T16:00:36Z</time>
      </trkpt>
      <trkpt lat="45.29158" lon="5.63368">
        <ele>155.03</ele>
        <time>2017-02-18T16:00:37Z</time>
      </trkpt>
      <trkpt lat="45.29156" lon="5.63371">
        <ele>154.8</ele>
        <time>2017-02-18T16:00:38Z</time>
      </trkpt>
      <trkpt lat="45.29156" lon="5.63372">
        <ele>154.6</ele>
        <time>2017-02-18T16:00:39Z</time>
      </trkpt>
      <trkpt lat="45.29156" lon="5.63372">
        <ele>154.4</ele>
        <time>2017-02-18T16:00:40Z</time>
      </trkpt>
      <trkpt lat="45.29156" lon="5.63372">
        <ele>154.44</ele>
        <time>2017-02-18T16:00:41Z</time>
      </trkpt>
      <trkpt lat="45.29156" lon="5.63372">
        <ele>154.45</ele>
        <time>2017-02-18T16:00:42Z</time>
      </trkpt>
      <trkpt lat="45.29156" lon="5.63372">
        <ele>154.45</ele>
        <time>2017-02-18T16:00:43Z</time>
      </trkpt>
      <trkpt lat="45.29156" lon="5.63372">
        <ele>154.45</ele>
        <time>2017-02-18T16:00:44Z</time>
      </trkpt>
      <trkpt lat="45.29156" lon="5.63372">
        <ele>154.45</ele>
        <time>2017-02-18T16:00:45Z</time>
      </trkpt>
      <trkpt lat="45.29156" lon="5.63372">
        <ele>154.45</ele>
        <time>2017-02-18T16:00:46Z</time>
      </trkpt>
      <trkpt lat="45.29156" lon="5.63372">
        <ele>154.45</ele>
        <time>2017-02-18T16:00:47Z</time>
      </trkpt>
      <trkpt lat="45.29156" lon="5.63372">
        <ele>154.45</ele>
        <time>2017-02-18T16:00:48Z</time>
      </trkpt>
      <trkpt lat="45.29156" lon="5.63372">
        <ele>154.45</ele>
        <time>2017-02-18T16:00:49Z</time>
      </trkpt>
      <trkpt lat="45.29156" lon="5.63372">
        <ele>154.45</ele>
        <time>2017-02-18T16:00:50Z</time>
      </trkpt>
      <trkpt lat="45.29156" lon="5.63372">
        <ele>154.45</ele>
        <time>2017-02-18T16:00:51Z</time>
      </trkpt>
      <trkpt lat="45.29156" lon="5.63372">
        <ele>154.45</ele>
        <time>2017-02-18T16:00:52Z</time>
      </trkpt>
      <trkpt lat="45.29156" lon="5.63372">
        <ele>154.45</ele>
        <time>2017-02-18T16:00:53Z</time>
      </trkpt>
      <trkpt lat="45.29156" lon="5.63372">
        <ele>154.45</ele>
        <time>2017-02-18T16:00:54Z</time>
      </trkpt>
      <trkpt lat="45.29156" lon="5.63372">
        <ele>154.45</ele>
        <time>2017-02-18T16:00:55Z</time>
      </trkpt>
      <trkpt lat="45.29156" lon="5.63372">
        <ele>154.45</ele>
        <time>2017-02-18T16:00:56Z</time>
      </trkpt>
      <trkpt lat="45.29156" lon="5.63372">
        <ele>154.45</ele>
        <time>2017-02-18T16:00:57Z</time>
      </trkpt>
      <trkpt lat="45.29156" lon="5.63372">
        <ele>154.45</ele>
        <time>2017-02-18T16:00:58Z</time>
      </trkpt>
      <trkpt lat="45.29156" lon="5.63372">
        <ele>154.45</ele>
        <time>2017-02-18T16:00:59Z</time>
      </trkpt>
      <trkpt lat="45.29156" lon="5.63372">
        <ele>154.45</ele>
        <time>2017-02-18T16:01:00Z</time>
      </trkpt>
      <trkpt lat="45.29156" lon="5.63372">
        <ele>154.45</ele>
        <time>2017-02-18T16:01:01Z</time>
      </trkpt>
      <trkpt lat="45.29156" lon="5.63372">
        <ele>154.45</ele>
        <time>2017-02-18T16:01:02Z</time>
      </trkpt>
      <trkpt lat="45.29156" lon="5.63372">
        <ele>154.45</ele>
        <time>2017-02-18T16:01:03Z</time>
      </trkpt>
      <trkpt lat="45.29156" lon="5.63372">
        <ele>154.45</ele>
        <time>2017-02-18T16:01:04Z</time>
      </trkpt>
      <trkpt lat="45.29156" lon="5.63372">
        <ele>154.45</ele>
        <time>2017-02-18T16:01:05Z</time>
      </trkpt>
      <trkpt lat="45.29156" lon="5.63372">
        <ele>154.45</ele>
        <time>2017-02-18T16:01:06Z</time>
      </trkpt>
      <trkpt lat="45.29156" lon="5.63372">
        <ele>154.45</ele>
        <time>2017-02-18T16:01:07Z</time>
      </trkpt>
      <trkpt lat="45.29156" lon="5.63372">
        <ele>154.45</ele>
        <time>2017-02-18T16:01:08Z</time>
      </trkpt>
      <trkpt lat="45.29156" lon="5.63372">
        <ele>154.45</ele>
        <time>2017-02-18T16:01:09Z</time>
      </trkpt>
      <trkpt lat="45.29156" lon="5.63372">
        <ele>154.45</ele>
        <time>2017-02-18T16:01:10Z</time>
      </trkpt>
      <trkpt lat="45.29156" lon="5.63372">
        <ele>154.45</ele>
        <time>2017-02-18T16:01:11Z</time>
      </trkpt>
      <trkpt lat="45.29156" lon="5.63372">
        <ele>154.45</ele>
        <time>2017-02-18T16:01:12Z</time>
      </trkpt>
      <trkpt lat="45.29156" lon="5.63372">
        <ele>154.45</ele>
        <time>2017-02-18T16:01:13Z</time>
      </trkpt>
      <trkpt lat="45.29156" lon="5.63372">
        <ele>154.45</ele>
        <time>2017-02-18T16:01:14Z</time>
      </trkpt>
      <trkpt lat="45.29156" lon="5.63372">
        <ele>154.45</ele>
        <time>2017-02-18T16:01:15Z</time>
      </trkpt>
      <trkpt lat="45.29156" lon="5.63372">
        <ele>154.45</ele>
        <time>2017-02-18T16:01:16Z</time>
      </trkpt>
      <trkpt lat="45.29156" lon="5.63372">
        <ele>154.45</ele>
        <time>2017-02-18T16:01:17Z</time>
      </trkpt>
      <trkpt lat="45.29156" lon="5.63372">
        <ele>154.45</ele>
        <time>2017-02-18T16:01:18Z</time>
      </trkpt>
      <trkpt lat="45.29156" lon="5.63372">
        <ele>154.45</ele>
        <time>2017-02-18T16:01:19Z</time>
      </trkpt>
      <trkpt lat="45.29155" lon="5.63377">
        <ele>154.61</ele>
        <time>2017-02-18T16:01:20Z</time>
      </trkpt>
      <trkpt lat="45.29153" lon="5.63384">
        <ele>154.64</ele>
        <time>2017-02-18T16:01:21Z</time>
      </trkpt>
      <trkpt lat="45.2915" lon="5.63392">
        <ele>154.65</ele>
        <time>2017-02-18T16:01:22Z</time>
      </trkpt>
      <trkpt lat="45.29146" lon="5.63403">
        <ele>154.57</ele>
        <time>2017-02-18T16:01:23Z</time>
      </trkpt>
      <trkpt lat="45.29139" lon="5.63417">
        <ele>154.55</ele>
        <time>2017-02-18T16:01:24Z</time>
      </trkpt>
      <trkpt lat="45.29132" lon="5.63432">
        <ele>154.39</ele>
        <time>2017-02-18T16:01:25Z</time>
      </trkpt>
      <trkpt lat="45.29125" lon="5.63446">
        <ele>154.2</ele>
        <time>2017-02-18T16:01:26Z</time>
      </trkpt>
      <trkpt lat="45.29118" lon="5.6346">
        <ele>154.08</ele>
        <time>2017-02-18T16:01:27Z</time>
      </trkpt>
      <trkpt lat="45.29111" lon="5.63475">
        <ele>154.13</ele>
        <time>2017-02-18T16:01:28Z</time>
      </trkpt>
      <trkpt lat="45.29104" lon="5.6349">
        <ele>153.91</ele>
        <time>2017-02-18T16:01:29Z</time>
      </trkpt>
      <trkpt lat="45.29097" lon="5.63504">
        <ele>153.46</ele>
        <time>2017-02-18T16:01:30Z</time>
      </trkpt>
      <trkpt lat="45.29089" lon="5.63519">
        <ele>153.13</ele>
        <time>2017-02-18T16:01:31Z</time>
      </trkpt>
      <trkpt lat="45.29082" lon="5.63534">
        <ele>152.83</ele>
        <time>2017-02-18T16:01:32Z</time>
      </trkpt>
      <trkpt lat="45.29075" lon="5.63549">
        <ele>152.52</ele>
        <time>2017-02-18T16:01:33Z</time>
      </trkpt>
      <trkpt lat="45.29068" lon="5.63565">
        <ele>152.3</ele>
        <time>2017-02-18T16:01:34Z</time>
      </trkpt>
      <trkpt lat="45.29061" lon="5.6358">
        <ele>151.94</ele>
        <time>2017-02-18T16:01:35Z</time>
      </trkpt>
      <trkpt lat="45.29054" lon="5.63595">
        <ele>151.63</ele>
        <time>2017-02-18T16:01:36Z</time>
      </trkpt>
      <trkpt lat="45.29046" lon="5.6361">
        <ele>151.32</ele>
        <time>2017-02-18T16:01:37Z</time>
      </trkpt>
      <trkpt lat="45.29039" lon="5.63626">
        <ele>150.94</ele>
        <time>2017-02-18T16:01:38Z</time>
      </trkpt>
      <trkpt lat="45.29032" lon="5.63641">
        <ele>150.55</ele>
        <time>2017-02-18T16:01:39Z</time>
      </trkpt>
      <trkpt lat="45.29024" lon="5.63657">
        <ele>150.15</ele>
        <time>2017-02-18T16:01:40Z</time>
      </trkpt>
      <trkpt lat="45.29017" lon="5.63673">
        <ele>149.75</ele>
        <time>2017-02-18T16:01:41Z</time>
      </trkpt>
      <trkpt lat="45.2901" lon="5.63688">
        <ele>149.35</ele>
        <time>2017-02-18T16:01:42Z</time>
      </trkpt>
      <trkpt lat="45.29003" lon="5.63704">
        <ele>149.19</ele>
        <time>2017-02-18T16:01:43Z</time>
      </trkpt>
      <trkpt lat="45.28995" lon="5.63719">
        <ele>148.84</ele>
        <time>2017-02-18T16:01:44Z</time>
      </trkpt>
      <trkpt lat="45.28988" lon="5.63735">
        <ele>148.61</ele>
        <time>2017-02-18T16:01:45Z</time>
      </trkpt>
      <trkpt lat="45.2898" lon="5.63751">
        <ele>148.32</ele>
        <time>2017-02-18T16:01:46Z</time>
      </trkpt>
      <trkpt lat="45.28972" lon="5.63767">
        <ele>148.1</ele>
        <time>2017-02-18T16:01:47Z</time>
      </trkpt>
      <trkpt lat="45.28964" lon="5.63784">
        <ele>147.66</ele>
        <time>2017-02-18T16:01:48Z</time>
      </trkpt>
      <trkpt lat="45.28956" lon="5.63803">
        <ele>147.33</ele>
        <time>2017-02-18T16:01:49Z</time>
      </trkpt>
      <trkpt lat="45.28947" lon="5.63821">
        <ele>147.03</ele>
        <time>2017-02-18T16:01:50Z</time>
      </trkpt>
      <trkpt lat="45.28939" lon="5.63838">
        <ele>146.88</ele>
        <time>2017-02-18T16:01:51Z</time>
      </trkpt>
      <trkpt lat="45.28931" lon="5.63855">
        <ele>146.62</ele>
        <time>2017-02-18T16:01:52Z</time>
      </trkpt>
      <trkpt lat="45.28923" lon="5.63872">
        <ele>146.24</ele>
        <time>2017-02-18T16:01:53Z</time>
      </trkpt>
      <trkpt lat="45.28915" lon="5.63888">
        <ele>145.93</ele>
        <time>2017-02-18T16:01:54Z</time>
      </trkpt>
      <trkpt lat="45.28907" lon="5.63904">
        <ele>145.7</ele>
        <time>2017-02-18T16:01:55Z</time>
      </trkpt>
      <trkpt lat="45.289" lon="5.6392">
        <ele>145.58</ele>
        <time>2017-02-18T16:01:56Z</time>
      </trkpt>
      <trkpt lat="45.28892" lon="5.63936">
        <ele>145.4</ele>
        <time>2017-02-18T16:01:57Z</time>
      </trkpt>
      <trkpt lat="45.28885" lon="5.63951">
        <ele>145.28</ele>
        <time>2017-02-18T16:01:58Z</time>
      </trkpt>
      <trkpt lat="45.28877" lon="5.63967">
        <ele>145.09</ele>
        <time>2017-02-18T16:01:59Z</time>
      </trkpt>
      <trkpt lat="45.2887" lon="5.63983">
        <ele>145.06</ele>
        <time>2017-02-18T16:02:00Z</time>
      </trkpt>
      <trkpt lat="45.28863" lon="5.63998">
        <ele>144.89</ele>
        <time>2017-02-18T16:02:01Z</time>
      </trkpt>
      <trkpt lat="45.28855" lon="5.64014">
        <ele>144.78</ele>
        <time>2017-02-18T16:02:02Z</time>
      </trkpt>
      <trkpt lat="45.28848" lon="5.64029">
        <ele>144.51</ele>
        <time>2017-02-18T16:02:03Z</time>
      </trkpt>
      <trkpt lat="45.28841" lon="5.64045">
        <ele>144.3</ele>
        <time>2017-02-18T16:02:04Z</time>
      </trkpt>
      <trkpt lat="45.28833" lon="5.64061">
        <ele>144.18</ele>
        <time>2017-02-18T16:02:05Z</time>
      </trkpt>
      <trkpt lat="45.28826" lon="5.64077">
        <ele>144.08</ele>
        <time>2017-02-18T16:02:06Z</time>
      </trkpt>
      <trkpt lat="45.28818" lon="5.64093">
        <ele>143.97</ele>
        <time>2017-02-18T16:02:07Z</time>
      </trkpt>
      <trkpt lat="45.2881" lon="5.64108">
        <ele>143.79</ele>
        <time>2017-02-18T16:02:08Z</time>
      </trkpt>
      <trkpt lat="45.28803" lon="5.64123">
        <ele>143.6</ele>
        <time>2017-02-18T16:02:09Z</time>
      </trkpt>
      <trkpt lat="45.28795" lon="5.64138">
        <ele>143.4</ele>
        <time>2017-02-18T16:02:10Z</time>
      </trkpt>
      <trkpt lat="45.28787" lon="5.64152">
        <ele>143.44</ele>
        <time>2017-02-18T16:02:11Z</time>
      </trkpt>
      <trkpt lat="45.28779" lon="5.64165">
        <ele>143.29</ele>
        <time>2017-02-18T16:02:12Z</time>
      </trkpt>
      <trkpt lat="45.28771" lon="5.64177">
        <ele>143.1</ele>
        <time>2017-02-18T16:02:13Z</time>
      </trkpt>
      <trkpt lat="45.28762" lon="5.6419">
        <ele>142.9</ele>
        <time>2017-02-18T16:02:14Z</time>
      </trkpt>
      <trkpt lat="45.28753" lon="5.64202">
        <ele>142.78</ele>
        <time>2017-02-18T16:02:15Z</time>
      </trkpt>
      <trkpt lat="45.28745" lon="5.64213">
        <ele>142.59</ele>
        <time>2017-02-18T16:02:16Z</time>
      </trkpt>
      <trkpt lat="45.28738" lon="5.64223">
        <ele>142.48</ele>
        <time>2017-02-18T16:02:17Z</time>
      </trkpt>
      <trkpt lat="45.2873" lon="5.64232">
        <ele>141.89</ele>
        <time>2017-02-18T16:02:18Z</time>
      </trkpt>
      <trkpt lat="45.28723" lon="5.64239">
        <ele>141.06</ele>
        <time>2017-02-18T16:02:19Z</time>
      </trkpt>
      <trkpt lat="45.28717" lon="5.64243">
        <ele>140.89</ele>
        <time>2017-02-18T16:02:20Z</time>
      </trkpt>
      <trkpt lat="45.2871" lon="5.64243">
        <ele>140.7</ele>
        <time>2017-02-18T16:02:21Z</time>
      </trkpt>
      <trkpt lat="45.28703" lon="5.64241">
        <ele>140.74</ele>
        <time>2017-02-18T16:02:22Z</time>
      </trkpt>
      <trkpt lat="45.28697" lon="5.64239">
        <ele>140.51</ele>
        <time>2017-02-18T16:02:23Z</time>
      </trkpt>
      <trkpt lat="45.28691" lon="5.64241">
        <ele>140.3</ele>
        <time>2017-02-18T16:02:24Z</time>
      </trkpt>
      <trkpt lat="45.28684" lon="5.64247">
        <ele>139.86</ele>
        <time>2017-02-18T16:02:25Z</time>
      </trkpt>
      <trkpt lat="45.28677" lon="5.64256">
        <ele>139.45</ele>
        <time>2017-02-18T16:02:26Z</time>
      </trkpt>
      <trkpt lat="45.28668" lon="5.64264">
        <ele>139.13</ele>
        <time>2017-02-18T16:02:27Z</time>
      </trkpt>
      <trkpt lat="45.28658" lon="5.64273">
        <ele>139.07</ele>
        <time>2017-02-18T16:02:28Z</time>
      </trkpt>
      <trkpt lat="45.28647" lon="5.64281">
        <ele>139.13</ele>
        <time>2017-02-18T16:02:29Z</time>
      </trkpt>
      <trkpt lat="45.28635" lon="5.64288">
        <ele>139.15</ele>
        <time>2017-02-18T16:02:30Z</time>
      </trkpt>
      <trkpt lat="45.28622" lon="5.64294">
        <ele>138.99</ele>
        <time>2017-02-18T16:02:31Z</time>
      </trkpt>
      <trkpt lat="45.2861" lon="5.64301">
        <ele>138.72</ele>
        <time>2017-02-18T16:02:32Z</time>
      </trkpt>
      <trkpt lat="45.28597" lon="5.64308">
        <ele>138.5</ele>
        <time>2017-02-18T16:02:33Z</time>
      </trkpt>
      <trkpt lat="45.28584" lon="5.64316">
        <ele>138.38</ele>
        <time>2017-02-18T16:02:34Z</time>
      </trkpt>
      <trkpt lat="45.28572" lon="5.64323">
        <ele>138.44</ele>
        <time>2017-02-18T16:02:35Z</time>
      </trkpt>
      <trkpt lat="45.2856" lon="5.6433">
        <ele>138.45</ele>
        <time>2017-02-18T16:02:36Z</time>
      </trkpt>
      <trkpt lat="45.28549" lon="5.64336">
        <ele>138.61</ele>
        <time>2017-02-18T16:02:37Z</time>
      </trkpt>
      <trkpt lat="45.28538" lon="5.64342">
        <ele>138.88</ele>
        <time>2017-02-18T16:02:38Z</time>
      </trkpt>
      <trkpt lat="45.28528" lon="5.64348">
        <ele>139.1</ele>
        <time>2017-02-18T16:02:39Z</time>
      </trkpt>
      <trkpt lat="45.28517" lon="5.64354">
        <ele>139.06</ele>
        <time>2017-02-18T16:02:40Z</time>
      </trkpt>
      <trkpt lat="45.28506" lon="5.6436">
        <ele>139.29</ele>
        <time>2017-02-18T16:02:41Z</time>
      </trkpt>
      <trkpt lat="45.28494" lon="5.64366">
        <ele>139.34</ele>
        <time>2017-02-18T16:02:42Z</time>
      </trkpt>
      <trkpt lat="45.28481" lon="5.64373">
        <ele>139.11</ele>
        <time>2017-02-18T16:02:43Z</time>
      </trkpt>
      <trkpt lat="45.28469" lon="5.6438">
        <ele>138.58</ele>
        <time>2017-02-18T16:02:44Z</time>
      </trkpt>
      <trkpt lat="45.28458" lon="5.64387">
        <ele>138</ele>
        <time>2017-02-18T16:02:45Z</time>
      </trkpt>
      <trkpt lat="45.28446" lon="5.64394">
        <ele>137.72</ele>
        <time>2017-02-18T16:02:46Z</time>
      </trkpt>
      <trkpt lat="45.28435" lon="5.64401">
        <ele>137.74</ele>
        <time>2017-02-18T16:02:47Z</time>
      </trkpt>
      <trkpt lat="45.28424" lon="5.64408">
        <ele>137.67</ele>
        <time>2017-02-18T16:02:48Z</time>
      </trkpt>
      <trkpt lat="45.28413" lon="5.64415">
        <ele>137.65</ele>
        <time>2017-02-18T16:02:49Z</time>
      </trkpt>
      <trkpt lat="45.28403" lon="5.64421">
        <ele>137.73</ele>
        <time>2017-02-18T16:02:50Z</time>
      </trkpt>
      <trkpt lat="45.28395" lon="5.64425">
        <ele>137.75</ele>
        <time>2017-02-18T16:02:51Z</time>
      </trkpt>
      <trkpt lat="45.28387" lon="5.64428">
        <ele>138.07</ele>
        <time>2017-02-18T16:02:52Z</time>
      </trkpt>
      <trkpt lat="45.2838" lon="5.64427">
        <ele>138.37</ele>
        <time>2017-02-18T16:02:53Z</time>
      </trkpt>
      <trkpt lat="45.28376" lon="5.64423">
        <ele>139.31</ele>
        <time>2017-02-18T16:02:54Z</time>
      </trkpt>
      <trkpt lat="45.28372" lon="5.64416">
        <ele>139.58</ele>
        <time>2017-02-18T16:02:55Z</time>
      </trkpt>
      <trkpt lat="45.28371" lon="5.64407">
        <ele>140.12</ele>
        <time>2017-02-18T16:02:56Z</time>
      </trkpt>
      <trkpt lat="45.28371" lon="5.64395">
        <ele>140.54</ele>
        <time>2017-02-18T16:02:57Z</time>
      </trkpt>
      <trkpt lat="45.2837" lon="5.64382">
        <ele>140.79</ele>
        <time>2017-02-18T16:02:58Z</time>
      </trkpt>
      <trkpt lat="45.2837" lon="5.64368">
        <ele>140.68</ele>
        <time>2017-02-18T16:02:59Z</time>
      </trkpt>
      <trkpt lat="45.2837" lon="5.64354">
        <ele>140.41</ele>
        <time>2017-02-18T16:03:00Z</time>
      </trkpt>
      <trkpt lat="45.28369" lon="5.64341">
        <ele>140.28</ele>
        <time>2017-02-18T16:03:01Z</time>
      </trkpt>
      <trkpt lat="45.28367" lon="5.64327">
        <ele>140.42</ele>
        <time>2017-02-18T16:03:02Z</time>
      </trkpt>
      <trkpt lat="45.28364" lon="5.64315">
        <ele>139.96</ele>
        <time>2017-02-18T16:03:03Z</time>
      </trkpt>
      <trkpt lat="45.28361" lon="5.64304">
        <ele>139.55</ele>
        <time>2017-02-18T16:03:04Z</time>
      </trkpt>
      <trkpt lat="45.28357" lon="5.64292">
        <ele>139.31</ele>
        <time>2017-02-18T16:03:05Z</time>
      </trkpt>
      <trkpt lat="45.28353" lon="5.64281">
        <ele>139.18</ele>
        <time>2017-02-18T16:03:06Z</time>
      </trkpt>
      <trkpt lat="45.28348" lon="5.64269">
        <ele>138.84</ele>
        <time>2017-02-18T16:03:07Z</time>
      </trkpt>
      <trkpt lat="45.28343" lon="5.64259">
        <ele>138.69</ele>
        <time>2017-02-18T16:03:08Z</time>
      </trkpt>
      <trkpt lat="45.28337" lon="5.64249">
        <ele>138.58</ele>
        <time>2017-02-18T16:03:09Z</time>
      </trkpt>
      <trkpt lat="45.2833" lon="5.6424">
        <ele>138.63</ele>
        <time>2017-02-18T16:03:10Z</time>
      </trkpt>
      <trkpt lat="45.28324" lon="5.64232">
        <ele>138.97</ele>
        <time>2017-02-18T16:03:11Z</time>
      </trkpt>
      <trkpt lat="45.28318" lon="5.64223">
        <ele>138.87</ele>
        <time>2017-02-18T16:03:12Z</time>
      </trkpt>
      <trkpt lat="45.28313" lon="5.64216">
        <ele>138.93</ele>
        <time>2017-02-18T16:03:13Z</time>
      </trkpt>
      <trkpt lat="45.28308" lon="5.64209">
        <ele>138.79</ele>
        <time>2017-02-18T16:03:14Z</time>
      </trkpt>
      <trkpt lat="45.28305" lon="5.64203">
        <ele>138.68</ele>
        <time>2017-02-18T16:03:15Z</time>
      </trkpt>
      <trkpt lat="45.28302" lon="5.64199">
        <ele>138.33</ele>
        <time>2017-02-18T16:03:16Z</time>
      </trkpt>
      <trkpt lat="45.28299" lon="5.64196">
        <ele>137.63</ele>
        <time>2017-02-18T16:03:17Z</time>
      </trkpt>
      <trkpt lat="45.28297" lon="5.64195">
        <ele>137.56</ele>
        <time>2017-02-18T16:03:18Z</time>
      </trkpt>
      <trkpt lat="45.28296" lon="5.64195">
        <ele>137.47</ele>
        <time>2017-02-18T16:03:19Z</time>
      </trkpt>
      <trkpt lat="45.28294" lon="5.64196">
        <ele>137.37</ele>
        <time>2017-02-18T16:03:20Z</time>
      </trkpt>
      <trkpt lat="45.28293" lon="5.64196">
        <ele>137.19</ele>
        <time>2017-02-18T16:03:21Z</time>
      </trkpt>
      <trkpt lat="45.28293" lon="5.64196">
        <ele>136.92</ele>
        <time>2017-02-18T16:03:22Z</time>
      </trkpt>
      <trkpt lat="45.28294" lon="5.64196">
        <ele>137.18</ele>
        <time>2017-02-18T16:03:23Z</time>
      </trkpt>
      <trkpt lat="45.28294" lon="5.64196">
        <ele>137.24</ele>
        <time>2017-02-18T16:03:24Z</time>
      </trkpt>
      <trkpt lat="45.28294" lon="5.64196">
        <ele>137.25</ele>
        <time>2017-02-18T16:03:25Z</time>
      </trkpt>
      <trkpt lat="45.28294" lon="5.64196">
        <ele>137.25</ele>
        <time>2017-02-18T16:03:26Z</time>
      </trkpt>
      <trkpt lat="45.28294" lon="5.64196">
        <ele>137.25</ele>
        <time>2017-02-18T16:03:27Z</time>
      </trkpt>
      <trkpt lat="45.28294" lon="5.64196">
        <ele>137.25</ele>
        <time>2017-02-18T16:03:28Z</time>
      </trkpt>
      <trkpt lat="45.28294" lon="5.64196">
        <ele>137.25</ele>
        <time>2017-02-18T16:03:29Z</time>
      </trkpt>
      <trkpt lat="45.28294" lon="5.64196">
        <ele>137.25</ele>
        <time>2017-02-18T16:03:30Z</time>
      </trkpt>
      <trkpt lat="45.28294" lon="5.64196">
        <ele>137.25</ele>
        <time>2017-02-18T16:03:31Z</time>
      </trkpt>
      <trkpt lat="45.28294" lon="5.64196">
        <ele>137.25</ele>
        <time>2017-02-18T16:03:32Z</time>
      </trkpt>
      <trkpt lat="45.28294" lon="5.64196">
        <ele>137.25</ele>
        <time>2017-02-18T16:03:33Z</time>
      </trkpt>
      <trkpt lat="45.28294" lon="5.64196">
        <ele>137.25</ele>
        <time>2017-02-18T16:03:34Z</time>
      </trkpt>
      <trkpt lat="45.28294" lon="5.64196">
        <ele>137.25</ele>
        <time>2017-02-18T16:03:35Z</time>
      </trkpt>
      <trkpt lat="45.28294" lon="5.64196">
        <ele>137.25</ele>
        <time>2017-02-18T16:03:36Z</time>
      </trkpt>
      <trkpt lat="45.28294" lon="5.64196">
        <ele>137.25</ele>
        <time>2017-02-18T16:03:37Z</time>
      </trkpt>
      <trkpt lat="45.28294" lon="5.64196">
        <ele>137.25</ele>
        <time>2017-02-18T16:03:38Z</time>
      </trkpt>
      <trkpt lat="45.28294" lon="5.64196">
        <ele>137.25</ele>
        <time>2017-02-18T16:03:39Z</time>
      </trkpt>
      <trkpt lat="45.28294" lon="5.64196">
        <ele>137.25</ele>
        <time>2017-02-18T16:03:40Z</time>
      </trkpt>
      <trkpt lat="45.28294" lon="5.64196">
        <ele>137.25</ele>
        <time>2017-02-18T16:03:41Z</time>
      </trkpt>
      <trkpt lat="45.28294" lon="5.64196">
        <ele>137.25</ele>
        <time>2017-02-18T16:03:42Z</time>
      </trkpt>
      <trkpt lat="45.28294" lon="5.64196">
        <ele>137.25</ele>
        <time>2017-02-18T16:03:43Z</time>
      </trkpt>
      <trkpt lat="45.28294" lon="5.64196">
        <ele>137.25</ele>
        <time>2017-02-18T16:03:44Z</time>
      </trkpt>
      <trkpt lat="45.28294" lon="5.64196">
        <ele>137.25</ele>
        <time>2017-02-18T16:03:45Z</time>
      </trkpt>
      <trkpt lat="45.28292" lon="5.64191">
        <ele>137.97</ele>
        <time>2017-02-18T16:03:46Z</time>
      </trkpt>
      <trkpt lat="45.2829" lon="5.64187">
        <ele>138.19</ele>
        <time>2017-02-18T16:03:47Z</time>
      </trkpt>
      <trkpt lat="45.28287" lon="5.64183">
        <ele>138.32</ele>
        <time>2017-02-18T16:03:48Z</time>
      </trkpt>
      <trkpt lat="45.28282" lon="5.64179">
        <ele>138.42</ele>
        <time>2017-02-18T16:03:49Z</time>
      </trkpt>
      <trkpt lat="45.28277" lon="5.64178">
        <ele>138.28</ele>
        <time>2017-02-18T16:03:50Z</time>
      </trkpt>
      <trkpt lat="45.2827" lon="5.6418">
        <ele>138.26</ele>
        <time>2017-02-18T16:03:51Z</time>
      </trkpt>
      <trkpt lat="45.28264" lon="5.64184">
        <ele>138.01</ele>
        <time>2017-02-18T16:03:52Z</time>
      </trkpt>
      <trkpt lat="45.28257" lon="5.64189">
        <ele>137.88</ele>
        <time>2017-02-18T16:03:53Z</time>
      </trkpt>
      <trkpt lat="45.2825" lon="5.64194">
        <ele>137.7</ele>
        <time>2017-02-18T16:03:54Z</time>
      </trkpt>
      <trkpt lat="45.28243" lon="5.64198">
        <ele>137.42</ele>
        <time>2017-02-18T16:03:55Z</time>
      </trkpt>
      <trkpt lat="45.28236" lon="5.64203">
        <ele>137.36</ele>
        <time>2017-02-18T16:03:56Z</time>
      </trkpt>
      <trkpt lat="45.28229" lon="5.64208">
        <ele>137.27</ele>
        <time>2017-02-18T16:03:57Z</time>
      </trkpt>
      <trkpt lat="45.28221" lon="5.64213">
        <ele>137.41</ele>
        <time>2017-02-18T16:03:58Z</time>
      </trkpt>
      <trkpt lat="45.28213" lon="5.64218">
        <ele>137.36</ele>
        <time>2017-02-18T16:03:59Z</time>
      </trkpt>
      <trkpt lat="45.28205" lon="5.64223">
        <ele>137.59</ele>
        <time>2017-02-18T16:04:00Z</time>
      </trkpt>
      <trkpt lat="45.28197" lon="5.64228">
        <ele>137.8</ele>
        <time>2017-02-18T16:04:01Z</time>
      </trkpt>
      <trkpt lat="45.28189" lon="5.64233">
        <ele>138</ele>
        <time>2017-02-18T16:04:02Z</time>
      </trkpt>
      <trkpt lat="45.2818" lon="5.64239">
        <ele>138.2</ele>
        <time>2017-02-18T16:04:03Z</time>
      </trkpt>
      <trkpt lat="45.28172" lon="5.64245">
        <ele>138.32</ele>
        <time>2017-02-18T16:04:04Z</time>
      </trkpt>
      <trkpt lat="45.28164" lon="5.64252">
        <ele>138.34</ele>
        <time>2017-02-18T16:04:05Z</time>
      </trkpt>
      <trkpt lat="45.28155" lon="5.64259">
        <ele>138.19</ele>
        <time>2017-02-18T16:04:06Z</time>
      </trkpt>
      <trkpt lat="45.28147" lon="5.64266">
        <ele>138</ele>
        <time>2017-02-18T16:04:07Z</time>
      </trkpt>
      <trkpt lat="45.28139" lon="5.64273">
        <ele>137.88</ele>
        <time>2017-02-18T16:04:08Z</time>
      </trkpt>
      <trkpt lat="45.28131" lon="5.64279">
        <ele>137.85</ele>
        <time>2017-02-18T16:04:09Z</time>
      </trkpt>
      <trkpt lat="45.28122" lon="5.64285">
        <ele>137.93</ele>
        <time>2017-02-18T16:04:10Z</time>
      </trkpt>
      <trkpt lat="45.28115" lon="5.64291">
        <ele>138.03</ele>
        <time>2017-02-18T16:04:11Z</time>
      </trkpt>
      <trkpt lat="45.28107" lon="5.64296">
        <ele>138.12</ele>
        <time>2017-02-18T16:04:12Z</time>
      </trkpt>
      <trkpt lat="45.28101" lon="5.64302">
        <ele>138.38</ele>
        <time>2017-02-18T16:04:13Z</time>
      </trkpt>
      <trkpt lat="45.28097" lon="5.64309">
        <ele>138.44</ele>
        <time>2017-02-18T16:04:14Z</time>
      </trkpt>
      <trkpt lat="45.28097" lon="5.64319">
        <ele>138.21</ele>
        <time>2017-02-18T16:04:15Z</time>
      </trkpt>
      <trkpt lat="45.28099" lon="5.64329">
        <ele>137.52</ele>
        <time>2017-02-18T16:04:16Z</time>
      </trkpt>
      <trkpt lat="45.28102" lon="5.6434">
        <ele>136.58</ele>
        <time>2017-02-18T16:04:17Z</time>
      </trkpt>
      <trkpt lat="45.28106" lon="5.64352">
        <ele>136.48</ele>
        <time>2017-02-18T16:04:18Z</time>
      </trkpt>
      <trkpt lat="45.28109" lon="5.64365">
        <ele>136.45</ele>
        <time>2017-02-18T16:04:19Z</time>
      </trkpt>
      <trkpt lat="45.28111" lon="5.64379">
        <ele>136.37</ele>
        <time>2017-02-18T16:04:20Z</time>
      </trkpt>
      <trkpt lat="45.28112" lon="5.64394">
        <ele>136.43</ele>
        <time>2017-02-18T16:04:21Z</time>
      </trkpt>
      <trkpt lat="45.28112" lon="5.64407">
        <ele>136.69</ele>
        <time>2017-02-18T16:04:22Z</time>
      </trkpt>
      <trkpt lat="45.28112" lon="5.64421">
        <ele>137.22</ele>
        <time>2017-02-18T16:04:23Z</time>
      </trkpt>
      <trkpt lat="45.28112" lon="5.64434">
        <ele>138.04</ele>
        <time>2017-02-18T16:04:24Z</time>
      </trkpt>
      <trkpt lat="45.28112" lon="5.64446">
        <ele>138.53</ele>
        <time>2017-02-18T16:04:25Z</time>
      </trkpt>
      <trkpt lat="45.28112" lon="5.64457">
        <ele>138.78</ele>
        <time>2017-02-18T16:04:26Z</time>
      </trkpt>
      <trkpt lat="45.28112" lon="5.64466">
        <ele>139.24</ele>
        <time>2017-02-18T16:04:27Z</time>
      </trkpt>
      <trkpt lat="45.28112" lon="5.64475">
        <ele>139.65</ele>
        <time>2017-02-18T16:04:28Z</time>
      </trkpt>
      <trkpt lat="45.28111" lon="5.64483">
        <ele>140.05</ele>
        <time>2017-02-18T16:04:29Z</time>
      </trkpt>
      <trkpt lat="45.28108" lon="5.64488">
        <ele>139.73</ele>
        <time>2017-02-18T16:04:30Z</time>
      </trkpt>
      <trkpt lat="45.28103" lon="5.64488">
        <ele>139.98</ele>
        <time>2017-02-18T16:04:31Z</time>
      </trkpt>
      <trkpt lat="45.28095" lon="5.64485">
        <ele>139.96</ele>
        <time>2017-02-18T16:04:32Z</time>
      </trkpt>
      <trkpt lat="45.28085" lon="5.64478">
        <ele>140.43</ele>
        <time>2017-02-18T16:04:33Z</time>
      </trkpt>
      <trkpt lat="45.28075" lon="5.6447">
        <ele>140.53</ele>
        <time>2017-02-18T16:04:34Z</time>
      </trkpt>
      <trkpt lat="45.28065" lon="5.64463">
        <ele>140.7</ele>
        <time>2017-02-18T16:04:35Z</time>
      </trkpt>
      <trkpt lat="45.28054" lon="5.64457">
        <ele>140.74</ele>
        <time>2017-02-18T16:04:36Z</time>
      </trkpt>
      <trkpt lat="45.28045" lon="5.64451">
        <ele>140.59</ele>
        <time>2017-02-18T16:04:37Z</time>
      </trkpt>
      <trkpt lat="45.28036" lon="5.64443">
        <ele>140.8</ele>
        <time>2017-02-18T16:04:38Z</time>
      </trkpt>
      <trkpt lat="45.28029" lon="5.64434">
        <ele>140.84</ele>
        <time>2017-02-18T16:04:39Z</time>
      </trkpt>
      <trkpt lat="45.28022" lon="5.64425">
        <ele>141.01</ele>
        <time>2017-02-18T16:04:40Z</time>
      </trkpt>
      <trkpt lat="45.28013" lon="5.64418">
        <ele>140.4</ele>
        <time>2017-02-18T16:04:41Z</time>
      </trkpt>
      <trkpt lat="45.28005" lon="5.64416">
        <ele>139.56</ele>
        <time>2017-02-18T16:04:42Z</time>
      </trkpt>
      <trkpt lat="45.27996" lon="5.64418">
        <ele>138.99</ele>
        <time>2017-02-18T16:04:43Z</time>
      </trkpt>
      <trkpt lat="45.27986" lon="5.64422">
        <ele>138.64</ele>
        <time>2017-02-18T16:04:44Z</time>
      </trkpt>
      <trkpt lat="45.27975" lon="5.64426">
        <ele>138.33</ele>
        <time>2017-02-18T16:04:45Z</time>
      </trkpt>
      <trkpt lat="45.27965" lon="5.64429">
        <ele>137.86</ele>
        <time>2017-02-18T16:04:46Z</time>
      </trkpt>
      <trkpt lat="45.27954" lon="5.64432">
        <ele>137.69</ele>
        <time>2017-02-18T16:04:47Z</time>
      </trkpt>
      <trkpt lat="45.27944" lon="5.64435">
        <ele>137.5</ele>
        <time>2017-02-18T16:04:48Z</time>
      </trkpt>
      <trkpt lat="45.27935" lon="5.64437">
        <ele>137.38</ele>
        <time>2017-02-18T16:04:49Z</time>
      </trkpt>
      <trkpt lat="45.27926" lon="5.64439">
        <ele>137.35</ele>
        <time>2017-02-18T16:04:50Z</time>
      </trkpt>
      <trkpt lat="45.27918" lon="5.6444">
        <ele>137.43</ele>
        <time>2017-02-18T16:04:51Z</time>
      </trkpt>
      <trkpt lat="45.2791" lon="5.64441">
        <ele>137.61</ele>
        <time>2017-02-18T16:04:52Z</time>
      </trkpt>
      <trkpt lat="45.27902" lon="5.64443">
        <ele>137.64</ele>
        <time>2017-02-18T16:04:53Z</time>
      </trkpt>
      <trkpt lat="45.27893" lon="5.64445">
        <ele>137.73</ele>
        <time>2017-02-18T16:04:54Z</time>
      </trkpt>
      <trkpt lat="45.27885" lon="5.64447">
        <ele>137.82</ele>
        <time>2017-02-18T16:04:55Z</time>
      </trkpt>
      <trkpt lat="45.27877" lon="5.64448">
        <ele>137.84</ele>
        <time>2017-02-18T16:04:56Z</time>
      </trkpt>
      <trkpt lat="45.2787" lon="5.6445">
        <ele>137.45</ele>
        <time>2017-02-18T16:04:57Z</time>
      </trkpt>
      <trkpt lat="45.27862" lon="5.64452">
        <ele>136.89</ele>
        <time>2017-02-18T16:04:58Z</time>
      </trkpt>
      <trkpt lat="45.27855" lon="5.64453">
        <ele>136.38</ele>
        <time>2017-02-18T16:04:59Z</time>
      </trkpt>
      <trkpt lat="45.27849" lon="5.64452">
        <ele>136.03</ele>
        <time>2017-02-18T16:05:00Z</time>
      </trkpt>
      <trkpt lat="45.27844" lon="5.6445">
        <ele>135.89</ele>
        <time>2017-02-18T16:05:01Z</time>
      </trkpt>
      <trkpt lat="45.27841" lon="5.64445">
        <ele>136.42</ele>
        <time>2017-02-18T16:05:02Z</time>
      </trkpt>
      <trkpt lat="45.27837" lon="5.64439">
        <ele>137</ele>
        <time>2017-02-18T16:05:03Z</time>
      </trkpt>
      <trkpt lat="45.27833" lon="5.6443">
        <ele>137.76</ele>
        <time>2017-02-18T16:05:04Z</time>
      </trkpt>
      <trkpt lat="45.27828" lon="5.64421">
        <ele>138.47</ele>
        <time>2017-02-18T16:05:05Z</time>
      </trkpt>
      <trkpt lat="45.27823" lon="5.6441">
        <ele>138.77</ele>
        <time>2017-02-18T16:05:06Z</time>
      </trkpt>
      <trkpt lat="45.27817" lon="5.644">
        <ele>139.15</ele>
        <time>2017-02-18T16:05:07Z</time>
      </trkpt>
      <trkpt lat="45.27811" lon="5.64391">
        <ele>139.71</ele>
        <time>2017-02-18T16:05:08Z</time>
      </trkpt>
      <trkpt lat="45.27804" lon="5.64384">
        <ele>139.74</ele>
        <time>2017-02-18T16:05:09Z</time>
      </trkpt>
      <trkpt lat="45.27795" lon="5.64378">
        <ele>139.67</ele>
        <time>2017-02-18T16:05:10Z</time>
      </trkpt>
      <trkpt lat="45.27784" lon="5.64374">
        <ele>139.81</ele>
        <time>2017-02-18T16:05:11Z</time>
      </trkpt>
      <trkpt lat="45.27773" lon="5.64371">
        <ele>139.92</ele>
        <time>2017-02-18T16:05:12Z</time>
      </trkpt>
      <trkpt lat="45.27761" lon="5.64368">
        <ele>140.02</ele>
        <time>2017-02-18T16:05:13Z</time>
      </trkpt>
      <trkpt lat="45.2775" lon="5.64364">
        <ele>140.12</ele>
        <time>2017-02-18T16:05:14Z</time>
      </trkpt>
      <trkpt lat="45.27739" lon="5.6436">
        <ele>140.22</ele>
        <time>2017-02-18T16:05:15Z</time>
      </trkpt>
      <trkpt lat="45.27729" lon="5.64357">
        <ele>140.4</ele>
        <time>2017-02-18T16:05:16Z</time>
      </trkpt>
      <trkpt lat="45.27719" lon="5.64356">
        <ele>140.6</ele>
        <time>2017-02-18T16:05:17Z</time>
      </trkpt>
      <trkpt lat="45.27709" lon="5.64354">
        <ele>140.88</ele>
        <time>2017-02-18T16:05:18Z</time>
      </trkpt>
      <trkpt lat="45.27698" lon="5.64354">
        <ele>141.26</ele>
        <time>2017-02-18T16:05:19Z</time>
      </trkpt>
      <trkpt lat="45.27688" lon="5.64354">
        <ele>141.49</ele>
        <time>2017-02-18T16:05:20Z</time>
      </trkpt>
      <trkpt lat="45.27678" lon="5.64354">
        <ele>142.1</ele>
        <time>2017-02-18T16:05:21Z</time>
      </trkpt>
      <trkpt lat="45.27669" lon="5.64354">
        <ele>142.7</ele>
        <time>2017-02-18T16:05:22Z</time>
      </trkpt>
      <trkpt lat="45.27661" lon="5.64355">
        <ele>143.3</ele>
        <time>2017-02-18T16:05:23Z</time>
      </trkpt>
      <trkpt lat="45.27654" lon="5.64355">
        <ele>143.58</ele>
        <time>2017-02-18T16:05:24Z</time>
      </trkpt>
      <trkpt lat="45.27645" lon="5.64355">
        <ele>144.11</ele>
        <time>2017-02-18T16:05:25Z</time>
      </trkpt>
      <trkpt lat="45.27634" lon="5.64356">
        <ele>144.46</ele>
        <time>2017-02-18T16:05:26Z</time>
      </trkpt>
      <trkpt lat="45.27623" lon="5.64358">
        <ele>144.69</ele>
        <time>2017-02-18T16:05:27Z</time>
      </trkpt>
      <trkpt lat="45.27611" lon="5.64361">
        <ele>144.58</ele>
        <time>2017-02-18T16:05:28Z</time>
      </trkpt>
      <trkpt lat="45.27599" lon="5.64362">
        <ele>144.39</ele>
        <time>2017-02-18T16:05:29Z</time>
      </trkpt>
      <trkpt lat="45.27588" lon="5.64364">
        <ele>144.12</ele>
        <time>2017-02-18T16:05:30Z</time>
      </trkpt>
      <trkpt lat="45.27579" lon="5.64366">
        <ele>143.74</ele>
        <time>2017-02-18T16:05:31Z</time>
      </trkpt>
      <trkpt lat="45.2757" lon="5.64367">
        <ele>143.27</ele>
        <time>2017-02-18T16:05:32Z</time>
      </trkpt>
      <trkpt lat="45.27562" lon="5.64368">
        <ele>142.53</ele>
        <time>2017-02-18T16:05:33Z</time>
      </trkpt>
      <trkpt lat="45.27554" lon="5.64369">
        <ele>142.07</ele>
        <time>2017-02-18T16:05:34Z</time>
      </trkpt>
      <trkpt lat="45.27548" lon="5.64368">
        <ele>142.21</ele>
        <time>2017-02-18T16:05:35Z</time>
      </trkpt>
      <trkpt lat="45.27542" lon="5.64365">
        <ele>142.24</ele>
        <time>2017-02-18T16:05:36Z</time>
      </trkpt>
      <trkpt lat="45.27537" lon="5.64359">
        <ele>143.05</ele>
        <time>2017-02-18T16:05:37Z</time>
      </trkpt>
      <trkpt lat="45.27534" lon="5.6435">
        <ele>143.53</ele>
        <time>2017-02-18T16:05:38Z</time>
      </trkpt>
      <trkpt lat="45.2753" lon="5.64336">
        <ele>143.94</ele>
        <time>2017-02-18T16:05:39Z</time>
      </trkpt>
      <trkpt lat="45.27527" lon="5.64318">
        <ele>145.07</ele>
        <time>2017-02-18T16:05:40Z</time>
      </trkpt>
      <trkpt lat="45.27523" lon="5.64299">
        <ele>146.01</ele>
        <time>2017-02-18T16:05:41Z</time>
      </trkpt>
      <trkpt lat="45.27519" lon="5.64281">
        <ele>147.16</ele>
        <time>2017-02-18T16:05:42Z</time>
      </trkpt>
      <trkpt lat="45.27515" lon="5.64263">
        <ele>148.11</ele>
        <time>2017-02-18T16:05:43Z</time>
      </trkpt>
      <trkpt lat="45.27512" lon="5.64246">
        <ele>148.54</ele>
        <time>2017-02-18T16:05:44Z</time>
      </trkpt>
      <trkpt lat="45.27508" lon="5.64229">
        <ele>148.39</ele>
        <time>2017-02-18T16:05:45Z</time>
      </trkpt>
      <trkpt lat="45.27505" lon="5.64212">
        <ele>147.32</ele>
        <time>2017-02-18T16:05:46Z</time>
      </trkpt>
      <trkpt lat="45.27502" lon="5.64194">
        <ele>146.54</ele>
        <time>2017-02-18T16:05:47Z</time>
      </trkpt>
      <trkpt lat="45.27499" lon="5.64174">
        <ele>146.31</ele>
        <time>2017-02-18T16:05:48Z</time>
      </trkpt>
      <trkpt lat="45.27495" lon="5.64154">
        <ele>145.94</ele>
        <time>2017-02-18T16:05:49Z</time>
      </trkpt>
      <trkpt lat="45.27491" lon="5.64133">
        <ele>145.63</ele>
        <time>2017-02-18T16:05:50Z</time>
      </trkpt>
      <trkpt lat="45.27486" lon="5.64112">
        <ele>145.08</ele>
        <time>2017-02-18T16:05:51Z</time>
      </trkpt>
      <trkpt lat="45.27482" lon="5.6409">
        <ele>144.5</ele>
        <time>2017-02-18T16:05:52Z</time>
      </trkpt>
      <trkpt lat="45.27478" lon="5.64068">
        <ele>143.82</ele>
        <time>2017-02-18T16:05:53Z</time>
      </trkpt>
      <trkpt lat="45.27474" lon="5.64046">
        <ele>143.28</ele>
        <time>2017-02-18T16:05:54Z</time>
      </trkpt>
      <trkpt lat="45.2747" lon="5.64023">
        <ele>142.94</ele>
        <time>2017-02-18T16:05:55Z</time>
      </trkpt>
      <trkpt lat="45.27465" lon="5.64002">
        <ele>142.79</ele>
        <time>2017-02-18T16:05:56Z</time>
      </trkpt>
      <trkpt lat="45.27461" lon="5.6398">
        <ele>142.68</ele>
        <time>2017-02-18T16:05:57Z</time>
      </trkpt>
      <trkpt lat="45.27456" lon="5.63959">
        <ele>142.49</ele>
        <time>2017-02-18T16:05:58Z</time>
      </trkpt>
      <trkpt lat="45.27453" lon="5.63938">
        <ele>142.22</ele>
        <time>2017-02-18T16:05:59Z</time>
      </trkpt>
      <trkpt lat="45.27449" lon="5.63917">
        <ele>141.76</ele>
        <time>2017-02-18T16:06:00Z</time>
      </trkpt>
      <trkpt lat="45.27445" lon="5.63896">
        <ele>141.59</ele>
        <time>2017-02-18T16:06:01Z</time>
      </trkpt>
      <trkpt lat="45.2744" lon="5.63874">
        <ele>141.56</ele>
        <time>2017-02-18T16:06:02Z</time>
      </trkpt>
      <trkpt lat="45.27436" lon="5.63852">
        <ele>141.47</ele>
        <time>2017-02-18T16:06:03Z</time>
      </trkpt>
      <trkpt lat="45.27432" lon="5.63829">
        <ele>141.13</ele>
        <time>2017-02-18T16:06:04Z</time>
      </trkpt>
      <trkpt lat="45.27428" lon="5.63807">
        <ele>140.99</ele>
        <time>2017-02-18T16:06:05Z</time>
      </trkpt>
      <trkpt lat="45.27425" lon="5.63784">
        <ele>140.96</ele>
        <time>2017-02-18T16:06:06Z</time>
      </trkpt>
      <trkpt lat="45.2742" lon="5.63761">
        <ele>140.79</ele>
        <time>2017-02-18T16:06:07Z</time>
      </trkpt>
      <trkpt lat="45.27416" lon="5.63738">
        <ele>140.6</ele>
        <time>2017-02-18T16:06:08Z</time>
      </trkpt>
      <trkpt lat="45.27412" lon="5.63715">
        <ele>140.48</ele>
        <time>2017-02-18T16:06:09Z</time>
      </trkpt>
      <trkpt lat="45.27407" lon="5.63692">
        <ele>140.37</ele>
        <time>2017-02-18T16:06:10Z</time>
      </trkpt>
      <trkpt lat="45.27403" lon="5.63669">
        <ele>140.35</ele>
        <time>2017-02-18T16:06:11Z</time>
      </trkpt>
      <trkpt lat="45.27398" lon="5.63646">
        <ele>140.27</ele>
        <time>2017-02-18T16:06:12Z</time>
      </trkpt>
      <trkpt lat="45.27394" lon="5.63622">
        <ele>140.17</ele>
        <time>2017-02-18T16:06:13Z</time>
      </trkpt>
      <trkpt lat="45.2739" lon="5.63599">
        <ele>140.15</ele>
        <time>2017-02-18T16:06:14Z</time>
      </trkpt>
      <trkpt lat="45.27386" lon="5.63575">
        <ele>140.07</ele>
        <time>2017-02-18T16:06:15Z</time>
      </trkpt>
      <trkpt lat="45.27383" lon="5.63552">
        <ele>139.97</ele>
        <time>2017-02-18T16:06:16Z</time>
      </trkpt>
      <trkpt lat="45.27379" lon="5.63528">
        <ele>139.79</ele>
        <time>2017-02-18T16:06:17Z</time>
      </trkpt>
      <trkpt lat="45.27375" lon="5.63505">
        <ele>139.6</ele>
        <time>2017-02-18T16:06:18Z</time>
      </trkpt>
      <trkpt lat="45.27372" lon="5.63482">
        <ele>139.4</ele>
        <time>2017-02-18T16:06:19Z</time>
      </trkpt>
      <trkpt lat="45.27368" lon="5.63458">
        <ele>139.28</ele>
        <time>2017-02-18T16:06:20Z</time>
      </trkpt>
      <trkpt lat="45.27365" lon="5.63434">
        <ele>139.33</ele>
        <time>2017-02-18T16:06:21Z</time>
      </trkpt>
      <trkpt lat="45.27361" lon="5.63411">
        <ele>139.51</ele>
        <time>2017-02-18T16:06:22Z</time>
      </trkpt>
      <trkpt lat="45.27358" lon="5.63388">
        <ele>139.38</ele>
        <time>2017-02-18T16:06:23Z</time>
      </trkpt>
      <trkpt lat="45.27355" lon="5.63364">
        <ele>139.12</ele>
        <time>2017-02-18T16:06:24Z</time>
      </trkpt>
      <trkpt lat="45.27351" lon="5.63341">
        <ele>139.22</ele>
        <time>2017-02-18T16:06:25Z</time>
      </trkpt>
      <trkpt lat="45.27348" lon="5.63318">
        <ele>139.32</ele>
        <time>2017-02-18T16:06:26Z</time>
      </trkpt>
      <trkpt lat="45.27346" lon="5.63295">
        <ele>139.58</ele>
        <time>2017-02-18T16:06:27Z</time>
      </trkpt>
      <trkpt lat="45.27343" lon="5.63271">
        <ele>139.88</ele>
        <time>2017-02-18T16:06:28Z</time>
      </trkpt>
      <trkpt lat="45.27341" lon="5.63248">
        <ele>140.17</ele>
        <time>2017-02-18T16:06:29Z</time>
      </trkpt>
      <trkpt lat="45.27338" lon="5.63225">
        <ele>140.39</ele>
        <time>2017-02-18T16:06:30Z</time>
      </trkpt>
      <trkpt lat="45.27335" lon="5.63201">
        <ele>140.6</ele>
        <time>2017-02-18T16:06:31Z</time>
      </trkpt>
      <trkpt lat="45.27332" lon="5.63178">
        <ele>140.8</ele>
        <time>2017-02-18T16:06:32Z</time>
      </trkpt>
      <trkpt lat="45.27329" lon="5.63155">
        <ele>140.84</ele>
        <time>2017-02-18T16:06:33Z</time>
      </trkpt>
      <trkpt lat="45.27326" lon="5.63132">
        <ele>141.01</ele>
        <time>2017-02-18T16:06:34Z</time>
      </trkpt>
      <trkpt lat="45.27324" lon="5.63109">
        <ele>141.04</ele>
        <time>2017-02-18T16:06:35Z</time>
      </trkpt>
      <trkpt lat="45.27321" lon="5.63086">
        <ele>141.13</ele>
        <time>2017-02-18T16:06:36Z</time>
      </trkpt>
      <trkpt lat="45.27319" lon="5.63064">
        <ele>141.3</ele>
        <time>2017-02-18T16:06:37Z</time>
      </trkpt>
      <trkpt lat="45.27316" lon="5.63042">
        <ele>141.26</ele>
        <time>2017-02-18T16:06:38Z</time>
      </trkpt>
      <trkpt lat="45.27314" lon="5.63021">
        <ele>141.25</ele>
        <time>2017-02-18T16:06:39Z</time>
      </trkpt>
      <trkpt lat="45.27312" lon="5.63">
        <ele>141.25</ele>
        <time>2017-02-18T16:06:40Z</time>
      </trkpt>
      <trkpt lat="45.2731" lon="5.62978">
        <ele>141.17</ele>
        <time>2017-02-18T16:06:41Z</time>
      </trkpt>
      <trkpt lat="45.27309" lon="5.62958">
        <ele>141.15</ele>
        <time>2017-02-18T16:06:42Z</time>
      </trkpt>
      <trkpt lat="45.27307" lon="5.62937">
        <ele>141.15</ele>
        <time>2017-02-18T16:06:43Z</time>
      </trkpt>
      <trkpt lat="45.27306" lon="5.62916">
        <ele>141.23</ele>
        <time>2017-02-18T16:06:44Z</time>
      </trkpt>
      <trkpt lat="45.27305" lon="5.62895">
        <ele>141.41</ele>
        <time>2017-02-18T16:06:45Z</time>
      </trkpt>
      <trkpt lat="45.27304" lon="5.62875">
        <ele>141.6</ele>
        <time>2017-02-18T16:06:46Z</time>
      </trkpt>
      <trkpt lat="45.27303" lon="5.62855">
        <ele>141.8</ele>
        <time>2017-02-18T16:06:47Z</time>
      </trkpt>
      <trkpt lat="45.27301" lon="5.62835">
        <ele>142.32</ele>
        <time>2017-02-18T16:06:48Z</time>
      </trkpt>
      <trkpt lat="45.27297" lon="5.62817">
        <ele>143.46</ele>
        <time>2017-02-18T16:06:49Z</time>
      </trkpt>
      <trkpt lat="45.27292" lon="5.62802">
        <ele>144.73</ele>
        <time>2017-02-18T16:06:50Z</time>
      </trkpt>
      <trkpt lat="45.27287" lon="5.62788">
        <ele>145.79</ele>
        <time>2017-02-18T16:06:51Z</time>
      </trkpt>
      <trkpt lat="45.27285" lon="5.62774">
        <ele>146.8</ele>
        <time>2017-02-18T16:06:52Z</time>
      </trkpt>
      <trkpt lat="45.27284" lon="5.62761">
        <ele>147.72</ele>
        <time>2017-02-18T16:06:53Z</time>
      </trkpt>
      <trkpt lat="45.27286" lon="5.62748">
        <ele>148.54</ele>
        <time>2017-02-18T16:06:54Z</time>
      </trkpt>
      <trkpt lat="45.2729" lon="5.62734">
        <ele>149.51</ele>
        <time>2017-02-18T16:06:55Z</time>
      </trkpt>
      <trkpt lat="45.27295" lon="5.62723">
        <ele>149.94</ele>
        <time>2017-02-18T16:06:56Z</time>
      </trkpt>
      <trkpt lat="45.27303" lon="5.62713">
        <ele>149.95</ele>
        <time>2017-02-18T16:06:57Z</time>
      </trkpt>
      <trkpt lat="45.27309" lon="5.62703">
        <ele>150.11</ele>
        <time>2017-02-18T16:06:58Z</time>
      </trkpt>
      <trkpt lat="45.27314" lon="5.62692">
        <ele>150.3</ele>
        <time>2017-02-18T16:06:59Z</time>
      </trkpt>
      <trkpt lat="45.27315" lon="5.62679">
        <ele>149.54</ele>
        <time>2017-02-18T16:07:00Z</time>
      </trkpt>
      <trkpt lat="45.27312" lon="5.62668">
        <ele>148.99</ele>
        <time>2017-02-18T16:07:01Z</time>
      </trkpt>
      <trkpt lat="45.27306" lon="5.62658">
        <ele>148.8</ele>
        <time>2017-02-18T16:07:02Z</time>
      </trkpt>
      <trkpt lat="45.27296" lon="5.62652">
        <ele>148.68</ele>
        <time>2017-02-18T16:07:03Z</time>
      </trkpt>
      <trkpt lat="45.27286" lon="5.62647">
        <ele>148.57</ele>
        <time>2017-02-18T16:07:04Z</time>
      </trkpt>
      <trkpt lat="45.27276" lon="5.6264">
        <ele>148.55</ele>
        <time>2017-02-18T16:07:05Z</time>
      </trkpt>
      <trkpt lat="45.27267" lon="5.62628">
        <ele>148.47</ele>
        <time>2017-02-18T16:07:06Z</time>
      </trkpt>
      <trkpt lat="45.27261" lon="5.62613">
        <ele>150.13</ele>
        <time>2017-02-18T16:07:07Z</time>
      </trkpt>
      <trkpt lat="45.27257" lon="5.62597">
        <ele>150.55</ele>
        <time>2017-02-18T16:07:08Z</time>
      </trkpt>
      <trkpt lat="45.27252" lon="5.62579">
        <ele>150.95</ele>
        <time>2017-02-18T16:07:09Z</time>
      </trkpt>
      <trkpt lat="45.27248" lon="5.62562">
        <ele>151.27</ele>
        <time>2017-02-18T16:07:10Z</time>
      </trkpt>
      <trkpt lat="45.27244" lon="5.62545">
        <ele>151.81</ele>
        <time>2017-02-18T16:07:11Z</time>
      </trkpt>
      <trkpt lat="45.2724" lon="5.62529">
        <ele>152</ele>
        <time>2017-02-18T16:07:12Z</time>
      </trkpt>
      <trkpt lat="45.27236" lon="5.62513">
        <ele>151.96</ele>
        <time>2017-02-18T16:07:13Z</time>
      </trkpt>
      <trkpt lat="45.27232" lon="5.62499">
        <ele>152.03</ele>
        <time>2017-02-18T16:07:14Z</time>
      </trkpt>
      <trkpt lat="45.27229" lon="5.62486">
        <ele>151.89</ele>
        <time>2017-02-18T16:07:15Z</time>
      </trkpt>
      <trkpt lat="45.27227" lon="5.62472">
        <ele>151.7</ele>
        <time>2017-02-18T16:07:16Z</time>
      </trkpt>
      <trkpt lat="45.27226" lon="5.62458">
        <ele>151.74</ele>
        <time>2017-02-18T16:07:17Z</time>
      </trkpt>
      <trkpt lat="45.27226" lon="5.62444">
        <ele>151.67</ele>
        <time>2017-02-18T16:07:18Z</time>
      </trkpt>
      <trkpt lat="45.27227" lon="5.62431">
        <ele>151.41</ele>
        <time>2017-02-18T16:07:19Z</time>
      </trkpt>
      <trkpt lat="45.27229" lon="5.6242">
        <ele>151.36</ele>
        <time>2017-02-18T16:07:20Z</time>
      </trkpt>
      <trkpt lat="45.27231" lon="5.62409">
        <ele>150.95</ele>
        <time>2017-02-18T16:07:21Z</time>
      </trkpt>
      <trkpt lat="45.27231" lon="5.62397">
        <ele>150.71</ele>
        <time>2017-02-18T16:07:22Z</time>
      </trkpt>
      <trkpt lat="45.2723" lon="5.62385">
        <ele>150.5</ele>
        <time>2017-02-18T16:07:23Z</time>
      </trkpt>
      <trkpt lat="45.27226" lon="5.62374">
        <ele>150.3</ele>
        <time>2017-02-18T16:07:24Z</time>
      </trkpt>
      <trkpt lat="45.27216" lon="5.62371">
        <ele>149.78</ele>
        <time>2017-02-18T16:07:25Z</time>
      </trkpt>
      <trkpt lat="45.27208" lon="5.62371">
        <ele>149.28</ele>
        <time>2017-02-18T16:07:26Z</time>
      </trkpt>
      <trkpt lat="45.27202" lon="5.62377">
        <ele>149.09</ele>
        <time>2017-02-18T16:07:27Z</time>
      </trkpt>
      <trkpt lat="45.27199" lon="5.62387">
        <ele>148.42</ele>
        <time>2017-02-18T16:07:28Z</time>
      </trkpt>
      <trkpt lat="45.27198" lon="5.624">
        <ele>147.56</ele>
        <time>2017-02-18T16:07:29Z</time>
      </trkpt>
      <trkpt lat="45.272" lon="5.62414">
        <ele>146.83</ele>
        <time>2017-02-18T16:07:30Z</time>
      </trkpt>
      <trkpt lat="45.27206" lon="5.62426">
        <ele>145.97</ele>
        <time>2017-02-18T16:07:31Z</time>
      </trkpt>
      <trkpt lat="45.27212" lon="5.62439">
        <ele>145.23</ele>
        <time>2017-02-18T16:07:32Z</time>
      </trkpt>
      <trkpt lat="45.27217" lon="5.62453">
        <ele>144.61</ele>
        <time>2017-02-18T16:07:33Z</time>
      </trkpt>
      <trkpt lat="45.27219" lon="5.62467">
        <ele>144.08</ele>
        <time>2017-02-18T16:07:34Z</time>
      </trkpt>
      <trkpt lat="45.27221" lon="5.62482">
        <ele>143.66</ele>
        <time>2017-02-18T16:07:35Z</time>
      </trkpt>
      <trkpt lat="45.2722" lon="5.62496">
        <ele>143.33</ele>
        <time>2017-02-18T16:07:36Z</time>
      </trkpt>
      <trkpt lat="45.27217" lon="5.6251">
        <ele>143.19</ele>
        <time>2017-02-18T16:07:37Z</time>
      </trkpt>
      <trkpt lat="45.27212" lon="5.62524">
        <ele>143.16</ele>
        <time>2017-02-18T16:07:38Z</time>
      </trkpt>
      <trkpt lat="45.27204" lon="5.62536">
        <ele>143.07</ele>
        <time>2017-02-18T16:07:39Z</time>
      </trkpt>
      <trkpt lat="45.27194" lon="5.62548">
        <ele>142.81</ele>
        <time>2017-02-18T16:07:40Z</time>
      </trkpt>
      <trkpt lat="45.27183" lon="5.62558">
        <ele>142.52</ele>
        <time>2017-02-18T16:07:41Z</time>
      </trkpt>
      <trkpt lat="45.27171" lon="5.62568">
        <ele>141.98</ele>
        <time>2017-02-18T16:07:42Z</time>
      </trkpt>
      <trkpt lat="45.27158" lon="5.62578">
        <ele>141.48</ele>
        <time>2017-02-18T16:07:43Z</time>
      </trkpt>
      <trkpt lat="45.27145" lon="5.62589">
        <ele>140.97</ele>
        <time>2017-02-18T16:07:44Z</time>
      </trkpt>
      <trkpt lat="45.27131" lon="5.62601">
        <ele>140.47</ele>
        <time>2017-02-18T16:07:45Z</time>
      </trkpt>
      <trkpt lat="45.27117" lon="5.62612">
        <ele>139.97</ele>
        <time>2017-02-18T16:07:46Z</time>
      </trkpt>
      <trkpt lat="45.27103" lon="5.62624">
        <ele>139.47</ele>
        <time>2017-02-18T16:07:47Z</time>
      </trkpt>
      <trkpt lat="45.27088" lon="5.62636">
        <ele>139.29</ele>
        <time>2017-02-18T16:07:48Z</time>
      </trkpt>
      <trkpt lat="45.27072" lon="5.62649">
        <ele>139.1</ele>
        <time>2017-02-18T16:07:49Z</time>
      </trkpt>
      <trkpt lat="45.27056" lon="5.62661">
        <ele>138.66</ele>
        <time>2017-02-18T16:07:50Z</time>
      </trkpt>
      <trkpt lat="45.2704" lon="5.62672">
        <ele>138.41</ele>
        <time>2017-02-18T16:07:51Z</time>
      </trkpt>
      <trkpt lat="45.27022" lon="5.62683">
        <ele>138.44</ele>
        <time>2017-02-18T16:07:52Z</time>
      </trkpt>
      <trkpt lat="45.27005" lon="5.62693">
        <ele>138.85</ele>
        <time>2017-02-18T16:07:53Z</time>
      </trkpt>
      <trkpt lat="45.26987" lon="5.62703">
        <ele>139.09</ele>
        <time>2017-02-18T16:07:54Z</time>
      </trkpt>
      <trkpt lat="45.26968" lon="5.62713">
        <ele>139.3</ele>
        <time>2017-02-18T16:07:55Z</time>
      </trkpt>
      <trkpt lat="45.2695" lon="5.62723">
        <ele>139.34</ele>
        <time>2017-02-18T16:07:56Z</time>
      </trkpt>
      <trkpt lat="45.26931" lon="5.62733">
        <ele>139.43</ele>
        <time>2017-02-18T16:07:57Z</time>
      </trkpt>
      <trkpt lat="45.26912" lon="5.62744">
        <ele>139.44</ele>
        <time>2017-02-18T16:07:58Z</time>
      </trkpt>
      <trkpt lat="45.26893" lon="5.62756">
        <ele>139.37</ele>
        <time>2017-02-18T16:07:59Z</time>
      </trkpt>
      <trkpt lat="45.26874" lon="5.62768">
        <ele>139.35</ele>
        <time>2017-02-18T16:08:00Z</time>
      </trkpt>
      <trkpt lat="45.26854" lon="5.6278">
        <ele>139.43</ele>
        <time>2017-02-18T16:08:01Z</time>
      </trkpt>
      <trkpt lat="45.26833" lon="5.62794">
        <ele>139.45</ele>
        <time>2017-02-18T16:08:02Z</time>
      </trkpt>
      <trkpt lat="45.26811" lon="5.6281">
        <ele>139.45</ele>
        <time>2017-02-18T16:08:03Z</time>
      </trkpt>
      <trkpt lat="45.26788" lon="5.62826">
        <ele>139.53</ele>
        <time>2017-02-18T16:08:04Z</time>
      </trkpt>
      <trkpt lat="45.26764" lon="5.62844">
        <ele>139.94</ele>
        <time>2017-02-18T16:08:05Z</time>
      </trkpt>
      <trkpt lat="45.2674" lon="5.62862">
        <ele>140.35</ele>
        <time>2017-02-18T16:08:06Z</time>
      </trkpt>
      <trkpt lat="45.26717" lon="5.62879">
        <ele>140.59</ele>
        <time>2017-02-18T16:08:07Z</time>
      </trkpt>
      <trkpt lat="45.26693" lon="5.62898">
        <ele>140.88</ele>
        <time>2017-02-18T16:08:08Z</time>
      </trkpt>
      <trkpt lat="45.2667" lon="5.62919">
        <ele>141.81</ele>
        <time>2017-02-18T16:08:09Z</time>
      </trkpt>
      <trkpt lat="45.26646" lon="5.6294">
        <ele>142.16</ele>
        <time>2017-02-18T16:08:10Z</time>
      </trkpt>
      <trkpt lat="45.26623" lon="5.62961">
        <ele>142.31</ele>
        <time>2017-02-18T16:08:11Z</time>
      </trkpt>
      <trkpt lat="45.26601" lon="5.62982">
        <ele>142.34</ele>
        <time>2017-02-18T16:08:12Z</time>
      </trkpt>
      <trkpt lat="45.26578" lon="5.63004">
        <ele>142.35</ele>
        <time>2017-02-18T16:08:13Z</time>
      </trkpt>
      <trkpt lat="45.26556" lon="5.63025">
        <ele>142.43</ele>
        <time>2017-02-18T16:08:14Z</time>
      </trkpt>
      <trkpt lat="45.26534" lon="5.63048">
        <ele>142.44</ele>
        <time>2017-02-18T16:08:15Z</time>
      </trkpt>
      <trkpt lat="45.26513" lon="5.63071">
        <ele>142.53</ele>
        <time>2017-02-18T16:08:16Z</time>
      </trkpt>
      <trkpt lat="45.26492" lon="5.63094">
        <ele>142.46</ele>
        <time>2017-02-18T16:08:17Z</time>
      </trkpt>
      <trkpt lat="45.26472" lon="5.63118">
        <ele>142.37</ele>
        <time>2017-02-18T16:08:18Z</time>
      </trkpt>
      <trkpt lat="45.26452" lon="5.63142">
        <ele>142.03</ele>
        <time>2017-02-18T16:08:19Z</time>
      </trkpt>
      <trkpt lat="45.26432" lon="5.63167">
        <ele>141.57</ele>
        <time>2017-02-18T16:08:20Z</time>
      </trkpt>
      <trkpt lat="45.26412" lon="5.63191">
        <ele>141.23</ele>
        <time>2017-02-18T16:08:21Z</time>
      </trkpt>
      <trkpt lat="45.26392" lon="5.63216">
        <ele>141.17</ele>
        <time>2017-02-18T16:08:22Z</time>
      </trkpt>
      <trkpt lat="45.26372" lon="5.6324">
        <ele>141.63</ele>
        <time>2017-02-18T16:08:23Z</time>
      </trkpt>
      <trkpt lat="45.26352" lon="5.63264">
        <ele>141.81</ele>
        <time>2017-02-18T16:08:24Z</time>
      </trkpt>
      <trkpt lat="45.26333" lon="5.63288">
        <ele>142</ele>
        <time>2017-02-18T16:08:25Z</time>
      </trkpt>
      <trkpt lat="45.26313" lon="5.63312">
        <ele>142.04</ele>
        <time>2017-02-18T16:08:26Z</time>
      </trkpt>
      <trkpt lat="45.26293" lon="5.63336">
        <ele>142.05</ele>
        <time>2017-02-18T16:08:27Z</time>
      </trkpt>
      <trkpt lat="45.26274" lon="5.6336">
        <ele>142.21</ele>
        <time>2017-02-18T16:08:28Z</time>
      </trkpt>
      <trkpt lat="45.26254" lon="5.63384">
        <ele>142.32</ele>
        <time>2017-02-18T16:08:29Z</time>
      </trkpt>
      <trkpt lat="45.26235" lon="5.63408">
        <ele>142.66</ele>
        <time>2017-02-18T16:08:30Z</time>
      </trkpt>
      <trkpt lat="45.26215" lon="5.63432">
        <ele>142.89</ele>
        <time>2017-02-18T16:08:31Z</time>
      </trkpt>
      <trkpt lat="45.26196" lon="5.63457">
        <ele>143.1</ele>
        <time>2017-02-18T16:08:32Z</time>
      </trkpt>
      <trkpt lat="45.26177" lon="5.63481">
        <ele>143.14</ele>
        <time>2017-02-18T16:08:33Z</time>
      </trkpt>
      <trkpt lat="45.26158" lon="5.63506">
        <ele>143.47</ele>
        <time>2017-02-18T16:08:34Z</time>
      </trkpt>
      <trkpt lat="45.26139" lon="5.6353">
        <ele>143.85</ele>
        <time>2017-02-18T16:08:35Z</time>
      </trkpt>
      <trkpt lat="45.26119" lon="5.63554">
        <ele>144.17</ele>
        <time>2017-02-18T16:08:36Z</time>
      </trkpt>
      <trkpt lat="45.261" lon="5.63578">
        <ele>143.75</ele>
        <time>2017-02-18T16:08:37Z</time>
      </trkpt>
      <trkpt lat="45.2608" lon="5.63601">
        <ele>143.11</ele>
        <time>2017-02-18T16:08:38Z</time>
      </trkpt>
      <trkpt lat="45.2606" lon="5.63625">
        <ele>143.06</ele>
        <time>2017-02-18T16:08:39Z</time>
      </trkpt>
      <trkpt lat="45.26041" lon="5.63648">
        <ele>143.13</ele>
        <time>2017-02-18T16:08:40Z</time>
      </trkpt>
      <trkpt lat="45.26021" lon="5.6367">
        <ele>143.23</ele>
        <time>2017-02-18T16:08:41Z</time>
      </trkpt>
      <trkpt lat="45.26001" lon="5.63693">
        <ele>143.48</ele>
        <time>2017-02-18T16:08:42Z</time>
      </trkpt>
      <trkpt lat="45.25982" lon="5.63717">
        <ele>143.62</ele>
        <time>2017-02-18T16:08:43Z</time>
      </trkpt>
      <trkpt lat="45.25964" lon="5.63741">
        <ele>143.8</ele>
        <time>2017-02-18T16:08:44Z</time>
      </trkpt>
      <trkpt lat="45.25946" lon="5.63766">
        <ele>144.08</ele>
        <time>2017-02-18T16:08:45Z</time>
      </trkpt>
      <trkpt lat="45.25928" lon="5.63791">
        <ele>144.14</ele>
        <time>2017-02-18T16:08:46Z</time>
      </trkpt>
      <trkpt lat="45.2591" lon="5.63816">
        <ele>144.23</ele>
        <time>2017-02-18T16:08:47Z</time>
      </trkpt>
      <trkpt lat="45.25893" lon="5.63841">
        <ele>144.08</ele>
        <time>2017-02-18T16:08:48Z</time>
      </trkpt>
      <trkpt lat="45.25876" lon="5.63867">
        <ele>144.14</ele>
        <time>2017-02-18T16:08:49Z</time>
      </trkpt>
      <trkpt lat="45.25859" lon="5.63893">
        <ele>144.15</ele>
        <time>2017-02-18T16:08:50Z</time>
      </trkpt>
      <trkpt lat="45.25842" lon="5.63919">
        <ele>144.23</ele>
        <time>2017-02-18T16:08:51Z</time>
      </trkpt>
      <trkpt lat="45.25826" lon="5.63945">
        <ele>144.24</ele>
        <time>2017-02-18T16:08:52Z</time>
      </trkpt>
      <trkpt lat="45.2581" lon="5.63972">
        <ele>144.01</ele>
        <time>2017-02-18T16:08:53Z</time>
      </trkpt>
      <trkpt lat="45.25795" lon="5.63998">
        <ele>143.64</ele>
        <time>2017-02-18T16:08:54Z</time>
      </trkpt>
      <trkpt lat="45.2578" lon="5.64025">
        <ele>143.49</ele>
        <time>2017-02-18T16:08:55Z</time>
      </trkpt>
      <trkpt lat="45.25765" lon="5.64051">
        <ele>143.62</ele>
        <time>2017-02-18T16:08:56Z</time>
      </trkpt>
      <trkpt lat="45.2575" lon="5.64078">
        <ele>143.72</ele>
        <time>2017-02-18T16:08:57Z</time>
      </trkpt>
      <trkpt lat="45.25736" lon="5.64104">
        <ele>143.82</ele>
        <time>2017-02-18T16:08:58Z</time>
      </trkpt>
      <trkpt lat="45.25722" lon="5.6413">
        <ele>143.84</ele>
        <time>2017-02-18T16:08:59Z</time>
      </trkpt>
      <trkpt lat="45.25708" lon="5.64157">
        <ele>144.01</ele>
        <time>2017-02-18T16:09:00Z</time>
      </trkpt>
      <trkpt lat="45.25694" lon="5.64184">
        <ele>144.04</ele>
        <time>2017-02-18T16:09:01Z</time>
      </trkpt>
      <trkpt lat="45.2568" lon="5.6421">
        <ele>143.97</ele>
        <time>2017-02-18T16:09:02Z</time>
      </trkpt>
      <trkpt lat="45.25666" lon="5.64237">
        <ele>143.71</ele>
        <time>2017-02-18T16:09:03Z</time>
      </trkpt>
      <trkpt lat="45.25652" lon="5.64263">
        <ele>143.58</ele>
        <time>2017-02-18T16:09:04Z</time>
      </trkpt>
      <trkpt lat="45.25639" lon="5.6429">
        <ele>143.72</ele>
        <time>2017-02-18T16:09:05Z</time>
      </trkpt>
      <trkpt lat="45.25624" lon="5.64317">
        <ele>143.74</ele>
        <time>2017-02-18T16:09:06Z</time>
      </trkpt>
      <trkpt lat="45.2561" lon="5.64343">
        <ele>143.99</ele>
        <time>2017-02-18T16:09:07Z</time>
      </trkpt>
      <trkpt lat="45.25596" lon="5.6437">
        <ele>144.04</ele>
        <time>2017-02-18T16:09:08Z</time>
      </trkpt>
      <trkpt lat="45.25582" lon="5.64397">
        <ele>144.21</ele>
        <time>2017-02-18T16:09:09Z</time>
      </trkpt>
      <trkpt lat="45.25567" lon="5.64423">
        <ele>144.48</ele>
        <time>2017-02-18T16:09:10Z</time>
      </trkpt>
      <trkpt lat="45.25552" lon="5.6445">
        <ele>144.7</ele>
        <time>2017-02-18T16:09:11Z</time>
      </trkpt>
      <trkpt lat="45.25537" lon="5.64476">
        <ele>145.14</ele>
        <time>2017-02-18T16:09:12Z</time>
      </trkpt>
      <trkpt lat="45.25522" lon="5.64503">
        <ele>145.47</ele>
        <time>2017-02-18T16:09:13Z</time>
      </trkpt>
      <trkpt lat="45.25506" lon="5.64529">
        <ele>145.69</ele>
        <time>2017-02-18T16:09:14Z</time>
      </trkpt>
      <trkpt lat="45.2549" lon="5.64556">
        <ele>145.98</ele>
        <time>2017-02-18T16:09:15Z</time>
      </trkpt>
      <trkpt lat="45.25474" lon="5.64582">
        <ele>146.11</ele>
        <time>2017-02-18T16:09:16Z</time>
      </trkpt>
      <trkpt lat="45.25457" lon="5.64609">
        <ele>146.22</ele>
        <time>2017-02-18T16:09:17Z</time>
      </trkpt>
      <trkpt lat="45.2544" lon="5.64635">
        <ele>146.48</ele>
        <time>2017-02-18T16:09:18Z</time>
      </trkpt>
      <trkpt lat="45.25423" lon="5.6466">
        <ele>146.86</ele>
        <time>2017-02-18T16:09:19Z</time>
      </trkpt>
      <trkpt lat="45.25405" lon="5.64685">
        <ele>146.85</ele>
        <time>2017-02-18T16:09:20Z</time>
      </trkpt>
      <trkpt lat="45.25388" lon="5.6471">
        <ele>146.85</ele>
        <time>2017-02-18T16:09:21Z</time>
      </trkpt>
      <trkpt lat="45.2537" lon="5.64735">
        <ele>147.17</ele>
        <time>2017-02-18T16:09:22Z</time>
      </trkpt>
      <trkpt lat="45.25352" lon="5.6476">
        <ele>147.47</ele>
        <time>2017-02-18T16:09:23Z</time>
      </trkpt>
      <trkpt lat="45.25335" lon="5.64784">
        <ele>148.25</ele>
        <time>2017-02-18T16:09:24Z</time>
      </trkpt>
      <trkpt lat="45.25318" lon="5.64807">
        <ele>148.49</ele>
        <time>2017-02-18T16:09:25Z</time>
      </trkpt>
      <trkpt lat="45.253" lon="5.64831">
        <ele>148.46</ele>
        <time>2017-02-18T16:09:26Z</time>
      </trkpt>
      <trkpt lat="45.25283" lon="5.64854">
        <ele>148.53</ele>
        <time>2017-02-18T16:09:27Z</time>
      </trkpt>
      <trkpt lat="45.25265" lon="5.64877">
        <ele>148.47</ele>
        <time>2017-02-18T16:09:28Z</time>
      </trkpt>
      <trkpt lat="45.25248" lon="5.649">
        <ele>148.45</ele>
        <time>2017-02-18T16:09:29Z</time>
      </trkpt>
      <trkpt lat="45.2523" lon="5.64923">
        <ele>148.45</ele>
        <time>2017-02-18T16:09:30Z</time>
      </trkpt>
      <trkpt lat="45.25212" lon="5.64946">
        <ele>148.77</ele>
        <time>2017-02-18T16:09:31Z</time>
      </trkpt>
      <trkpt lat="45.25195" lon="5.64969">
        <ele>149.07</ele>
        <time>2017-02-18T16:09:32Z</time>
      </trkpt>
      <trkpt lat="45.25178" lon="5.64992">
        <ele>149.29</ele>
        <time>2017-02-18T16:09:33Z</time>
      </trkpt>
      <trkpt lat="45.2516" lon="5.65016">
        <ele>149.18</ele>
        <time>2017-02-18T16:09:34Z</time>
      </trkpt>
      <trkpt lat="45.25143" lon="5.6504">
        <ele>149.15</ele>
        <time>2017-02-18T16:09:35Z</time>
      </trkpt>
      <trkpt lat="45.25125" lon="5.65063">
        <ele>149.39</ele>
        <time>2017-02-18T16:09:36Z</time>
      </trkpt>
      <trkpt lat="45.25107" lon="5.65087">
        <ele>149.36</ele>
        <time>2017-02-18T16:09:37Z</time>
      </trkpt>
      <trkpt lat="45.2509" lon="5.65111">
        <ele>149.35</ele>
        <time>2017-02-18T16:09:38Z</time>
      </trkpt>
      <trkpt lat="45.25072" lon="5.65134">
        <ele>149.43</ele>
        <time>2017-02-18T16:09:39Z</time>
      </trkpt>
      <trkpt lat="45.25054" lon="5.65157">
        <ele>149.45</ele>
        <time>2017-02-18T16:09:40Z</time>
      </trkpt>
      <trkpt lat="45.25036" lon="5.65181">
        <ele>149.61</ele>
        <time>2017-02-18T16:09:41Z</time>
      </trkpt>
      <trkpt lat="45.25017" lon="5.65204">
        <ele>149.88</ele>
        <time>2017-02-18T16:09:42Z</time>
      </trkpt>
      <trkpt lat="45.24999" lon="5.65226">
        <ele>149.94</ele>
        <time>2017-02-18T16:09:43Z</time>
      </trkpt>
      <trkpt lat="45.2498" lon="5.65249">
        <ele>150.19</ele>
        <time>2017-02-18T16:09:44Z</time>
      </trkpt>
      <trkpt lat="45.24962" lon="5.65271">
        <ele>150.56</ele>
        <time>2017-02-18T16:09:45Z</time>
      </trkpt>
      <trkpt lat="45.24943" lon="5.65294">
        <ele>150.63</ele>
        <time>2017-02-18T16:09:46Z</time>
      </trkpt>
      <trkpt lat="45.24923" lon="5.65316">
        <ele>150.81</ele>
        <time>2017-02-18T16:09:47Z</time>
      </trkpt>
      <trkpt lat="45.24902" lon="5.65339">
        <ele>151.08</ele>
        <time>2017-02-18T16:09:48Z</time>
      </trkpt>
      <trkpt lat="45.2488" lon="5.65361">
        <ele>151.38</ele>
        <time>2017-02-18T16:09:49Z</time>
      </trkpt>
      <trkpt lat="45.24858" lon="5.65383">
        <ele>151.43</ele>
        <time>2017-02-18T16:09:50Z</time>
      </trkpt>
      <trkpt lat="45.24836" lon="5.65403">
        <ele>151.69</ele>
        <time>2017-02-18T16:09:51Z</time>
      </trkpt>
      <trkpt lat="45.24814" lon="5.65424">
        <ele>151.98</ele>
        <time>2017-02-18T16:09:52Z</time>
      </trkpt>
      <trkpt lat="45.24791" lon="5.65443">
        <ele>152.11</ele>
        <time>2017-02-18T16:09:53Z</time>
      </trkpt>
      <trkpt lat="45.24768" lon="5.65461">
        <ele>152.22</ele>
        <time>2017-02-18T16:09:54Z</time>
      </trkpt>
      <trkpt lat="45.24745" lon="5.6548">
        <ele>152.16</ele>
        <time>2017-02-18T16:09:55Z</time>
      </trkpt>
      <trkpt lat="45.24722" lon="5.65498">
        <ele>152.15</ele>
        <time>2017-02-18T16:09:56Z</time>
      </trkpt>
      <trkpt lat="45.24699" lon="5.65515">
        <ele>152.07</ele>
        <time>2017-02-18T16:09:57Z</time>
      </trkpt>
      <trkpt lat="45.24676" lon="5.65531">
        <ele>152.13</ele>
        <time>2017-02-18T16:09:58Z</time>
      </trkpt>
      <trkpt lat="45.24653" lon="5.65548">
        <ele>152.39</ele>
        <time>2017-02-18T16:09:59Z</time>
      </trkpt>
      <trkpt lat="45.2463" lon="5.65564">
        <ele>152.28</ele>
        <time>2017-02-18T16:10:00Z</time>
      </trkpt>
      <trkpt lat="45.24606" lon="5.65581">
        <ele>152.41</ele>
        <time>2017-02-18T16:10:01Z</time>
      </trkpt>
      <trkpt lat="45.24582" lon="5.65597">
        <ele>152.68</ele>
        <time>2017-02-18T16:10:02Z</time>
      </trkpt>
      <trkpt lat="45.24559" lon="5.65613">
        <ele>152.66</ele>
        <time>2017-02-18T16:10:03Z</time>
      </trkpt>
      <trkpt lat="45.24535" lon="5.65629">
        <ele>152.57</ele>
        <time>2017-02-18T16:10:04Z</time>
      </trkpt>
      <trkpt lat="45.24511" lon="5.65646">
        <ele>152.55</ele>
        <time>2017-02-18T16:10:05Z</time>
      </trkpt>
      <trkpt lat="45.24488" lon="5.65663">
        <ele>152.55</ele>
        <time>2017-02-18T16:10:06Z</time>
      </trkpt>
      <trkpt lat="45.24465" lon="5.6568">
        <ele>152.39</ele>
        <time>2017-02-18T16:10:07Z</time>
      </trkpt>
      <trkpt lat="45.24442" lon="5.65697">
        <ele>152.36</ele>
        <time>2017-02-18T16:10:08Z</time>
      </trkpt>
      <trkpt lat="45.24418" lon="5.65714">
        <ele>152.27</ele>
        <time>2017-02-18T16:10:09Z</time>
      </trkpt>
      <trkpt lat="45.24395" lon="5.6573">
        <ele>152.41</ele>
        <time>2017-02-18T16:10:10Z</time>
      </trkpt>
      <trkpt lat="45.24372" lon="5.65747">
        <ele>152.28</ele>
        <time>2017-02-18T16:10:11Z</time>
      </trkpt>
      <trkpt lat="45.24349" lon="5.65763">
        <ele>152.34</ele>
        <time>2017-02-18T16:10:12Z</time>
      </trkpt>
      <trkpt lat="45.24326" lon="5.65779">
        <ele>152.43</ele>
        <time>2017-02-18T16:10:13Z</time>
      </trkpt>
      <trkpt lat="45.24303" lon="5.65796">
        <ele>152.28</ele>
        <time>2017-02-18T16:10:14Z</time>
      </trkpt>
      <trkpt lat="45.2428" lon="5.65812">
        <ele>152.34</ele>
        <time>2017-02-18T16:10:15Z</time>
      </trkpt>
      <trkpt lat="45.24257" lon="5.65829">
        <ele>152.19</ele>
        <time>2017-02-18T16:10:16Z</time>
      </trkpt>
      <trkpt lat="45.24234" lon="5.65846">
        <ele>151.92</ele>
        <time>2017-02-18T16:10:17Z</time>
      </trkpt>
      <trkpt lat="45.24211" lon="5.65863">
        <ele>151.7</ele>
        <time>2017-02-18T16:10:18Z</time>
      </trkpt>
      <trkpt lat="45.24189" lon="5.65879">
        <ele>151.66</ele>
        <time>2017-02-18T16:10:19Z</time>
      </trkpt>
      <trkpt lat="45.24166" lon="5.65895">
        <ele>151.65</ele>
        <time>2017-02-18T16:10:20Z</time>
      </trkpt>
      <trkpt lat="45.24143" lon="5.65912">
        <ele>151.65</ele>
        <time>2017-02-18T16:10:21Z</time>
      </trkpt>
      <trkpt lat="45.2412" lon="5.65928">
        <ele>151.81</ele>
        <time>2017-02-18T16:10:22Z</time>
      </trkpt>
      <trkpt lat="45.24098" lon="5.65945">
        <ele>151.84</ele>
        <time>2017-02-18T16:10:23Z</time>
      </trkpt>
      <trkpt lat="45.24075" lon="5.65961">
        <ele>151.85</ele>
        <time>2017-02-18T16:10:24Z</time>
      </trkpt>
      <trkpt lat="45.24052" lon="5.65977">
        <ele>151.77</ele>
        <time>2017-02-18T16:10:25Z</time>
      </trkpt>
      <trkpt lat="45.24029" lon="5.65993">
        <ele>151.59</ele>
        <time>2017-02-18T16:10:26Z</time>
      </trkpt>
      <trkpt lat="45.24007" lon="5.66009">
        <ele>151.24</ele>
        <time>2017-02-18T16:10:27Z</time>
      </trkpt>
      <trkpt lat="45.23984" lon="5.66024">
        <ele>150.93</ele>
        <time>2017-02-18T16:10:28Z</time>
      </trkpt>
      <trkpt lat="45.23961" lon="5.6604">
        <ele>150.62</ele>
        <time>2017-02-18T16:10:29Z</time>
      </trkpt>
      <trkpt lat="45.23938" lon="5.66055">
        <ele>150.4</ele>
        <time>2017-02-18T16:10:30Z</time>
      </trkpt>
      <trkpt lat="45.23915" lon="5.6607">
        <ele>150.36</ele>
        <time>2017-02-18T16:10:31Z</time>
      </trkpt>
      <trkpt lat="45.23892" lon="5.66084">
        <ele>150.75</ele>
        <time>2017-02-18T16:10:32Z</time>
      </trkpt>
      <trkpt lat="45.23869" lon="5.66099">
        <ele>150.91</ele>
        <time>2017-02-18T16:10:33Z</time>
      </trkpt>
      <trkpt lat="45.23846" lon="5.66113">
        <ele>150.78</ele>
        <time>2017-02-18T16:10:34Z</time>
      </trkpt>
      <trkpt lat="45.23823" lon="5.66127">
        <ele>151</ele>
        <time>2017-02-18T16:10:35Z</time>
      </trkpt>
      <trkpt lat="45.23799" lon="5.66141">
        <ele>151.04</ele>
        <time>2017-02-18T16:10:36Z</time>
      </trkpt>
      <trkpt lat="45.23776" lon="5.66154">
        <ele>150.89</ele>
        <time>2017-02-18T16:10:37Z</time>
      </trkpt>
      <trkpt lat="45.23754" lon="5.66167">
        <ele>150.78</ele>
        <time>2017-02-18T16:10:38Z</time>
      </trkpt>
      <trkpt lat="45.23732" lon="5.66179">
        <ele>150.91</ele>
        <time>2017-02-18T16:10:39Z</time>
      </trkpt>
      <trkpt lat="45.23711" lon="5.66191">
        <ele>150.86</ele>
        <time>2017-02-18T16:10:40Z</time>
      </trkpt>
      <trkpt lat="45.23689" lon="5.66203">
        <ele>151.01</ele>
        <time>2017-02-18T16:10:41Z</time>
      </trkpt>
      <trkpt lat="45.23667" lon="5.66214">
        <ele>151.2</ele>
        <time>2017-02-18T16:10:42Z</time>
      </trkpt>
      <trkpt lat="45.23646" lon="5.66226">
        <ele>151</ele>
        <time>2017-02-18T16:10:43Z</time>
      </trkpt>
      <trkpt lat="45.23625" lon="5.66238">
        <ele>151.12</ele>
        <time>2017-02-18T16:10:44Z</time>
      </trkpt>
      <trkpt lat="45.23604" lon="5.66249">
        <ele>151.3</ele>
        <time>2017-02-18T16:10:45Z</time>
      </trkpt>
      <trkpt lat="45.23584" lon="5.6626">
        <ele>151.5</ele>
        <time>2017-02-18T16:10:46Z</time>
      </trkpt>
      <trkpt lat="45.23563" lon="5.6627">
        <ele>151.86</ele>
        <time>2017-02-18T16:10:47Z</time>
      </trkpt>
      <trkpt lat="45.23542" lon="5.6628">
        <ele>152.17</ele>
        <time>2017-02-18T16:10:48Z</time>
      </trkpt>
      <trkpt lat="45.23522" lon="5.6629">
        <ele>152.23</ele>
        <time>2017-02-18T16:10:49Z</time>
      </trkpt>
      <trkpt lat="45.23501" lon="5.663">
        <ele>152.17</ele>
        <time>2017-02-18T16:10:50Z</time>
      </trkpt>
      <trkpt lat="45.2348" lon="5.6631">
        <ele>152.23</ele>
        <time>2017-02-18T16:10:51Z</time>
      </trkpt>
      <trkpt lat="45.2346" lon="5.6632">
        <ele>151.93</ele>
        <time>2017-02-18T16:10:52Z</time>
      </trkpt>
      <trkpt lat="45.23439" lon="5.6633">
        <ele>151.7</ele>
        <time>2017-02-18T16:10:53Z</time>
      </trkpt>
      <trkpt lat="45.23419" lon="5.6634">
        <ele>151.82</ele>
        <time>2017-02-18T16:10:54Z</time>
      </trkpt>
      <trkpt lat="45.23398" lon="5.66351">
        <ele>151.76</ele>
        <time>2017-02-18T16:10:55Z</time>
      </trkpt>
      <trkpt lat="45.23378" lon="5.66362">
        <ele>151.75</ele>
        <time>2017-02-18T16:10:56Z</time>
      </trkpt>
      <trkpt lat="45.23358" lon="5.66373">
        <ele>151.91</ele>
        <time>2017-02-18T16:10:57Z</time>
      </trkpt>
      <trkpt lat="45.23338" lon="5.66384">
        <ele>152.26</ele>
        <time>2017-02-18T16:10:58Z</time>
      </trkpt>
      <trkpt lat="45.23318" lon="5.66395">
        <ele>152.49</ele>
        <time>2017-02-18T16:10:59Z</time>
      </trkpt>
      <trkpt lat="45.23298" lon="5.66406">
        <ele>152.7</ele>
        <time>2017-02-18T16:11:00Z</time>
      </trkpt>
      <trkpt lat="45.23278" lon="5.66417">
        <ele>152.82</ele>
        <time>2017-02-18T16:11:01Z</time>
      </trkpt>
      <trkpt lat="45.23259" lon="5.66428">
        <ele>152.84</ele>
        <time>2017-02-18T16:11:02Z</time>
      </trkpt>
      <trkpt lat="45.23239" lon="5.66439">
        <ele>152.93</ele>
        <time>2017-02-18T16:11:03Z</time>
      </trkpt>
      <trkpt lat="45.2322" lon="5.66449">
        <ele>153.02</ele>
        <time>2017-02-18T16:11:04Z</time>
      </trkpt>
      <trkpt lat="45.23201" lon="5.66461">
        <ele>153.04</ele>
        <time>2017-02-18T16:11:05Z</time>
      </trkpt>
      <trkpt lat="45.23181" lon="5.66472">
        <ele>152.97</ele>
        <time>2017-02-18T16:11:06Z</time>
      </trkpt>
      <trkpt lat="45.23162" lon="5.66484">
        <ele>153.11</ele>
        <time>2017-02-18T16:11:07Z</time>
      </trkpt>
      <trkpt lat="45.23142" lon="5.66496">
        <ele>152.74</ele>
        <time>2017-02-18T16:11:08Z</time>
      </trkpt>
      <trkpt lat="45.23123" lon="5.66508">
        <ele>152.67</ele>
        <time>2017-02-18T16:11:09Z</time>
      </trkpt>
      <trkpt lat="45.23103" lon="5.6652">
        <ele>152.89</ele>
        <time>2017-02-18T16:11:10Z</time>
      </trkpt>
      <trkpt lat="45.23083" lon="5.66533">
        <ele>152.94</ele>
        <time>2017-02-18T16:11:11Z</time>
      </trkpt>
      <trkpt lat="45.23063" lon="5.66545">
        <ele>153.03</ele>
        <time>2017-02-18T16:11:12Z</time>
      </trkpt>
      <trkpt lat="45.23043" lon="5.66558">
        <ele>153.04</ele>
        <time>2017-02-18T16:11:13Z</time>
      </trkpt>
      <trkpt lat="45.23023" lon="5.66571">
        <ele>153.13</ele>
        <time>2017-02-18T16:11:14Z</time>
      </trkpt>
      <trkpt lat="45.23003" lon="5.66585">
        <ele>153.14</ele>
        <time>2017-02-18T16:11:15Z</time>
      </trkpt>
      <trkpt lat="45.22983" lon="5.66598">
        <ele>153.15</ele>
        <time>2017-02-18T16:11:16Z</time>
      </trkpt>
      <trkpt lat="45.22964" lon="5.66612">
        <ele>153.07</ele>
        <time>2017-02-18T16:11:17Z</time>
      </trkpt>
      <trkpt lat="45.22944" lon="5.66626">
        <ele>153.05</ele>
        <time>2017-02-18T16:11:18Z</time>
      </trkpt>
      <trkpt lat="45.22925" lon="5.6664">
        <ele>153.21</ele>
        <time>2017-02-18T16:11:19Z</time>
      </trkpt>
      <trkpt lat="45.22905" lon="5.66654">
        <ele>153.32</ele>
        <time>2017-02-18T16:11:20Z</time>
      </trkpt>
      <trkpt lat="45.22885" lon="5.66669">
        <ele>153.5</ele>
        <time>2017-02-18T16:11:21Z</time>
      </trkpt>
      <trkpt lat="45.22866" lon="5.66683">
        <ele>153.38</ele>
        <time>2017-02-18T16:11:22Z</time>
      </trkpt>
      <trkpt lat="45.22846" lon="5.66696">
        <ele>153.36</ele>
        <time>2017-02-18T16:11:23Z</time>
      </trkpt>
      <trkpt lat="45.22826" lon="5.66711">
        <ele>153.11</ele>
        <time>2017-02-18T16:11:24Z</time>
      </trkpt>
      <trkpt lat="45.22807" lon="5.66725">
        <ele>153.3</ele>
        <time>2017-02-18T16:11:25Z</time>
      </trkpt>
      <trkpt lat="45.22787" lon="5.6674">
        <ele>153.34</ele>
        <time>2017-02-18T16:11:26Z</time>
      </trkpt>
      <trkpt lat="45.22768" lon="5.66754">
        <ele>153.35</ele>
        <time>2017-02-18T16:11:27Z</time>
      </trkpt>
      <trkpt lat="45.22748" lon="5.66769">
        <ele>153.59</ele>
        <time>2017-02-18T16:11:28Z</time>
      </trkpt>
      <trkpt lat="45.22728" lon="5.66784">
        <ele>154.04</ele>
        <time>2017-02-18T16:11:29Z</time>
      </trkpt>
      <trkpt lat="45.22709" lon="5.66799">
        <ele>154.37</ele>
        <time>2017-02-18T16:11:30Z</time>
      </trkpt>
      <trkpt lat="45.22689" lon="5.66813">
        <ele>154.59</ele>
        <time>2017-02-18T16:11:31Z</time>
      </trkpt>
      <trkpt lat="45.2267" lon="5.66828">
        <ele>154.8</ele>
        <time>2017-02-18T16:11:32Z</time>
      </trkpt>
      <trkpt lat="45.22651" lon="5.66842">
        <ele>155.08</ele>
        <time>2017-02-18T16:11:33Z</time>
      </trkpt>
      <trkpt lat="45.22632" lon="5.66856">
        <ele>155.13</ele>
        <time>2017-02-18T16:11:34Z</time>
      </trkpt>
      <trkpt lat="45.22612" lon="5.66871">
        <ele>155.39</ele>
        <time>2017-02-18T16:11:35Z</time>
      </trkpt>
      <trkpt lat="45.22593" lon="5.66885">
        <ele>155.6</ele>
        <time>2017-02-18T16:11:36Z</time>
      </trkpt>
      <trkpt lat="45.22574" lon="5.669">
        <ele>156.2</ele>
        <time>2017-02-18T16:11:37Z</time>
      </trkpt>
      <trkpt lat="45.22554" lon="5.66914">
        <ele>156.8</ele>
        <time>2017-02-18T16:11:38Z</time>
      </trkpt>
      <trkpt lat="45.22535" lon="5.66928">
        <ele>156.92</ele>
        <time>2017-02-18T16:11:39Z</time>
      </trkpt>
      <trkpt lat="45.22516" lon="5.66942">
        <ele>157.26</ele>
        <time>2017-02-18T16:11:40Z</time>
      </trkpt>
      <trkpt lat="45.22496" lon="5.66957">
        <ele>157.49</ele>
        <time>2017-02-18T16:11:41Z</time>
      </trkpt>
      <trkpt lat="45.22477" lon="5.66971">
        <ele>157.78</ele>
        <time>2017-02-18T16:11:42Z</time>
      </trkpt>
      <trkpt lat="45.22457" lon="5.66986">
        <ele>157.99</ele>
        <time>2017-02-18T16:11:43Z</time>
      </trkpt>
      <trkpt lat="45.22437" lon="5.67001">
        <ele>158.36</ele>
        <time>2017-02-18T16:11:44Z</time>
      </trkpt>
      <trkpt lat="45.22417" lon="5.67015">
        <ele>158.75</ele>
        <time>2017-02-18T16:11:45Z</time>
      </trkpt>
      <trkpt lat="45.22397" lon="5.6703">
        <ele>158.99</ele>
        <time>2017-02-18T16:11:46Z</time>
      </trkpt>
      <trkpt lat="45.22377" lon="5.67045">
        <ele>159.04</ele>
        <time>2017-02-18T16:11:47Z</time>
      </trkpt>
      <trkpt lat="45.22357" lon="5.6706">
        <ele>158.73</ele>
        <time>2017-02-18T16:11:48Z</time>
      </trkpt>
      <trkpt lat="45.22337" lon="5.67075">
        <ele>158.58</ele>
        <time>2017-02-18T16:11:49Z</time>
      </trkpt>
      <trkpt lat="45.22317" lon="5.6709">
        <ele>158.24</ele>
        <time>2017-02-18T16:11:50Z</time>
      </trkpt>
      <trkpt lat="45.22297" lon="5.67106">
        <ele>157.85</ele>
        <time>2017-02-18T16:11:51Z</time>
      </trkpt>
      <trkpt lat="45.22277" lon="5.67121">
        <ele>157.53</ele>
        <time>2017-02-18T16:11:52Z</time>
      </trkpt>
      <trkpt lat="45.22256" lon="5.67136">
        <ele>156.98</ele>
        <time>2017-02-18T16:11:53Z</time>
      </trkpt>
      <trkpt lat="45.22236" lon="5.6715">
        <ele>156.56</ele>
        <time>2017-02-18T16:11:54Z</time>
      </trkpt>
      <trkpt lat="45.22216" lon="5.67165">
        <ele>156.31</ele>
        <time>2017-02-18T16:11:55Z</time>
      </trkpt>
      <trkpt lat="45.22196" lon="5.6718">
        <ele>156.02</ele>
        <time>2017-02-18T16:11:56Z</time>
      </trkpt>
      <trkpt lat="45.22176" lon="5.67195">
        <ele>156.04</ele>
        <time>2017-02-18T16:11:57Z</time>
      </trkpt>
      <trkpt lat="45.22156" lon="5.67209">
        <ele>155.89</ele>
        <time>2017-02-18T16:11:58Z</time>
      </trkpt>
      <trkpt lat="45.22136" lon="5.67224">
        <ele>155.78</ele>
        <time>2017-02-18T16:11:59Z</time>
      </trkpt>
      <trkpt lat="45.22117" lon="5.67239">
        <ele>155.67</ele>
        <time>2017-02-18T16:12:00Z</time>
      </trkpt>
      <trkpt lat="45.22098" lon="5.67254">
        <ele>155.73</ele>
        <time>2017-02-18T16:12:01Z</time>
      </trkpt>
      <trkpt lat="45.22079" lon="5.67269">
        <ele>155.51</ele>
        <time>2017-02-18T16:12:02Z</time>
      </trkpt>
      <trkpt lat="45.2206" lon="5.67285">
        <ele>155.3</ele>
        <time>2017-02-18T16:12:03Z</time>
      </trkpt>
      <trkpt lat="45.22041" lon="5.67302">
        <ele>155.42</ele>
        <time>2017-02-18T16:12:04Z</time>
      </trkpt>
      <trkpt lat="45.22023" lon="5.67319">
        <ele>155.6</ele>
        <time>2017-02-18T16:12:05Z</time>
      </trkpt>
      <trkpt lat="45.22005" lon="5.67336">
        <ele>156.28</ele>
        <time>2017-02-18T16:12:06Z</time>
      </trkpt>
      <trkpt lat="45.21987" lon="5.67353">
        <ele>156.26</ele>
        <time>2017-02-18T16:12:07Z</time>
      </trkpt>
      <trkpt lat="45.21969" lon="5.67371">
        <ele>156.25</ele>
        <time>2017-02-18T16:12:08Z</time>
      </trkpt>
      <trkpt lat="45.21951" lon="5.67389">
        <ele>156.33</ele>
        <time>2017-02-18T16:12:09Z</time>
      </trkpt>
      <trkpt lat="45.21934" lon="5.67407">
        <ele>156.27</ele>
        <time>2017-02-18T16:12:10Z</time>
      </trkpt>
      <trkpt lat="45.21917" lon="5.67426">
        <ele>156.49</ele>
        <time>2017-02-18T16:12:11Z</time>
      </trkpt>
      <trkpt lat="45.219" lon="5.67446">
        <ele>156.54</ele>
        <time>2017-02-18T16:12:12Z</time>
      </trkpt>
      <trkpt lat="45.21883" lon="5.67466">
        <ele>156.47</ele>
        <time>2017-02-18T16:12:13Z</time>
      </trkpt>
      <trkpt lat="45.21867" lon="5.67486">
        <ele>156.45</ele>
        <time>2017-02-18T16:12:14Z</time>
      </trkpt>
      <trkpt lat="45.21851" lon="5.67506">
        <ele>156.21</ele>
        <time>2017-02-18T16:12:15Z</time>
      </trkpt>
      <trkpt lat="45.21835" lon="5.67527">
        <ele>155.76</ele>
        <time>2017-02-18T16:12:16Z</time>
      </trkpt>
      <trkpt lat="45.21819" lon="5.67548">
        <ele>155.19</ele>
        <time>2017-02-18T16:12:17Z</time>
      </trkpt>
      <trkpt lat="45.21804" lon="5.6757">
        <ele>154.68</ele>
        <time>2017-02-18T16:12:18Z</time>
      </trkpt>
      <trkpt lat="45.21788" lon="5.67591">
        <ele>154.17</ele>
        <time>2017-02-18T16:12:19Z</time>
      </trkpt>
      <trkpt lat="45.21774" lon="5.67613">
        <ele>153.83</ele>
        <time>2017-02-18T16:12:20Z</time>
      </trkpt>
      <trkpt lat="45.21759" lon="5.67636">
        <ele>153.77</ele>
        <time>2017-02-18T16:12:21Z</time>
      </trkpt>
      <trkpt lat="45.21744" lon="5.67658">
        <ele>153.83</ele>
        <time>2017-02-18T16:12:22Z</time>
      </trkpt>
      <trkpt lat="45.2173" lon="5.6768">
        <ele>153.93</ele>
        <time>2017-02-18T16:12:23Z</time>
      </trkpt>
      <trkpt lat="45.21715" lon="5.67702">
        <ele>154.18</ele>
        <time>2017-02-18T16:12:24Z</time>
      </trkpt>
      <trkpt lat="45.217" lon="5.67724">
        <ele>154.24</ele>
        <time>2017-02-18T16:12:25Z</time>
      </trkpt>
      <trkpt lat="45.21686" lon="5.67746">
        <ele>154.65</ele>
        <time>2017-02-18T16:12:26Z</time>
      </trkpt>
      <trkpt lat="45.21671" lon="5.67768">
        <ele>154.81</ele>
        <time>2017-02-18T16:12:27Z</time>
      </trkpt>
      <trkpt lat="45.21657" lon="5.6779">
        <ele>155</ele>
        <time>2017-02-18T16:12:28Z</time>
      </trkpt>
      <trkpt lat="45.21642" lon="5.67812">
        <ele>155.6</ele>
        <time>2017-02-18T16:12:29Z</time>
      </trkpt>
      <trkpt lat="45.21628" lon="5.67835">
        <ele>156.2</ele>
        <time>2017-02-18T16:12:30Z</time>
      </trkpt>
      <trkpt lat="45.21613" lon="5.67857">
        <ele>156.72</ele>
        <time>2017-02-18T16:12:31Z</time>
      </trkpt>
      <trkpt lat="45.21599" lon="5.67879">
        <ele>157.7</ele>
        <time>2017-02-18T16:12:32Z</time>
      </trkpt>
      <trkpt lat="45.21584" lon="5.67901">
        <ele>158.06</ele>
        <time>2017-02-18T16:12:33Z</time>
      </trkpt>
      <trkpt lat="45.21569" lon="5.67923">
        <ele>157.73</ele>
        <time>2017-02-18T16:12:34Z</time>
      </trkpt>
      <trkpt lat="45.21554" lon="5.67946">
        <ele>157.35</ele>
        <time>2017-02-18T16:12:35Z</time>
      </trkpt>
      <trkpt lat="45.21539" lon="5.67968">
        <ele>157.11</ele>
        <time>2017-02-18T16:12:36Z</time>
      </trkpt>
      <trkpt lat="45.21524" lon="5.6799">
        <ele>156.9</ele>
        <time>2017-02-18T16:12:37Z</time>
      </trkpt>
      <trkpt lat="45.21509" lon="5.68013">
        <ele>156.62</ele>
        <time>2017-02-18T16:12:38Z</time>
      </trkpt>
      <trkpt lat="45.21495" lon="5.68035">
        <ele>156.48</ele>
        <time>2017-02-18T16:12:39Z</time>
      </trkpt>
      <trkpt lat="45.2148" lon="5.68057">
        <ele>156.14</ele>
        <time>2017-02-18T16:12:40Z</time>
      </trkpt>
      <trkpt lat="45.21466" lon="5.6808">
        <ele>155.99</ele>
        <time>2017-02-18T16:12:41Z</time>
      </trkpt>
      <trkpt lat="45.21451" lon="5.68103">
        <ele>155.64</ele>
        <time>2017-02-18T16:12:42Z</time>
      </trkpt>
      <trkpt lat="45.21438" lon="5.68127">
        <ele>155.25</ele>
        <time>2017-02-18T16:12:43Z</time>
      </trkpt>
      <trkpt lat="45.21424" lon="5.68151">
        <ele>154.85</ele>
        <time>2017-02-18T16:12:44Z</time>
      </trkpt>
      <trkpt lat="45.2141" lon="5.68175">
        <ele>154.53</ele>
        <time>2017-02-18T16:12:45Z</time>
      </trkpt>
      <trkpt lat="45.21397" lon="5.682">
        <ele>154.22</ele>
        <time>2017-02-18T16:12:46Z</time>
      </trkpt>
      <trkpt lat="45.21383" lon="5.68225">
        <ele>153.92</ele>
        <time>2017-02-18T16:12:47Z</time>
      </trkpt>
      <trkpt lat="45.2137" lon="5.6825">
        <ele>153.54</ele>
        <time>2017-02-18T16:12:48Z</time>
      </trkpt>
      <trkpt lat="45.21358" lon="5.68276">
        <ele>153.39</ele>
        <time>2017-02-18T16:12:49Z</time>
      </trkpt>
      <trkpt lat="45.21345" lon="5.68302">
        <ele>153.44</ele>
        <time>2017-02-18T16:12:50Z</time>
      </trkpt>
      <trkpt lat="45.21333" lon="5.68329">
        <ele>153.45</ele>
        <time>2017-02-18T16:12:51Z</time>
      </trkpt>
      <trkpt lat="45.21321" lon="5.68356">
        <ele>153.37</ele>
        <time>2017-02-18T16:12:52Z</time>
      </trkpt>
      <trkpt lat="45.2131" lon="5.68383">
        <ele>153.27</ele>
        <time>2017-02-18T16:12:53Z</time>
      </trkpt>
      <trkpt lat="45.21298" lon="5.6841">
        <ele>153.09</ele>
        <time>2017-02-18T16:12:54Z</time>
      </trkpt>
      <trkpt lat="45.21287" lon="5.68438">
        <ele>152.82</ele>
        <time>2017-02-18T16:12:55Z</time>
      </trkpt>
      <trkpt lat="45.21276" lon="5.68465">
        <ele>152.52</ele>
        <time>2017-02-18T16:12:56Z</time>
      </trkpt>
      <trkpt lat="45.21265" lon="5.68492">
        <ele>152.06</ele>
        <time>2017-02-18T16:12:57Z</time>
      </trkpt>
      <trkpt lat="45.21255" lon="5.68521">
        <ele>151.57</ele>
        <time>2017-02-18T16:12:58Z</time>
      </trkpt>
      <trkpt lat="45.21245" lon="5.6855">
        <ele>151.07</ele>
        <time>2017-02-18T16:12:59Z</time>
      </trkpt>
      <trkpt lat="45.21236" lon="5.6858">
        <ele>150.57</ele>
        <time>2017-02-18T16:13:00Z</time>
      </trkpt>
      <trkpt lat="45.21227" lon="5.68609">
        <ele>149.99</ele>
        <time>2017-02-18T16:13:01Z</time>
      </trkpt>
      <trkpt lat="45.21219" lon="5.6864">
        <ele>150.04</ele>
        <time>2017-02-18T16:13:02Z</time>
      </trkpt>
      <trkpt lat="45.21211" lon="5.6867">
        <ele>150.05</ele>
        <time>2017-02-18T16:13:03Z</time>
      </trkpt>
      <trkpt lat="45.21203" lon="5.687">
        <ele>150.05</ele>
        <time>2017-02-18T16:13:04Z</time>
      </trkpt>
      <trkpt lat="45.21195" lon="5.68731">
        <ele>150.13</ele>
        <time>2017-02-18T16:13:05Z</time>
      </trkpt>
      <trkpt lat="45.21187" lon="5.68761">
        <ele>149.98</ele>
        <time>2017-02-18T16:13:06Z</time>
      </trkpt>
      <trkpt lat="45.2118" lon="5.68792">
        <ele>149.88</ele>
        <time>2017-02-18T16:13:07Z</time>
      </trkpt>
      <trkpt lat="45.21173" lon="5.68824">
        <ele>149.77</ele>
        <time>2017-02-18T16:13:08Z</time>
      </trkpt>
      <trkpt lat="45.21166" lon="5.68856">
        <ele>149.59</ele>
        <time>2017-02-18T16:13:09Z</time>
      </trkpt>
      <trkpt lat="45.2116" lon="5.68889">
        <ele>149.72</ele>
        <time>2017-02-18T16:13:10Z</time>
      </trkpt>
      <trkpt lat="45.21154" lon="5.68921">
        <ele>149.74</ele>
        <time>2017-02-18T16:13:11Z</time>
      </trkpt>
      <trkpt lat="45.21148" lon="5.68953">
        <ele>149.91</ele>
        <time>2017-02-18T16:13:12Z</time>
      </trkpt>
      <trkpt lat="45.21143" lon="5.68985">
        <ele>149.94</ele>
        <time>2017-02-18T16:13:13Z</time>
      </trkpt>
      <trkpt lat="45.21138" lon="5.69016">
        <ele>150.51</ele>
        <time>2017-02-18T16:13:14Z</time>
      </trkpt>
      <trkpt lat="45.21133" lon="5.69047">
        <ele>150.86</ele>
        <time>2017-02-18T16:13:15Z</time>
      </trkpt>
      <trkpt lat="45.21128" lon="5.69078">
        <ele>151.09</ele>
        <time>2017-02-18T16:13:16Z</time>
      </trkpt>
      <trkpt lat="45.21124" lon="5.69108">
        <ele>151.14</ele>
        <time>2017-02-18T16:13:17Z</time>
      </trkpt>
      <trkpt lat="45.21119" lon="5.69139">
        <ele>151.15</ele>
        <time>2017-02-18T16:13:18Z</time>
      </trkpt>
      <trkpt lat="45.21114" lon="5.69169">
        <ele>151.31</ele>
        <time>2017-02-18T16:13:19Z</time>
      </trkpt>
      <trkpt lat="45.2111" lon="5.69199">
        <ele>151.34</ele>
        <time>2017-02-18T16:13:20Z</time>
      </trkpt>
      <trkpt lat="45.21106" lon="5.69229">
        <ele>152.07</ele>
        <time>2017-02-18T16:13:21Z</time>
      </trkpt>
      <trkpt lat="45.21102" lon="5.69259">
        <ele>152.61</ele>
        <time>2017-02-18T16:13:22Z</time>
      </trkpt>
      <trkpt lat="45.21098" lon="5.69289">
        <ele>152.96</ele>
        <time>2017-02-18T16:13:23Z</time>
      </trkpt>
      <trkpt lat="45.21094" lon="5.69318">
        <ele>153.35</ele>
        <time>2017-02-18T16:13:24Z</time>
      </trkpt>
      <trkpt lat="45.2109" lon="5.69348">
        <ele>153.59</ele>
        <time>2017-02-18T16:13:25Z</time>
      </trkpt>
      <trkpt lat="45.21085" lon="5.69378">
        <ele>153.72</ele>
        <time>2017-02-18T16:13:26Z</time>
      </trkpt>
      <trkpt lat="45.2108" lon="5.69407">
        <ele>153.9</ele>
        <time>2017-02-18T16:13:27Z</time>
      </trkpt>
      <trkpt lat="45.21075" lon="5.69436">
        <ele>153.94</ele>
        <time>2017-02-18T16:13:28Z</time>
      </trkpt>
      <trkpt lat="45.2107" lon="5.69465">
        <ele>154.19</ele>
        <time>2017-02-18T16:13:29Z</time>
      </trkpt>
      <trkpt lat="45.21065" lon="5.69494">
        <ele>154.32</ele>
        <time>2017-02-18T16:13:30Z</time>
      </trkpt>
      <trkpt lat="45.21059" lon="5.69522">
        <ele>154.34</ele>
        <time>2017-02-18T16:13:31Z</time>
      </trkpt>
      <trkpt lat="45.21054" lon="5.69551">
        <ele>154.43</ele>
        <time>2017-02-18T16:13:32Z</time>
      </trkpt>
      <trkpt lat="45.21048" lon="5.6958">
        <ele>154.6</ele>
        <time>2017-02-18T16:13:33Z</time>
      </trkpt>
      <trkpt lat="45.21042" lon="5.69608">
        <ele>154.8</ele>
        <time>2017-02-18T16:13:34Z</time>
      </trkpt>
      <trkpt lat="45.21035" lon="5.69636">
        <ele>155.08</ele>
        <time>2017-02-18T16:13:35Z</time>
      </trkpt>
      <trkpt lat="45.21029" lon="5.69664">
        <ele>155.54</ele>
        <time>2017-02-18T16:13:36Z</time>
      </trkpt>
      <trkpt lat="45.21022" lon="5.69692">
        <ele>155.95</ele>
        <time>2017-02-18T16:13:37Z</time>
      </trkpt>
      <trkpt lat="45.21015" lon="5.6972">
        <ele>156.51</ele>
        <time>2017-02-18T16:13:38Z</time>
      </trkpt>
      <trkpt lat="45.21007" lon="5.69747">
        <ele>156.78</ele>
        <time>2017-02-18T16:13:39Z</time>
      </trkpt>
      <trkpt lat="45.20999" lon="5.69775">
        <ele>157.08</ele>
        <time>2017-02-18T16:13:40Z</time>
      </trkpt>
      <trkpt lat="45.20991" lon="5.69802">
        <ele>157.37</ele>
        <time>2017-02-18T16:13:41Z</time>
      </trkpt>
      <trkpt lat="45.20982" lon="5.6983">
        <ele>157.43</ele>
        <time>2017-02-18T16:13:42Z</time>
      </trkpt>
      <trkpt lat="45.20974" lon="5.69858">
        <ele>157.77</ele>
        <time>2017-02-18T16:13:43Z</time>
      </trkpt>
      <trkpt lat="45.20965" lon="5.69885">
        <ele>158.31</ele>
        <time>2017-02-18T16:13:44Z</time>
      </trkpt>
      <trkpt lat="45.20956" lon="5.69912">
        <ele>158.74</ele>
        <time>2017-02-18T16:13:45Z</time>
      </trkpt>
      <trkpt lat="45.20947" lon="5.69939">
        <ele>159.07</ele>
        <time>2017-02-18T16:13:46Z</time>
      </trkpt>
      <trkpt lat="45.20937" lon="5.69967">
        <ele>159.37</ele>
        <time>2017-02-18T16:13:47Z</time>
      </trkpt>
      <trkpt lat="45.20928" lon="5.69994">
        <ele>159.83</ele>
        <time>2017-02-18T16:13:48Z</time>
      </trkpt>
      <trkpt lat="45.20918" lon="5.70021">
        <ele>160.25</ele>
        <time>2017-02-18T16:13:49Z</time>
      </trkpt>
      <trkpt lat="45.20908" lon="5.70048">
        <ele>160.73</ele>
        <time>2017-02-18T16:13:50Z</time>
      </trkpt>
      <trkpt lat="45.20898" lon="5.70075">
        <ele>161.22</ele>
        <time>2017-02-18T16:13:51Z</time>
      </trkpt>
      <trkpt lat="45.20888" lon="5.70102">
        <ele>161.8</ele>
        <time>2017-02-18T16:13:52Z</time>
      </trkpt>
      <trkpt lat="45.20878" lon="5.7013">
        <ele>162.4</ele>
        <time>2017-02-18T16:13:53Z</time>
      </trkpt>
      <trkpt lat="45.20867" lon="5.70157">
        <ele>162.92</ele>
        <time>2017-02-18T16:13:54Z</time>
      </trkpt>
      <trkpt lat="45.20857" lon="5.70184">
        <ele>163.34</ele>
        <time>2017-02-18T16:13:55Z</time>
      </trkpt>
      <trkpt lat="45.20847" lon="5.70211">
        <ele>163.99</ele>
        <time>2017-02-18T16:13:56Z</time>
      </trkpt>
      <trkpt lat="45.20837" lon="5.70237">
        <ele>164.76</ele>
        <time>2017-02-18T16:13:57Z</time>
      </trkpt>
      <trkpt lat="45.20826" lon="5.70263">
        <ele>165.55</ele>
        <time>2017-02-18T16:13:58Z</time>
      </trkpt>
      <trkpt lat="45.20815" lon="5.70289">
        <ele>166.43</ele>
        <time>2017-02-18T16:13:59Z</time>
      </trkpt>
      <trkpt lat="45.20805" lon="5.70315">
        <ele>167.49</ele>
        <time>2017-02-18T16:14:00Z</time>
      </trkpt>
      <trkpt lat="45.20794" lon="5.70341">
        <ele>168.58</ele>
        <time>2017-02-18T16:14:01Z</time>
      </trkpt>
      <trkpt lat="45.20784" lon="5.70366">
        <ele>169.27</ele>
        <time>2017-02-18T16:14:02Z</time>
      </trkpt>
      <trkpt lat="45.20773" lon="5.70392">
        <ele>169.81</ele>
        <time>2017-02-18T16:14:03Z</time>
      </trkpt>
      <trkpt lat="45.20763" lon="5.70418">
        <ele>170.24</ele>
        <time>2017-02-18T16:14:04Z</time>
      </trkpt>
      <trkpt lat="45.20752" lon="5.70444">
        <ele>170.57</ele>
        <time>2017-02-18T16:14:05Z</time>
      </trkpt>
      <trkpt lat="45.20742" lon="5.7047">
        <ele>170.95</ele>
        <time>2017-02-18T16:14:06Z</time>
      </trkpt>
      <trkpt lat="45.20731" lon="5.70496">
        <ele>171.19</ele>
        <time>2017-02-18T16:14:07Z</time>
      </trkpt>
      <trkpt lat="45.2072" lon="5.70522">
        <ele>171.4</ele>
        <time>2017-02-18T16:14:08Z</time>
      </trkpt>
      <trkpt lat="45.2071" lon="5.70548">
        <ele>171.44</ele>
        <time>2017-02-18T16:14:09Z</time>
      </trkpt>
      <trkpt lat="45.20699" lon="5.70575">
        <ele>171.45</ele>
        <time>2017-02-18T16:14:10Z</time>
      </trkpt>
      <trkpt lat="45.20688" lon="5.70601">
        <ele>171.45</ele>
        <time>2017-02-18T16:14:11Z</time>
      </trkpt>
      <trkpt lat="45.20678" lon="5.70627">
        <ele>171.61</ele>
        <time>2017-02-18T16:14:12Z</time>
      </trkpt>
      <trkpt lat="45.20667" lon="5.70653">
        <ele>171.88</ele>
        <time>2017-02-18T16:14:13Z</time>
      </trkpt>
      <trkpt lat="45.20658" lon="5.70677">
        <ele>172.1</ele>
        <time>2017-02-18T16:14:14Z</time>
      </trkpt>
      <trkpt lat="45.20649" lon="5.707">
        <ele>172.14</ele>
        <time>2017-02-18T16:14:15Z</time>
      </trkpt>
      <trkpt lat="45.2064" lon="5.70722">
        <ele>172.07</ele>
        <time>2017-02-18T16:14:16Z</time>
      </trkpt>
      <trkpt lat="45.20631" lon="5.70744">
        <ele>171.89</ele>
        <time>2017-02-18T16:14:17Z</time>
      </trkpt>
      <trkpt lat="45.20622" lon="5.70766">
        <ele>171.7</ele>
        <time>2017-02-18T16:14:18Z</time>
      </trkpt>
      <trkpt lat="45.20613" lon="5.70789">
        <ele>171.42</ele>
        <time>2017-02-18T16:14:19Z</time>
      </trkpt>
      <trkpt lat="45.20605" lon="5.70812">
        <ele>170.96</ele>
        <time>2017-02-18T16:14:20Z</time>
      </trkpt>
      <trkpt lat="45.20596" lon="5.70835">
        <ele>170.39</ele>
        <time>2017-02-18T16:14:21Z</time>
      </trkpt>
      <trkpt lat="45.20588" lon="5.70858">
        <ele>169.96</ele>
        <time>2017-02-18T16:14:22Z</time>
      </trkpt>
      <trkpt lat="45.2058" lon="5.70881">
        <ele>169.23</ele>
        <time>2017-02-18T16:14:23Z</time>
      </trkpt>
      <trkpt lat="45.20572" lon="5.70905">
        <ele>168.21</ele>
        <time>2017-02-18T16:14:24Z</time>
      </trkpt>
      <trkpt lat="45.20564" lon="5.70928">
        <ele>167.36</ele>
        <time>2017-02-18T16:14:25Z</time>
      </trkpt>
      <trkpt lat="45.20557" lon="5.70951">
        <ele>166.63</ele>
        <time>2017-02-18T16:14:26Z</time>
      </trkpt>
      <trkpt lat="45.20549" lon="5.70974">
        <ele>166.01</ele>
        <time>2017-02-18T16:14:27Z</time>
      </trkpt>
      <trkpt lat="45.20541" lon="5.70997">
        <ele>165.48</ele>
        <time>2017-02-18T16:14:28Z</time>
      </trkpt>
      <trkpt lat="45.20532" lon="5.71019">
        <ele>165.14</ele>
        <time>2017-02-18T16:14:29Z</time>
      </trkpt>
      <trkpt lat="45.20524" lon="5.71042">
        <ele>164.67</ele>
        <time>2017-02-18T16:14:30Z</time>
      </trkpt>
      <trkpt lat="45.20515" lon="5.71065">
        <ele>164.25</ele>
        <time>2017-02-18T16:14:31Z</time>
      </trkpt>
      <trkpt lat="45.20506" lon="5.71088">
        <ele>163.93</ele>
        <time>2017-02-18T16:14:32Z</time>
      </trkpt>
      <trkpt lat="45.20496" lon="5.7111">
        <ele>163.79</ele>
        <time>2017-02-18T16:14:33Z</time>
      </trkpt>
      <trkpt lat="45.20485" lon="5.7113">
        <ele>163.68</ele>
        <time>2017-02-18T16:14:34Z</time>
      </trkpt>
      <trkpt lat="45.20473" lon="5.7115">
        <ele>163.65</ele>
        <time>2017-02-18T16:14:35Z</time>
      </trkpt>
      <trkpt lat="45.20461" lon="5.71169">
        <ele>163.73</ele>
        <time>2017-02-18T16:14:36Z</time>
      </trkpt>
      <trkpt lat="45.20448" lon="5.71188">
        <ele>163.83</ele>
        <time>2017-02-18T16:14:37Z</time>
      </trkpt>
      <trkpt lat="45.20435" lon="5.71206">
        <ele>163.92</ele>
        <time>2017-02-18T16:14:38Z</time>
      </trkpt>
      <trkpt lat="45.20421" lon="5.71224">
        <ele>164.26</ele>
        <time>2017-02-18T16:14:39Z</time>
      </trkpt>
      <trkpt lat="45.20408" lon="5.71241">
        <ele>164.41</ele>
        <time>2017-02-18T16:14:40Z</time>
      </trkpt>
      <trkpt lat="45.20395" lon="5.71259">
        <ele>164.68</ele>
        <time>2017-02-18T16:14:41Z</time>
      </trkpt>
      <trkpt lat="45.20381" lon="5.71276">
        <ele>164.82</ele>
        <time>2017-02-18T16:14:42Z</time>
      </trkpt>
      <trkpt lat="45.20368" lon="5.71293">
        <ele>165.08</ele>
        <time>2017-02-18T16:14:43Z</time>
      </trkpt>
      <trkpt lat="45.20355" lon="5.7131">
        <ele>165.3</ele>
        <time>2017-02-18T16:14:44Z</time>
      </trkpt>
      <trkpt lat="45.20341" lon="5.71328">
        <ele>165.1</ele>
        <time>2017-02-18T16:14:45Z</time>
      </trkpt>
      <trkpt lat="45.20328" lon="5.71345">
        <ele>164.74</ele>
        <time>2017-02-18T16:14:46Z</time>
      </trkpt>
      <trkpt lat="45.20315" lon="5.71362">
        <ele>164.83</ele>
        <time>2017-02-18T16:14:47Z</time>
      </trkpt>
      <trkpt lat="45.20301" lon="5.7138">
        <ele>164.84</ele>
        <time>2017-02-18T16:14:48Z</time>
      </trkpt>
      <trkpt lat="45.20288" lon="5.71396">
        <ele>164.61</ele>
        <time>2017-02-18T16:14:49Z</time>
      </trkpt>
      <trkpt lat="45.20274" lon="5.71414">
        <ele>164.56</ele>
        <time>2017-02-18T16:14:50Z</time>
      </trkpt>
      <trkpt lat="45.20261" lon="5.71431">
        <ele>164.55</ele>
        <time>2017-02-18T16:14:51Z</time>
      </trkpt>
      <trkpt lat="45.20247" lon="5.71448">
        <ele>164.47</ele>
        <time>2017-02-18T16:14:52Z</time>
      </trkpt>
      <trkpt lat="45.20234" lon="5.71465">
        <ele>164.29</ele>
        <time>2017-02-18T16:14:53Z</time>
      </trkpt>
      <trkpt lat="45.20221" lon="5.71483">
        <ele>163.7</ele>
        <time>2017-02-18T16:14:54Z</time>
      </trkpt>
      <trkpt lat="45.20207" lon="5.71499">
        <ele>163.5</ele>
        <time>2017-02-18T16:14:55Z</time>
      </trkpt>
      <trkpt lat="45.20194" lon="5.71516">
        <ele>163.14</ele>
        <time>2017-02-18T16:14:56Z</time>
      </trkpt>
      <trkpt lat="45.2018" lon="5.71532">
        <ele>163.39</ele>
        <time>2017-02-18T16:14:57Z</time>
      </trkpt>
      <trkpt lat="45.20166" lon="5.71547">
        <ele>163.52</ele>
        <time>2017-02-18T16:14:58Z</time>
      </trkpt>
      <trkpt lat="45.20151" lon="5.71562">
        <ele>163.7</ele>
        <time>2017-02-18T16:14:59Z</time>
      </trkpt>
      <trkpt lat="45.20136" lon="5.71575">
        <ele>163.98</ele>
        <time>2017-02-18T16:15:00Z</time>
      </trkpt>
      <trkpt lat="45.2012" lon="5.71587">
        <ele>164.28</ele>
        <time>2017-02-18T16:15:01Z</time>
      </trkpt>
      <trkpt lat="45.20104" lon="5.71599">
        <ele>164.65</ele>
        <time>2017-02-18T16:15:02Z</time>
      </trkpt>
      <trkpt lat="45.20088" lon="5.71609">
        <ele>164.81</ele>
        <time>2017-02-18T16:15:03Z</time>
      </trkpt>
      <trkpt lat="45.20071" lon="5.71619">
        <ele>164.68</ele>
        <time>2017-02-18T16:15:04Z</time>
      </trkpt>
      <trkpt lat="45.20055" lon="5.71627">
        <ele>164.9</ele>
        <time>2017-02-18T16:15:05Z</time>
      </trkpt>
      <trkpt lat="45.20038" lon="5.71634">
        <ele>165.34</ele>
        <time>2017-02-18T16:15:06Z</time>
      </trkpt>
      <trkpt lat="45.20021" lon="5.7164">
        <ele>165.83</ele>
        <time>2017-02-18T16:15:07Z</time>
      </trkpt>
      <trkpt lat="45.20003" lon="5.71644">
        <ele>166.16</ele>
        <time>2017-02-18T16:15:08Z</time>
      </trkpt>
      <trkpt lat="45.19986" lon="5.71646">
        <ele>166.39</ele>
        <time>2017-02-18T16:15:09Z</time>
      </trkpt>
      <trkpt lat="45.19968" lon="5.71647">
        <ele>166.44</ele>
        <time>2017-02-18T16:15:10Z</time>
      </trkpt>
      <trkpt lat="45.19951" lon="5.71648">
        <ele>166.53</ele>
        <time>2017-02-18T16:15:11Z</time>
      </trkpt>
      <trkpt lat="45.19933" lon="5.71647">
        <ele>166.54</ele>
        <time>2017-02-18T16:15:12Z</time>
      </trkpt>
      <trkpt lat="45.19915" lon="5.71645">
        <ele>166.71</ele>
        <time>2017-02-18T16:15:13Z</time>
      </trkpt>
      <trkpt lat="45.19898" lon="5.71643">
        <ele>166.74</ele>
        <time>2017-02-18T16:15:14Z</time>
      </trkpt>
      <trkpt lat="45.1988" lon="5.71639">
        <ele>166.91</ele>
        <time>2017-02-18T16:15:15Z</time>
      </trkpt>
      <trkpt lat="45.19863" lon="5.71634">
        <ele>167.02</ele>
        <time>2017-02-18T16:15:16Z</time>
      </trkpt>
      <trkpt lat="45.19845" lon="5.71629">
        <ele>167.12</ele>
        <time>2017-02-18T16:15:17Z</time>
      </trkpt>
      <trkpt lat="45.19828" lon="5.71624">
        <ele>167.14</ele>
        <time>2017-02-18T16:15:18Z</time>
      </trkpt>
      <trkpt lat="45.19812" lon="5.71619">
        <ele>166.91</ele>
        <time>2017-02-18T16:15:19Z</time>
      </trkpt>
      <trkpt lat="45.19798" lon="5.71614">
        <ele>166.46</ele>
        <time>2017-02-18T16:15:20Z</time>
      </trkpt>
      <trkpt lat="45.19785" lon="5.71609">
        <ele>165.57</ele>
        <time>2017-02-18T16:15:21Z</time>
      </trkpt>
      <trkpt lat="45.19773" lon="5.71605">
        <ele>164.51</ele>
        <time>2017-02-18T16:15:22Z</time>
      </trkpt>
      <trkpt lat="45.19762" lon="5.71601">
        <ele>163.58</ele>
        <time>2017-02-18T16:15:23Z</time>
      </trkpt>
      <trkpt lat="45.19751" lon="5.71598">
        <ele>163</ele>
        <time>2017-02-18T16:15:24Z</time>
      </trkpt>
      <trkpt lat="45.19741" lon="5.71595">
        <ele>162.72</ele>
        <time>2017-02-18T16:15:25Z</time>
      </trkpt>
      <trkpt lat="45.19731" lon="5.71593">
        <ele>162.34</ele>
        <time>2017-02-18T16:15:26Z</time>
      </trkpt>
      <trkpt lat="45.19723" lon="5.71591">
        <ele>161.87</ele>
        <time>2017-02-18T16:15:27Z</time>
      </trkpt>
      <trkpt lat="45.19714" lon="5.7159">
        <ele>161.45</ele>
        <time>2017-02-18T16:15:28Z</time>
      </trkpt>
      <trkpt lat="45.19705" lon="5.71589">
        <ele>161.05</ele>
        <time>2017-02-18T16:15:29Z</time>
      </trkpt>
      <trkpt lat="45.19696" lon="5.71588">
        <ele>160.81</ele>
        <time>2017-02-18T16:15:30Z</time>
      </trkpt>
      <trkpt lat="45.19686" lon="5.71587">
        <ele>160.6</ele>
        <time>2017-02-18T16:15:31Z</time>
      </trkpt>
      <trkpt lat="45.19675" lon="5.71587">
        <ele>160.08</ele>
        <time>2017-02-18T16:15:32Z</time>
      </trkpt>
      <trkpt lat="45.19665" lon="5.71587">
        <ele>159.9</ele>
        <time>2017-02-18T16:15:33Z</time>
      </trkpt>
      <trkpt lat="45.19656" lon="5.71588">
        <ele>159.46</ele>
        <time>2017-02-18T16:15:34Z</time>
      </trkpt>
      <trkpt lat="45.19646" lon="5.71589">
        <ele>159.21</ele>
        <time>2017-02-18T16:15:35Z</time>
      </trkpt>
      <trkpt lat="45.19638" lon="5.7159">
        <ele>159</ele>
        <time>2017-02-18T16:15:36Z</time>
      </trkpt>
      <trkpt lat="45.19631" lon="5.71591">
        <ele>158.72</ele>
        <time>2017-02-18T16:15:37Z</time>
      </trkpt>
      <trkpt lat="45.19624" lon="5.71592">
        <ele>158.5</ele>
        <time>2017-02-18T16:15:38Z</time>
      </trkpt>
      <trkpt lat="45.19616" lon="5.71594">
        <ele>158.14</ele>
        <time>2017-02-18T16:15:39Z</time>
      </trkpt>
      <trkpt lat="45.19607" lon="5.71596">
        <ele>157.91</ele>
        <time>2017-02-18T16:15:40Z</time>
      </trkpt>
      <trkpt lat="45.19597" lon="5.71598">
        <ele>157.62</ele>
        <time>2017-02-18T16:15:41Z</time>
      </trkpt>
      <trkpt lat="45.19588" lon="5.71601">
        <ele>157.64</ele>
        <time>2017-02-18T16:15:42Z</time>
      </trkpt>
      <trkpt lat="45.19579" lon="5.71605">
        <ele>157.41</ele>
        <time>2017-02-18T16:15:43Z</time>
      </trkpt>
      <trkpt lat="45.1957" lon="5.71608">
        <ele>157.36</ele>
        <time>2017-02-18T16:15:44Z</time>
      </trkpt>
      <trkpt lat="45.19561" lon="5.71612">
        <ele>157.19</ele>
        <time>2017-02-18T16:15:45Z</time>
      </trkpt>
      <trkpt lat="45.19552" lon="5.71617">
        <ele>157</ele>
        <time>2017-02-18T16:15:46Z</time>
      </trkpt>
      <trkpt lat="45.19544" lon="5.71621">
        <ele>156.8</ele>
        <time>2017-02-18T16:15:47Z</time>
      </trkpt>
      <trkpt lat="45.19537" lon="5.71625">
        <ele>156.44</ele>
        <time>2017-02-18T16:15:48Z</time>
      </trkpt>
      <trkpt lat="45.19529" lon="5.71629">
        <ele>156.29</ele>
        <time>2017-02-18T16:15:49Z</time>
      </trkpt>
      <trkpt lat="45.19523" lon="5.71633">
        <ele>156.18</ele>
        <time>2017-02-18T16:15:50Z</time>
      </trkpt>
      <trkpt lat="45.19516" lon="5.71637">
        <ele>155.99</ele>
        <time>2017-02-18T16:15:51Z</time>
      </trkpt>
      <trkpt lat="45.19508" lon="5.71642">
        <ele>155.96</ele>
        <time>2017-02-18T16:15:52Z</time>
      </trkpt>
      <trkpt lat="45.195" lon="5.71648">
        <ele>155.63</ele>
        <time>2017-02-18T16:15:53Z</time>
      </trkpt>
      <trkpt lat="45.19492" lon="5.71654">
        <ele>155.17</ele>
        <time>2017-02-18T16:15:54Z</time>
      </trkpt>
      <trkpt lat="45.19483" lon="5.7166">
        <ele>154.83</ele>
        <time>2017-02-18T16:15:55Z</time>
      </trkpt>
      <trkpt lat="45.19475" lon="5.71667">
        <ele>154.45</ele>
        <time>2017-02-18T16:15:56Z</time>
      </trkpt>
      <trkpt lat="45.19467" lon="5.71674">
        <ele>154.21</ele>
        <time>2017-02-18T16:15:57Z</time>
      </trkpt>
      <trkpt lat="45.19459" lon="5.71681">
        <ele>154</ele>
        <time>2017-02-18T16:15:58Z</time>
      </trkpt>
      <trkpt lat="45.19452" lon="5.71688">
        <ele>153.72</ele>
        <time>2017-02-18T16:15:59Z</time>
      </trkpt>
      <trkpt lat="45.19445" lon="5.71695">
        <ele>153.34</ele>
        <time>2017-02-18T16:16:00Z</time>
      </trkpt>
      <trkpt lat="45.19439" lon="5.71702">
        <ele>152.79</ele>
        <time>2017-02-18T16:16:01Z</time>
      </trkpt>
      <trkpt lat="45.19433" lon="5.71709">
        <ele>152.68</ele>
        <time>2017-02-18T16:16:02Z</time>
      </trkpt>
      <trkpt lat="45.19428" lon="5.71715">
        <ele>152.57</ele>
        <time>2017-02-18T16:16:03Z</time>
      </trkpt>
      <trkpt lat="45.19424" lon="5.7172">
        <ele>152.55</ele>
        <time>2017-02-18T16:16:04Z</time>
      </trkpt>
      <trkpt lat="45.1942" lon="5.71724">
        <ele>152.47</ele>
        <time>2017-02-18T16:16:05Z</time>
      </trkpt>
      <trkpt lat="45.19418" lon="5.71727">
        <ele>152.53</ele>
        <time>2017-02-18T16:16:06Z</time>
      </trkpt>
      <trkpt lat="45.19415" lon="5.71731">
        <ele>152.71</ele>
        <time>2017-02-18T16:16:07Z</time>
      </trkpt>
      <trkpt lat="45.19412" lon="5.71736">
        <ele>152.82</ele>
        <time>2017-02-18T16:16:08Z</time>
      </trkpt>
      <trkpt lat="45.19409" lon="5.71742">
        <ele>153.16</ele>
        <time>2017-02-18T16:16:09Z</time>
      </trkpt>
      <trkpt lat="45.19406" lon="5.71748">
        <ele>153.39</ele>
        <time>2017-02-18T16:16:10Z</time>
      </trkpt>
      <trkpt lat="45.19403" lon="5.71752">
        <ele>153.84</ele>
        <time>2017-02-18T16:16:11Z</time>
      </trkpt>
      <trkpt lat="45.19401" lon="5.71756">
        <ele>154.01</ele>
        <time>2017-02-18T16:16:12Z</time>
      </trkpt>
      <trkpt lat="45.194" lon="5.71759">
        <ele>154.2</ele>
        <time>2017-02-18T16:16:13Z</time>
      </trkpt>
      <trkpt lat="45.19399" lon="5.71761">
        <ele>154.4</ele>
        <time>2017-02-18T16:16:14Z</time>
      </trkpt>
      <trkpt lat="45.19398" lon="5.71764">
        <ele>154.92</ele>
        <time>2017-02-18T16:16:15Z</time>
      </trkpt>
      <trkpt lat="45.19398" lon="5.71765">
        <ele>155.26</ele>
        <time>2017-02-18T16:16:16Z</time>
      </trkpt>
      <trkpt lat="45.19397" lon="5.71767">
        <ele>155.41</ele>
        <time>2017-02-18T16:16:17Z</time>
      </trkpt>
      <trkpt lat="45.19397" lon="5.7177">
        <ele>155.52</ele>
        <time>2017-02-18T16:16:18Z</time>
      </trkpt>
      <trkpt lat="45.19395" lon="5.71774">
        <ele>155.62</ele>
        <time>2017-02-18T16:16:19Z</time>
      </trkpt>
      <trkpt lat="45.19393" lon="5.71779">
        <ele>155.72</ele>
        <time>2017-02-18T16:16:20Z</time>
      </trkpt>
      <trkpt lat="45.1939" lon="5.71784">
        <ele>155.9</ele>
        <time>2017-02-18T16:16:21Z</time>
      </trkpt>
      <trkpt lat="45.19388" lon="5.7179">
        <ele>156.1</ele>
        <time>2017-02-18T16:16:22Z</time>
      </trkpt>
      <trkpt lat="45.19386" lon="5.71795">
        <ele>156.3</ele>
        <time>2017-02-18T16:16:23Z</time>
      </trkpt>
      <trkpt lat="45.19384" lon="5.71801">
        <ele>156.26</ele>
        <time>2017-02-18T16:16:24Z</time>
      </trkpt>
      <trkpt lat="45.19382" lon="5.71807">
        <ele>156.09</ele>
        <time>2017-02-18T16:16:25Z</time>
      </trkpt>
      <trkpt lat="45.1938" lon="5.71812">
        <ele>156.06</ele>
        <time>2017-02-18T16:16:26Z</time>
      </trkpt>
      <trkpt lat="45.19379" lon="5.71816">
        <ele>156.13</ele>
        <time>2017-02-18T16:16:27Z</time>
      </trkpt>
      <trkpt lat="45.19378" lon="5.7182">
        <ele>155.99</ele>
        <time>2017-02-18T16:16:28Z</time>
      </trkpt>
      <trkpt lat="45.19377" lon="5.71823">
        <ele>155.8</ele>
        <time>2017-02-18T16:16:29Z</time>
      </trkpt>
      <trkpt lat="45.19377" lon="5.71825">
        <ele>156</ele>
        <time>2017-02-18T16:16:30Z</time>
      </trkpt>
      <trkpt lat="45.19376" lon="5.71827">
        <ele>156.2</ele>
        <time>2017-02-18T16:16:31Z</time>
      </trkpt>
      <trkpt lat="45.19376" lon="5.71828">
        <ele>156.72</ele>
        <time>2017-02-18T16:16:32Z</time>
      </trkpt>
      <trkpt lat="45.19376" lon="5.71831">
        <ele>157.14</ele>
        <time>2017-02-18T16:16:33Z</time>
      </trkpt>
      <trkpt lat="45.19375" lon="5.71833">
        <ele>157.55</ele>
        <time>2017-02-18T16:16:34Z</time>
      </trkpt>
      <trkpt lat="45.19375" lon="5.71834">
        <ele>157.71</ele>
        <time>2017-02-18T16:16:35Z</time>
      </trkpt>
      <trkpt lat="45.19374" lon="5.71836">
        <ele>157.82</ele>
        <time>2017-02-18T16:16:36Z</time>
      </trkpt>
      <trkpt lat="45.19374" lon="5.71839">
        <ele>158.4</ele>
        <time>2017-02-18T16:16:37Z</time>
      </trkpt>
      <trkpt lat="45.19373" lon="5.71841">
        <ele>158.68</ele>
        <time>2017-02-18T16:16:38Z</time>
      </trkpt>
      <trkpt lat="45.19373" lon="5.71845">
        <ele>158.98</ele>
        <time>2017-02-18T16:16:39Z</time>
      </trkpt>
      <trkpt lat="45.19373" lon="5.71848">
        <ele>159.03</ele>
        <time>2017-02-18T16:16:40Z</time>
      </trkpt>
      <trkpt lat="45.19372" lon="5.71851">
        <ele>159.13</ele>
        <time>2017-02-18T16:16:41Z</time>
      </trkpt>
      <trkpt lat="45.19372" lon="5.71855">
        <ele>159.3</ele>
        <time>2017-02-18T16:16:42Z</time>
      </trkpt>
      <trkpt lat="45.19371" lon="5.71859">
        <ele>159.5</ele>
        <time>2017-02-18T16:16:43Z</time>
      </trkpt>
      <trkpt lat="45.1937" lon="5.71865">
        <ele>159.54</ele>
        <time>2017-02-18T16:16:44Z</time>
      </trkpt>
      <trkpt lat="45.19368" lon="5.71871">
        <ele>159.55</ele>
        <time>2017-02-18T16:16:45Z</time>
      </trkpt>
      <trkpt lat="45.19366" lon="5.71878">
        <ele>159.47</ele>
        <time>2017-02-18T16:16:46Z</time>
      </trkpt>
      <trkpt lat="45.19366" lon="5.71884">
        <ele>159.45</ele>
        <time>2017-02-18T16:16:47Z</time>
      </trkpt>
      <trkpt lat="45.19366" lon="5.7189">
        <ele>159.61</ele>
        <time>2017-02-18T16:16:48Z</time>
      </trkpt>
      <trkpt lat="45.19366" lon="5.71896">
        <ele>159.4</ele>
        <time>2017-02-18T16:16:49Z</time>
      </trkpt>
      <trkpt lat="45.19368" lon="5.71901">
        <ele>159.12</ele>
        <time>2017-02-18T16:16:50Z</time>
      </trkpt>
      <trkpt lat="45.19371" lon="5.71907">
        <ele>158.82</ele>
        <time>2017-02-18T16:16:51Z</time>
      </trkpt>
      <trkpt lat="45.19375" lon="5.71911">
        <ele>158.76</ele>
        <time>2017-02-18T16:16:52Z</time>
      </trkpt>
      <trkpt lat="45.19378" lon="5.71912">
        <ele>159.15</ele>
        <time>2017-02-18T16:16:53Z</time>
      </trkpt>
      <trkpt lat="45.1938" lon="5.71913">
        <ele>159.55</ele>
        <time>2017-02-18T16:16:54Z</time>
      </trkpt>
      <trkpt lat="45.19382" lon="5.71913">
        <ele>159.79</ele>
        <time>2017-02-18T16:16:55Z</time>
      </trkpt>
      <trkpt lat="45.19382" lon="5.71913">
        <ele>160.24</ele>
        <time>2017-02-18T16:16:56Z</time>
      </trkpt>
      <trkpt lat="45.19381" lon="5.71913">
        <ele>160.57</ele>
        <time>2017-02-18T16:16:57Z</time>
      </trkpt>
      <trkpt lat="45.19381" lon="5.71913">
        <ele>160.63</ele>
        <time>2017-02-18T16:16:58Z</time>
      </trkpt>
      <trkpt lat="45.19381" lon="5.71913">
        <ele>160.65</ele>
        <time>2017-02-18T16:16:59Z</time>
      </trkpt>
      <trkpt lat="45.19381" lon="5.71913">
        <ele>160.65</ele>
        <time>2017-02-18T16:17:00Z</time>
      </trkpt>
      <trkpt lat="45.19383" lon="5.71915">
        <ele>161.29</ele>
        <time>2017-02-18T16:17:01Z</time>
      </trkpt>
      <trkpt lat="45.19389" lon="5.71915">
        <ele>161.58</ele>
        <time>2017-02-18T16:17:02Z</time>
      </trkpt>
      <trkpt lat="45.19396" lon="5.71915">
        <ele>161.87</ele>
        <time>2017-02-18T16:17:03Z</time>
      </trkpt>
      <trkpt lat="45.19404" lon="5.71913">
        <ele>162.17</ele>
        <time>2017-02-18T16:17:04Z</time>
      </trkpt>
      <trkpt lat="45.19412" lon="5.71913">
        <ele>162.47</ele>
        <time>2017-02-18T16:17:05Z</time>
      </trkpt>
      <trkpt lat="45.1942" lon="5.71913">
        <ele>162.61</ele>
        <time>2017-02-18T16:17:06Z</time>
      </trkpt>
      <trkpt lat="45.19428" lon="5.71914">
        <ele>162.4</ele>
        <time>2017-02-18T16:17:07Z</time>
      </trkpt>
      <trkpt lat="45.19436" lon="5.71915">
        <ele>162.36</ele>
        <time>2017-02-18T16:17:08Z</time>
      </trkpt>
      <trkpt lat="45.19444" lon="5.71915">
        <ele>162.43</ele>
        <time>2017-02-18T16:17:09Z</time>
      </trkpt>
      <trkpt lat="45.1945" lon="5.71915">
        <ele>162.61</ele>
        <time>2017-02-18T16:17:10Z</time>
      </trkpt>
      <trkpt lat="45.19456" lon="5.71915">
        <ele>162.96</ele>
        <time>2017-02-18T16:17:11Z</time>
      </trkpt>
      <trkpt lat="45.19462" lon="5.71915">
        <ele>163.27</ele>
        <time>2017-02-18T16:17:12Z</time>
      </trkpt>
      <trkpt lat="45.19468" lon="5.71915">
        <ele>163.49</ele>
        <time>2017-02-18T16:17:13Z</time>
      </trkpt>
      <trkpt lat="45.19473" lon="5.71915">
        <ele>163.86</ele>
        <time>2017-02-18T16:17:14Z</time>
      </trkpt>
      <trkpt lat="45.19479" lon="5.71915">
        <ele>164.17</ele>
        <time>2017-02-18T16:17:15Z</time>
      </trkpt>
      <trkpt lat="45.19485" lon="5.71915">
        <ele>164.39</ele>
        <time>2017-02-18T16:17:16Z</time>
      </trkpt>
      <trkpt lat="45.19493" lon="5.71915">
        <ele>164.6</ele>
        <time>2017-02-18T16:17:17Z</time>
      </trkpt>
      <trkpt lat="45.19501" lon="5.71914">
        <ele>164.96</ele>
        <time>2017-02-18T16:17:18Z</time>
      </trkpt>
      <trkpt lat="45.1951" lon="5.71914">
        <ele>165.27</ele>
        <time>2017-02-18T16:17:19Z</time>
      </trkpt>
      <trkpt lat="45.19519" lon="5.71914">
        <ele>165.09</ele>
        <time>2017-02-18T16:17:20Z</time>
      </trkpt>
      <trkpt lat="45.19528" lon="5.71913">
        <ele>165.22</ele>
        <time>2017-02-18T16:17:21Z</time>
      </trkpt>
      <trkpt lat="45.19537" lon="5.71912">
        <ele>165.32</ele>
        <time>2017-02-18T16:17:22Z</time>
      </trkpt>
      <trkpt lat="45.19546" lon="5.71911">
        <ele>165.42</ele>
        <time>2017-02-18T16:17:23Z</time>
      </trkpt>
      <trkpt lat="45.19556" lon="5.7191">
        <ele>165.6</ele>
        <time>2017-02-18T16:17:24Z</time>
      </trkpt>
      <trkpt lat="45.19566" lon="5.71908">
        <ele>165.64</ele>
        <time>2017-02-18T16:17:25Z</time>
      </trkpt>
      <trkpt lat="45.19575" lon="5.71906">
        <ele>165.65</ele>
        <time>2017-02-18T16:17:26Z</time>
      </trkpt>
      <trkpt lat="45.19585" lon="5.71903">
        <ele>165.65</ele>
        <time>2017-02-18T16:17:27Z</time>
      </trkpt>
      <trkpt lat="45.19595" lon="5.719">
        <ele>165.65</ele>
        <time>2017-02-18T16:17:28Z</time>
      </trkpt>
      <trkpt lat="45.19603" lon="5.71898">
        <ele>165.57</ele>
        <time>2017-02-18T16:17:29Z</time>
      </trkpt>
      <trkpt lat="45.19611" lon="5.71896">
        <ele>165.47</ele>
        <time>2017-02-18T16:17:30Z</time>
      </trkpt>
      <trkpt lat="45.19618" lon="5.71894">
        <ele>165.29</ele>
        <time>2017-02-18T16:17:31Z</time>
      </trkpt>
      <trkpt lat="45.19624" lon="5.71892">
        <ele>165.34</ele>
        <time>2017-02-18T16:17:32Z</time>
      </trkpt>
      <trkpt lat="45.19631" lon="5.71889">
        <ele>165.51</ele>
        <time>2017-02-18T16:17:33Z</time>
      </trkpt>
      <trkpt lat="45.19639" lon="5.71887">
        <ele>165.62</ele>
        <time>2017-02-18T16:17:34Z</time>
      </trkpt>
      <trkpt lat="45.19648" lon="5.71886">
        <ele>165.8</ele>
        <time>2017-02-18T16:17:35Z</time>
      </trkpt>
      <trkpt lat="45.19657" lon="5.71883">
        <ele>166</ele>
        <time>2017-02-18T16:17:36Z</time>
      </trkpt>
      <trkpt lat="45.19668" lon="5.7188">
        <ele>166.28</ele>
        <time>2017-02-18T16:17:37Z</time>
      </trkpt>
      <trkpt lat="45.19679" lon="5.71876">
        <ele>166.34</ele>
        <time>2017-02-18T16:17:38Z</time>
      </trkpt>
      <trkpt lat="45.19692" lon="5.71871">
        <ele>166.59</ele>
        <time>2017-02-18T16:17:39Z</time>
      </trkpt>
      <trkpt lat="45.19704" lon="5.71866">
        <ele>166.8</ele>
        <time>2017-02-18T16:17:40Z</time>
      </trkpt>
      <trkpt lat="45.19717" lon="5.71862">
        <ele>166.76</ele>
        <time>2017-02-18T16:17:41Z</time>
      </trkpt>
      <trkpt lat="45.1973" lon="5.71859">
        <ele>166.83</ele>
        <time>2017-02-18T16:17:42Z</time>
      </trkpt>
      <trkpt lat="45.19743" lon="5.71855">
        <ele>166.93</ele>
        <time>2017-02-18T16:17:43Z</time>
      </trkpt>
      <trkpt lat="45.19755" lon="5.7185">
        <ele>167.1</ele>
        <time>2017-02-18T16:17:44Z</time>
      </trkpt>
      <trkpt lat="45.19769" lon="5.71845">
        <ele>166.98</ele>
        <time>2017-02-18T16:17:45Z</time>
      </trkpt>
      <trkpt lat="45.19782" lon="5.7184">
        <ele>166.88</ele>
        <time>2017-02-18T16:17:46Z</time>
      </trkpt>
      <trkpt lat="45.19795" lon="5.71837">
        <ele>166.85</ele>
        <time>2017-02-18T16:17:47Z</time>
      </trkpt>
      <trkpt lat="45.19808" lon="5.71833">
        <ele>166.85</ele>
        <time>2017-02-18T16:17:48Z</time>
      </trkpt>
      <trkpt lat="45.19821" lon="5.7183">
        <ele>166.69</ele>
        <time>2017-02-18T16:17:49Z</time>
      </trkpt>
      <trkpt lat="45.19834" lon="5.71826">
        <ele>166.5</ele>
        <time>2017-02-18T16:17:50Z</time>
      </trkpt>
      <trkpt lat="45.19848" lon="5.71822">
        <ele>166.54</ele>
        <time>2017-02-18T16:17:51Z</time>
      </trkpt>
      <trkpt lat="45.19863" lon="5.71817">
        <ele>166.79</ele>
        <time>2017-02-18T16:17:52Z</time>
      </trkpt>
      <trkpt lat="45.19878" lon="5.71814">
        <ele>166.92</ele>
        <time>2017-02-18T16:17:53Z</time>
      </trkpt>
      <trkpt lat="45.19893" lon="5.7181">
        <ele>167.18</ele>
        <time>2017-02-18T16:17:54Z</time>
      </trkpt>
      <trkpt lat="45.19907" lon="5.71806">
        <ele>167.48</ele>
        <time>2017-02-18T16:17:55Z</time>
      </trkpt>
      <trkpt lat="45.19921" lon="5.71802">
        <ele>167.53</ele>
        <time>2017-02-18T16:17:56Z</time>
      </trkpt>
      <trkpt lat="45.19935" lon="5.71798">
        <ele>167.63</ele>
        <time>2017-02-18T16:17:57Z</time>
      </trkpt>
      <trkpt lat="45.19948" lon="5.71794">
        <ele>167.56</ele>
        <time>2017-02-18T16:17:58Z</time>
      </trkpt>
      <trkpt lat="45.19961" lon="5.7179">
        <ele>167.39</ele>
        <time>2017-02-18T16:17:59Z</time>
      </trkpt>
      <trkpt lat="45.19974" lon="5.71786">
        <ele>167.36</ele>
        <time>2017-02-18T16:18:00Z</time>
      </trkpt>
      <trkpt lat="45.19987" lon="5.71783">
        <ele>167.27</ele>
        <time>2017-02-18T16:18:01Z</time>
      </trkpt>
      <trkpt lat="45.2" lon="5.7178">
        <ele>167.41</ele>
        <time>2017-02-18T16:18:02Z</time>
      </trkpt>
      <trkpt lat="45.20013" lon="5.71778">
        <ele>167.6</ele>
        <time>2017-02-18T16:18:03Z</time>
      </trkpt>
      <trkpt lat="45.20025" lon="5.71776">
        <ele>167.96</ele>
        <time>2017-02-18T16:18:04Z</time>
      </trkpt>
      <trkpt lat="45.20037" lon="5.71773">
        <ele>167.79</ele>
        <time>2017-02-18T16:18:05Z</time>
      </trkpt>
      <trkpt lat="45.20048" lon="5.71771">
        <ele>167.84</ele>
        <time>2017-02-18T16:18:06Z</time>
      </trkpt>
      <trkpt lat="45.2006" lon="5.71767">
        <ele>168.01</ele>
        <time>2017-02-18T16:18:07Z</time>
      </trkpt>
      <trkpt lat="45.20071" lon="5.71762">
        <ele>168.2</ele>
        <time>2017-02-18T16:18:08Z</time>
      </trkpt>
      <trkpt lat="45.2008" lon="5.71755">
        <ele>168.48</ele>
        <time>2017-02-18T16:18:09Z</time>
      </trkpt>
      <trkpt lat="45.20087" lon="5.71748">
        <ele>168.38</ele>
        <time>2017-02-18T16:18:10Z</time>
      </trkpt>
      <trkpt lat="45.20093" lon="5.71741">
        <ele>168.19</ele>
        <time>2017-02-18T16:18:11Z</time>
      </trkpt>
      <trkpt lat="45.20097" lon="5.71735">
        <ele>168.32</ele>
        <time>2017-02-18T16:18:12Z</time>
      </trkpt>
      <trkpt lat="45.20101" lon="5.7173">
        <ele>168.66</ele>
        <time>2017-02-18T16:18:13Z</time>
      </trkpt>
      <trkpt lat="45.20104" lon="5.71727">
        <ele>168.73</ele>
        <time>2017-02-18T16:18:14Z</time>
      </trkpt>
      <trkpt lat="45.20106" lon="5.71732">
        <ele>168.51</ele>
        <time>2017-02-18T16:18:15Z</time>
      </trkpt>
      <trkpt lat="45.20105" lon="5.71736">
        <ele>168.54</ele>
        <time>2017-02-18T16:18:16Z</time>
      </trkpt>
      <trkpt lat="45.20102" lon="5.71741">
        <ele>168.87</ele>
        <time>2017-02-18T16:18:17Z</time>
      </trkpt>
      <trkpt lat="45.20098" lon="5.71746">
        <ele>169.09</ele>
        <time>2017-02-18T16:18:18Z</time>
      </trkpt>
      <trkpt lat="45.20093" lon="5.71753">
        <ele>169.62</ele>
        <time>2017-02-18T16:18:19Z</time>
      </trkpt>
      <trkpt lat="45.20088" lon="5.71759">
        <ele>170.28</ele>
        <time>2017-02-18T16:18:20Z</time>
      </trkpt>
      <trkpt lat="45.20083" lon="5.71765">
        <ele>170.82</ele>
        <time>2017-02-18T16:18:21Z</time>
      </trkpt>
      <trkpt lat="45.20078" lon="5.7177">
        <ele>171.4</ele>
        <time>2017-02-18T16:18:22Z</time>
      </trkpt>
      <trkpt lat="45.20074" lon="5.71776">
        <ele>171.68</ele>
        <time>2017-02-18T16:18:23Z</time>
      </trkpt>
      <trkpt lat="45.20071" lon="5.71782">
        <ele>171.74</ele>
        <time>2017-02-18T16:18:24Z</time>
      </trkpt>
      <trkpt lat="45.2007" lon="5.71789">
        <ele>171.91</ele>
        <time>2017-02-18T16:18:25Z</time>
      </trkpt>
      <trkpt lat="45.20069" lon="5.71796">
        <ele>172.18</ele>
        <time>2017-02-18T16:18:26Z</time>
      </trkpt>
      <trkpt lat="45.2007" lon="5.71802">
        <ele>172.32</ele>
        <time>2017-02-18T16:18:27Z</time>
      </trkpt>
      <trkpt lat="45.20073" lon="5.71807">
        <ele>172.5</ele>
        <time>2017-02-18T16:18:28Z</time>
      </trkpt>
      <trkpt lat="45.20081" lon="5.71806">
        <ele>172.78</ele>
        <time>2017-02-18T16:18:29Z</time>
      </trkpt>
      <trkpt lat="45.20087" lon="5.71806">
        <ele>172.92</ele>
        <time>2017-02-18T16:18:30Z</time>
      </trkpt>
      <trkpt lat="45.20091" lon="5.71805">
        <ele>173.02</ele>
        <time>2017-02-18T16:18:31Z</time>
      </trkpt>
      <trkpt lat="45.20094" lon="5.71803">
        <ele>173.12</ele>
        <time>2017-02-18T16:18:32Z</time>
      </trkpt>
      <trkpt lat="45.20096" lon="5.71802">
        <ele>173.22</ele>
        <time>2017-02-18T16:18:33Z</time>
      </trkpt>
      <trkpt lat="45.20098" lon="5.71802">
        <ele>173.48</ele>
        <time>2017-02-18T16:18:34Z</time>
      </trkpt>
      <trkpt lat="45.20099" lon="5.718">
        <ele>173.86</ele>
        <time>2017-02-18T16:18:35Z</time>
      </trkpt>
      <trkpt lat="45.201" lon="5.71799">
        <ele>174.17</ele>
        <time>2017-02-18T16:18:36Z</time>
      </trkpt>
      <trkpt lat="45.20101" lon="5.71798">
        <ele>174.63</ele>
        <time>2017-02-18T16:18:37Z</time>
      </trkpt>
      <trkpt lat="45.20102" lon="5.71797">
        <ele>174.81</ele>
        <time>2017-02-18T16:18:38Z</time>
      </trkpt>
      <trkpt lat="45.20102" lon="5.71797">
        <ele>174.76</ele>
        <time>2017-02-18T16:18:39Z</time>
      </trkpt>
      <trkpt lat="45.20102" lon="5.71797">
        <ele>174.75</ele>
        <time>2017-02-18T16:18:40Z</time>
      </trkpt>
      <trkpt lat="45.20102" lon="5.71797">
        <ele>174.75</ele>
        <time>2017-02-18T16:18:41Z</time>
      </trkpt>
      <trkpt lat="45.20102" lon="5.71797">
        <ele>174.75</ele>
        <time>2017-02-18T16:18:42Z</time>
      </trkpt>
      <trkpt lat="45.20102" lon="5.71797">
        <ele>174.75</ele>
        <time>2017-02-18T16:18:43Z</time>
      </trkpt>
      <trkpt lat="45.20102" lon="5.71797">
        <ele>174.75</ele>
        <time>2017-02-18T16:18:44Z</time>
      </trkpt>
      <trkpt lat="45.20102" lon="5.71797">
        <ele>174.75</ele>
        <time>2017-02-18T16:18:45Z</time>
      </trkpt>
      <trkpt lat="45.20102" lon="5.71797">
        <ele>174.75</ele>
        <time>2017-02-18T16:18:46Z</time>
      </trkpt>
      <trkpt lat="45.20102" lon="5.71797">
        <ele>174.75</ele>
        <time>2017-02-18T16:18:47Z</time>
      </trkpt>
      <trkpt lat="45.20102" lon="5.71797">
        <ele>174.75</ele>
        <time>2017-02-18T16:18:48Z</time>
      </trkpt>
      <trkpt lat="45.20102" lon="5.71797">
        <ele>174.75</ele>
        <time>2017-02-18T16:18:49Z</time>
      </trkpt>
      <trkpt lat="45.20102" lon="5.71797">
        <ele>174.75</ele>
        <time>2017-02-18T16:18:50Z</time>
      </trkpt>
      <trkpt lat="45.20102" lon="5.71797">
        <ele>174.75</ele>
        <time>2017-02-18T16:18:51Z</time>
      </trkpt>
      <trkpt lat="45.20102" lon="5.71797">
        <ele>174.75</ele>
        <time>2017-02-18T16:18:52Z</time>
      </trkpt>
      <trkpt lat="45.20102" lon="5.71797">
        <ele>174.75</ele>
        <time>2017-02-18T16:18:53Z</time>
      </trkpt>
      <trkpt lat="45.20102" lon="5.71797">
        <ele>174.75</ele>
        <time>2017-02-18T16:18:54Z</time>
      </trkpt>
      <trkpt lat="45.20102" lon="5.71797">
        <ele>174.75</ele>
        <time>2017-02-18T16:18:55Z</time>
      </trkpt>
      <trkpt lat="45.20102" lon="5.71797">
        <ele>174.75</ele>
        <time>2017-02-18T16:18:56Z</time>
      </trkpt>
      <trkpt lat="45.20102" lon="5.71797">
        <ele>174.75</ele>
        <time>2017-02-18T16:18:57Z</time>
      </trkpt>
      <trkpt lat="45.20102" lon="5.71797">
        <ele>174.75</ele>
        <time>2017-02-18T16:18:58Z</time>
      </trkpt>
      <trkpt lat="45.20102" lon="5.71797">
        <ele>174.75</ele>
        <time>2017-02-18T16:18:59Z</time>
      </trkpt>
      <trkpt lat="45.20102" lon="5.71797">
        <ele>174.75</ele>
        <time>2017-02-18T16:19:00Z</time>
      </trkpt>
      <trkpt lat="45.20102" lon="5.71797">
        <ele>174.75</ele>
        <time>2017-02-18T16:19:01Z</time>
      </trkpt>
      <trkpt lat="45.20106" lon="5.718">
        <ele>174.83</ele>
        <time>2017-02-18T16:19:02Z</time>
      </trkpt>
      <trkpt lat="45.20107" lon="5.71801">
        <ele>174.93</ele>
        <time>2017-02-18T16:19:03Z</time>
      </trkpt>
      <trkpt lat="45.20107" lon="5.71802">
        <ele>174.94</ele>
        <time>2017-02-18T16:19:04Z</time>
      </trkpt>
      <trkpt lat="45.20108" lon="5.71803">
        <ele>175.03</ele>
        <time>2017-02-18T16:19:05Z</time>
      </trkpt>
      <trkpt lat="45.20108" lon="5.71804">
        <ele>175.04</ele>
        <time>2017-02-18T16:19:06Z</time>
      </trkpt>
      <trkpt lat="45.20108" lon="5.71804">
        <ele>175.05</ele>
        <time>2017-02-18T16:19:07Z</time>
      </trkpt>
      <trkpt lat="45.20108" lon="5.71804">
        <ele>175.05</ele>
        <time>2017-02-18T16:19:08Z</time>
      </trkpt>
      <trkpt lat="45.20108" lon="5.71804">
        <ele>175.05</ele>
        <time>2017-02-18T16:19:09Z</time>
      </trkpt>
      <trkpt lat="45.20108" lon="5.71804">
        <ele>175.05</ele>
        <time>2017-02-18T16:19:10Z</time>
      </trkpt>
      <trkpt lat="45.20108" lon="5.71804">
        <ele>175.05</ele>
        <time>2017-02-18T16:19:11Z</time>
      </trkpt>
      <trkpt lat="45.20108" lon="5.71804">
        <ele>175.05</ele>
        <time>2017-02-18T16:19:12Z</time>
      </trkpt>
      <trkpt lat="45.20108" lon="5.71804">
        <ele>175.05</ele>
        <time>2017-02-18T16:19:13Z</time>
      </trkpt>
      <trkpt lat="45.20108" lon="5.71804">
        <ele>175.05</ele>
        <time>2017-02-18T16:19:14Z</time>
      </trkpt>
      <trkpt lat="45.20108" lon="5.71804">
        <ele>175.05</ele>
        <time>2017-02-18T16:19:15Z</time>
      </trkpt>
      <trkpt lat="45.20108" lon="5.71804">
        <ele>175.05</ele>
        <time>2017-02-18T16:19:16Z</time>
      </trkpt>
      <trkpt lat="45.20108" lon="5.71804">
        <ele>175.05</ele>
        <time>2017-02-18T16:19:17Z</time>
      </trkpt>
      <trkpt lat="45.20108" lon="5.71804">
        <ele>175.05</ele>
        <time>2017-02-18T16:19:18Z</time>
      </trkpt>
      <trkpt lat="45.20108" lon="5.71804">
        <ele>175.05</ele>
        <time>2017-02-18T16:19:19Z</time>
      </trkpt>
      <trkpt lat="45.20108" lon="5.71804">
        <ele>175.05</ele>
        <time>2017-02-18T16:19:20Z</time>
      </trkpt>
      <trkpt lat="45.20108" lon="5.71804">
        <ele>175.05</ele>
        <time>2017-02-18T16:19:21Z</time>
      </trkpt>
      <trkpt lat="45.20108" lon="5.71804">
        <ele>175.05</ele>
        <time>2017-02-18T16:19:22Z</time>
      </trkpt>
      <trkpt lat="45.20108" lon="5.71804">
        <ele>175.05</ele>
        <time>2017-02-18T16:19:23Z</time>
      </trkpt>
      <trkpt lat="45.20108" lon="5.71804">
        <ele>175.05</ele>
        <time>2017-02-18T16:19:24Z</time>
      </trkpt>
      <trkpt lat="45.20108" lon="5.71804">
        <ele>175.05</ele>
        <time>2017-02-18T16:19:25Z</time>
      </trkpt>
      <trkpt lat="45.20108" lon="5.71804">
        <ele>175.05</ele>
        <time>2017-02-18T16:19:26Z</time>
      </trkpt>
      <trkpt lat="45.20108" lon="5.71804">
        <ele>175.05</ele>
        <time>2017-02-18T16:19:27Z</time>
      </trkpt>
      <trkpt lat="45.20108" lon="5.71804">
        <ele>175.05</ele>
        <time>2017-02-18T16:19:28Z</time>
      </trkpt>
      <trkpt lat="45.20108" lon="5.71804">
        <ele>175.05</ele>
        <time>2017-02-18T16:19:29Z</time>
      </trkpt>
      <trkpt lat="45.20108" lon="5.71804">
        <ele>175.05</ele>
        <time>2017-02-18T16:19:30Z</time>
      </trkpt>
      <trkpt lat="45.20108" lon="5.71804">
        <ele>175.05</ele>
        <time>2017-02-18T16:19:31Z</time>
      </trkpt>
      <trkpt lat="45.20108" lon="5.71804">
        <ele>175.05</ele>
        <time>2017-02-18T16:19:32Z</time>
      </trkpt>
      <trkpt lat="45.20108" lon="5.71804">
        <ele>175.05</ele>
        <time>2017-02-18T16:19:33Z</time>
      </trkpt>
      <trkpt lat="45.20108" lon="5.71804">
        <ele>175.05</ele>
        <time>2017-02-18T16:19:34Z</time>
      </trkpt>
      <trkpt lat="45.20108" lon="5.71804">
        <ele>175.05</ele>
        <time>2017-02-18T16:19:35Z</time>
      </trkpt>
      <trkpt lat="45.20108" lon="5.71804">
        <ele>175.05</ele>
        <time>2017-02-18T16:19:36Z</time>
      </trkpt>
      <trkpt lat="45.20108" lon="5.71804">
        <ele>175.05</ele>
        <time>2017-02-18T16:19:37Z</time>
      </trkpt>
      <trkpt lat="45.20108" lon="5.71804">
        <ele>175.05</ele>
        <time>2017-02-18T16:19:38Z</time>
      </trkpt>
      <trkpt lat="45.20108" lon="5.71804">
        <ele>175.05</ele>
        <time>2017-02-18T16:19:39Z</time>
      </trkpt>
      <trkpt lat="45.20108" lon="5.71804">
        <ele>175.05</ele>
        <time>2017-02-18T16:19:40Z</time>
      </trkpt>
      <trkpt lat="45.20108" lon="5.71804">
        <ele>175.05</ele>
        <time>2017-02-18T16:19:41Z</time>
      </trkpt>
      <trkpt lat="45.20108" lon="5.71804">
        <ele>175.05</ele>
        <time>2017-02-18T16:19:42Z</time>
      </trkpt>
      <trkpt lat="45.20108" lon="5.71804">
        <ele>175.05</ele>
        <time>2017-02-18T16:19:43Z</time>
      </trkpt>
      <trkpt lat="45.20108" lon="5.71804">
        <ele>175.05</ele>
        <time>2017-02-18T16:19:44Z</time>
      </trkpt>
      <trkpt lat="45.20108" lon="5.71804">
        <ele>175.05</ele>
        <time>2017-02-18T16:19:45Z</time>
      </trkpt>
      <trkpt lat="45.20108" lon="5.71804">
        <ele>175.05</ele>
        <time>2017-02-18T16:19:46Z</time>
      </trkpt>
      <trkpt lat="45.20112" lon="5.71816">
        <ele>174.97</ele>
        <time>2017-02-18T16:19:47Z</time>
      </trkpt>
      <trkpt lat="45.20112" lon="5.71816">
        <ele>174.95</ele>
        <time>2017-02-18T16:19:48Z</time>
      </trkpt>
      <trkpt lat="45.20112" lon="5.71817">
        <ele>174.95</ele>
        <time>2017-02-18T16:19:49Z</time>
      </trkpt>
      <trkpt lat="45.20112" lon="5.71817">
        <ele>174.95</ele>
        <time>2017-02-18T16:19:50Z</time>
      </trkpt>
      <trkpt lat="45.20112" lon="5.71817">
        <ele>174.95</ele>
        <time>2017-02-18T16:19:51Z</time>
      </trkpt>
      <trkpt lat="45.20112" lon="5.71817">
        <ele>174.95</ele>
        <time>2017-02-18T16:19:52Z</time>
      </trkpt>
      <trkpt lat="45.20112" lon="5.71817">
        <ele>174.95</ele>
        <time>2017-02-18T16:19:53Z</time>
      </trkpt>
      <trkpt lat="45.20112" lon="5.71817">
        <ele>174.95</ele>
        <time>2017-02-18T16:19:54Z</time>
      </trkpt>
      <trkpt lat="45.20112" lon="5.71817">
        <ele>174.95</ele>
        <time>2017-02-18T16:19:55Z</time>
      </trkpt>
      <trkpt lat="45.20112" lon="5.71817">
        <ele>174.95</ele>
        <time>2017-02-18T16:19:56Z</time>
      </trkpt>
      <trkpt lat="45.20112" lon="5.71817">
        <ele>174.95</ele>
        <time>2017-02-18T16:19:57Z</time>
      </trkpt>
      <trkpt lat="45.20112" lon="5.71817">
        <ele>174.95</ele>
        <time>2017-02-18T16:19:58Z</time>
      </trkpt>
      <trkpt lat="45.20112" lon="5.71817">
        <ele>174.95</ele>
        <time>2017-02-18T16:19:59Z</time>
      </trkpt>
      <trkpt lat="45.20112" lon="5.71817">
        <ele>174.95</ele>
        <time>2017-02-18T16:20:00Z</time>
      </trkpt>
      <trkpt lat="45.20112" lon="5.71817">
        <ele>174.95</ele>
        <time>2017-02-18T16:20:01Z</time>
      </trkpt>
      <trkpt lat="45.20112" lon="5.71817">
        <ele>174.95</ele>
        <time>2017-02-18T16:20:02Z</time>
      </trkpt>
      <trkpt lat="45.20112" lon="5.71817">
        <ele>174.95</ele>
        <time>2017-02-18T16:20:03Z</time>
      </trkpt>
      <trkpt lat="45.20112" lon="5.71817">
        <ele>174.95</ele>
        <time>2017-02-18T16:20:04Z</time>
      </trkpt>
      <trkpt lat="45.20112" lon="5.71817">
        <ele>174.95</ele>
        <time>2017-02-18T16:20:05Z</time>
      </trkpt>
      <trkpt lat="45.20112" lon="5.71817">
        <ele>174.95</ele>
        <time>2017-02-18T16:20:07Z</time>
      </trkpt>
      <trkpt lat="45.20112" lon="5.71817">
        <ele>174.95</ele>
        <time>2017-02-18T16:20:08Z</time>
      </trkpt>
      <trkpt lat="45.20112" lon="5.71817">
        <ele>174.95</ele>
        <time>2017-02-18T16:20:09Z</time>
      </trkpt>
      <trkpt lat="45.20112" lon="5.71817">
        <ele>174.95</ele>
        <time>2017-02-18T16:20:10Z</time>
      </trkpt>
      <trkpt lat="45.20112" lon="5.71817">
        <ele>174.95</ele>
        <time>2017-02-18T16:20:11Z</time>
      </trkpt>
      <trkpt lat="45.20112" lon="5.71817">
        <ele>174.95</ele>
        <time>2017-02-18T16:20:12Z</time>
      </trkpt>
      <trkpt lat="45.20112" lon="5.71817">
        <ele>174.95</ele>
        <time>2017-02-18T16:20:13Z</time>
      </trkpt>
      <trkpt lat="45.20112" lon="5.71817">
        <ele>174.95</ele>
        <time>2017-02-18T16:20:14Z</time>
      </trkpt>
      <trkpt lat="45.20112" lon="5.71817">
        <ele>174.95</ele>
        <time>2017-02-18T16:20:15Z</time>
      </trkpt>
      <trkpt lat="45.20112" lon="5.71817">
        <ele>174.95</ele>
        <time>2017-02-18T16:20:16Z</time>
      </trkpt>
      <trkpt lat="45.20112" lon="5.71817">
        <ele>174.95</ele>
        <time>2017-02-18T16:20:17Z</time>
      </trkpt>
      <trkpt lat="45.20112" lon="5.71817">
        <ele>174.95</ele>
        <time>2017-02-18T16:20:18Z</time>
      </trkpt>
    </trkseg>
  </trk>
</gpx>